<?xml version='1.0' encoding='UTF-8'?><gpx version="1.1" creator="JPX - https://github.com/jenetics/jpx" xmlns="http://www.topografix.com/GPX/1/1"><trk><trkseg><trkpt lat="45.610689778422156" lon="10.803380255080294"><ele>300.0</ele><time>2026-04-21T11:42:19.997Z</time></trkpt><trkpt lat="45.61061452659948" lon="10.803470941495783"><ele>300.0</ele><time>2026-04-21T11:42:21.998Z</time></trkpt><trkpt lat="45.61052207327545" lon="10.803571112192039"><ele>300.0</ele><time>2026-04-21T11:42:23.998Z</time></trkpt><trkpt lat="45.610461233934714" lon="10.803622735902314"><ele>300.0</ele><time>2026-04-21T11:42:24.998Z</time></trkpt><trkpt lat="45.61040114890622" lon="10.803666070805582"><ele>300.0</ele><time>2026-04-21T11:42:25.999Z</time></trkpt><trkpt lat="45.610341933361596" lon="10.803723696215561"><ele>300.0</ele><time>2026-04-21T11:42:26.999Z</time></trkpt><trkpt lat="45.61028337244344" lon="10.803768533920278"><ele>298.71428571428567</ele><time>2026-04-21T11:42:27.999Z</time></trkpt><trkpt lat="45.61022048116664" lon="10.80381946473061"><ele>297.42857142857144</ele><time>2026-04-21T11:42:28.999Z</time></trkpt><trkpt lat="45.61016178074649" lon="10.803880689556589"><ele>296.1428571428571</ele><time>2026-04-21T11:42:29.999Z</time></trkpt><trkpt lat="45.61010254109009" lon="10.803934790940248"><ele>294.85714285714283</ele><time>2026-04-21T11:42:30.999Z</time></trkpt><trkpt lat="45.61004688252141" lon="10.803995803989668"><ele>293.57142857142856</ele><time>2026-04-21T11:42:32Z</time></trkpt><trkpt lat="45.609991407532846" lon="10.804052922364189"><ele>292.2857142857143</ele><time>2026-04-21T11:42:33Z</time></trkpt><trkpt lat="45.60993078616313" lon="10.8041083495439"><ele>291.0</ele><time>2026-04-21T11:42:34Z</time></trkpt><trkpt lat="45.609872771814764" lon="10.804161679766937"><ele>291.0</ele><time>2026-04-21T11:42:35Z</time></trkpt><trkpt lat="45.60981380269914" lon="10.804213130462516"><ele>291.0</ele><time>2026-04-21T11:42:36Z</time></trkpt><trkpt lat="45.609753200664905" lon="10.804264496603928"><ele>291.0</ele><time>2026-04-21T11:42:37Z</time></trkpt><trkpt lat="45.60969686949342" lon="10.804316016195525"><ele>291.0</ele><time>2026-04-21T11:42:38Z</time></trkpt><trkpt lat="45.6096481007599" lon="10.804375832521375"><ele>291.0</ele><time>2026-04-21T11:42:39Z</time></trkpt><trkpt lat="45.60959581232689" lon="10.80443020104301"><ele>291.0</ele><time>2026-04-21T11:42:40Z</time></trkpt><trkpt lat="45.60953510354166" lon="10.804480045449727"><ele>291.0</ele><time>2026-04-21T11:42:41Z</time></trkpt><trkpt lat="45.609482052434934" lon="10.804530358536342"><ele>290.5</ele><time>2026-04-21T11:42:42Z</time></trkpt><trkpt lat="45.60942608859294" lon="10.80458036019193"><ele>290.0</ele><time>2026-04-21T11:42:43Z</time></trkpt><trkpt lat="45.60936103894325" lon="10.804631733504317"><ele>289.5</ele><time>2026-04-21T11:42:45.001Z</time></trkpt><trkpt lat="45.609297949305166" lon="10.804568013845747"><ele>289.0</ele><time>2026-04-21T11:42:47.001Z</time></trkpt><trkpt lat="45.60923248768257" lon="10.804432698283335"><ele>288.5</ele><time>2026-04-21T11:42:49.001Z</time></trkpt><trkpt lat="45.6091845641227" lon="10.804365560365726"><ele>288.0</ele><time>2026-04-21T11:42:50.001Z</time></trkpt><trkpt lat="45.609133310066674" lon="10.804289793500493"><ele>288.0</ele><time>2026-04-21T11:42:51.001Z</time></trkpt><trkpt lat="45.60907476055073" lon="10.804226325038993"><ele>288.0</ele><time>2026-04-21T11:42:52.001Z</time></trkpt><trkpt lat="45.609018480752596" lon="10.804151210241933"><ele>288.0</ele><time>2026-04-21T11:42:53.001Z</time></trkpt><trkpt lat="45.608963536291114" lon="10.804088934535962"><ele>288.0</ele><time>2026-04-21T11:42:54.001Z</time></trkpt><trkpt lat="45.608904963087966" lon="10.804019941235715"><ele>288.0</ele><time>2026-04-21T11:42:55.001Z</time></trkpt><trkpt lat="45.60884957869243" lon="10.803939324067422"><ele>288.0</ele><time>2026-04-21T11:42:56.001Z</time></trkpt><trkpt lat="45.6088043815806" lon="10.803845421162793"><ele>288.00000000000006</ele><time>2026-04-21T11:42:57.001Z</time></trkpt><trkpt lat="45.608764475009146" lon="10.803753473931438"><ele>288.0</ele><time>2026-04-21T11:42:58.001Z</time></trkpt><trkpt lat="45.608722610192316" lon="10.803664380090586"><ele>288.0</ele><time>2026-04-21T11:42:59.001Z</time></trkpt><trkpt lat="45.60868471601314" lon="10.803576495586166"><ele>288.0</ele><time>2026-04-21T11:43:00.001Z</time></trkpt><trkpt lat="45.60864760049817" lon="10.803481789128632"><ele>288.0</ele><time>2026-04-21T11:43:01.001Z</time></trkpt><trkpt lat="45.60862114536383" lon="10.803386908152046"><ele>288.00000000000006</ele><time>2026-04-21T11:43:02.001Z</time></trkpt><trkpt lat="45.60859215568262" lon="10.803291760390932"><ele>288.0</ele><time>2026-04-21T11:43:03.001Z</time></trkpt><trkpt lat="45.60855413657644" lon="10.803190081399672"><ele>287.28571428571433</ele><time>2026-04-21T11:43:04.001Z</time></trkpt><trkpt lat="45.60852394104644" lon="10.803095735216303"><ele>286.57142857142856</ele><time>2026-04-21T11:43:05.001Z</time></trkpt><trkpt lat="45.608493213491066" lon="10.803008531428265"><ele>285.8571428571429</ele><time>2026-04-21T11:43:06.001Z</time></trkpt><trkpt lat="45.60845864269126" lon="10.802917448373634"><ele>285.14285714285717</ele><time>2026-04-21T11:43:07.001Z</time></trkpt><trkpt lat="45.60841960525984" lon="10.80282306929055"><ele>284.42857142857144</ele><time>2026-04-21T11:43:08.001Z</time></trkpt><trkpt lat="45.608393004911385" lon="10.802722767347575"><ele>283.7142857142857</ele><time>2026-04-21T11:43:09.001Z</time></trkpt><trkpt lat="45.60836029363049" lon="10.802626837309107"><ele>283.0</ele><time>2026-04-21T11:43:10.001Z</time></trkpt><trkpt lat="45.60832072743492" lon="10.80253374018099"><ele>283.0</ele><time>2026-04-21T11:43:11.001Z</time></trkpt><trkpt lat="45.60828605395714" lon="10.802439095205662"><ele>283.0</ele><time>2026-04-21T11:43:12.001Z</time></trkpt><trkpt lat="45.6082486329442" lon="10.802343963027237"><ele>283.0</ele><time>2026-04-21T11:43:13.001Z</time></trkpt><trkpt lat="45.60821372689142" lon="10.802248953260703"><ele>283.0</ele><time>2026-04-21T11:43:14.001Z</time></trkpt><trkpt lat="45.60817448378762" lon="10.802157065590519"><ele>283.0</ele><time>2026-04-21T11:43:15.001Z</time></trkpt><trkpt lat="45.60812400497375" lon="10.802080939717271"><ele>283.0</ele><time>2026-04-21T11:43:16.001Z</time></trkpt><trkpt lat="45.60807304467223" lon="10.801997771767287"><ele>283.0</ele><time>2026-04-21T11:43:17.001Z</time></trkpt><trkpt lat="45.608023581423225" lon="10.801920196649812"><ele>283.0</ele><time>2026-04-21T11:43:18.001Z</time></trkpt><trkpt lat="45.607975089397534" lon="10.801846268784729"><ele>283.0</ele><time>2026-04-21T11:43:19.001Z</time></trkpt><trkpt lat="45.60792568468249" lon="10.80176597087001"><ele>283.0</ele><time>2026-04-21T11:43:20.001Z</time></trkpt><trkpt lat="45.60787568953327" lon="10.801691088215819"><ele>283.0</ele><time>2026-04-21T11:43:21.001Z</time></trkpt><trkpt lat="45.60783021843993" lon="10.801608781187978"><ele>283.0</ele><time>2026-04-21T11:43:22.001Z</time></trkpt><trkpt lat="45.60778511583708" lon="10.80152495512195"><ele>283.0</ele><time>2026-04-21T11:43:23.001Z</time></trkpt><trkpt lat="45.607738955694295" lon="10.801436621930577"><ele>282.3333333333333</ele><time>2026-04-21T11:43:24.001Z</time></trkpt><trkpt lat="45.607690871984076" lon="10.801350201340476"><ele>281.66666666666663</ele><time>2026-04-21T11:43:25.001Z</time></trkpt><trkpt lat="45.607645756316145" lon="10.801272081034442"><ele>281.0</ele><time>2026-04-21T11:43:26.001Z</time></trkpt><trkpt lat="45.607604023633876" lon="10.80118900326608"><ele>280.3333333333333</ele><time>2026-04-21T11:43:27.001Z</time></trkpt><trkpt lat="45.60755467587215" lon="10.801101859110423"><ele>279.6666666666667</ele><time>2026-04-21T11:43:28.001Z</time></trkpt><trkpt lat="45.60750514124565" lon="10.801015426437907"><ele>279.0</ele><time>2026-04-21T11:43:29.001Z</time></trkpt><trkpt lat="45.60745466206632" lon="10.800929505913386"><ele>278.6666666666667</ele><time>2026-04-21T11:43:30.001Z</time></trkpt><trkpt lat="45.607402791572326" lon="10.800848624678178"><ele>278.3333333333333</ele><time>2026-04-21T11:43:31.001Z</time></trkpt><trkpt lat="45.60735560031353" lon="10.800766914204956"><ele>278.0</ele><time>2026-04-21T11:43:32.001Z</time></trkpt><trkpt lat="45.60730370214097" lon="10.800688905390269"><ele>277.66666666666663</ele><time>2026-04-21T11:43:33.001Z</time></trkpt><trkpt lat="45.60725268303956" lon="10.800606047083136"><ele>277.3333333333333</ele><time>2026-04-21T11:43:34.001Z</time></trkpt><trkpt lat="45.607213234672365" lon="10.800522989485648"><ele>277.0</ele><time>2026-04-21T11:43:35.001Z</time></trkpt><trkpt lat="45.60716794337065" lon="10.800432652648446"><ele>277.0</ele><time>2026-04-21T11:43:36.001Z</time></trkpt><trkpt lat="45.607124415488535" lon="10.800353021822566"><ele>277.0</ele><time>2026-04-21T11:43:37.001Z</time></trkpt><trkpt lat="45.607082140355715" lon="10.800270375732149"><ele>277.0</ele><time>2026-04-21T11:43:38.001Z</time></trkpt><trkpt lat="45.607031421971705" lon="10.800183446694048"><ele>277.0</ele><time>2026-04-21T11:43:39.001Z</time></trkpt><trkpt lat="45.60698856685679" lon="10.800102269403375"><ele>277.0</ele><time>2026-04-21T11:43:40.001Z</time></trkpt><trkpt lat="45.60694553716851" lon="10.800015498152678"><ele>277.0</ele><time>2026-04-21T11:43:41.001Z</time></trkpt><trkpt lat="45.606908468749886" lon="10.79991994697806"><ele>277.0</ele><time>2026-04-21T11:43:42.001Z</time></trkpt><trkpt lat="45.60688853920081" lon="10.799814022949413"><ele>276.57142857142856</ele><time>2026-04-21T11:43:43.001Z</time></trkpt><trkpt lat="45.606876760064644" lon="10.79971864548313"><ele>276.1428571428571</ele><time>2026-04-21T11:43:44.001Z</time></trkpt><trkpt lat="45.60687999325948" lon="10.79960846852748"><ele>275.7142857142857</ele><time>2026-04-21T11:43:45.001Z</time></trkpt><trkpt lat="45.60687594765263" lon="10.799503922304192"><ele>275.2857142857143</ele><time>2026-04-21T11:43:46.001Z</time></trkpt><trkpt lat="45.606869230994505" lon="10.79940633099733"><ele>274.8571428571429</ele><time>2026-04-21T11:43:47.003Z</time></trkpt><trkpt lat="45.60686102538613" lon="10.799308149260154"><ele>274.42857142857144</ele><time>2026-04-21T11:43:48.003Z</time></trkpt><trkpt lat="45.60685412362947" lon="10.799205220705362"><ele>274.0</ele><time>2026-04-21T11:43:49.003Z</time></trkpt><trkpt lat="45.60685007859282" lon="10.799103675328626"><ele>273.8333333333333</ele><time>2026-04-21T11:43:50.002Z</time></trkpt><trkpt lat="45.60683916303368" lon="10.79899874021774"><ele>273.66666666666663</ele><time>2026-04-21T11:43:51.002Z</time></trkpt><trkpt lat="45.606829509161315" lon="10.798891186779445"><ele>273.5</ele><time>2026-04-21T11:43:52.002Z</time></trkpt><trkpt lat="45.606827380222335" lon="10.798788560520661"><ele>273.3333333333333</ele><time>2026-04-21T11:43:53.002Z</time></trkpt><trkpt lat="45.606820060712515" lon="10.798685929130299"><ele>273.1666666666667</ele><time>2026-04-21T11:43:54.002Z</time></trkpt><trkpt lat="45.60680890684128" lon="10.798571512879516"><ele>273.0</ele><time>2026-04-21T11:43:55.002Z</time></trkpt><trkpt lat="45.60680605701763" lon="10.79846202961889"><ele>272.6666666666667</ele><time>2026-04-21T11:43:56.002Z</time></trkpt><trkpt lat="45.60679370812135" lon="10.798351068391762"><ele>272.3333333333333</ele><time>2026-04-21T11:43:57.002Z</time></trkpt><trkpt lat="45.60677479868796" lon="10.798242017893454"><ele>272.0</ele><time>2026-04-21T11:43:58.002Z</time></trkpt><trkpt lat="45.606756559135114" lon="10.798132579529296"><ele>271.66666666666663</ele><time>2026-04-21T11:43:59.002Z</time></trkpt><trkpt lat="45.60673749840068" lon="10.79802331951491"><ele>271.3333333333333</ele><time>2026-04-21T11:44:00.002Z</time></trkpt><trkpt lat="45.60672050238909" lon="10.79791877326832"><ele>271.0</ele><time>2026-04-21T11:44:01.001Z</time></trkpt><trkpt lat="45.60670145727715" lon="10.797815204735176"><ele>271.0</ele><time>2026-04-21T11:44:02.001Z</time></trkpt><trkpt lat="45.6066732287481" lon="10.797721318267595"><ele>271.0</ele><time>2026-04-21T11:44:03.001Z</time></trkpt><trkpt lat="45.606630837836995" lon="10.797640582339238"><ele>271.0</ele><time>2026-04-21T11:44:04.001Z</time></trkpt><trkpt lat="45.60658973005037" lon="10.797499261482438"><ele>271.0</ele><time>2026-04-21T11:44:06.001Z</time></trkpt><trkpt lat="45.60648969291357" lon="10.797407283921487"><ele>271.0</ele><time>2026-04-21T11:44:08.001Z</time></trkpt><trkpt lat="45.60640687090334" lon="10.797402308830454"><ele>270.2</ele><time>2026-04-21T11:44:09.001Z</time></trkpt><trkpt lat="45.60632009213134" lon="10.797380620463892"><ele>269.40000000000003</ele><time>2026-04-21T11:44:10.001Z</time></trkpt><trkpt lat="45.606226506316965" lon="10.797364498884141"><ele>268.6</ele><time>2026-04-21T11:44:11.001Z</time></trkpt><trkpt lat="45.606141169536826" lon="10.797346124845548"><ele>267.8</ele><time>2026-04-21T11:44:12.001Z</time></trkpt><trkpt lat="45.606072587844146" lon="10.7973242468835"><ele>267.0</ele><time>2026-04-21T11:44:13.001Z</time></trkpt><trkpt lat="45.60596325631474" lon="10.79729121686945"><ele>265.3333333333333</ele><time>2026-04-21T11:44:15.001Z</time></trkpt><trkpt lat="45.605854171065694" lon="10.797209686547866"><ele>263.6666666666667</ele><time>2026-04-21T11:44:17.001Z</time></trkpt><trkpt lat="45.60578568612205" lon="10.797172244524427"><ele>262.0</ele><time>2026-04-21T11:44:18.001Z</time></trkpt><trkpt lat="45.60571387550327" lon="10.797150788915733"><ele>260.33333333333337</ele><time>2026-04-21T11:44:19Z</time></trkpt><trkpt lat="45.60564448286118" lon="10.797123941833046"><ele>258.6666666666667</ele><time>2026-04-21T11:44:20Z</time></trkpt><trkpt lat="45.60557166395367" lon="10.797089920319433"><ele>257.0</ele><time>2026-04-21T11:44:21Z</time></trkpt><trkpt lat="45.605501842955476" lon="10.797055075609517"><ele>257.0</ele><time>2026-04-21T11:44:22Z</time></trkpt><trkpt lat="45.605427492818485" lon="10.797030718867672"><ele>257.0</ele><time>2026-04-21T11:44:23Z</time></trkpt><trkpt lat="45.60535727277573" lon="10.796994156165356"><ele>257.0</ele><time>2026-04-21T11:44:24Z</time></trkpt><trkpt lat="45.60529107161752" lon="10.796964853581429"><ele>257.0</ele><time>2026-04-21T11:44:25Z</time></trkpt><trkpt lat="45.60521840802214" lon="10.79694211367281"><ele>257.0</ele><time>2026-04-21T11:44:26Z</time></trkpt><trkpt lat="45.60514341817036" lon="10.796924279214547"><ele>257.0</ele><time>2026-04-21T11:44:27Z</time></trkpt><trkpt lat="45.60507417985404" lon="10.796911729167984"><ele>257.0</ele><time>2026-04-21T11:44:28Z</time></trkpt><trkpt lat="45.60500423208808" lon="10.796892252403604"><ele>256.42857142857144</ele><time>2026-04-21T11:44:29Z</time></trkpt><trkpt lat="45.60493533731955" lon="10.796875453713932"><ele>255.8571428571429</ele><time>2026-04-21T11:44:30Z</time></trkpt><trkpt lat="45.604868164463014" lon="10.79686233948423"><ele>255.2857142857143</ele><time>2026-04-21T11:44:31Z</time></trkpt><trkpt lat="45.60480082944919" lon="10.796850065081975"><ele>254.71428571428572</ele><time>2026-04-21T11:44:32Z</time></trkpt><trkpt lat="45.60473385707063" lon="10.79682819761612"><ele>254.14285714285717</ele><time>2026-04-21T11:44:33Z</time></trkpt><trkpt lat="45.604667915793925" lon="10.796806960600128"><ele>253.5714285714286</ele><time>2026-04-21T11:44:34Z</time></trkpt><trkpt lat="45.60459942106112" lon="10.796791775927627"><ele>253.00000000000003</ele><time>2026-04-21T11:44:35Z</time></trkpt><trkpt lat="45.60453185718523" lon="10.796776206629428"><ele>252.66666666666666</ele><time>2026-04-21T11:44:36Z</time></trkpt><trkpt lat="45.60446494751032" lon="10.796759429926274"><ele>252.33333333333331</ele><time>2026-04-21T11:44:37Z</time></trkpt><trkpt lat="45.60440081574101" lon="10.796745411716591"><ele>252.0</ele><time>2026-04-21T11:44:38Z</time></trkpt><trkpt lat="45.6043358877488" lon="10.796732143175868"><ele>251.66666666666669</ele><time>2026-04-21T11:44:39Z</time></trkpt><trkpt lat="45.60421580301993" lon="10.796711011699172"><ele>251.33333333333334</ele><time>2026-04-21T11:44:41Z</time></trkpt><trkpt lat="45.60411216355293" lon="10.796695468733573"><ele>251.0</ele><time>2026-04-21T11:44:43Z</time></trkpt><trkpt lat="45.60407873874746" lon="10.796592308358253"><ele>251.0</ele><time>2026-04-21T11:44:45Z</time></trkpt><trkpt lat="45.60405566441293" lon="10.79645430896644"><ele>251.00000000000003</ele><time>2026-04-21T11:44:47Z</time></trkpt><trkpt lat="45.603963255927965" lon="10.796380816504678"><ele>251.00000000000003</ele><time>2026-04-21T11:44:49Z</time></trkpt><trkpt lat="45.60387410105207" lon="10.796278694448668"><ele>251.0</ele><time>2026-04-21T11:44:51Z</time></trkpt><trkpt lat="45.603783453866285" lon="10.796186325446"><ele>251.0</ele><time>2026-04-21T11:44:53Z</time></trkpt><trkpt lat="45.603684131571356" lon="10.796095879620644"><ele>251.0</ele><time>2026-04-21T11:44:55Z</time></trkpt><trkpt lat="45.603637111563216" lon="10.796035920150288"><ele>251.00000000000003</ele><time>2026-04-21T11:44:56Z</time></trkpt><trkpt lat="45.603544219018865" lon="10.795934544572933"><ele>251.00000000000003</ele><time>2026-04-21T11:44:58Z</time></trkpt><trkpt lat="45.603449881241545" lon="10.79582359814305"><ele>251.0</ele><time>2026-04-21T11:45:00Z</time></trkpt><trkpt lat="45.60336025018359" lon="10.795722270549263"><ele>251.0</ele><time>2026-04-21T11:45:02Z</time></trkpt><trkpt lat="45.603273493726746" lon="10.795641339837655"><ele>251.00000000000003</ele><time>2026-04-21T11:45:04Z</time></trkpt><trkpt lat="45.603179451548094" lon="10.79562250094756"><ele>251.0</ele><time>2026-04-21T11:45:06Z</time></trkpt><trkpt lat="45.603117449737844" lon="10.795592461097032"><ele>251.0</ele><time>2026-04-21T11:45:08Z</time></trkpt><trkpt lat="45.60303131775705" lon="10.795637849112602"><ele>251.0</ele><time>2026-04-21T11:45:12Z</time></trkpt><trkpt lat="45.60293768439875" lon="10.795655393519597"><ele>251.00000000000003</ele><time>2026-04-21T11:45:13.999Z</time></trkpt><trkpt lat="45.6028431205834" lon="10.795635201914177"><ele>251.0</ele><time>2026-04-21T11:45:14.999Z</time></trkpt><trkpt lat="45.60274107378601" lon="10.795657078866403"><ele>251.0</ele><time>2026-04-21T11:45:16.999Z</time></trkpt><trkpt lat="45.602680585055325" lon="10.79557658477319"><ele>251.00000000000003</ele><time>2026-04-21T11:45:18.999Z</time></trkpt><trkpt lat="45.60269587944196" lon="10.795417153260132"><ele>251.00000000000003</ele><time>2026-04-21T11:45:20.999Z</time></trkpt><trkpt lat="45.60269677717701" lon="10.795249012894267"><ele>251.0</ele><time>2026-04-21T11:45:22.999Z</time></trkpt><trkpt lat="45.602630287543434" lon="10.795103318963552"><ele>251.0</ele><time>2026-04-21T11:45:24.999Z</time></trkpt><trkpt lat="45.602566037615375" lon="10.795088182444024"><ele>250.83333333333334</ele><time>2026-04-21T11:45:25.999Z</time></trkpt><trkpt lat="45.60249893840867" lon="10.795098788188525"><ele>250.66666666666669</ele><time>2026-04-21T11:45:26.999Z</time></trkpt><trkpt lat="45.602429917786914" lon="10.795101152265103"><ele>250.5</ele><time>2026-04-21T11:45:27.999Z</time></trkpt><trkpt lat="45.60236302927561" lon="10.795101758752507"><ele>250.33333333333331</ele><time>2026-04-21T11:45:28.999Z</time></trkpt><trkpt lat="45.60229789685202" lon="10.795099427554705"><ele>250.16666666666666</ele><time>2026-04-21T11:45:29.999Z</time></trkpt><trkpt lat="45.602234395547995" lon="10.795097888605646"><ele>250.0</ele><time>2026-04-21T11:45:30.999Z</time></trkpt><trkpt lat="45.60210911844319" lon="10.795099314839723"><ele>249.99999999999997</ele><time>2026-04-21T11:45:32.999Z</time></trkpt><trkpt lat="45.60204328134618" lon="10.795107399537098"><ele>250.0</ele><time>2026-04-21T11:45:33.999Z</time></trkpt><trkpt lat="45.60191915716744" lon="10.795107916276876"><ele>250.0</ele><time>2026-04-21T11:45:35.999Z</time></trkpt><trkpt lat="45.6018508075551" lon="10.795112899840618"><ele>250.0</ele><time>2026-04-21T11:45:36.999Z</time></trkpt><trkpt lat="45.60178013914578" lon="10.795115409587977"><ele>249.99999999999997</ele><time>2026-04-21T11:45:37.999Z</time></trkpt><trkpt lat="45.6017096797204" lon="10.795114325468077"><ele>250.0</ele><time>2026-04-21T11:45:38.999Z</time></trkpt><trkpt lat="45.60164116955719" lon="10.795098156454092"><ele>249.71428571428572</ele><time>2026-04-21T11:45:39.999Z</time></trkpt><trkpt lat="45.60157836338315" lon="10.795046602080776"><ele>249.42857142857144</ele><time>2026-04-21T11:45:40.999Z</time></trkpt><trkpt lat="45.601531327928846" lon="10.79496409406971"><ele>249.14285714285717</ele><time>2026-04-21T11:45:41.999Z</time></trkpt><trkpt lat="45.601506139024266" lon="10.794866527247747"><ele>248.85714285714286</ele><time>2026-04-21T11:45:42.999Z</time></trkpt><trkpt lat="45.601494421289324" lon="10.79476121721659"><ele>248.5714285714286</ele><time>2026-04-21T11:45:43.999Z</time></trkpt><trkpt lat="45.60147384594958" lon="10.794661931672536"><ele>248.2857142857143</ele><time>2026-04-21T11:45:44.999Z</time></trkpt><trkpt lat="45.60144345188353" lon="10.794560247621357"><ele>248.0</ele><time>2026-04-21T11:45:45.999Z</time></trkpt><trkpt lat="45.6014132433886" lon="10.794466195036335"><ele>248.0</ele><time>2026-04-21T11:45:46.999Z</time></trkpt><trkpt lat="45.601383174588555" lon="10.794371457947717"><ele>248.00000000000003</ele><time>2026-04-21T11:45:47.999Z</time></trkpt><trkpt lat="45.60135581209027" lon="10.7942771821331"><ele>248.0</ele><time>2026-04-21T11:45:48.999Z</time></trkpt><trkpt lat="45.60133730234435" lon="10.794167534394095"><ele>248.0</ele><time>2026-04-21T11:45:49.999Z</time></trkpt><trkpt lat="45.60132155073246" lon="10.794065939094148"><ele>248.00000000000003</ele><time>2026-04-21T11:45:50.999Z</time></trkpt><trkpt lat="45.60130507830276" lon="10.793969730186001"><ele>248.0</ele><time>2026-04-21T11:45:51.999Z</time></trkpt><trkpt lat="45.601279362571695" lon="10.793871934244526"><ele>248.0</ele><time>2026-04-21T11:45:53.001Z</time></trkpt><trkpt lat="45.60125644964556" lon="10.793775180521818"><ele>247.57142857142858</ele><time>2026-04-21T11:45:54.001Z</time></trkpt><trkpt lat="45.60123164335823" lon="10.793683247769302"><ele>247.14285714285717</ele><time>2026-04-21T11:45:55.001Z</time></trkpt><trkpt lat="45.60120985589489" lon="10.793587781240637"><ele>246.71428571428572</ele><time>2026-04-21T11:45:56.001Z</time></trkpt><trkpt lat="45.601187191256145" lon="10.79349062935498"><ele>246.28571428571428</ele><time>2026-04-21T11:45:57.001Z</time></trkpt><trkpt lat="45.60115590826384" lon="10.793409690916663"><ele>245.85714285714286</ele><time>2026-04-21T11:45:58.001Z</time></trkpt><trkpt lat="45.60110720959302" lon="10.79334537951444"><ele>245.42857142857144</ele><time>2026-04-21T11:45:59.001Z</time></trkpt><trkpt lat="45.60105419875798" lon="10.793293739095823"><ele>245.0</ele><time>2026-04-21T11:46:00.001Z</time></trkpt><trkpt lat="45.60099467517961" lon="10.793260085979561"><ele>245.0</ele><time>2026-04-21T11:46:01.001Z</time></trkpt><trkpt lat="45.600883209205364" lon="10.793195190100459"><ele>245.0</ele><time>2026-04-21T11:46:03.001Z</time></trkpt><trkpt lat="45.60080694441101" lon="10.793114766952968"><ele>245.0</ele><time>2026-04-21T11:46:05.001Z</time></trkpt><trkpt lat="45.60077428264121" lon="10.79295855027794"><ele>245.0</ele><time>2026-04-21T11:46:07.001Z</time></trkpt><trkpt lat="45.60075254563975" lon="10.792849460021152"><ele>245.0</ele><time>2026-04-21T11:46:08.001Z</time></trkpt><trkpt lat="45.600729232085136" lon="10.792741121322907"><ele>245.57142857142856</ele><time>2026-04-21T11:46:09.001Z</time></trkpt><trkpt lat="45.60070310727673" lon="10.792646472843614"><ele>246.14285714285714</ele><time>2026-04-21T11:46:10.001Z</time></trkpt><trkpt lat="45.60067669700823" lon="10.792559837904932"><ele>246.71428571428572</ele><time>2026-04-21T11:46:11.001Z</time></trkpt><trkpt lat="45.60065826263784" lon="10.792458456874062"><ele>247.28571428571428</ele><time>2026-04-21T11:46:12.001Z</time></trkpt><trkpt lat="45.600634349174044" lon="10.792365522508716"><ele>247.85714285714283</ele><time>2026-04-21T11:46:13.001Z</time></trkpt><trkpt lat="45.60061725467367" lon="10.792270222097594"><ele>248.42857142857142</ele><time>2026-04-21T11:46:14Z</time></trkpt><trkpt lat="45.60060120575247" lon="10.792176406138804"><ele>249.0</ele><time>2026-04-21T11:46:15Z</time></trkpt><trkpt lat="45.60057963830619" lon="10.792084153799294"><ele>249.0</ele><time>2026-04-21T11:46:16Z</time></trkpt><trkpt lat="45.60055787358153" lon="10.79198869223816"><ele>248.99999999999997</ele><time>2026-04-21T11:46:17Z</time></trkpt><trkpt lat="45.60051475796506" lon="10.791818959161041"><ele>248.99999999999997</ele><time>2026-04-21T11:46:19Z</time></trkpt><trkpt lat="45.60048710654213" lon="10.79169036902833"><ele>249.0</ele><time>2026-04-21T11:46:21Z</time></trkpt><trkpt lat="45.60038676532877" lon="10.791699277113356"><ele>249.0</ele><time>2026-04-21T11:46:24Z</time></trkpt><trkpt lat="45.60033016805452" lon="10.791803076743554"><ele>248.2</ele><time>2026-04-21T11:46:26Z</time></trkpt><trkpt lat="45.600243584706696" lon="10.79188341754366"><ele>247.39999999999998</ele><time>2026-04-21T11:46:28Z</time></trkpt><trkpt lat="45.60015293059772" lon="10.791915798007297"><ele>246.6</ele><time>2026-04-21T11:46:30Z</time></trkpt><trkpt lat="45.60004650953329" lon="10.791900488133559"><ele>245.8</ele><time>2026-04-21T11:46:32Z</time></trkpt><trkpt lat="45.59994464479768" lon="10.791914084148997"><ele>245.0</ele><time>2026-04-21T11:46:34Z</time></trkpt><trkpt lat="45.59987723006409" lon="10.792001696908878"><ele>245.0</ele><time>2026-04-21T11:46:36Z</time></trkpt><trkpt lat="45.59986696958291" lon="10.792102467562257"><ele>245.0</ele><time>2026-04-21T11:46:38Z</time></trkpt><trkpt lat="45.59976094237773" lon="10.792247535794964"><ele>245.0</ele><time>2026-04-21T11:46:40Z</time></trkpt><trkpt lat="45.59972306012744" lon="10.792397950783974"><ele>245.0</ele><time>2026-04-21T11:46:42Z</time></trkpt><trkpt lat="45.599668815146195" lon="10.79252086727172"><ele>245.0</ele><time>2026-04-21T11:46:44Z</time></trkpt><trkpt lat="45.5995943323228" lon="10.7925515059636"><ele>245.0</ele><time>2026-04-21T11:46:46Z</time></trkpt><trkpt lat="45.59953539980027" lon="10.792462522195239"><ele>245.0</ele><time>2026-04-21T11:46:49Z</time></trkpt><trkpt lat="45.59956375770387" lon="10.792180797057027"><ele>245.0</ele><time>2026-04-21T11:46:51Z</time></trkpt><trkpt lat="45.59960521311363" lon="10.792069551155144"><ele>245.0</ele><time>2026-04-21T11:46:52Z</time></trkpt><trkpt lat="45.59964978867119" lon="10.791952497404973"><ele>245.00000000000003</ele><time>2026-04-21T11:46:53Z</time></trkpt><trkpt lat="45.59967994612502" lon="10.791842050263623"><ele>245.0</ele><time>2026-04-21T11:46:54Z</time></trkpt><trkpt lat="45.59970351798309" lon="10.791742126289433"><ele>245.0</ele><time>2026-04-21T11:46:55Z</time></trkpt><trkpt lat="45.599701425130796" lon="10.791646925879423"><ele>245.0</ele><time>2026-04-21T11:46:56Z</time></trkpt><trkpt lat="45.599694156840556" lon="10.791553356188473"><ele>245.00000000000003</ele><time>2026-04-21T11:46:57Z</time></trkpt><trkpt lat="45.59966492784534" lon="10.791464340482033"><ele>245.0</ele><time>2026-04-21T11:46:58Z</time></trkpt><trkpt lat="45.59961037386176" lon="10.79130334347638"><ele>245.0</ele><time>2026-04-21T11:47:00Z</time></trkpt><trkpt lat="45.59956489819022" lon="10.791230034414344"><ele>245.0</ele><time>2026-04-21T11:47:01Z</time></trkpt><trkpt lat="45.59951247513578" lon="10.791170390071828"><ele>245.0</ele><time>2026-04-21T11:47:02Z</time></trkpt><trkpt lat="45.59944570610867" lon="10.79112610377982"><ele>245.0</ele><time>2026-04-21T11:47:03Z</time></trkpt><trkpt lat="45.599390477323894" lon="10.791072493592921"><ele>245.0</ele><time>2026-04-21T11:47:04Z</time></trkpt><trkpt lat="45.59933236438656" lon="10.791022287932117"><ele>245.0</ele><time>2026-04-21T11:47:05Z</time></trkpt><trkpt lat="45.59927464313116" lon="10.790970855907124"><ele>245.0</ele><time>2026-04-21T11:47:06Z</time></trkpt><trkpt lat="45.599217512343245" lon="10.790921368594912"><ele>244.57142857142856</ele><time>2026-04-21T11:47:07Z</time></trkpt><trkpt lat="45.599166781573516" lon="10.790854847981876"><ele>244.14285714285714</ele><time>2026-04-21T11:47:08Z</time></trkpt><trkpt lat="45.59911453305526" lon="10.790785985300026"><ele>243.71428571428572</ele><time>2026-04-21T11:47:09Z</time></trkpt><trkpt lat="45.599063002342795" lon="10.790726104561418"><ele>243.28571428571428</ele><time>2026-04-21T11:47:10Z</time></trkpt><trkpt lat="45.59901071005974" lon="10.790669408844716"><ele>242.85714285714283</ele><time>2026-04-21T11:47:10.999Z</time></trkpt><trkpt lat="45.59895981155614" lon="10.790608027295123"><ele>242.42857142857142</ele><time>2026-04-21T11:47:11.999Z</time></trkpt><trkpt lat="45.598906809383685" lon="10.790547339488501"><ele>242.0</ele><time>2026-04-21T11:47:12.999Z</time></trkpt><trkpt lat="45.598857465727" lon="10.790487180224607"><ele>242.00000000000003</ele><time>2026-04-21T11:47:13.999Z</time></trkpt><trkpt lat="45.59880908870876" lon="10.790427912346388"><ele>242.0</ele><time>2026-04-21T11:47:14.999Z</time></trkpt><trkpt lat="45.59876272984517" lon="10.790360673657233"><ele>242.0</ele><time>2026-04-21T11:47:15.999Z</time></trkpt><trkpt lat="45.59872119151887" lon="10.790287383447263"><ele>242.0</ele><time>2026-04-21T11:47:16.999Z</time></trkpt><trkpt lat="45.598678505335805" lon="10.790217607367632"><ele>242.00000000000003</ele><time>2026-04-21T11:47:17.999Z</time></trkpt><trkpt lat="45.59859762794563" lon="10.790081102807456"><ele>242.0</ele><time>2026-04-21T11:47:19.999Z</time></trkpt><trkpt lat="45.5985148881529" lon="10.789948223795246"><ele>241.75</ele><time>2026-04-21T11:47:21.999Z</time></trkpt><trkpt lat="45.59843580857749" lon="10.789816145756093"><ele>241.5</ele><time>2026-04-21T11:47:23.999Z</time></trkpt><trkpt lat="45.59834998060981" lon="10.789696165698233"><ele>241.25</ele><time>2026-04-21T11:47:25.999Z</time></trkpt><trkpt lat="45.59826129276325" lon="10.789587806031786"><ele>241.0</ele><time>2026-04-21T11:47:27.999Z</time></trkpt><trkpt lat="45.59817156006238" lon="10.789476810157693"><ele>241.0</ele><time>2026-04-21T11:47:29.999Z</time></trkpt><trkpt lat="45.59808161334321" lon="10.789368089151587"><ele>241.0</ele><time>2026-04-21T11:47:31.999Z</time></trkpt><trkpt lat="45.597992157211074" lon="10.789259180255979"><ele>241.0</ele><time>2026-04-21T11:47:33.999Z</time></trkpt><trkpt lat="45.597914247779634" lon="10.7891370158715"><ele>241.0</ele><time>2026-04-21T11:47:35.999Z</time></trkpt><trkpt lat="45.597843298865406" lon="10.78900772034339"><ele>240.8</ele><time>2026-04-21T11:47:37.999Z</time></trkpt><trkpt lat="45.59779075470902" lon="10.78885358913827"><ele>240.60000000000002</ele><time>2026-04-21T11:47:39.999Z</time></trkpt><trkpt lat="45.59775001288027" lon="10.788686678002835"><ele>240.4</ele><time>2026-04-21T11:47:41.999Z</time></trkpt><trkpt lat="45.59772801501235" lon="10.788600713215425"><ele>240.2</ele><time>2026-04-21T11:47:42.999Z</time></trkpt><trkpt lat="45.59767477300759" lon="10.788434305369199"><ele>240.0</ele><time>2026-04-21T11:47:44.999Z</time></trkpt><trkpt lat="45.59762109974943" lon="10.788271942845883"><ele>239.2</ele><time>2026-04-21T11:47:46.999Z</time></trkpt><trkpt lat="45.597561867316664" lon="10.788115403561296"><ele>238.4</ele><time>2026-04-21T11:47:48.999Z</time></trkpt><trkpt lat="45.597531624180675" lon="10.788035276111074"><ele>237.60000000000002</ele><time>2026-04-21T11:47:49.999Z</time></trkpt><trkpt lat="45.597463861354356" lon="10.787890787015472"><ele>236.8</ele><time>2026-04-21T11:47:51.999Z</time></trkpt><trkpt lat="45.59740683682972" lon="10.78773882806339"><ele>236.0</ele><time>2026-04-21T11:47:53.999Z</time></trkpt><trkpt lat="45.59734720462794" lon="10.787588487090327"><ele>235.75</ele><time>2026-04-21T11:47:55.999Z</time></trkpt><trkpt lat="45.59727952411581" lon="10.787440848730201"><ele>235.5</ele><time>2026-04-21T11:47:57.999Z</time></trkpt><trkpt lat="45.59720938254525" lon="10.787294852736798"><ele>235.25</ele><time>2026-04-21T11:48:00.001Z</time></trkpt><trkpt lat="45.59714487632338" lon="10.787142078939656"><ele>235.0</ele><time>2026-04-21T11:48:02.001Z</time></trkpt><trkpt lat="45.59707080874621" lon="10.78699382716605"><ele>234.75</ele><time>2026-04-21T11:48:04.001Z</time></trkpt><trkpt lat="45.597004797397354" lon="10.786841643270682"><ele>234.5</ele><time>2026-04-21T11:48:06.001Z</time></trkpt><trkpt lat="45.596932571699924" lon="10.786699806046965"><ele>234.25</ele><time>2026-04-21T11:48:08.001Z</time></trkpt><trkpt lat="45.59686694959542" lon="10.786558079310305"><ele>234.0</ele><time>2026-04-21T11:48:10.001Z</time></trkpt><trkpt lat="45.59679460330017" lon="10.786425983551158"><ele>233.5</ele><time>2026-04-21T11:48:12.001Z</time></trkpt><trkpt lat="45.596721898152104" lon="10.786293038925256"><ele>233.0</ele><time>2026-04-21T11:48:14.001Z</time></trkpt><trkpt lat="45.5966543885902" lon="10.786156713601903"><ele>232.5</ele><time>2026-04-21T11:48:16Z</time></trkpt><trkpt lat="45.59659515737281" lon="10.786006562108575"><ele>232.0</ele><time>2026-04-21T11:48:18Z</time></trkpt><trkpt lat="45.596529721537635" lon="10.785870487938181"><ele>231.99999999999997</ele><time>2026-04-21T11:48:20Z</time></trkpt><trkpt lat="45.596470063600265" lon="10.785744914910897"><ele>232.0</ele><time>2026-04-21T11:48:22Z</time></trkpt><trkpt lat="45.59643128004793" lon="10.785586507251896"><ele>232.0</ele><time>2026-04-21T11:48:24Z</time></trkpt><trkpt lat="45.59640734965348" lon="10.7855028923062"><ele>232.0</ele><time>2026-04-21T11:48:25Z</time></trkpt><trkpt lat="45.596379283446325" lon="10.785417722412191"><ele>231.99999999999997</ele><time>2026-04-21T11:48:26Z</time></trkpt><trkpt lat="45.59635154000148" lon="10.785331284179577"><ele>232.0</ele><time>2026-04-21T11:48:27Z</time></trkpt><trkpt lat="45.596325568190714" lon="10.785246516257677"><ele>232.00000000000003</ele><time>2026-04-21T11:48:28Z</time></trkpt><trkpt lat="45.59629921067631" lon="10.785158554504587"><ele>232.0</ele><time>2026-04-21T11:48:29Z</time></trkpt><trkpt lat="45.59626835435609" lon="10.785074440370908"><ele>232.00000000000003</ele><time>2026-04-21T11:48:30Z</time></trkpt><trkpt lat="45.596236884651724" lon="10.784993812985606"><ele>232.00000000000003</ele><time>2026-04-21T11:48:31Z</time></trkpt><trkpt lat="45.596204535923455" lon="10.78491408387852"><ele>232.0</ele><time>2026-04-21T11:48:32Z</time></trkpt><trkpt lat="45.59616970619727" lon="10.78483223146733"><ele>232.00000000000003</ele><time>2026-04-21T11:48:33Z</time></trkpt><trkpt lat="45.596130927653974" lon="10.78475430744426"><ele>232.00000000000003</ele><time>2026-04-21T11:48:34Z</time></trkpt><trkpt lat="45.59609147655647" lon="10.78467572556917"><ele>231.8571428571429</ele><time>2026-04-21T11:48:35Z</time></trkpt><trkpt lat="45.596048962296074" lon="10.784596432252549"><ele>231.71428571428572</ele><time>2026-04-21T11:48:36Z</time></trkpt><trkpt lat="45.59600173756566" lon="10.784520602190458"><ele>231.57142857142858</ele><time>2026-04-21T11:48:37Z</time></trkpt><trkpt lat="45.59595896363417" lon="10.78444682570894"><ele>231.42857142857144</ele><time>2026-04-21T11:48:38Z</time></trkpt><trkpt lat="45.59592376686616" lon="10.784365740442441"><ele>231.28571428571428</ele><time>2026-04-21T11:48:39Z</time></trkpt><trkpt lat="45.59588876258748" lon="10.784286871578383"><ele>231.14285714285714</ele><time>2026-04-21T11:48:40Z</time></trkpt><trkpt lat="45.595848595667974" lon="10.784217430670589"><ele>231.0</ele><time>2026-04-21T11:48:41Z</time></trkpt><trkpt lat="45.595800900012556" lon="10.784154492700269"><ele>231.0</ele><time>2026-04-21T11:48:42Z</time></trkpt><trkpt lat="45.595759234227" lon="10.784078379728905"><ele>231.0</ele><time>2026-04-21T11:48:43Z</time></trkpt><trkpt lat="45.59571562329707" lon="10.784005278255671"><ele>231.0</ele><time>2026-04-21T11:48:44Z</time></trkpt><trkpt lat="45.59567392407356" lon="10.78393333106758"><ele>231.0</ele><time>2026-04-21T11:48:45Z</time></trkpt><trkpt lat="45.595635614572615" lon="10.783858252008065"><ele>231.0</ele><time>2026-04-21T11:48:46Z</time></trkpt><trkpt lat="45.59559780413102" lon="10.783781466380875"><ele>231.0</ele><time>2026-04-21T11:48:47Z</time></trkpt><trkpt lat="45.59556306917578" lon="10.78370432473398"><ele>231.0</ele><time>2026-04-21T11:48:48Z</time></trkpt><trkpt lat="45.59552093105477" lon="10.783635208297738"><ele>230.75</ele><time>2026-04-21T11:48:49Z</time></trkpt><trkpt lat="45.59543814070494" lon="10.783509374209034"><ele>230.5</ele><time>2026-04-21T11:48:51Z</time></trkpt><trkpt lat="45.595350940185774" lon="10.783396380212565"><ele>230.25</ele><time>2026-04-21T11:48:53Z</time></trkpt><trkpt lat="45.59526071766206" lon="10.783290894671934"><ele>230.0</ele><time>2026-04-21T11:48:55Z</time></trkpt><trkpt lat="45.59517563530611" lon="10.783203611955523"><ele>230.0</ele><time>2026-04-21T11:48:57Z</time></trkpt><trkpt lat="45.59508355942948" lon="10.783151015621064"><ele>230.0</ele><time>2026-04-21T11:48:59Z</time></trkpt><trkpt lat="45.59499648951151" lon="10.78310329767309"><ele>230.0</ele><time>2026-04-21T11:49:01Z</time></trkpt><trkpt lat="45.594913502483074" lon="10.782981028020812"><ele>230.0</ele><time>2026-04-21T11:49:04Z</time></trkpt><trkpt lat="45.59486650940237" lon="10.782910593442045"><ele>230.0</ele><time>2026-04-21T11:49:05Z</time></trkpt><trkpt lat="45.59480117406354" lon="10.782849796716896"><ele>230.0</ele><time>2026-04-21T11:49:06Z</time></trkpt><trkpt lat="45.594724934245306" lon="10.782761378030715"><ele>230.0</ele><time>2026-04-21T11:49:08Z</time></trkpt><trkpt lat="45.59464051095607" lon="10.78266848806644"><ele>230.0</ele><time>2026-04-21T11:49:09.999Z</time></trkpt><trkpt lat="45.59456062035471" lon="10.782567769733026"><ele>230.0</ele><time>2026-04-21T11:49:11.999Z</time></trkpt><trkpt lat="45.59447927973555" lon="10.782457763524503"><ele>230.0</ele><time>2026-04-21T11:49:13.999Z</time></trkpt><trkpt lat="45.594390309537346" lon="10.782341545627196"><ele>230.2</ele><time>2026-04-21T11:49:15.999Z</time></trkpt><trkpt lat="45.594339738428474" lon="10.78228558354321"><ele>230.4</ele><time>2026-04-21T11:49:16.999Z</time></trkpt><trkpt lat="45.59424744008575" lon="10.782179747730762"><ele>230.60000000000002</ele><time>2026-04-21T11:49:18.999Z</time></trkpt><trkpt lat="45.59415117670236" lon="10.782067236684146"><ele>230.8</ele><time>2026-04-21T11:49:20.999Z</time></trkpt><trkpt lat="45.594060498153" lon="10.781957798954464"><ele>231.0</ele><time>2026-04-21T11:49:22.999Z</time></trkpt><trkpt lat="45.59397214433108" lon="10.781844164562354"><ele>230.71428571428572</ele><time>2026-04-21T11:49:24.999Z</time></trkpt><trkpt lat="45.59392335467819" lon="10.781785652895127"><ele>230.42857142857144</ele><time>2026-04-21T11:49:25.999Z</time></trkpt><trkpt lat="45.59385792250674" lon="10.781675025765324"><ele>230.14285714285714</ele><time>2026-04-21T11:49:27.999Z</time></trkpt><trkpt lat="45.593809051253814" lon="10.781612122202766"><ele>229.85714285714286</ele><time>2026-04-21T11:49:28.999Z</time></trkpt><trkpt lat="45.59376677946514" lon="10.781542816579277"><ele>229.57142857142858</ele><time>2026-04-21T11:49:29.999Z</time></trkpt><trkpt lat="45.593724867816505" lon="10.781475638024856"><ele>229.28571428571428</ele><time>2026-04-21T11:49:30.999Z</time></trkpt><trkpt lat="45.59367665425435" lon="10.781406532088143"><ele>229.0</ele><time>2026-04-21T11:49:31.999Z</time></trkpt><trkpt lat="45.59362936867589" lon="10.781344732965877"><ele>229.0</ele><time>2026-04-21T11:49:32.999Z</time></trkpt><trkpt lat="45.59358193994199" lon="10.78128334483875"><ele>228.99999999999997</ele><time>2026-04-21T11:49:33.999Z</time></trkpt><trkpt lat="45.5934885058107" lon="10.78117089163047"><ele>228.99999999999997</ele><time>2026-04-21T11:49:35.999Z</time></trkpt><trkpt lat="45.59343522724778" lon="10.781119092093995"><ele>229.0</ele><time>2026-04-21T11:49:36.999Z</time></trkpt><trkpt lat="45.593337889860905" lon="10.78101745704811"><ele>229.0</ele><time>2026-04-21T11:49:38.999Z</time></trkpt><trkpt lat="45.593239562075915" lon="10.780908569152118"><ele>228.66666666666666</ele><time>2026-04-21T11:49:40.999Z</time></trkpt><trkpt lat="45.593188327384425" lon="10.78084580887836"><ele>228.33333333333331</ele><time>2026-04-21T11:49:41.999Z</time></trkpt><trkpt lat="45.59314424655266" lon="10.780776957559814"><ele>228.0</ele><time>2026-04-21T11:49:42.999Z</time></trkpt><trkpt lat="45.59310923536803" lon="10.780701895833712"><ele>227.66666666666669</ele><time>2026-04-21T11:49:43.999Z</time></trkpt><trkpt lat="45.59307270245509" lon="10.780625699695895"><ele>227.33333333333334</ele><time>2026-04-21T11:49:44.999Z</time></trkpt><trkpt lat="45.59301048079987" lon="10.780468291574186"><ele>227.0</ele><time>2026-04-21T11:49:46.999Z</time></trkpt><trkpt lat="45.59298046477404" lon="10.780383582229867"><ele>227.0</ele><time>2026-04-21T11:49:47.999Z</time></trkpt><trkpt lat="45.59294859135006" lon="10.780302134174855"><ele>227.00000000000003</ele><time>2026-04-21T11:49:48.999Z</time></trkpt><trkpt lat="45.59291925355768" lon="10.780220347660114"><ele>227.0</ele><time>2026-04-21T11:49:49.999Z</time></trkpt><trkpt lat="45.59288845203996" lon="10.780134613019124"><ele>227.0</ele><time>2026-04-21T11:49:50.999Z</time></trkpt><trkpt lat="45.592849976260375" lon="10.780054702697626"><ele>227.00000000000003</ele><time>2026-04-21T11:49:51.999Z</time></trkpt><trkpt lat="45.59280867454101" lon="10.779979979086518"><ele>227.0</ele><time>2026-04-21T11:49:52.999Z</time></trkpt><trkpt lat="45.59276562184341" lon="10.779908415872063"><ele>227.0</ele><time>2026-04-21T11:49:53.999Z</time></trkpt><trkpt lat="45.59272034945294" lon="10.779838552215429"><ele>227.16666666666669</ele><time>2026-04-21T11:49:54.999Z</time></trkpt><trkpt lat="45.592676155817976" lon="10.779766203599356"><ele>227.33333333333334</ele><time>2026-04-21T11:49:55.999Z</time></trkpt><trkpt lat="45.59262891235158" lon="10.779702382381881"><ele>227.5</ele><time>2026-04-21T11:49:56.999Z</time></trkpt><trkpt lat="45.59257959239467" lon="10.779644574902719"><ele>227.66666666666669</ele><time>2026-04-21T11:49:57.999Z</time></trkpt><trkpt lat="45.59248220788565" lon="10.779533709058175"><ele>227.83333333333334</ele><time>2026-04-21T11:49:59.999Z</time></trkpt><trkpt lat="45.592430845909156" lon="10.779480209259935"><ele>228.0</ele><time>2026-04-21T11:50:00.999Z</time></trkpt><trkpt lat="45.592341059611826" lon="10.779358091295396"><ele>227.8</ele><time>2026-04-21T11:50:02.999Z</time></trkpt><trkpt lat="45.592270806957615" lon="10.779207942021031"><ele>227.60000000000002</ele><time>2026-04-21T11:50:05.001Z</time></trkpt><trkpt lat="45.592224880464045" lon="10.779145067888457"><ele>227.39999999999998</ele><time>2026-04-21T11:50:06.001Z</time></trkpt><trkpt lat="45.59213174362099" lon="10.779026071384816"><ele>227.2</ele><time>2026-04-21T11:50:08.001Z</time></trkpt><trkpt lat="45.59208309752845" lon="10.778965796326933"><ele>227.0</ele><time>2026-04-21T11:50:09.001Z</time></trkpt><trkpt lat="45.591985391702096" lon="10.778853755686171"><ele>227.0</ele><time>2026-04-21T11:50:11Z</time></trkpt><trkpt lat="45.59189307381299" lon="10.77874161589163"><ele>227.0</ele><time>2026-04-21T11:50:13Z</time></trkpt><trkpt lat="45.59179929857782" lon="10.778629778817772"><ele>227.0</ele><time>2026-04-21T11:50:15Z</time></trkpt><trkpt lat="45.591707001392756" lon="10.778522714064888"><ele>227.0</ele><time>2026-04-21T11:50:17Z</time></trkpt><trkpt lat="45.591619017645314" lon="10.778413703677831"><ele>226.25</ele><time>2026-04-21T11:50:19Z</time></trkpt><trkpt lat="45.5915334825747" lon="10.778295630233409"><ele>225.5</ele><time>2026-04-21T11:50:21Z</time></trkpt><trkpt lat="45.59144805110918" lon="10.778185657233061"><ele>224.75</ele><time>2026-04-21T11:50:23Z</time></trkpt><trkpt lat="45.59135689061769" lon="10.778079198924743"><ele>224.0</ele><time>2026-04-21T11:50:25Z</time></trkpt><trkpt lat="45.59126802019039" lon="10.777969679176609"><ele>224.0</ele><time>2026-04-21T11:50:27Z</time></trkpt><trkpt lat="45.59118577811422" lon="10.777855536340875"><ele>224.0</ele><time>2026-04-21T11:50:29Z</time></trkpt><trkpt lat="45.59110800994475" lon="10.777720495495126"><ele>224.0</ele><time>2026-04-21T11:50:31Z</time></trkpt><trkpt lat="45.591038016637604" lon="10.77758288246361"><ele>224.0</ele><time>2026-04-21T11:50:33Z</time></trkpt><trkpt lat="45.59096057227271" lon="10.777450279674442"><ele>224.0</ele><time>2026-04-21T11:50:35Z</time></trkpt><trkpt lat="45.59087233131356" lon="10.777332873381887"><ele>223.99999999999997</ele><time>2026-04-21T11:50:37Z</time></trkpt><trkpt lat="45.59079642369591" lon="10.777195117680312"><ele>223.99999999999997</ele><time>2026-04-21T11:50:39Z</time></trkpt><trkpt lat="45.59071497739398" lon="10.777057385735208"><ele>224.0</ele><time>2026-04-21T11:50:41Z</time></trkpt><trkpt lat="45.5906725222166" lon="10.77698791560919"><ele>224.0</ele><time>2026-04-21T11:50:42Z</time></trkpt><trkpt lat="45.59062823662066" lon="10.776917122936831"><ele>224.0</ele><time>2026-04-21T11:50:43Z</time></trkpt><trkpt lat="45.590580837561994" lon="10.776846500904862"><ele>224.0</ele><time>2026-04-21T11:50:44Z</time></trkpt><trkpt lat="45.59053358391233" lon="10.77677728936142"><ele>224.0</ele><time>2026-04-21T11:50:45Z</time></trkpt><trkpt lat="45.5904828720217" lon="10.776713545549041"><ele>224.0</ele><time>2026-04-21T11:50:46Z</time></trkpt><trkpt lat="45.59042923736859" lon="10.7766526614314"><ele>224.0</ele><time>2026-04-21T11:50:47Z</time></trkpt><trkpt lat="45.59037845269317" lon="10.776593049775498"><ele>224.0</ele><time>2026-04-21T11:50:48Z</time></trkpt><trkpt lat="45.59033028148703" lon="10.776534269853935"><ele>224.0</ele><time>2026-04-21T11:50:49Z</time></trkpt><trkpt lat="45.590278501253884" lon="10.776472659749311"><ele>224.0</ele><time>2026-04-21T11:50:50Z</time></trkpt><trkpt lat="45.59022630262711" lon="10.776418515419717"><ele>223.99999999999997</ele><time>2026-04-21T11:50:51Z</time></trkpt><trkpt lat="45.59012343554563" lon="10.776315111067568"><ele>223.99999999999997</ele><time>2026-04-21T11:50:53Z</time></trkpt><trkpt lat="45.590026388100235" lon="10.776204114635265"><ele>224.0</ele><time>2026-04-21T11:50:55Z</time></trkpt><trkpt lat="45.58992723441231" lon="10.776098991775052"><ele>224.0</ele><time>2026-04-21T11:50:57Z</time></trkpt><trkpt lat="45.58982703717296" lon="10.776000185651123"><ele>223.39999999999998</ele><time>2026-04-21T11:50:59Z</time></trkpt><trkpt lat="45.589772349306024" lon="10.77595217867024"><ele>222.79999999999998</ele><time>2026-04-21T11:51:00Z</time></trkpt><trkpt lat="45.589672887156354" lon="10.775849384164768"><ele>222.20000000000002</ele><time>2026-04-21T11:51:02Z</time></trkpt><trkpt lat="45.589577353849066" lon="10.775733807466935"><ele>221.60000000000002</ele><time>2026-04-21T11:51:04Z</time></trkpt><trkpt lat="45.5894961495449" lon="10.775592731994232"><ele>221.0</ele><time>2026-04-21T11:51:06Z</time></trkpt><trkpt lat="45.58942444489491" lon="10.775444533334085"><ele>220.8</ele><time>2026-04-21T11:51:08Z</time></trkpt><trkpt lat="45.589355683804875" lon="10.775293698432005"><ele>220.60000000000002</ele><time>2026-04-21T11:51:10Z</time></trkpt><trkpt lat="45.58928776355689" lon="10.775143807812242"><ele>220.4</ele><time>2026-04-21T11:51:11.999Z</time></trkpt><trkpt lat="45.589225014938805" lon="10.774986924567987"><ele>220.2</ele><time>2026-04-21T11:51:13.999Z</time></trkpt><trkpt lat="45.58919270038532" lon="10.774906930179041"><ele>220.0</ele><time>2026-04-21T11:51:14.999Z</time></trkpt><trkpt lat="45.589132621791784" lon="10.774748863306845"><ele>219.83333333333331</ele><time>2026-04-21T11:51:16.999Z</time></trkpt><trkpt lat="45.58910208986637" lon="10.774666647654419"><ele>219.66666666666666</ele><time>2026-04-21T11:51:17.999Z</time></trkpt><trkpt lat="45.58907433602073" lon="10.774583736248301"><ele>219.5</ele><time>2026-04-21T11:51:18.999Z</time></trkpt><trkpt lat="45.58902078848702" lon="10.774418242001328"><ele>219.33333333333331</ele><time>2026-04-21T11:51:20.999Z</time></trkpt><trkpt lat="45.58898873926843" lon="10.774338206610116"><ele>219.16666666666666</ele><time>2026-04-21T11:51:21.999Z</time></trkpt><trkpt lat="45.58895931755212" lon="10.774258164199178"><ele>219.0</ele><time>2026-04-21T11:51:22.999Z</time></trkpt><trkpt lat="45.58890243289562" lon="10.774101594373757"><ele>219.0</ele><time>2026-04-21T11:51:24.999Z</time></trkpt><trkpt lat="45.58882144468835" lon="10.773964402129705"><ele>218.99999999999997</ele><time>2026-04-21T11:51:26.999Z</time></trkpt><trkpt lat="45.58877285765765" lon="10.773903890523885"><ele>218.99999999999997</ele><time>2026-04-21T11:51:27.999Z</time></trkpt><trkpt lat="45.58868503341095" lon="10.773788459646685"><ele>219.0</ele><time>2026-04-21T11:51:29.999Z</time></trkpt><trkpt lat="45.58859059049385" lon="10.773688314073615"><ele>219.0</ele><time>2026-04-21T11:51:31.999Z</time></trkpt><trkpt lat="45.58849947275626" lon="10.77359774389332"><ele>219.0</ele><time>2026-04-21T11:51:33.999Z</time></trkpt><trkpt lat="45.58841434081289" lon="10.773534357986378"><ele>219.0</ele><time>2026-04-21T11:51:35.999Z</time></trkpt><trkpt lat="45.58836122422099" lon="10.773477449652002"><ele>219.0</ele><time>2026-04-21T11:51:37.999Z</time></trkpt><trkpt lat="45.58830059090694" lon="10.77339704389563"><ele>219.0</ele><time>2026-04-21T11:51:42.999Z</time></trkpt><trkpt lat="45.58824557543871" lon="10.773343291150415"><ele>219.0</ele><time>2026-04-21T11:51:47.999Z</time></trkpt><trkpt lat="45.5881853175879" lon="10.773272526713354"><ele>219.0</ele><time>2026-04-21T11:51:54.999Z</time></trkpt><trkpt lat="45.58811239312455" lon="10.77317971196356"><ele>218.79999999999998</ele><time>2026-04-21T11:51:57.999Z</time></trkpt><trkpt lat="45.58803635325821" lon="10.773107260610896"><ele>218.59999999999997</ele><time>2026-04-21T11:51:59.999Z</time></trkpt><trkpt lat="45.58796406060188" lon="10.773017395906438"><ele>218.4</ele><time>2026-04-21T11:52:01.999Z</time></trkpt><trkpt lat="45.587888554640436" lon="10.772922874670677"><ele>218.2</ele><time>2026-04-21T11:52:03.999Z</time></trkpt><trkpt lat="45.58781124550427" lon="10.772813640131105"><ele>218.0</ele><time>2026-04-21T11:52:05.999Z</time></trkpt><trkpt lat="45.58773124880158" lon="10.772705390412352"><ele>218.0</ele><time>2026-04-21T11:52:07.999Z</time></trkpt><trkpt lat="45.5876529330833" lon="10.772595406167259"><ele>218.0</ele><time>2026-04-21T11:52:09.999Z</time></trkpt><trkpt lat="45.58758421931803" lon="10.772473953120643"><ele>218.0</ele><time>2026-04-21T11:52:12Z</time></trkpt><trkpt lat="45.587514486535945" lon="10.772349293805492"><ele>218.0</ele><time>2026-04-21T11:52:14Z</time></trkpt><trkpt lat="45.58743802119545" lon="10.772220937951916"><ele>218.0</ele><time>2026-04-21T11:52:16Z</time></trkpt><trkpt lat="45.58736155802006" lon="10.772092741242096"><ele>218.0</ele><time>2026-04-21T11:52:18Z</time></trkpt><trkpt lat="45.587282607230726" lon="10.771960813796703"><ele>218.0</ele><time>2026-04-21T11:52:20Z</time></trkpt><trkpt lat="45.587195906211385" lon="10.771853171747173"><ele>218.0</ele><time>2026-04-21T11:52:22Z</time></trkpt><trkpt lat="45.58710395167419" lon="10.771758906627927"><ele>218.0</ele><time>2026-04-21T11:52:24Z</time></trkpt><trkpt lat="45.58703975724543" lon="10.77161810545135"><ele>218.0</ele><time>2026-04-21T11:52:26Z</time></trkpt><trkpt lat="45.58696313733342" lon="10.771489432082596"><ele>218.0</ele><time>2026-04-21T11:52:28Z</time></trkpt><trkpt lat="45.586884156619334" lon="10.771368737320831"><ele>218.0</ele><time>2026-04-21T11:52:30Z</time></trkpt><trkpt lat="45.58679190301382" lon="10.771246262786622"><ele>218.0</ele><time>2026-04-21T11:52:32Z</time></trkpt><trkpt lat="45.58675807868027" lon="10.771161547245201"><ele>218.0</ele><time>2026-04-21T11:52:33Z</time></trkpt><trkpt lat="45.58672523603141" lon="10.771080246585235"><ele>217.60000000000002</ele><time>2026-04-21T11:52:34Z</time></trkpt><trkpt lat="45.5866889213136" lon="10.771003960572026"><ele>217.20000000000002</ele><time>2026-04-21T11:52:35Z</time></trkpt><trkpt lat="45.58661975657569" lon="10.770852802781121"><ele>216.8</ele><time>2026-04-21T11:52:37Z</time></trkpt><trkpt lat="45.586554768403644" lon="10.770698979135833"><ele>216.4</ele><time>2026-04-21T11:52:39Z</time></trkpt><trkpt lat="45.586493013728095" lon="10.770544318381974"><ele>216.0</ele><time>2026-04-21T11:52:41Z</time></trkpt><trkpt lat="45.58642915761637" lon="10.770395761659703"><ele>216.0</ele><time>2026-04-21T11:52:43Z</time></trkpt><trkpt lat="45.58634529324153" lon="10.770264515168007"><ele>216.00000000000003</ele><time>2026-04-21T11:52:45Z</time></trkpt><trkpt lat="45.58623077950935" lon="10.77019359923739"><ele>216.00000000000003</ele><time>2026-04-21T11:52:47Z</time></trkpt><trkpt lat="45.5861668280047" lon="10.77019435725654"><ele>216.0</ele><time>2026-04-21T11:52:48Z</time></trkpt><trkpt lat="45.586104604947565" lon="10.770217254060128"><ele>216.0</ele><time>2026-04-21T11:52:49Z</time></trkpt><trkpt lat="45.585992236710425" lon="10.770274428177347"><ele>216.20000000000002</ele><time>2026-04-21T11:52:51Z</time></trkpt><trkpt lat="45.58588033690878" lon="10.770319789775371"><ele>216.40000000000003</ele><time>2026-04-21T11:52:53Z</time></trkpt><trkpt lat="45.58577623243559" lon="10.77036226784393"><ele>216.6</ele><time>2026-04-21T11:52:55Z</time></trkpt><trkpt lat="45.5856783977365" lon="10.770390944118756"><ele>216.8</ele><time>2026-04-21T11:52:57Z</time></trkpt><trkpt lat="45.58558631628771" lon="10.770373625207991"><ele>217.0</ele><time>2026-04-21T11:52:59Z</time></trkpt><trkpt lat="45.58554259495499" lon="10.770285961479315"><ele>217.0</ele><time>2026-04-21T11:53:01Z</time></trkpt><trkpt lat="45.58543671139971" lon="10.770232459971592"><ele>217.0</ele><time>2026-04-21T11:53:02Z</time></trkpt><trkpt lat="45.585380224226284" lon="10.770085382115958"><ele>217.0</ele><time>2026-04-21T11:53:04Z</time></trkpt><trkpt lat="45.58530841007485" lon="10.769962739446271"><ele>217.0</ele><time>2026-04-21T11:53:06Z</time></trkpt><trkpt lat="45.58522579176643" lon="10.76985201524837"><ele>216.75</ele><time>2026-04-21T11:53:08Z</time></trkpt><trkpt lat="45.58514706288146" lon="10.769736154030047"><ele>216.5</ele><time>2026-04-21T11:53:10Z</time></trkpt><trkpt lat="45.5850725154991" lon="10.769613546212103"><ele>216.25</ele><time>2026-04-21T11:53:11.999Z</time></trkpt><trkpt lat="45.58498559113163" lon="10.769491748223064"><ele>216.0</ele><time>2026-04-21T11:53:13.999Z</time></trkpt><trkpt lat="45.58489288158243" lon="10.769379704003406"><ele>215.5</ele><time>2026-04-21T11:53:15.999Z</time></trkpt><trkpt lat="45.58480571239092" lon="10.769255155110041"><ele>215.0</ele><time>2026-04-21T11:53:17.999Z</time></trkpt><trkpt lat="45.58472135469208" lon="10.769133542803473"><ele>214.5</ele><time>2026-04-21T11:53:19.999Z</time></trkpt><trkpt lat="45.58465636112127" lon="10.769021646326443"><ele>214.0</ele><time>2026-04-21T11:53:21.999Z</time></trkpt><trkpt lat="45.58457396209631" lon="10.76891527389238"><ele>214.0</ele><time>2026-04-21T11:53:23.999Z</time></trkpt><trkpt lat="45.584518358409525" lon="10.768858928395224"><ele>213.99999999999997</ele><time>2026-04-21T11:53:24.999Z</time></trkpt><trkpt lat="45.584424728355735" lon="10.768747894640775"><ele>213.99999999999997</ele><time>2026-04-21T11:53:26.999Z</time></trkpt><trkpt lat="45.58437302847866" lon="10.768694642262929"><ele>214.0</ele><time>2026-04-21T11:53:27.999Z</time></trkpt><trkpt lat="45.584265906704786" lon="10.768614509679981"><ele>214.0</ele><time>2026-04-21T11:53:29.999Z</time></trkpt><trkpt lat="45.58415801967721" lon="10.76855578619966"><ele>213.75</ele><time>2026-04-21T11:53:31.999Z</time></trkpt><trkpt lat="45.58404635990336" lon="10.76850330965673"><ele>213.5</ele><time>2026-04-21T11:53:33.999Z</time></trkpt><trkpt lat="45.583937928639344" lon="10.768444666471527"><ele>213.25</ele><time>2026-04-21T11:53:35.999Z</time></trkpt><trkpt lat="45.58382495978665" lon="10.76840291252325"><ele>213.0</ele><time>2026-04-21T11:53:37.999Z</time></trkpt><trkpt lat="45.58371357797022" lon="10.768354476939995"><ele>213.0</ele><time>2026-04-21T11:53:39.999Z</time></trkpt><trkpt lat="45.583597675643475" lon="10.768319899493484"><ele>213.0</ele><time>2026-04-21T11:53:41.999Z</time></trkpt><trkpt lat="45.58348234507039" lon="10.768274359846696"><ele>213.0</ele><time>2026-04-21T11:53:43.999Z</time></trkpt><trkpt lat="45.58336897665367" lon="10.768233721164616"><ele>213.0</ele><time>2026-04-21T11:53:45.999Z</time></trkpt><trkpt lat="45.583247184437035" lon="10.76820084486435"><ele>213.0</ele><time>2026-04-21T11:53:47.999Z</time></trkpt><trkpt lat="45.583125779911995" lon="10.768158926743796"><ele>213.0</ele><time>2026-04-21T11:53:49.999Z</time></trkpt><trkpt lat="45.58300819919342" lon="10.768121197995256"><ele>213.0</ele><time>2026-04-21T11:53:51.999Z</time></trkpt><trkpt lat="45.58294620811279" lon="10.768101366416928"><ele>213.0</ele><time>2026-04-21T11:53:52.999Z</time></trkpt><trkpt lat="45.582825118157935" lon="10.768062572539769"><ele>213.0</ele><time>2026-04-21T11:53:54.999Z</time></trkpt><trkpt lat="45.58270374241578" lon="10.768042308556296"><ele>212.8</ele><time>2026-04-21T11:53:56.999Z</time></trkpt><trkpt lat="45.582580651281276" lon="10.76803915784036"><ele>212.60000000000002</ele><time>2026-04-21T11:53:58.999Z</time></trkpt><trkpt lat="45.582516642961444" lon="10.76804312246025"><ele>212.39999999999998</ele><time>2026-04-21T11:53:59.999Z</time></trkpt><trkpt lat="45.5823940009409" lon="10.768058932866726"><ele>212.2</ele><time>2026-04-21T11:54:01.999Z</time></trkpt><trkpt lat="45.58226849036297" lon="10.768069706167458"><ele>212.0</ele><time>2026-04-21T11:54:03.999Z</time></trkpt><trkpt lat="45.58214613018511" lon="10.76807967848794"><ele>212.0</ele><time>2026-04-21T11:54:05.999Z</time></trkpt><trkpt lat="45.582082826160196" lon="10.768083168494016"><ele>212.0</ele><time>2026-04-21T11:54:06.999Z</time></trkpt><trkpt lat="45.582019211539574" lon="10.768090871157952"><ele>212.0</ele><time>2026-04-21T11:54:07.999Z</time></trkpt><trkpt lat="45.581956381625524" lon="10.76809705083041"><ele>212.0</ele><time>2026-04-21T11:54:08.999Z</time></trkpt><trkpt lat="45.58189312908214" lon="10.76810531549797"><ele>212.0</ele><time>2026-04-21T11:54:09.999Z</time></trkpt><trkpt lat="45.58182993026033" lon="10.768113809931195"><ele>212.0</ele><time>2026-04-21T11:54:10.999Z</time></trkpt><trkpt lat="45.58176706621886" lon="10.76812125580971"><ele>212.0</ele><time>2026-04-21T11:54:11.998Z</time></trkpt><trkpt lat="45.58164213805473" lon="10.768131009365305"><ele>212.2</ele><time>2026-04-21T11:54:13.998Z</time></trkpt><trkpt lat="45.581517971054225" lon="10.768145877603512"><ele>212.39999999999998</ele><time>2026-04-21T11:54:16Z</time></trkpt><trkpt lat="45.58139626088556" lon="10.768159444310232"><ele>212.60000000000002</ele><time>2026-04-21T11:54:18Z</time></trkpt><trkpt lat="45.58127235391387" lon="10.768171254595783"><ele>212.8</ele><time>2026-04-21T11:54:20Z</time></trkpt><trkpt lat="45.58120847079115" lon="10.768180484925027"><ele>213.0</ele><time>2026-04-21T11:54:21Z</time></trkpt><trkpt lat="45.58114465710233" lon="10.768184095803589"><ele>213.0</ele><time>2026-04-21T11:54:22Z</time></trkpt><trkpt lat="45.58103275781644" lon="10.768195321372175"><ele>213.0</ele><time>2026-04-21T11:54:24Z</time></trkpt><trkpt lat="45.5809652355771" lon="10.768190378864768"><ele>213.0</ele><time>2026-04-21T11:54:25Z</time></trkpt><trkpt lat="45.58084548205758" lon="10.768201721952405"><ele>213.0</ele><time>2026-04-21T11:54:27Z</time></trkpt><trkpt lat="45.58072767821731" lon="10.768203765075635"><ele>213.0</ele><time>2026-04-21T11:54:29Z</time></trkpt><trkpt lat="45.580608045908996" lon="10.768174299579213"><ele>213.0</ele><time>2026-04-21T11:54:31Z</time></trkpt><trkpt lat="45.58049269576884" lon="10.768132961196493"><ele>213.0</ele><time>2026-04-21T11:54:33Z</time></trkpt><trkpt lat="45.58037619571258" lon="10.768088765829582"><ele>213.0</ele><time>2026-04-21T11:54:35Z</time></trkpt><trkpt lat="45.580259587041276" lon="10.768041773979306"><ele>213.0</ele><time>2026-04-21T11:54:37Z</time></trkpt><trkpt lat="45.58015060941888" lon="10.767982879378076"><ele>213.0</ele><time>2026-04-21T11:54:39Z</time></trkpt><trkpt lat="45.58009455426774" lon="10.767935248589646"><ele>213.0</ele><time>2026-04-21T11:54:40Z</time></trkpt><trkpt lat="45.58003721271132" lon="10.76788944328398"><ele>213.0</ele><time>2026-04-21T11:54:41Z</time></trkpt><trkpt lat="45.579923504454165" lon="10.767818612426488"><ele>213.0</ele><time>2026-04-21T11:54:43Z</time></trkpt><trkpt lat="45.57980744797658" lon="10.76774908019207"><ele>213.0</ele><time>2026-04-21T11:54:45Z</time></trkpt><trkpt lat="45.579743976682416" lon="10.767722256158045"><ele>213.0</ele><time>2026-04-21T11:54:46Z</time></trkpt><trkpt lat="45.579628570728225" lon="10.767682374614566"><ele>212.75</ele><time>2026-04-21T11:54:48Z</time></trkpt><trkpt lat="45.579519624966196" lon="10.76764895310923"><ele>212.5</ele><time>2026-04-21T11:54:50Z</time></trkpt><trkpt lat="45.579400731017" lon="10.767617395999551"><ele>212.25</ele><time>2026-04-21T11:54:52Z</time></trkpt><trkpt lat="45.579281080269595" lon="10.767598678764053"><ele>212.0</ele><time>2026-04-21T11:54:54Z</time></trkpt><trkpt lat="45.57916583846461" lon="10.767575355520389"><ele>211.75</ele><time>2026-04-21T11:54:56Z</time></trkpt><trkpt lat="45.57904837907285" lon="10.76755359522943"><ele>211.5</ele><time>2026-04-21T11:54:58Z</time></trkpt><trkpt lat="45.57893060715302" lon="10.767528835286083"><ele>211.25</ele><time>2026-04-21T11:55:00Z</time></trkpt><trkpt lat="45.57881403280763" lon="10.767511384790552"><ele>211.0</ele><time>2026-04-21T11:55:02Z</time></trkpt><trkpt lat="45.57869722799867" lon="10.76749055086973"><ele>211.0</ele><time>2026-04-21T11:55:04Z</time></trkpt><trkpt lat="45.57859048576374" lon="10.767466726476242"><ele>211.0</ele><time>2026-04-21T11:55:06Z</time></trkpt><trkpt lat="45.57848086736017" lon="10.767450253182787"><ele>211.0</ele><time>2026-04-21T11:55:08Z</time></trkpt><trkpt lat="45.57836697457521" lon="10.767429486639026"><ele>211.0</ele><time>2026-04-21T11:55:10Z</time></trkpt><trkpt lat="45.57825376149467" lon="10.767405026778617"><ele>211.0</ele><time>2026-04-21T11:55:12Z</time></trkpt><trkpt lat="45.57814314052372" lon="10.767380118036488"><ele>211.0</ele><time>2026-04-21T11:55:14Z</time></trkpt><trkpt lat="45.57803015280976" lon="10.767354256343621"><ele>211.0</ele><time>2026-04-21T11:55:15.999Z</time></trkpt><trkpt lat="45.57791519015062" lon="10.767340007329706"><ele>211.0</ele><time>2026-04-21T11:55:17.999Z</time></trkpt><trkpt lat="45.57779931610443" lon="10.767323083143076"><ele>211.0</ele><time>2026-04-21T11:55:19.999Z</time></trkpt><trkpt lat="45.57768414614204" lon="10.767296619955385"><ele>210.75</ele><time>2026-04-21T11:55:21.999Z</time></trkpt><trkpt lat="45.577572564469484" lon="10.76727927730934"><ele>210.5</ele><time>2026-04-21T11:55:23.999Z</time></trkpt><trkpt lat="45.577460131974306" lon="10.767265126878721"><ele>210.25</ele><time>2026-04-21T11:55:25.999Z</time></trkpt><trkpt lat="45.577346232972836" lon="10.767236826752558"><ele>210.0</ele><time>2026-04-21T11:55:27.999Z</time></trkpt><trkpt lat="45.57723610220124" lon="10.767198508951987"><ele>210.0</ele><time>2026-04-21T11:55:29.999Z</time></trkpt><trkpt lat="45.577120633159744" lon="10.767182506369304"><ele>210.0</ele><time>2026-04-21T11:55:31.999Z</time></trkpt><trkpt lat="45.577004097616324" lon="10.76717336844026"><ele>210.0</ele><time>2026-04-21T11:55:33.999Z</time></trkpt><trkpt lat="45.576889980994686" lon="10.76715549236134"><ele>210.0</ele><time>2026-04-21T11:55:35.999Z</time></trkpt><trkpt lat="45.576780717207484" lon="10.767134701263565"><ele>210.0</ele><time>2026-04-21T11:55:37.999Z</time></trkpt><trkpt lat="45.57666976583586" lon="10.767123985914695"><ele>210.0</ele><time>2026-04-21T11:55:39.999Z</time></trkpt><trkpt lat="45.57656075589394" lon="10.767127980122124"><ele>210.0</ele><time>2026-04-21T11:55:41.999Z</time></trkpt><trkpt lat="45.57644590532298" lon="10.76711732038533"><ele>210.0</ele><time>2026-04-21T11:55:43.999Z</time></trkpt><trkpt lat="45.57633501532951" lon="10.767092673053469"><ele>210.0</ele><time>2026-04-21T11:55:45.999Z</time></trkpt><trkpt lat="45.57622370434356" lon="10.767062737600012"><ele>209.5</ele><time>2026-04-21T11:55:47.999Z</time></trkpt><trkpt lat="45.576106101952774" lon="10.767040602798387"><ele>209.0</ele><time>2026-04-21T11:55:49.999Z</time></trkpt><trkpt lat="45.575994124397205" lon="10.767007418307188"><ele>208.5</ele><time>2026-04-21T11:55:51.999Z</time></trkpt><trkpt lat="45.57587533830371" lon="10.766978986752008"><ele>208.0</ele><time>2026-04-21T11:55:53.999Z</time></trkpt><trkpt lat="45.57575836389281" lon="10.76695327796575"><ele>208.0</ele><time>2026-04-21T11:55:55.999Z</time></trkpt><trkpt lat="45.575638479648994" lon="10.766926856235203"><ele>208.0</ele><time>2026-04-21T11:55:57.999Z</time></trkpt><trkpt lat="45.57551372860166" lon="10.766903380009296"><ele>208.0</ele><time>2026-04-21T11:55:59.999Z</time></trkpt><trkpt lat="45.575450325986594" lon="10.766885686321377"><ele>208.0</ele><time>2026-04-21T11:56:00.999Z</time></trkpt><trkpt lat="45.57533193437582" lon="10.766853219008734"><ele>208.0</ele><time>2026-04-21T11:56:02.999Z</time></trkpt><trkpt lat="45.57521856535785" lon="10.766826744598722"><ele>207.8</ele><time>2026-04-21T11:56:04.999Z</time></trkpt><trkpt lat="45.575105418117225" lon="10.766810300100838"><ele>207.60000000000002</ele><time>2026-04-21T11:56:06.999Z</time></trkpt><trkpt lat="45.574992352009964" lon="10.76679250320746"><ele>207.39999999999998</ele><time>2026-04-21T11:56:08.999Z</time></trkpt><trkpt lat="45.57489342495548" lon="10.766758677162827"><ele>207.2</ele><time>2026-04-21T11:56:10.999Z</time></trkpt><trkpt lat="45.574787461902375" lon="10.766740183823055"><ele>207.0</ele><time>2026-04-21T11:56:12.999Z</time></trkpt><trkpt lat="45.57467684467038" lon="10.766719804723788"><ele>207.0</ele><time>2026-04-21T11:56:15.998Z</time></trkpt><trkpt lat="45.5745664493489" lon="10.766689114981132"><ele>207.0</ele><time>2026-04-21T11:56:17.998Z</time></trkpt><trkpt lat="45.5744431593071" lon="10.766671679237335"><ele>207.0</ele><time>2026-04-21T11:56:19.998Z</time></trkpt><trkpt lat="45.57433784623068" lon="10.766671401923551"><ele>207.0</ele><time>2026-04-21T11:56:22Z</time></trkpt><trkpt lat="45.57423266504697" lon="10.766646606653909"><ele>207.0</ele><time>2026-04-21T11:56:24Z</time></trkpt><trkpt lat="45.57409266373326" lon="10.76661794223318"><ele>206.6</ele><time>2026-04-21T11:56:26Z</time></trkpt><trkpt lat="45.57398428320162" lon="10.76659701248424"><ele>206.2</ele><time>2026-04-21T11:56:28Z</time></trkpt><trkpt lat="45.57387987440317" lon="10.766568906979309"><ele>205.8</ele><time>2026-04-21T11:56:30Z</time></trkpt><trkpt lat="45.57377740921735" lon="10.76654945973905"><ele>205.4</ele><time>2026-04-21T11:56:32Z</time></trkpt><trkpt lat="45.57368630879642" lon="10.76653004593824"><ele>205.0</ele><time>2026-04-21T11:56:34Z</time></trkpt><trkpt lat="45.57361447567948" lon="10.766500031522776"><ele>205.0</ele><time>2026-04-21T11:56:36Z</time></trkpt><trkpt lat="45.57352696857359" lon="10.766488013022762"><ele>205.0</ele><time>2026-04-21T11:56:38Z</time></trkpt><trkpt lat="45.573431670535776" lon="10.76647296126029"><ele>205.0</ele><time>2026-04-21T11:56:40Z</time></trkpt><trkpt lat="45.573327016626045" lon="10.76646159951908"><ele>205.0</ele><time>2026-04-21T11:56:42Z</time></trkpt><trkpt lat="45.5732238602396" lon="10.766452143952817"><ele>205.0</ele><time>2026-04-21T11:56:44Z</time></trkpt><trkpt lat="45.57312566472399" lon="10.766427102917573"><ele>205.0</ele><time>2026-04-21T11:56:46Z</time></trkpt><trkpt lat="45.5730525935335" lon="10.766405287527222"><ele>205.0</ele><time>2026-04-21T11:56:48Z</time></trkpt><trkpt lat="45.57296754693853" lon="10.76639129710577"><ele>205.0</ele><time>2026-04-21T11:56:50Z</time></trkpt><trkpt lat="45.57287484789622" lon="10.76636415622979"><ele>205.0</ele><time>2026-04-21T11:56:52Z</time></trkpt><trkpt lat="45.57280542900481" lon="10.766354659782893"><ele>205.0</ele><time>2026-04-21T11:56:54Z</time></trkpt><trkpt lat="45.57264970054801" lon="10.766333242809486"><ele>204.8</ele><time>2026-04-21T11:56:56Z</time></trkpt><trkpt lat="45.57255444003225" lon="10.766310435353164"><ele>204.6</ele><time>2026-04-21T11:56:58Z</time></trkpt><trkpt lat="45.57245401657769" lon="10.766290333117928"><ele>204.39999999999998</ele><time>2026-04-21T11:57:00Z</time></trkpt><trkpt lat="45.5723508172569" lon="10.766259034316176"><ele>204.2</ele><time>2026-04-21T11:57:02Z</time></trkpt><trkpt lat="45.5722502635019" lon="10.766244620061022"><ele>204.0</ele><time>2026-04-21T11:57:04Z</time></trkpt><trkpt lat="45.572142431631235" lon="10.766249479601246"><ele>204.0</ele><time>2026-04-21T11:57:06Z</time></trkpt><trkpt lat="45.57203058818967" lon="10.766261879491253"><ele>204.0</ele><time>2026-04-21T11:57:08Z</time></trkpt><trkpt lat="45.571922738273116" lon="10.766282110331625"><ele>204.0</ele><time>2026-04-21T11:57:10Z</time></trkpt><trkpt lat="45.57182232050542" lon="10.766333602408443"><ele>204.0</ele><time>2026-04-21T11:57:12Z</time></trkpt><trkpt lat="45.571710221542496" lon="10.766394724733308"><ele>204.0</ele><time>2026-04-21T11:57:14Z</time></trkpt><trkpt lat="45.571620026674395" lon="10.766453452548307"><ele>203.6</ele><time>2026-04-21T11:57:16Z</time></trkpt><trkpt lat="45.57151121418804" lon="10.76650921875133"><ele>203.2</ele><time>2026-04-21T11:57:18Z</time></trkpt><trkpt lat="45.571408254177086" lon="10.766559411583662"><ele>202.79999999999998</ele><time>2026-04-21T11:57:19.999Z</time></trkpt><trkpt lat="45.57130184602628" lon="10.766611193710405"><ele>202.39999999999998</ele><time>2026-04-21T11:57:21.999Z</time></trkpt><trkpt lat="45.571196877349486" lon="10.766669187942568"><ele>202.0</ele><time>2026-04-21T11:57:23.999Z</time></trkpt><trkpt lat="45.571095201186836" lon="10.766736263690609"><ele>201.75</ele><time>2026-04-21T11:57:25.999Z</time></trkpt><trkpt lat="45.57099884089103" lon="10.766806687840173"><ele>201.5</ele><time>2026-04-21T11:57:27.999Z</time></trkpt><trkpt lat="45.57090784036205" lon="10.76687915292597"><ele>201.25</ele><time>2026-04-21T11:57:29.999Z</time></trkpt><trkpt lat="45.570819826082165" lon="10.76695153874686"><ele>201.0</ele><time>2026-04-21T11:57:31.999Z</time></trkpt><trkpt lat="45.5706611369247" lon="10.767055698761384"><ele>201.0</ele><time>2026-04-21T11:57:34.999Z</time></trkpt><trkpt lat="45.570580079134736" lon="10.767150650475092"><ele>201.0</ele><time>2026-04-21T11:57:36.999Z</time></trkpt><trkpt lat="45.57049726651688" lon="10.767242218161858"><ele>201.0</ele><time>2026-04-21T11:57:38.999Z</time></trkpt><trkpt lat="45.57040721718611" lon="10.767345147932636"><ele>201.0</ele><time>2026-04-21T11:57:40.999Z</time></trkpt><trkpt lat="45.57031214529527" lon="10.767430637421132"><ele>201.0</ele><time>2026-04-21T11:57:42.999Z</time></trkpt><trkpt lat="45.57020941513018" lon="10.767498238356266"><ele>201.20000000000002</ele><time>2026-04-21T11:57:44.999Z</time></trkpt><trkpt lat="45.57010958333348" lon="10.767562807597766"><ele>201.4</ele><time>2026-04-21T11:57:46.999Z</time></trkpt><trkpt lat="45.57001239841464" lon="10.767634021082966"><ele>201.6</ele><time>2026-04-21T11:57:48.999Z</time></trkpt><trkpt lat="45.56991620889104" lon="10.767709947882448"><ele>201.8</ele><time>2026-04-21T11:57:50.999Z</time></trkpt><trkpt lat="45.56982722942099" lon="10.767796906524634"><ele>202.0</ele><time>2026-04-21T11:57:52.999Z</time></trkpt><trkpt lat="45.569748905005085" lon="10.767892937451826"><ele>202.2</ele><time>2026-04-21T11:57:54.999Z</time></trkpt><trkpt lat="45.56969564949903" lon="10.767992925931733"><ele>202.39999999999998</ele><time>2026-04-21T11:57:56.999Z</time></trkpt><trkpt lat="45.56962864447413" lon="10.768099994093324"><ele>202.60000000000002</ele><time>2026-04-21T11:57:58.999Z</time></trkpt><trkpt lat="45.56957712191187" lon="10.76821180417002"><ele>202.8</ele><time>2026-04-21T11:58:00.999Z</time></trkpt><trkpt lat="45.56950527198782" lon="10.7683330069182"><ele>203.0</ele><time>2026-04-21T11:58:02.999Z</time></trkpt><trkpt lat="45.56944163057939" lon="10.768432978162911"><ele>203.0</ele><time>2026-04-21T11:58:04.999Z</time></trkpt><trkpt lat="45.56936134178862" lon="10.768513196606945"><ele>203.0</ele><time>2026-04-21T11:58:06.999Z</time></trkpt><trkpt lat="45.56927373104167" lon="10.768574464308745"><ele>203.0</ele><time>2026-04-21T11:58:08.999Z</time></trkpt><trkpt lat="45.569188394258475" lon="10.768645159414413"><ele>203.0</ele><time>2026-04-21T11:58:10.999Z</time></trkpt><trkpt lat="45.569107423398926" lon="10.768716999608401"><ele>203.0</ele><time>2026-04-21T11:58:12.999Z</time></trkpt><trkpt lat="45.56903443391821" lon="10.76877614848864"><ele>203.00000000000003</ele><time>2026-04-21T11:58:14.999Z</time></trkpt><trkpt lat="45.568964119684786" lon="10.76882903676875"><ele>203.0</ele><time>2026-04-21T11:58:16.999Z</time></trkpt><trkpt lat="45.568895450406" lon="10.768877310964417"><ele>203.0</ele><time>2026-04-21T11:58:18.998Z</time></trkpt><trkpt lat="45.56882545658539" lon="10.768851147196527"><ele>203.0</ele><time>2026-04-21T11:58:20.998Z</time></trkpt><trkpt lat="45.568824923822646" lon="10.768757752397242"><ele>203.00000000000003</ele><time>2026-04-21T11:58:21.998Z</time></trkpt><trkpt lat="45.56871226326187" lon="10.768742207371501"><ele>203.0</ele><time>2026-04-21T11:58:23.998Z</time></trkpt><trkpt lat="45.56861106839759" lon="10.768756352914286"><ele>202.60000000000002</ele><time>2026-04-21T11:58:26Z</time></trkpt><trkpt lat="45.56851678198401" lon="10.768814302003046"><ele>202.20000000000002</ele><time>2026-04-21T11:58:28Z</time></trkpt><trkpt lat="45.5684207983003" lon="10.768880979959697"><ele>201.8</ele><time>2026-04-21T11:58:30Z</time></trkpt><trkpt lat="45.568323345403584" lon="10.76893923139993"><ele>201.4</ele><time>2026-04-21T11:58:32Z</time></trkpt><trkpt lat="45.5682279098304" lon="10.768999790060704"><ele>201.0</ele><time>2026-04-21T11:58:34Z</time></trkpt><trkpt lat="45.568136693490025" lon="10.769057262416943"><ele>201.0</ele><time>2026-04-21T11:58:36Z</time></trkpt><trkpt lat="45.56804741241057" lon="10.769117561798682"><ele>201.0</ele><time>2026-04-21T11:58:38Z</time></trkpt><trkpt lat="45.56795780734807" lon="10.769182497606456"><ele>201.0</ele><time>2026-04-21T11:58:40Z</time></trkpt><trkpt lat="45.56786362718463" lon="10.769241103351264"><ele>201.0</ele><time>2026-04-21T11:58:42Z</time></trkpt><trkpt lat="45.56776573616533" lon="10.769276650241508"><ele>201.0</ele><time>2026-04-21T11:58:44Z</time></trkpt><trkpt lat="45.567675030196845" lon="10.769339442051633"><ele>201.0</ele><time>2026-04-21T11:58:46Z</time></trkpt><trkpt lat="45.56757832809346" lon="10.769404974061294"><ele>201.0</ele><time>2026-04-21T11:58:48Z</time></trkpt><trkpt lat="45.56748851007849" lon="10.76946734031062"><ele>201.0</ele><time>2026-04-21T11:58:50Z</time></trkpt><trkpt lat="45.56738304881789" lon="10.769546961919666"><ele>201.0</ele><time>2026-04-21T11:58:53Z</time></trkpt><trkpt lat="45.567320630691846" lon="10.769573559379706"><ele>201.0</ele><time>2026-04-21T11:58:56Z</time></trkpt><trkpt lat="45.56724710426959" lon="10.769625131264277"><ele>201.0</ele><time>2026-04-21T11:59:01Z</time></trkpt><trkpt lat="45.56718362208379" lon="10.769674437351396"><ele>201.0</ele><time>2026-04-21T11:59:05Z</time></trkpt><trkpt lat="45.567138832946455" lon="10.769589545111996"><ele>201.0</ele><time>2026-04-21T11:59:09Z</time></trkpt><trkpt lat="45.567074689766926" lon="10.769534653232228"><ele>201.0</ele><time>2026-04-21T11:59:10Z</time></trkpt><trkpt lat="45.56703463887286" lon="10.769392992335806"><ele>201.0</ele><time>2026-04-21T11:59:12Z</time></trkpt><trkpt lat="45.56697416950799" lon="10.769256876491086"><ele>201.0</ele><time>2026-04-21T11:59:14Z</time></trkpt><trkpt lat="45.56692385584622" lon="10.769118246600517"><ele>200.60000000000002</ele><time>2026-04-21T11:59:16Z</time></trkpt><trkpt lat="45.56686894307" lon="10.76899243559792"><ele>200.2</ele><time>2026-04-21T11:59:18Z</time></trkpt><trkpt lat="45.56682341304163" lon="10.768859653524766"><ele>199.8</ele><time>2026-04-21T11:59:20Z</time></trkpt><trkpt lat="45.56677311365915" lon="10.768716133209585"><ele>199.39999999999998</ele><time>2026-04-21T11:59:21.999Z</time></trkpt><trkpt lat="45.56670881753288" lon="10.768562589062428"><ele>199.0</ele><time>2026-04-21T11:59:23.999Z</time></trkpt><trkpt lat="45.566676887430354" lon="10.768483688944015"><ele>199.0</ele><time>2026-04-21T11:59:24.999Z</time></trkpt><trkpt lat="45.56660405766435" lon="10.76834149773346"><ele>199.0</ele><time>2026-04-21T11:59:26.999Z</time></trkpt><trkpt lat="45.56656589907711" lon="10.768202341995567"><ele>199.0</ele><time>2026-04-21T11:59:28.999Z</time></trkpt><trkpt lat="45.566507155912774" lon="10.768055582158416"><ele>199.0</ele><time>2026-04-21T11:59:30.999Z</time></trkpt><trkpt lat="45.566445894539335" lon="10.767908962941258"><ele>199.0</ele><time>2026-04-21T11:59:32.999Z</time></trkpt><trkpt lat="45.56640426214915" lon="10.76783659172091"><ele>199.0</ele><time>2026-04-21T11:59:33.999Z</time></trkpt><trkpt lat="45.56635474494059" lon="10.767689918915599"><ele>199.0</ele><time>2026-04-21T11:59:35.999Z</time></trkpt><trkpt lat="45.56630071820513" lon="10.767533374116942"><ele>199.0</ele><time>2026-04-21T11:59:37.999Z</time></trkpt><trkpt lat="45.56636708773615" lon="10.767369430523788"><ele>199.0</ele><time>2026-04-21T11:59:39.999Z</time></trkpt><trkpt lat="45.56643956097276" lon="10.767336548624165"><ele>199.39999999999998</ele><time>2026-04-21T11:59:40.999Z</time></trkpt><trkpt lat="45.56653200212056" lon="10.767310481286886"><ele>199.8</ele><time>2026-04-21T11:59:42.999Z</time></trkpt><trkpt lat="45.566633589153604" lon="10.767225141727616"><ele>200.2</ele><time>2026-04-21T11:59:44.999Z</time></trkpt><trkpt lat="45.56673413134988" lon="10.767150406897631"><ele>200.60000000000002</ele><time>2026-04-21T11:59:46.999Z</time></trkpt><trkpt lat="45.56684004703012" lon="10.76709143062505"><ele>201.0</ele><time>2026-04-21T11:59:48.999Z</time></trkpt><trkpt lat="45.56694512969363" lon="10.76702383751961"><ele>200.75</ele><time>2026-04-21T11:59:50.999Z</time></trkpt><trkpt lat="45.56705347018707" lon="10.766951419272143"><ele>200.5</ele><time>2026-04-21T11:59:52.999Z</time></trkpt><trkpt lat="45.56715724825178" lon="10.766886639915649"><ele>200.25</ele><time>2026-04-21T11:59:54.999Z</time></trkpt><trkpt lat="45.567267897929106" lon="10.766817286816451"><ele>200.0</ele><time>2026-04-21T11:59:56.999Z</time></trkpt><trkpt lat="45.56737572224639" lon="10.766759266198887"><ele>199.5</ele><time>2026-04-21T11:59:58.999Z</time></trkpt><trkpt lat="45.56748347676783" lon="10.766684917505106"><ele>199.0</ele><time>2026-04-21T12:00:00.999Z</time></trkpt><trkpt lat="45.56758968299771" lon="10.766614378967743"><ele>198.5</ele><time>2026-04-21T12:00:02.999Z</time></trkpt><trkpt lat="45.56769707438818" lon="10.766551758021057"><ele>198.0</ele><time>2026-04-21T12:00:04.999Z</time></trkpt><trkpt lat="45.56779603600025" lon="10.76647598370036"><ele>198.0</ele><time>2026-04-21T12:00:06.999Z</time></trkpt><trkpt lat="45.567824370411" lon="10.766320854152147"><ele>198.0</ele><time>2026-04-21T12:00:08.999Z</time></trkpt><trkpt lat="45.56779647612211" lon="10.766240186021541"><ele>198.0</ele><time>2026-04-21T12:00:09.999Z</time></trkpt><trkpt lat="45.567739202119654" lon="10.766098988904997"><ele>198.0</ele><time>2026-04-21T12:00:11.999Z</time></trkpt><trkpt lat="45.56769824326177" lon="10.765958703401395"><ele>198.0</ele><time>2026-04-21T12:00:13.999Z</time></trkpt><trkpt lat="45.567658060267284" lon="10.765805287026408"><ele>198.2</ele><time>2026-04-21T12:00:15.999Z</time></trkpt><trkpt lat="45.56761769978257" lon="10.765654572061877"><ele>198.4</ele><time>2026-04-21T12:00:17.999Z</time></trkpt><trkpt lat="45.5675709116815" lon="10.765514327934504"><ele>198.6</ele><time>2026-04-21T12:00:19.999Z</time></trkpt><trkpt lat="45.567533538488256" lon="10.765369603085537"><ele>198.79999999999998</ele><time>2026-04-21T12:00:21.998Z</time></trkpt><trkpt lat="45.56749515412931" lon="10.765221725866622"><ele>199.0</ele><time>2026-04-21T12:00:23.998Z</time></trkpt><trkpt lat="45.567447001211235" lon="10.765087396623404"><ele>199.0</ele><time>2026-04-21T12:00:25.998Z</time></trkpt><trkpt lat="45.56741086675263" lon="10.764954865960568"><ele>199.0</ele><time>2026-04-21T12:00:27.998Z</time></trkpt><trkpt lat="45.567372664103985" lon="10.764804460853153"><ele>199.0</ele><time>2026-04-21T12:00:29.998Z</time></trkpt><trkpt lat="45.567332198445264" lon="10.764668339337105"><ele>199.0</ele><time>2026-04-21T12:00:32Z</time></trkpt><trkpt lat="45.56729258130527" lon="10.764520055330689"><ele>199.0</ele><time>2026-04-21T12:00:34Z</time></trkpt><trkpt lat="45.56726077803826" lon="10.764358794683382"><ele>198.5</ele><time>2026-04-21T12:00:36Z</time></trkpt><trkpt lat="45.567222007685096" lon="10.764198937272827"><ele>198.0</ele><time>2026-04-21T12:00:38Z</time></trkpt><trkpt lat="45.56718053665315" lon="10.764045114493259"><ele>197.5</ele><time>2026-04-21T12:00:40Z</time></trkpt><trkpt lat="45.567139967016246" lon="10.763895318726208"><ele>197.0</ele><time>2026-04-21T12:00:42Z</time></trkpt><trkpt lat="45.567104060670054" lon="10.763738083106958"><ele>197.0</ele><time>2026-04-21T12:00:44Z</time></trkpt><trkpt lat="45.567067280048306" lon="10.76358420823574"><ele>197.0</ele><time>2026-04-21T12:00:46Z</time></trkpt><trkpt lat="45.56703000251385" lon="10.763436124364869"><ele>197.0</ele><time>2026-04-21T12:00:48Z</time></trkpt><trkpt lat="45.56699057041331" lon="10.76329615843642"><ele>197.0</ele><time>2026-04-21T12:00:50Z</time></trkpt><trkpt lat="45.567014047105424" lon="10.763157532048433"><ele>197.0</ele><time>2026-04-21T12:00:52Z</time></trkpt><trkpt lat="45.56706569252659" lon="10.763032584397592"><ele>196.8</ele><time>2026-04-21T12:00:54Z</time></trkpt><trkpt lat="45.5671508994864" lon="10.762939332364088"><ele>196.6</ele><time>2026-04-21T12:00:56Z</time></trkpt><trkpt lat="45.567193386370505" lon="10.762816281558258"><ele>196.4</ele><time>2026-04-21T12:00:58Z</time></trkpt><trkpt lat="45.56723243398623" lon="10.762697941931352"><ele>196.20000000000002</ele><time>2026-04-21T12:01:00Z</time></trkpt><trkpt lat="45.56717250577632" lon="10.762595386244199"><ele>196.0</ele><time>2026-04-21T12:01:02Z</time></trkpt><trkpt lat="45.567131619396896" lon="10.762497953481661"><ele>196.33333333333331</ele><time>2026-04-21T12:01:04Z</time></trkpt><trkpt lat="45.567089834936226" lon="10.762430187532468"><ele>196.66666666666666</ele><time>2026-04-21T12:01:08Z</time></trkpt><trkpt lat="45.567039684831954" lon="10.762368065211147"><ele>197.0</ele><time>2026-04-21T12:01:50.999Z</time></trkpt><trkpt lat="45.56696861810532" lon="10.762371037487675"><ele>197.33333333333331</ele><time>2026-04-21T12:01:52.999Z</time></trkpt><trkpt lat="45.566895299063326" lon="10.762440888288891"><ele>197.66666666666666</ele><time>2026-04-21T12:01:54.999Z</time></trkpt><trkpt lat="45.56679625653136" lon="10.762472050506997"><ele>198.0</ele><time>2026-04-21T12:01:56.999Z</time></trkpt><trkpt lat="45.566675334153324" lon="10.762484736292894"><ele>198.0</ele><time>2026-04-21T12:01:58.999Z</time></trkpt><trkpt lat="45.56657800388663" lon="10.762598564475065"><ele>198.0</ele><time>2026-04-21T12:02:00.999Z</time></trkpt><trkpt lat="45.56646542708878" lon="10.76267134348642"><ele>198.0</ele><time>2026-04-21T12:02:02.999Z</time></trkpt><trkpt lat="45.56634958640337" lon="10.76274098907878"><ele>198.0</ele><time>2026-04-21T12:02:04.999Z</time></trkpt><trkpt lat="45.566286847560754" lon="10.762774324039556"><ele>198.0</ele><time>2026-04-21T12:02:05.999Z</time></trkpt><trkpt lat="45.56622106056898" lon="10.7628053137423"><ele>198.33333333333334</ele><time>2026-04-21T12:02:06.999Z</time></trkpt><trkpt lat="45.566153277554285" lon="10.762832423700665"><ele>198.66666666666669</ele><time>2026-04-21T12:02:07.999Z</time></trkpt><trkpt lat="45.56602040039201" lon="10.762838810145977"><ele>199.0</ele><time>2026-04-21T12:02:09.999Z</time></trkpt><trkpt lat="45.56595492018927" lon="10.762851924958682"><ele>199.33333333333334</ele><time>2026-04-21T12:02:10.999Z</time></trkpt><trkpt lat="45.56589034380685" lon="10.762869659244425"><ele>199.66666666666669</ele><time>2026-04-21T12:02:11.999Z</time></trkpt><trkpt lat="45.56582495054109" lon="10.76289087984053"><ele>200.0</ele><time>2026-04-21T12:02:12.999Z</time></trkpt><trkpt lat="45.565759093653014" lon="10.762907687038311"><ele>200.00000000000003</ele><time>2026-04-21T12:02:13.999Z</time></trkpt><trkpt lat="45.5656936961044" lon="10.762928845159772"><ele>200.0</ele><time>2026-04-21T12:02:14.999Z</time></trkpt><trkpt lat="45.565629102865024" lon="10.762939606448922"><ele>200.0</ele><time>2026-04-21T12:02:15.999Z</time></trkpt><trkpt lat="45.56556450312541" lon="10.76295599398759"><ele>200.0</ele><time>2026-04-21T12:02:16.999Z</time></trkpt><trkpt lat="45.56549633547407" lon="10.762971509535532"><ele>200.0</ele><time>2026-04-21T12:02:17.999Z</time></trkpt><trkpt lat="45.56543250685415" lon="10.762985179280491"><ele>200.00000000000003</ele><time>2026-04-21T12:02:18.999Z</time></trkpt><trkpt lat="45.56536616088407" lon="10.762995582228507"><ele>200.0</ele><time>2026-04-21T12:02:19.999Z</time></trkpt><trkpt lat="45.565243931204925" lon="10.763021434376473"><ele>200.33333333333334</ele><time>2026-04-21T12:02:21.999Z</time></trkpt><trkpt lat="45.56512437941836" lon="10.763046329079058"><ele>200.66666666666669</ele><time>2026-04-21T12:02:23.999Z</time></trkpt><trkpt lat="45.56505241829149" lon="10.763053984608309"><ele>201.0</ele><time>2026-04-21T12:02:24.998Z</time></trkpt><trkpt lat="45.564988185252524" lon="10.763066178688229"><ele>201.33333333333331</ele><time>2026-04-21T12:02:25.998Z</time></trkpt><trkpt lat="45.564923137539395" lon="10.763079630717085"><ele>201.66666666666666</ele><time>2026-04-21T12:02:26.998Z</time></trkpt><trkpt lat="45.564804993232755" lon="10.763109534497024"><ele>202.0</ele><time>2026-04-21T12:02:28.998Z</time></trkpt><trkpt lat="45.56474162673555" lon="10.763122827591852"><ele>202.0</ele><time>2026-04-21T12:02:29.998Z</time></trkpt><trkpt lat="45.56462750186987" lon="10.763146272950571"><ele>202.0</ele><time>2026-04-21T12:02:31.998Z</time></trkpt><trkpt lat="45.5645278378473" lon="10.763179222022567"><ele>202.0</ele><time>2026-04-21T12:02:33.998Z</time></trkpt><trkpt lat="45.56442578791225" lon="10.763230569484918"><ele>202.0</ele><time>2026-04-21T12:02:35.998Z</time></trkpt><trkpt lat="45.56432192133966" lon="10.76327823536188"><ele>202.0</ele><time>2026-04-21T12:02:38Z</time></trkpt><trkpt lat="45.56422482122937" lon="10.763330422330897"><ele>202.0</ele><time>2026-04-21T12:02:40Z</time></trkpt><trkpt lat="45.56411772928431" lon="10.763383927238143"><ele>202.0</ele><time>2026-04-21T12:02:42Z</time></trkpt><trkpt lat="45.564013804893435" lon="10.763441128253227"><ele>202.0</ele><time>2026-04-21T12:02:44Z</time></trkpt><trkpt lat="45.56390503974532" lon="10.763496750042737"><ele>202.0</ele><time>2026-04-21T12:02:46Z</time></trkpt><trkpt lat="45.56379562630463" lon="10.763547349873251"><ele>201.39999999999998</ele><time>2026-04-21T12:02:48Z</time></trkpt><trkpt lat="45.563687554754694" lon="10.763604154934935"><ele>200.79999999999998</ele><time>2026-04-21T12:02:50Z</time></trkpt><trkpt lat="45.563592422133844" lon="10.763657169639407"><ele>200.2</ele><time>2026-04-21T12:02:52Z</time></trkpt><trkpt lat="45.5634914464036" lon="10.763713056913137"><ele>199.6</ele><time>2026-04-21T12:02:54Z</time></trkpt><trkpt lat="45.56339377495457" lon="10.76376333492046"><ele>199.0</ele><time>2026-04-21T12:02:56Z</time></trkpt><trkpt lat="45.56329789245797" lon="10.763805133879892"><ele>199.0</ele><time>2026-04-21T12:02:58Z</time></trkpt><trkpt lat="45.563150662928706" lon="10.763874860751175"><ele>199.0</ele><time>2026-04-21T12:03:01Z</time></trkpt><trkpt lat="45.56305413351825" lon="10.763921846273083"><ele>199.0</ele><time>2026-04-21T12:03:03Z</time></trkpt><trkpt lat="45.56296139190823" lon="10.763980231523053"><ele>199.0</ele><time>2026-04-21T12:03:05Z</time></trkpt><trkpt lat="45.56286448318831" lon="10.764024298970906"><ele>198.39999999999998</ele><time>2026-04-21T12:03:07Z</time></trkpt><trkpt lat="45.56276915672491" lon="10.764072405425878"><ele>197.8</ele><time>2026-04-21T12:03:09Z</time></trkpt><trkpt lat="45.562671205539104" lon="10.764125726689759"><ele>197.2</ele><time>2026-04-21T12:03:11Z</time></trkpt><trkpt lat="45.562568981899574" lon="10.76417948526665"><ele>196.60000000000002</ele><time>2026-04-21T12:03:13Z</time></trkpt><trkpt lat="45.562466618859986" lon="10.76422870207816"><ele>196.0</ele><time>2026-04-21T12:03:15Z</time></trkpt><trkpt lat="45.56236005091213" lon="10.764278396729194"><ele>196.0</ele><time>2026-04-21T12:03:17Z</time></trkpt><trkpt lat="45.56226007469407" lon="10.764330839834157"><ele>196.0</ele><time>2026-04-21T12:03:19Z</time></trkpt><trkpt lat="45.562171445679276" lon="10.764391908156004"><ele>196.0</ele><time>2026-04-21T12:03:21Z</time></trkpt><trkpt lat="45.56207418253162" lon="10.764456391934239"><ele>196.0</ele><time>2026-04-21T12:03:23Z</time></trkpt><trkpt lat="45.56197282300927" lon="10.764525643465715"><ele>196.0</ele><time>2026-04-21T12:03:25Z</time></trkpt><trkpt lat="45.561878581483384" lon="10.764597970721068"><ele>197.0</ele><time>2026-04-21T12:03:27Z</time></trkpt><trkpt lat="45.56178498572793" lon="10.764669658471632"><ele>198.0</ele><time>2026-04-21T12:03:29Z</time></trkpt><trkpt lat="45.561689486987945" lon="10.764743659564436"><ele>199.0</ele><time>2026-04-21T12:03:30.999Z</time></trkpt><trkpt lat="45.56160375603028" lon="10.764822987868671"><ele>200.0</ele><time>2026-04-21T12:03:32.999Z</time></trkpt><trkpt lat="45.561521397826674" lon="10.764897819087993"><ele>201.0</ele><time>2026-04-21T12:03:34.999Z</time></trkpt><trkpt lat="45.56144640615545" lon="10.764965237979908"><ele>201.0</ele><time>2026-04-21T12:03:36.999Z</time></trkpt><trkpt lat="45.56137646551897" lon="10.765011961387515"><ele>201.0</ele><time>2026-04-21T12:03:38.999Z</time></trkpt><trkpt lat="45.56129580864258" lon="10.7650530414923"><ele>201.0</ele><time>2026-04-21T12:03:40.999Z</time></trkpt><trkpt lat="45.561242037744016" lon="10.764996807879943"><ele>201.0</ele><time>2026-04-21T12:03:42.999Z</time></trkpt><trkpt lat="45.56135791670035" lon="10.76481068694138"><ele>201.0</ele><time>2026-04-21T12:03:43.999Z</time></trkpt><trkpt lat="45.56145051859738" lon="10.764573015990148"><ele>201.0</ele><time>2026-04-21T12:03:44.999Z</time></trkpt><trkpt lat="45.56147617312716" lon="10.76448549496668"><ele>201.0</ele><time>2026-04-21T12:03:45.999Z</time></trkpt><trkpt lat="45.561497028726855" lon="10.764346938543737"><ele>201.0</ele><time>2026-04-21T12:03:47.999Z</time></trkpt><trkpt lat="45.5615219752571" lon="10.76424927691236"><ele>201.0</ele><time>2026-04-21T12:03:49.999Z</time></trkpt><trkpt lat="45.56152159803585" lon="10.764118812988038"><ele>201.0</ele><time>2026-04-21T12:03:52.999Z</time></trkpt><trkpt lat="45.56151932876095" lon="10.763945242546107"><ele>201.14285714285714</ele><time>2026-04-21T12:03:54.999Z</time></trkpt><trkpt lat="45.56151949470658" lon="10.763830651498635"><ele>201.2857142857143</ele><time>2026-04-21T12:03:56.999Z</time></trkpt><trkpt lat="45.56151003499055" lon="10.763716307104884"><ele>201.42857142857144</ele><time>2026-04-21T12:03:58.999Z</time></trkpt><trkpt lat="45.561508467103565" lon="10.763613373062357"><ele>201.57142857142856</ele><time>2026-04-21T12:04:00.999Z</time></trkpt><trkpt lat="45.561504799787485" lon="10.7635152276696"><ele>201.71428571428572</ele><time>2026-04-21T12:04:02.999Z</time></trkpt><trkpt lat="45.561501045365304" lon="10.76341858036199"><ele>201.85714285714286</ele><time>2026-04-21T12:04:04.999Z</time></trkpt><trkpt lat="45.561497061685834" lon="10.763316593589977"><ele>202.0</ele><time>2026-04-21T12:04:06.999Z</time></trkpt><trkpt lat="45.56149680194162" lon="10.763210169297484"><ele>202.16666666666666</ele><time>2026-04-21T12:04:08.999Z</time></trkpt><trkpt lat="45.5614855300434" lon="10.76311117290569"><ele>202.33333333333331</ele><time>2026-04-21T12:04:10.999Z</time></trkpt><trkpt lat="45.56147442882618" lon="10.763016879827592"><ele>202.5</ele><time>2026-04-21T12:04:12.999Z</time></trkpt><trkpt lat="45.561474062060896" lon="10.762922238377547"><ele>202.66666666666669</ele><time>2026-04-21T12:04:15.999Z</time></trkpt><trkpt lat="45.56145135326145" lon="10.762813932242945"><ele>202.83333333333334</ele><time>2026-04-21T12:04:18.999Z</time></trkpt><trkpt lat="45.561431453375974" lon="10.762686961437618"><ele>203.0</ele><time>2026-04-21T12:04:21.999Z</time></trkpt><trkpt lat="45.561401443737395" lon="10.762539973472583"><ele>203.28571428571428</ele><time>2026-04-21T12:04:24.999Z</time></trkpt><trkpt lat="45.561386036522336" lon="10.76243135053314"><ele>203.57142857142856</ele><time>2026-04-21T12:04:27.999Z</time></trkpt><trkpt lat="45.56135613455446" lon="10.76232919394177"><ele>203.85714285714286</ele><time>2026-04-21T12:04:30.998Z</time></trkpt><trkpt lat="45.5613444102215" lon="10.76223864963757"><ele>204.14285714285714</ele><time>2026-04-21T12:04:32.998Z</time></trkpt><trkpt lat="45.561303824526405" lon="10.762157957719232"><ele>204.42857142857142</ele><time>2026-04-21T12:04:34.998Z</time></trkpt><trkpt lat="45.561294498627745" lon="10.762050507021717"><ele>204.71428571428572</ele><time>2026-04-21T12:04:37.998Z</time></trkpt><trkpt lat="45.56126973426888" lon="10.761937360395118"><ele>205.0</ele><time>2026-04-21T12:04:39.998Z</time></trkpt><trkpt lat="45.56123724008378" lon="10.761827627691185"><ele>204.99999999999997</ele><time>2026-04-21T12:04:42.998Z</time></trkpt><trkpt lat="45.56120641933075" lon="10.761698286662835"><ele>205.0</ele><time>2026-04-21T12:04:46Z</time></trkpt><trkpt lat="45.561176057453565" lon="10.761595434021679"><ele>205.0</ele><time>2026-04-21T12:04:48Z</time></trkpt><trkpt lat="45.561151674901474" lon="10.761489619329598"><ele>205.0</ele><time>2026-04-21T12:04:51Z</time></trkpt><trkpt lat="45.561122957807065" lon="10.761380399275094"><ele>204.99999999999997</ele><time>2026-04-21T12:04:54Z</time></trkpt><trkpt lat="45.56110102782524" lon="10.761291349945196"><ele>205.0</ele><time>2026-04-21T12:04:56Z</time></trkpt><trkpt lat="45.56107210823152" lon="10.761172420268279"><ele>208.49999999999997</ele><time>2026-04-21T12:04:59Z</time></trkpt><trkpt lat="45.561047637181574" lon="10.761084849654116"><ele>212.0</ele><time>2026-04-21T12:05:01Z</time></trkpt><trkpt lat="45.56102987803209" lon="10.76094489617654"><ele>215.5</ele><time>2026-04-21T12:05:04Z</time></trkpt><trkpt lat="45.56100937027302" lon="10.760844031329428"><ele>219.0</ele><time>2026-04-21T12:05:07Z</time></trkpt><trkpt lat="45.56099871674303" lon="10.760746849077353"><ele>222.49999999999997</ele><time>2026-04-21T12:05:09Z</time></trkpt><trkpt lat="45.560983813085045" lon="10.76062233975758"><ele>226.0</ele><time>2026-04-21T12:05:12Z</time></trkpt><trkpt lat="45.56096532284285" lon="10.760515623984345"><ele>225.99999999999997</ele><time>2026-04-21T12:05:15Z</time></trkpt><trkpt lat="45.560953146014235" lon="10.760391722204208"><ele>226.0</ele><time>2026-04-21T12:05:19Z</time></trkpt><trkpt lat="45.56093522822935" lon="10.760294291522035"><ele>226.0</ele><time>2026-04-21T12:05:22Z</time></trkpt><trkpt lat="45.56090954145409" lon="10.760211244875999"><ele>226.0</ele><time>2026-04-21T12:05:24Z</time></trkpt><trkpt lat="45.5608719922376" lon="10.760108509698313"><ele>225.99999999999997</ele><time>2026-04-21T12:05:27Z</time></trkpt><trkpt lat="45.56083889966119" lon="10.760030138670558"><ele>226.0</ele><time>2026-04-21T12:05:29Z</time></trkpt><trkpt lat="45.56078209469775" lon="10.759919209266059"><ele>224.4</ele><time>2026-04-21T12:05:32Z</time></trkpt><trkpt lat="45.56074226166976" lon="10.75980519882564"><ele>222.8</ele><time>2026-04-21T12:05:34.999Z</time></trkpt><trkpt lat="45.560695367968194" lon="10.759720432933912"><ele>221.20000000000002</ele><time>2026-04-21T12:05:36.999Z</time></trkpt><trkpt lat="45.56064228537995" lon="10.759629027558578"><ele>219.60000000000002</ele><time>2026-04-21T12:05:38.999Z</time></trkpt><trkpt lat="45.56050766556324" lon="10.759472636214781"><ele>218.0</ele><time>2026-04-21T12:05:40.999Z</time></trkpt><trkpt lat="45.56044435551016" lon="10.75938686772834"><ele>217.16666666666669</ele><time>2026-04-21T12:05:42.999Z</time></trkpt><trkpt lat="45.56039229911671" lon="10.759288235965231"><ele>216.33333333333334</ele><time>2026-04-21T12:05:44.999Z</time></trkpt><trkpt lat="45.560333065086745" lon="10.759191980661365"><ele>215.5</ele><time>2026-04-21T12:05:46.999Z</time></trkpt><trkpt lat="45.56027608103687" lon="10.75909451629764"><ele>214.66666666666669</ele><time>2026-04-21T12:05:48.999Z</time></trkpt><trkpt lat="45.560220795546954" lon="10.758999567660737"><ele>213.83333333333334</ele><time>2026-04-21T12:05:50.999Z</time></trkpt><trkpt lat="45.56016606537008" lon="10.758904892564583"><ele>213.0</ele><time>2026-04-21T12:05:52.999Z</time></trkpt><trkpt lat="45.56011077645793" lon="10.758806198463258"><ele>213.33333333333334</ele><time>2026-04-21T12:05:54.999Z</time></trkpt><trkpt lat="45.56004370514513" lon="10.758714997547218"><ele>213.66666666666669</ele><time>2026-04-21T12:05:56.999Z</time></trkpt><trkpt lat="45.55997751470956" lon="10.758618746492036"><ele>214.0</ele><time>2026-04-21T12:05:58.999Z</time></trkpt><trkpt lat="45.55993193104167" lon="10.758530044291543"><ele>214.33333333333334</ele><time>2026-04-21T12:06:00.999Z</time></trkpt><trkpt lat="45.559876250142096" lon="10.758464810165517"><ele>214.66666666666669</ele><time>2026-04-21T12:06:01.999Z</time></trkpt><trkpt lat="45.55981246826537" lon="10.758360542527042"><ele>215.0</ele><time>2026-04-21T12:06:03.999Z</time></trkpt><trkpt lat="45.55974828282219" lon="10.75826613439167"><ele>215.00000000000003</ele><time>2026-04-21T12:06:05.999Z</time></trkpt><trkpt lat="45.55968833351673" lon="10.75817219514428"><ele>215.0</ele><time>2026-04-21T12:06:07.999Z</time></trkpt><trkpt lat="45.559631947421146" lon="10.758088176652674"><ele>215.0</ele><time>2026-04-21T12:06:09.999Z</time></trkpt><trkpt lat="45.559575434077104" lon="10.758003870656358"><ele>215.0</ele><time>2026-04-21T12:06:11.999Z</time></trkpt><trkpt lat="45.55951372099234" lon="10.757924429003106"><ele>215.00000000000003</ele><time>2026-04-21T12:06:13.999Z</time></trkpt><trkpt lat="45.55946462271281" lon="10.757831977912673"><ele>215.0</ele><time>2026-04-21T12:06:15.999Z</time></trkpt><trkpt lat="45.559406263388425" lon="10.75775831868043"><ele>216.83333333333334</ele><time>2026-04-21T12:06:17.999Z</time></trkpt><trkpt lat="45.5593513657249" lon="10.757672454005187"><ele>218.66666666666669</ele><time>2026-04-21T12:06:19.999Z</time></trkpt><trkpt lat="45.559307762126295" lon="10.757595093677947"><ele>220.5</ele><time>2026-04-21T12:06:21.999Z</time></trkpt><trkpt lat="45.55924626541776" lon="10.757491219112294"><ele>222.33333333333331</ele><time>2026-04-21T12:06:23.999Z</time></trkpt><trkpt lat="45.559200452043406" lon="10.757409029473825"><ele>224.16666666666666</ele><time>2026-04-21T12:06:25.999Z</time></trkpt><trkpt lat="45.559144136626806" lon="10.757292107999193"><ele>226.0</ele><time>2026-04-21T12:06:28.999Z</time></trkpt><trkpt lat="45.55910337655639" lon="10.75719499927035"><ele>226.0</ele><time>2026-04-21T12:06:30.999Z</time></trkpt><trkpt lat="45.559063857991084" lon="10.757123702706034"><ele>226.0</ele><time>2026-04-21T12:06:32.998Z</time></trkpt><trkpt lat="45.559023607455416" lon="10.757021479103898"><ele>226.0</ele><time>2026-04-21T12:06:35.998Z</time></trkpt><trkpt lat="45.558994401384695" lon="10.756928954193386"><ele>226.0</ele><time>2026-04-21T12:06:38.998Z</time></trkpt><trkpt lat="45.55896216862319" lon="10.756847930451741"><ele>226.0</ele><time>2026-04-21T12:06:40.998Z</time></trkpt><trkpt lat="45.55891523588636" lon="10.756760934031005"><ele>226.0</ele><time>2026-04-21T12:06:43.998Z</time></trkpt><trkpt lat="45.558882247825494" lon="10.756676548296047"><ele>226.0</ele><time>2026-04-21T12:06:46.998Z</time></trkpt><trkpt lat="45.55884674226552" lon="10.756586808213795"><ele>226.14285714285717</ele><time>2026-04-21T12:06:50Z</time></trkpt><trkpt lat="45.55882018449994" lon="10.756502105120394"><ele>226.28571428571428</ele><time>2026-04-21T12:06:52Z</time></trkpt><trkpt lat="45.55879775409897" lon="10.756406386346256"><ele>226.42857142857144</ele><time>2026-04-21T12:06:55Z</time></trkpt><trkpt lat="45.55877027972093" lon="10.756310839923641"><ele>226.57142857142858</ele><time>2026-04-21T12:06:58Z</time></trkpt><trkpt lat="45.55873406097587" lon="10.75621057683757"><ele>226.71428571428572</ele><time>2026-04-21T12:07:01Z</time></trkpt><trkpt lat="45.55868934778663" lon="10.756124542319652"><ele>226.85714285714286</ele><time>2026-04-21T12:07:04Z</time></trkpt><trkpt lat="45.55864764728798" lon="10.75604590846409"><ele>227.0</ele><time>2026-04-21T12:07:07Z</time></trkpt><trkpt lat="45.55861000722308" lon="10.755971291267823"><ele>227.0</ele><time>2026-04-21T12:07:10Z</time></trkpt><trkpt lat="45.55857320993715" lon="10.755893276302716"><ele>227.00000000000003</ele><time>2026-04-21T12:07:13Z</time></trkpt><trkpt lat="45.55853774693955" lon="10.755805666315922"><ele>227.0</ele><time>2026-04-21T12:07:16Z</time></trkpt><trkpt lat="45.55850222403141" lon="10.755728222120164"><ele>227.0</ele><time>2026-04-21T12:07:19Z</time></trkpt><trkpt lat="45.558466708479585" lon="10.755637848017344"><ele>227.00000000000003</ele><time>2026-04-21T12:07:22Z</time></trkpt><trkpt lat="45.55843414477226" lon="10.75555190359761"><ele>227.0</ele><time>2026-04-21T12:07:25Z</time></trkpt><trkpt lat="45.558393656739575" lon="10.755462881650953"><ele>227.0</ele><time>2026-04-21T12:07:28Z</time></trkpt><trkpt lat="45.55834974879889" lon="10.75535757253453"><ele>227.00000000000003</ele><time>2026-04-21T12:07:31Z</time></trkpt><trkpt lat="45.558302202647276" lon="10.755244347494244"><ele>227.0</ele><time>2026-04-21T12:07:34Z</time></trkpt><trkpt lat="45.558255498982" lon="10.755130584270004"><ele>227.0</ele><time>2026-04-21T12:07:37Z</time></trkpt><trkpt lat="45.558210077169" lon="10.755016165860365"><ele>227.0</ele><time>2026-04-21T12:07:39.999Z</time></trkpt><trkpt lat="45.55817845470624" lon="10.75493738458744"><ele>227.00000000000003</ele><time>2026-04-21T12:07:41.999Z</time></trkpt><trkpt lat="45.558147441079996" lon="10.754857494974777"><ele>227.0</ele><time>2026-04-21T12:07:43.999Z</time></trkpt><trkpt lat="45.55810907587" lon="10.75474495874466"><ele>227.0</ele><time>2026-04-21T12:07:46.999Z</time></trkpt><trkpt lat="45.558063791441135" lon="10.754615921333823"><ele>227.0</ele><time>2026-04-21T12:07:48.999Z</time></trkpt><trkpt lat="45.55798303222813" lon="10.754493075898472"><ele>227.0</ele><time>2026-04-21T12:07:49.999Z</time></trkpt><trkpt lat="45.557971780779184" lon="10.754364381688704"><ele>227.0</ele><time>2026-04-21T12:07:51.999Z</time></trkpt><trkpt lat="45.557973076262506" lon="10.754217565148181"><ele>227.0</ele><time>2026-04-21T12:07:53.999Z</time></trkpt><trkpt lat="45.55796031444637" lon="10.754057570965264"><ele>227.0</ele><time>2026-04-21T12:07:55.999Z</time></trkpt><trkpt lat="45.557925932134566" lon="10.753896890381345"><ele>227.0</ele><time>2026-04-21T12:07:57.999Z</time></trkpt><trkpt lat="45.5578755181646" lon="10.753734048769404"><ele>227.0</ele><time>2026-04-21T12:07:59.999Z</time></trkpt><trkpt lat="45.55781203305325" lon="10.753584390665509"><ele>227.0</ele><time>2026-04-21T12:08:01.999Z</time></trkpt><trkpt lat="45.55773113427893" lon="10.753464678043034"><ele>227.0</ele><time>2026-04-21T12:08:03.999Z</time></trkpt><trkpt lat="45.557648431391584" lon="10.753359129203362"><ele>227.0</ele><time>2026-04-21T12:08:05.999Z</time></trkpt><trkpt lat="45.55757299942761" lon="10.753261805180152"><ele>227.0</ele><time>2026-04-21T12:08:07.999Z</time></trkpt><trkpt lat="45.557511176767214" lon="10.753182593879913"><ele>227.0</ele><time>2026-04-21T12:08:09.999Z</time></trkpt><trkpt lat="45.55743985593401" lon="10.753091688144682"><ele>227.0</ele><time>2026-04-21T12:08:11.999Z</time></trkpt><trkpt lat="45.557372105587966" lon="10.753022108035411"><ele>227.00000000000003</ele><time>2026-04-21T12:08:13.999Z</time></trkpt><trkpt lat="45.557321280681194" lon="10.752958481945946"><ele>227.0</ele><time>2026-04-21T12:08:15.999Z</time></trkpt><trkpt lat="45.55722950206266" lon="10.752848499376428"><ele>227.0</ele><time>2026-04-21T12:08:17.999Z</time></trkpt><trkpt lat="45.557160649698204" lon="10.752787491157621"><ele>227.0</ele><time>2026-04-21T12:08:19.999Z</time></trkpt><trkpt lat="45.55709381600641" lon="10.752731535572408"><ele>227.00000000000003</ele><time>2026-04-21T12:08:21.999Z</time></trkpt><trkpt lat="45.55702069442104" lon="10.75268452412496"><ele>227.0</ele><time>2026-04-21T12:08:23.999Z</time></trkpt><trkpt lat="45.556954520896824" lon="10.752626943680578"><ele>227.33333333333334</ele><time>2026-04-21T12:08:25.999Z</time></trkpt><trkpt lat="45.556882384154505" lon="10.752578189182707"><ele>227.66666666666669</ele><time>2026-04-21T12:08:27.999Z</time></trkpt><trkpt lat="45.55681621752452" lon="10.75251034290732"><ele>228.0</ele><time>2026-04-21T12:08:29.999Z</time></trkpt><trkpt lat="45.556747841049074" lon="10.752442392720559"><ele>228.33333333333331</ele><time>2026-04-21T12:08:31.999Z</time></trkpt><trkpt lat="45.556669921451295" lon="10.752386398242063"><ele>228.66666666666666</ele><time>2026-04-21T12:08:33.999Z</time></trkpt><trkpt lat="45.556588044807285" lon="10.75235189162635"><ele>229.0</ele><time>2026-04-21T12:08:35.999Z</time></trkpt><trkpt lat="45.55648102125019" lon="10.7523042191236"><ele>228.99999999999997</ele><time>2026-04-21T12:08:39.998Z</time></trkpt><trkpt lat="45.55635972019822" lon="10.752258225555105"><ele>229.0</ele><time>2026-04-21T12:08:41.998Z</time></trkpt><trkpt lat="45.55627710641039" lon="10.752228381777675"><ele>229.0</ele><time>2026-04-21T12:08:43.998Z</time></trkpt><trkpt lat="45.55619603657968" lon="10.752199869413925"><ele>229.0</ele><time>2026-04-21T12:08:45.998Z</time></trkpt><trkpt lat="45.55612046063013" lon="10.75218191341627"><ele>228.99999999999997</ele><time>2026-04-21T12:08:47.998Z</time></trkpt><trkpt lat="45.556050508772216" lon="10.752158090644174"><ele>229.0</ele><time>2026-04-21T12:08:49.998Z</time></trkpt><trkpt lat="45.555964814231665" lon="10.752112307034139"><ele>229.66666666666666</ele><time>2026-04-21T12:08:52.998Z</time></trkpt><trkpt lat="45.555878794657495" lon="10.752063426209114"><ele>230.33333333333331</ele><time>2026-04-21T12:08:56Z</time></trkpt><trkpt lat="45.555821347419425" lon="10.752025838799254"><ele>231.0</ele><time>2026-04-21T12:08:58Z</time></trkpt><trkpt lat="45.55574423138714" lon="10.751959807967946"><ele>231.66666666666669</ele><time>2026-04-21T12:09:01Z</time></trkpt><trkpt lat="45.55567535708571" lon="10.751885759742606"><ele>232.33333333333334</ele><time>2026-04-21T12:09:05Z</time></trkpt><trkpt lat="45.55561409038071" lon="10.751808340773573"><ele>233.0</ele><time>2026-04-21T12:09:08Z</time></trkpt><trkpt lat="45.55558504949397" lon="10.751701256405552"><ele>233.66666666666669</ele><time>2026-04-21T12:09:11Z</time></trkpt><trkpt lat="45.55556437810187" lon="10.751589708142951"><ele>234.33333333333334</ele><time>2026-04-21T12:09:14Z</time></trkpt><trkpt lat="45.55552853306474" lon="10.751484193142014"><ele>235.0</ele><time>2026-04-21T12:09:17Z</time></trkpt><trkpt lat="45.55548870643457" lon="10.751383851202071"><ele>235.66666666666669</ele><time>2026-04-21T12:09:20Z</time></trkpt><trkpt lat="45.555453980984126" lon="10.751258752963023"><ele>236.33333333333334</ele><time>2026-04-21T12:09:23Z</time></trkpt><trkpt lat="45.5554217743694" lon="10.751173859539854"><ele>237.0</ele><time>2026-04-21T12:09:25Z</time></trkpt><trkpt lat="45.55538866212423" lon="10.751062220339122"><ele>236.8</ele><time>2026-04-21T12:09:27Z</time></trkpt><trkpt lat="45.55533266280314" lon="10.750875356456364"><ele>236.6</ele><time>2026-04-21T12:09:29Z</time></trkpt><trkpt lat="45.555303649182996" lon="10.75075634341694"><ele>236.40000000000003</ele><time>2026-04-21T12:09:31Z</time></trkpt><trkpt lat="45.55527184380361" lon="10.750626668407762"><ele>236.20000000000002</ele><time>2026-04-21T12:09:33Z</time></trkpt><trkpt lat="45.55523547456286" lon="10.750499320517532"><ele>236.0</ele><time>2026-04-21T12:09:35Z</time></trkpt><trkpt lat="45.55520489496494" lon="10.750357535256837"><ele>236.0</ele><time>2026-04-21T12:09:37Z</time></trkpt><trkpt lat="45.55516921476835" lon="10.750210976526043"><ele>236.00000000000003</ele><time>2026-04-21T12:09:39Z</time></trkpt><trkpt lat="45.55512316609927" lon="10.750069244586651"><ele>236.00000000000003</ele><time>2026-04-21T12:09:41Z</time></trkpt><trkpt lat="45.55509466172665" lon="10.749918695228791"><ele>236.0</ele><time>2026-04-21T12:09:43Z</time></trkpt><trkpt lat="45.555057296782365" lon="10.749778031369624"><ele>236.0</ele><time>2026-04-21T12:09:44.999Z</time></trkpt><trkpt lat="45.55504411040148" lon="10.749666495180259"><ele>236.0</ele><time>2026-04-21T12:09:46.999Z</time></trkpt><trkpt lat="45.55501339704869" lon="10.749529147084647"><ele>236.00000000000003</ele><time>2026-04-21T12:09:48.999Z</time></trkpt><trkpt lat="45.55497458921373" lon="10.749397173375597"><ele>236.00000000000003</ele><time>2026-04-21T12:09:50.999Z</time></trkpt><trkpt lat="45.554946293943125" lon="10.749252176140232"><ele>236.0</ele><time>2026-04-21T12:09:52.999Z</time></trkpt><trkpt lat="45.55490030781495" lon="10.74909124060122"><ele>236.0</ele><time>2026-04-21T12:09:54.999Z</time></trkpt><trkpt lat="45.554870467506845" lon="10.748951034577152"><ele>236.0</ele><time>2026-04-21T12:09:56.999Z</time></trkpt><trkpt lat="45.554843515406084" lon="10.748809934703269"><ele>236.00000000000003</ele><time>2026-04-21T12:09:58.999Z</time></trkpt><trkpt lat="45.55481811002164" lon="10.748668617054827"><ele>236.00000000000003</ele><time>2026-04-21T12:10:00.999Z</time></trkpt><trkpt lat="45.55479502167933" lon="10.748525020132385"><ele>236.0</ele><time>2026-04-21T12:10:02.999Z</time></trkpt><trkpt lat="45.55476845243961" lon="10.748381491813836"><ele>236.0</ele><time>2026-04-21T12:10:04.999Z</time></trkpt><trkpt lat="45.554742756098925" lon="10.748235709787064"><ele>236.0</ele><time>2026-04-21T12:10:06.999Z</time></trkpt><trkpt lat="45.554727172772516" lon="10.748084316070956"><ele>236.00000000000003</ele><time>2026-04-21T12:10:08.999Z</time></trkpt><trkpt lat="45.55471526888136" lon="10.747935931698656"><ele>236.00000000000003</ele><time>2026-04-21T12:10:10.999Z</time></trkpt><trkpt lat="45.554701603917785" lon="10.747792691662937"><ele>236.0</ele><time>2026-04-21T12:10:12.999Z</time></trkpt><trkpt lat="45.55470440716527" lon="10.747653749205687"><ele>236.0</ele><time>2026-04-21T12:10:14.999Z</time></trkpt><trkpt lat="45.554681550023744" lon="10.747516402290225"><ele>235.83333333333334</ele><time>2026-04-21T12:10:16.999Z</time></trkpt><trkpt lat="45.554670336561834" lon="10.747390448003673"><ele>235.66666666666669</ele><time>2026-04-21T12:10:18.999Z</time></trkpt><trkpt lat="45.55463140126582" lon="10.747309630318698"><ele>235.5</ele><time>2026-04-21T12:10:20.999Z</time></trkpt><trkpt lat="45.55459954990129" lon="10.74721849170353"><ele>235.33333333333331</ele><time>2026-04-21T12:10:22.999Z</time></trkpt><trkpt lat="45.55452153562894" lon="10.74714231132224"><ele>235.16666666666666</ele><time>2026-04-21T12:10:25.999Z</time></trkpt><trkpt lat="45.554439116838054" lon="10.747135491629553"><ele>235.0</ele><time>2026-04-21T12:10:28.999Z</time></trkpt><trkpt lat="45.55437267517368" lon="10.74713513902308"><ele>235.83333333333331</ele><time>2026-04-21T12:10:30.999Z</time></trkpt><trkpt lat="45.554279418025004" lon="10.747148819837951"><ele>236.66666666666666</ele><time>2026-04-21T12:10:33.999Z</time></trkpt><trkpt lat="45.55421338684007" lon="10.747144443282657"><ele>237.5</ele><time>2026-04-21T12:10:35.999Z</time></trkpt><trkpt lat="45.554095190064906" lon="10.747140884036288"><ele>238.33333333333331</ele><time>2026-04-21T12:10:37.999Z</time></trkpt><trkpt lat="45.55401428139422" lon="10.747122475095251"><ele>239.16666666666666</ele><time>2026-04-21T12:10:39.999Z</time></trkpt><trkpt lat="45.5539434708294" lon="10.747124620441035"><ele>240.0</ele><time>2026-04-21T12:10:41.999Z</time></trkpt><trkpt lat="45.553880122377244" lon="10.747110744059711"><ele>240.0</ele><time>2026-04-21T12:10:43.998Z</time></trkpt><trkpt lat="45.55378921905803" lon="10.747097368760617"><ele>240.0</ele><time>2026-04-21T12:10:46.998Z</time></trkpt><trkpt lat="45.553720898821446" lon="10.747088054935253"><ele>240.0</ele><time>2026-04-21T12:10:48.998Z</time></trkpt><trkpt lat="45.553648883172336" lon="10.747086489755201"><ele>240.0</ele><time>2026-04-21T12:10:50.998Z</time></trkpt><trkpt lat="45.553582633471926" lon="10.747082184115825"><ele>240.0</ele><time>2026-04-21T12:10:52.998Z</time></trkpt><trkpt lat="45.5534947229247" lon="10.747082159361101"><ele>240.0</ele><time>2026-04-21T12:10:55.998Z</time></trkpt><trkpt lat="45.553409788288" lon="10.747089020204292"><ele>240.5</ele><time>2026-04-21T12:10:58.998Z</time></trkpt><trkpt lat="45.553331535806045" lon="10.747095291291682"><ele>241.0</ele><time>2026-04-21T12:11:02Z</time></trkpt><trkpt lat="45.55325900098466" lon="10.747115991366849"><ele>241.5</ele><time>2026-04-21T12:11:05Z</time></trkpt><trkpt lat="45.5531892997423" lon="10.747140800338887"><ele>242.0</ele><time>2026-04-21T12:11:08Z</time></trkpt><trkpt lat="45.55312287607339" lon="10.747168406214294"><ele>242.5</ele><time>2026-04-21T12:11:11Z</time></trkpt><trkpt lat="45.55305416382237" lon="10.747194402438781"><ele>243.0</ele><time>2026-04-21T12:11:14Z</time></trkpt><trkpt lat="45.552975003494616" lon="10.747240117649461"><ele>243.0</ele><time>2026-04-21T12:11:17Z</time></trkpt><trkpt lat="45.552910981350145" lon="10.747259570451627"><ele>243.0</ele><time>2026-04-21T12:11:20Z</time></trkpt><trkpt lat="45.55283642104278" lon="10.747281345937092"><ele>243.0</ele><time>2026-04-21T12:11:23Z</time></trkpt><trkpt lat="45.5527689223656" lon="10.747280299669502"><ele>243.0</ele><time>2026-04-21T12:11:26Z</time></trkpt><trkpt lat="45.552701664891345" lon="10.747266214946382"><ele>243.0</ele><time>2026-04-21T12:11:29Z</time></trkpt><trkpt lat="45.552629886388665" lon="10.747204209546135"><ele>243.0</ele><time>2026-04-21T12:11:33Z</time></trkpt><trkpt lat="45.55258057954196" lon="10.74712036318288"><ele>243.0</ele><time>2026-04-21T12:11:36Z</time></trkpt><trkpt lat="45.55253717802201" lon="10.74694658679374"><ele>244.0</ele><time>2026-04-21T12:11:39Z</time></trkpt><trkpt lat="45.55252824420636" lon="10.746746353929758"><ele>245.0</ele><time>2026-04-21T12:11:41Z</time></trkpt><trkpt lat="45.55243931176378" lon="10.74669881029657"><ele>246.0</ele><time>2026-04-21T12:11:42Z</time></trkpt><trkpt lat="45.552443732690776" lon="10.746582514983498"><ele>247.0</ele><time>2026-04-21T12:11:43Z</time></trkpt><trkpt lat="45.55244686011553" lon="10.74644374272267"><ele>248.0</ele><time>2026-04-21T12:11:44Z</time></trkpt><trkpt lat="45.55245939919696" lon="10.74626078996068"><ele>248.0</ele><time>2026-04-21T12:11:45Z</time></trkpt><trkpt lat="45.552467276901645" lon="10.746108575188797"><ele>248.0</ele><time>2026-04-21T12:11:46Z</time></trkpt><trkpt lat="45.552472809660905" lon="10.74597635150046"><ele>248.0</ele><time>2026-04-21T12:11:47Z</time></trkpt><trkpt lat="45.55248622989507" lon="10.74582183520984"><ele>248.0</ele><time>2026-04-21T12:11:48Z</time></trkpt><trkpt lat="45.55249293079613" lon="10.745666905660203"><ele>248.0</ele><time>2026-04-21T12:11:49Z</time></trkpt><trkpt lat="45.55249434048413" lon="10.745505087378163"><ele>245.8</ele><time>2026-04-21T12:11:50Z</time></trkpt><trkpt lat="45.552496267608234" lon="10.7453469575047"><ele>243.60000000000002</ele><time>2026-04-21T12:11:50.999Z</time></trkpt><trkpt lat="45.55249699535514" lon="10.745192476061627"><ele>241.39999999999998</ele><time>2026-04-21T12:11:51.999Z</time></trkpt><trkpt lat="45.55250084093443" lon="10.745040202478984"><ele>239.2</ele><time>2026-04-21T12:11:52.999Z</time></trkpt><trkpt lat="45.552506637305235" lon="10.744893044791393"><ele>237.0</ele><time>2026-04-21T12:11:53.999Z</time></trkpt><trkpt lat="45.55251160202779" lon="10.744753784409099"><ele>236.0</ele><time>2026-04-21T12:11:54.999Z</time></trkpt><trkpt lat="45.552521044151085" lon="10.744628546858307"><ele>235.0</ele><time>2026-04-21T12:11:55.999Z</time></trkpt><trkpt lat="45.55253084996895" lon="10.74452022149634"><ele>234.0</ele><time>2026-04-21T12:11:56.999Z</time></trkpt><trkpt lat="45.552549525552934" lon="10.744413684486847"><ele>233.0</ele><time>2026-04-21T12:11:57.999Z</time></trkpt><trkpt lat="45.552587074904565" lon="10.744311645026386"><ele>232.0</ele><time>2026-04-21T12:11:58.999Z</time></trkpt><trkpt lat="45.552646498025055" lon="10.74418082924573"><ele>231.0</ele><time>2026-04-21T12:11:59.999Z</time></trkpt><trkpt lat="45.55289155497751" lon="10.744003601382492"><ele>230.0</ele><time>2026-04-21T12:12:00.999Z</time></trkpt><trkpt lat="45.552968156922326" lon="10.743888475072813"><ele>229.0</ele><time>2026-04-21T12:12:01.999Z</time></trkpt><trkpt lat="45.55304388954224" lon="10.743764437314713"><ele>228.0</ele><time>2026-04-21T12:12:02.999Z</time></trkpt><trkpt lat="45.55314862895801" lon="10.74364973704576"><ele>227.0</ele><time>2026-04-21T12:12:03.999Z</time></trkpt><trkpt lat="45.553220388403275" lon="10.743553761341596"><ele>224.39999999999998</ele><time>2026-04-21T12:12:04.999Z</time></trkpt><trkpt lat="45.55330625337644" lon="10.743505638464132"><ele>221.79999999999998</ele><time>2026-04-21T12:12:05.999Z</time></trkpt><trkpt lat="45.55335439150743" lon="10.743433082639468"><ele>219.2</ele><time>2026-04-21T12:12:06.999Z</time></trkpt><trkpt lat="45.553432568434424" lon="10.743332546555695"><ele>216.6</ele><time>2026-04-21T12:12:08.999Z</time></trkpt><trkpt lat="45.55333322226986" lon="10.743196953560059"><ele>214.0</ele><time>2026-04-21T12:12:10.999Z</time></trkpt><trkpt lat="45.55325660195376" lon="10.74320656108534"><ele>214.0</ele><time>2026-04-21T12:12:11.999Z</time></trkpt><trkpt lat="45.5531854791053" lon="10.743236582181577"><ele>213.99999999999997</ele><time>2026-04-21T12:12:12.999Z</time></trkpt><trkpt lat="45.553118040127956" lon="10.743237656145562"><ele>213.99999999999997</ele><time>2026-04-21T12:12:13.999Z</time></trkpt><trkpt lat="45.553049564529125" lon="10.743218241532121"><ele>214.0</ele><time>2026-04-21T12:12:14.999Z</time></trkpt><trkpt lat="45.552951899084015" lon="10.7430855669991"><ele>214.0</ele><time>2026-04-21T12:12:16.999Z</time></trkpt><trkpt lat="45.552848526115625" lon="10.74313822137082"><ele>212.0</ele><time>2026-04-21T12:12:17.999Z</time></trkpt><trkpt lat="45.55275234154832" lon="10.743020271174487"><ele>209.99999999999997</ele><time>2026-04-21T12:12:19.999Z</time></trkpt><trkpt lat="45.552702283257666" lon="10.742937809442523"><ele>208.0</ele><time>2026-04-21T12:12:20.999Z</time></trkpt><trkpt lat="45.55265001771683" lon="10.74284399331232"><ele>206.0</ele><time>2026-04-21T12:12:21.999Z</time></trkpt><trkpt lat="45.5526036101236" lon="10.742740758089479"><ele>204.0</ele><time>2026-04-21T12:12:22.999Z</time></trkpt><trkpt lat="45.55255825344219" lon="10.742619164781608"><ele>202.39999999999998</ele><time>2026-04-21T12:12:23.999Z</time></trkpt><trkpt lat="45.55249701646241" lon="10.742491948705208"><ele>200.8</ele><time>2026-04-21T12:12:24.999Z</time></trkpt><trkpt lat="45.552465591680296" lon="10.74236026508915"><ele>199.2</ele><time>2026-04-21T12:12:25.999Z</time></trkpt><trkpt lat="45.55241413870784" lon="10.742226927417583"><ele>197.60000000000002</ele><time>2026-04-21T12:12:26.999Z</time></trkpt><trkpt lat="45.552349361590906" lon="10.742112105300615"><ele>196.0</ele><time>2026-04-21T12:12:27.999Z</time></trkpt><trkpt lat="45.5522852115327" lon="10.742005303932691"><ele>196.0</ele><time>2026-04-21T12:12:28.999Z</time></trkpt><trkpt lat="45.55223555069267" lon="10.741893408854716"><ele>196.0</ele><time>2026-04-21T12:12:29.999Z</time></trkpt><trkpt lat="45.55216501908818" lon="10.741805713892036"><ele>196.0</ele><time>2026-04-21T12:12:30.999Z</time></trkpt><trkpt lat="45.55209509723812" lon="10.741735328356995"><ele>196.0</ele><time>2026-04-21T12:12:31.999Z</time></trkpt><trkpt lat="45.551991065139006" lon="10.741716452908623"><ele>196.0</ele><time>2026-04-21T12:12:32.999Z</time></trkpt><trkpt lat="45.55188944331488" lon="10.741720543538959"><ele>193.66666666666666</ele><time>2026-04-21T12:12:33.999Z</time></trkpt><trkpt lat="45.551795816688056" lon="10.741708600912942"><ele>191.33333333333331</ele><time>2026-04-21T12:12:34.999Z</time></trkpt><trkpt lat="45.551721625726344" lon="10.74170818838101"><ele>189.0</ele><time>2026-04-21T12:12:35.999Z</time></trkpt><trkpt lat="45.55163688774778" lon="10.741700374606586"><ele>186.66666666666666</ele><time>2026-04-21T12:12:36.999Z</time></trkpt><trkpt lat="45.55155825541473" lon="10.741689396330685"><ele>184.33333333333331</ele><time>2026-04-21T12:12:37.999Z</time></trkpt><trkpt lat="45.55146714112518" lon="10.741704001809568"><ele>182.0</ele><time>2026-04-21T12:12:38.999Z</time></trkpt><trkpt lat="45.55137507155713" lon="10.741743544925523"><ele>182.0</ele><time>2026-04-21T12:12:39.999Z</time></trkpt><trkpt lat="45.55127578631414" lon="10.741760875982033"><ele>182.0</ele><time>2026-04-21T12:12:40.999Z</time></trkpt><trkpt lat="45.551177215716294" lon="10.741824791716327"><ele>182.0</ele><time>2026-04-21T12:12:41.999Z</time></trkpt><trkpt lat="45.5510736879628" lon="10.741866632760605"><ele>182.0</ele><time>2026-04-21T12:12:42.999Z</time></trkpt><trkpt lat="45.550965189721204" lon="10.741885849536411"><ele>182.0</ele><time>2026-04-21T12:12:43.999Z</time></trkpt><trkpt lat="45.550852234964054" lon="10.741912394749765"><ele>182.6</ele><time>2026-04-21T12:12:44.999Z</time></trkpt><trkpt lat="45.55074920095828" lon="10.74193278563289"><ele>183.2</ele><time>2026-04-21T12:12:45.999Z</time></trkpt><trkpt lat="45.55065108197001" lon="10.741941816345298"><ele>183.8</ele><time>2026-04-21T12:12:46.999Z</time></trkpt><trkpt lat="45.55054784294697" lon="10.741970672436402"><ele>184.4</ele><time>2026-04-21T12:12:47.999Z</time></trkpt><trkpt lat="45.550441537881" lon="10.741984546495628"><ele>185.0</ele><time>2026-04-21T12:12:48.999Z</time></trkpt><trkpt lat="45.55033159675075" lon="10.742000070410565"><ele>182.2</ele><time>2026-04-21T12:12:49.998Z</time></trkpt><trkpt lat="45.55021385034249" lon="10.742023377246204"><ele>179.4</ele><time>2026-04-21T12:12:50.998Z</time></trkpt><trkpt lat="45.5501052015423" lon="10.74204764647047"><ele>176.60000000000002</ele><time>2026-04-21T12:12:51.998Z</time></trkpt><trkpt lat="45.54999533197769" lon="10.742075362773592"><ele>173.8</ele><time>2026-04-21T12:12:52.998Z</time></trkpt><trkpt lat="45.5498963944307" lon="10.742102334669758"><ele>171.0</ele><time>2026-04-21T12:12:53.998Z</time></trkpt><trkpt lat="45.54979453335808" lon="10.742135142889012"><ele>171.0</ele><time>2026-04-21T12:12:54.998Z</time></trkpt><trkpt lat="45.54969432421486" lon="10.742174644752097"><ele>171.0</ele><time>2026-04-21T12:12:55.998Z</time></trkpt><trkpt lat="45.549597704348564" lon="10.742217824048652"><ele>171.0</ele><time>2026-04-21T12:12:56.998Z</time></trkpt><trkpt lat="45.5495113831617" lon="10.742281746461074"><ele>171.0</ele><time>2026-04-21T12:12:57.998Z</time></trkpt><trkpt lat="45.549422335767595" lon="10.742319357833017"><ele>171.0</ele><time>2026-04-21T12:12:58.998Z</time></trkpt><trkpt lat="45.54933612737289" lon="10.742318399706532"><ele>168.99999999999997</ele><time>2026-04-21T12:12:59.998Z</time></trkpt><trkpt lat="45.54925818492288" lon="10.742332262948498"><ele>167.0</ele><time>2026-04-21T12:13:00.998Z</time></trkpt><trkpt lat="45.54918358526379" lon="10.742362525414865"><ele>165.0</ele><time>2026-04-21T12:13:01.998Z</time></trkpt><trkpt lat="45.5491191993589" lon="10.742370698722207"><ele>163.0</ele><time>2026-04-21T12:13:02.998Z</time></trkpt><trkpt lat="45.54905221076698" lon="10.742358018248947"><ele>161.0</ele><time>2026-04-21T12:13:03.998Z</time></trkpt><trkpt lat="45.54897983176039" lon="10.742307830911054"><ele>158.99999999999997</ele><time>2026-04-21T12:13:04.998Z</time></trkpt><trkpt lat="45.54891158255496" lon="10.742325995479705"><ele>157.0</ele><time>2026-04-21T12:13:05.998Z</time></trkpt><trkpt lat="45.54885545553592" lon="10.742191029191154"><ele>157.0</ele><time>2026-04-21T12:13:08Z</time></trkpt><trkpt lat="45.54881701107353" lon="10.742105184931129"><ele>157.0</ele><time>2026-04-21T12:13:09Z</time></trkpt><trkpt lat="45.548774784174434" lon="10.742022353508863"><ele>157.0</ele><time>2026-04-21T12:13:10Z</time></trkpt><trkpt lat="45.54873407583989" lon="10.741945993678607"><ele>157.0</ele><time>2026-04-21T12:13:11Z</time></trkpt><trkpt lat="45.548666564306636" lon="10.741820283401394"><ele>157.0</ele><time>2026-04-21T12:13:13Z</time></trkpt><trkpt lat="45.54853401040647" lon="10.741864633304708"><ele>156.4</ele><time>2026-04-21T12:13:16Z</time></trkpt><trkpt lat="45.54847763441541" lon="10.741994295384641"><ele>155.79999999999998</ele><time>2026-04-21T12:13:18Z</time></trkpt><trkpt lat="45.548410458016896" lon="10.742107811631527"><ele>155.2</ele><time>2026-04-21T12:13:20Z</time></trkpt><trkpt lat="45.54834311546411" lon="10.742214170084159"><ele>154.6</ele><time>2026-04-21T12:13:22Z</time></trkpt><trkpt lat="45.54830360190436" lon="10.7423487259875"><ele>154.0</ele><time>2026-04-21T12:13:24Z</time></trkpt><trkpt lat="45.548274917041226" lon="10.742479297262072"><ele>154.0</ele><time>2026-04-21T12:13:26Z</time></trkpt><trkpt lat="45.54825378343381" lon="10.742605617145317"><ele>154.0</ele><time>2026-04-21T12:13:28Z</time></trkpt><trkpt lat="45.54823533811334" lon="10.742702939169629"><ele>154.0</ele><time>2026-04-21T12:13:30Z</time></trkpt><trkpt lat="45.5481701185596" lon="10.742771889136552"><ele>154.0</ele><time>2026-04-21T12:13:32Z</time></trkpt><trkpt lat="45.54806549549737" lon="10.742834759557189"><ele>154.0</ele><time>2026-04-21T12:13:34Z</time></trkpt><trkpt lat="45.5480036154627" lon="10.742873697569161"><ele>154.0</ele><time>2026-04-21T12:13:35Z</time></trkpt><trkpt lat="45.54794326643439" lon="10.742918020929794"><ele>153.75</ele><time>2026-04-21T12:13:36Z</time></trkpt><trkpt lat="45.547834820971595" lon="10.742997117706725"><ele>153.5</ele><time>2026-04-21T12:13:38Z</time></trkpt><trkpt lat="45.54772782575317" lon="10.743086380380072"><ele>153.25</ele><time>2026-04-21T12:13:40Z</time></trkpt><trkpt lat="45.54762215585245" lon="10.743165142870533"><ele>153.0</ele><time>2026-04-21T12:13:42Z</time></trkpt><trkpt lat="45.547519072516735" lon="10.743240334424357"><ele>153.0</ele><time>2026-04-21T12:13:44Z</time></trkpt><trkpt lat="45.54742092653686" lon="10.743319040951732"><ele>153.0</ele><time>2026-04-21T12:13:46Z</time></trkpt><trkpt lat="45.54732008776112" lon="10.743393146894404"><ele>153.0</ele><time>2026-04-21T12:13:48Z</time></trkpt><trkpt lat="45.54722294334082" lon="10.743465762607656"><ele>153.0</ele><time>2026-04-21T12:13:50Z</time></trkpt><trkpt lat="45.54712099611344" lon="10.743544003575487"><ele>153.33333333333334</ele><time>2026-04-21T12:13:52Z</time></trkpt><trkpt lat="45.54700795842654" lon="10.743634726611877"><ele>153.66666666666666</ele><time>2026-04-21T12:13:54Z</time></trkpt><trkpt lat="45.5469434948135" lon="10.743681990769256"><ele>154.0</ele><time>2026-04-21T12:13:55Z</time></trkpt><trkpt lat="45.54687718237181" lon="10.743720150795848"><ele>154.33333333333331</ele><time>2026-04-21T12:13:55.999Z</time></trkpt><trkpt lat="45.54680484745215" lon="10.743753830414487"><ele>154.66666666666666</ele><time>2026-04-21T12:13:56.999Z</time></trkpt><trkpt lat="45.546738328330996" lon="10.743799895573337"><ele>155.0</ele><time>2026-04-21T12:13:57.999Z</time></trkpt><trkpt lat="45.546678434972456" lon="10.74384021447054"><ele>155.0</ele><time>2026-04-21T12:13:58.999Z</time></trkpt><trkpt lat="45.54661712775102" lon="10.743878696885721"><ele>155.0</ele><time>2026-04-21T12:13:59.999Z</time></trkpt><trkpt lat="45.546558463507075" lon="10.743922736418426"><ele>155.0</ele><time>2026-04-21T12:14:00.999Z</time></trkpt><trkpt lat="45.54650216205697" lon="10.743964533205695"><ele>155.0</ele><time>2026-04-21T12:14:01.999Z</time></trkpt><trkpt lat="45.546391215908365" lon="10.744026674620626"><ele>155.0</ele><time>2026-04-21T12:14:03.999Z</time></trkpt><trkpt lat="45.546294154154694" lon="10.74409207447147"><ele>155.0</ele><time>2026-04-21T12:14:05.999Z</time></trkpt><trkpt lat="45.54620782302933" lon="10.744142463601342"><ele>155.66666666666666</ele><time>2026-04-21T12:14:07.999Z</time></trkpt><trkpt lat="45.54611093062444" lon="10.744189639732253"><ele>156.33333333333331</ele><time>2026-04-21T12:14:09.999Z</time></trkpt><trkpt lat="45.54603156481363" lon="10.74423790112932"><ele>157.0</ele><time>2026-04-21T12:14:12.999Z</time></trkpt><trkpt lat="45.54594480825464" lon="10.744305971842342"><ele>157.66666666666666</ele><time>2026-04-21T12:14:15.999Z</time></trkpt><trkpt lat="45.545889363726026" lon="10.744366095270763"><ele>158.33333333333334</ele><time>2026-04-21T12:14:17.999Z</time></trkpt><trkpt lat="45.545824742934975" lon="10.744456491535477"><ele>159.0</ele><time>2026-04-21T12:14:20.999Z</time></trkpt><trkpt lat="45.54575358554738" lon="10.744520765424305"><ele>159.0</ele><time>2026-04-21T12:14:23.999Z</time></trkpt><trkpt lat="45.54554406687548" lon="10.744635669894057"><ele>159.0</ele><time>2026-04-21T12:14:26.999Z</time></trkpt><trkpt lat="45.54543520120252" lon="10.744691872321296"><ele>159.0</ele><time>2026-04-21T12:14:28.999Z</time></trkpt><trkpt lat="45.54532870687645" lon="10.744758059653794"><ele>157.0</ele><time>2026-04-21T12:14:30.999Z</time></trkpt><trkpt lat="45.545225458377864" lon="10.744833866182212"><ele>155.0</ele><time>2026-04-21T12:14:32.999Z</time></trkpt><trkpt lat="45.54513135564117" lon="10.744898137818762"><ele>153.0</ele><time>2026-04-21T12:14:34.999Z</time></trkpt><trkpt lat="45.54503653942613" lon="10.744964937631863"><ele>151.0</ele><time>2026-04-21T12:14:36.999Z</time></trkpt><trkpt lat="45.54495590481663" lon="10.745053952177525"><ele>149.0</ele><time>2026-04-21T12:14:38.999Z</time></trkpt><trkpt lat="45.54488496361865" lon="10.745156939453484"><ele>149.33333333333331</ele><time>2026-04-21T12:14:40.999Z</time></trkpt><trkpt lat="45.54480925893667" lon="10.745255690198142"><ele>149.66666666666666</ele><time>2026-04-21T12:14:42.999Z</time></trkpt><trkpt lat="45.54472949677896" lon="10.745332823866699"><ele>150.0</ele><time>2026-04-21T12:14:44.999Z</time></trkpt><trkpt lat="45.54465320532916" lon="10.745434995223537"><ele>150.33333333333334</ele><time>2026-04-21T12:14:46.999Z</time></trkpt><trkpt lat="45.54460139806842" lon="10.745507729682812"><ele>150.66666666666669</ele><time>2026-04-21T12:14:48.999Z</time></trkpt><trkpt lat="45.54455092783344" lon="10.745564336768942"><ele>151.0</ele><time>2026-04-21T12:14:50.999Z</time></trkpt><trkpt lat="45.544497278263115" lon="10.745638005998517"><ele>151.0</ele><time>2026-04-21T12:14:53.999Z</time></trkpt><trkpt lat="45.54444500179775" lon="10.74571025998844"><ele>151.0</ele><time>2026-04-21T12:14:54.998Z</time></trkpt><trkpt lat="45.54435985824739" lon="10.745780482636784"><ele>151.0</ele><time>2026-04-21T12:14:56.998Z</time></trkpt><trkpt lat="45.54421318136518" lon="10.74592323010806"><ele>151.0</ele><time>2026-04-21T12:14:59.998Z</time></trkpt><trkpt lat="45.544139026715854" lon="10.74598728389068"><ele>151.0</ele><time>2026-04-21T12:15:01.998Z</time></trkpt><trkpt lat="45.544071427548346" lon="10.746057162689329"><ele>151.5</ele><time>2026-04-21T12:15:03.998Z</time></trkpt><trkpt lat="45.54400362167618" lon="10.746127519490171"><ele>152.0</ele><time>2026-04-21T12:15:05.998Z</time></trkpt><trkpt lat="45.543933843410166" lon="10.74618207766952"><ele>152.5</ele><time>2026-04-21T12:15:07.998Z</time></trkpt><trkpt lat="45.54386003871386" lon="10.746228494143365"><ele>153.0</ele><time>2026-04-21T12:15:09.998Z</time></trkpt><trkpt lat="45.54377041171435" lon="10.746264151441071"><ele>153.5</ele><time>2026-04-21T12:15:11.998Z</time></trkpt><trkpt lat="45.54368408592758" lon="10.746298624217534"><ele>154.0</ele><time>2026-04-21T12:15:14Z</time></trkpt><trkpt lat="45.54360007700176" lon="10.74636102324598"><ele>154.0</ele><time>2026-04-21T12:15:16Z</time></trkpt><trkpt lat="45.54352358285276" lon="10.746424276845763"><ele>154.0</ele><time>2026-04-21T12:15:18Z</time></trkpt><trkpt lat="45.54345135723852" lon="10.746481694007656"><ele>154.0</ele><time>2026-04-21T12:15:20Z</time></trkpt><trkpt lat="45.5434078857757" lon="10.746549787598061"><ele>154.0</ele><time>2026-04-21T12:15:23Z</time></trkpt><trkpt lat="45.54333373192908" lon="10.746608333011498"><ele>154.0</ele><time>2026-04-21T12:15:26Z</time></trkpt><trkpt lat="45.543254340502486" lon="10.746669187251399"><ele>154.0</ele><time>2026-04-21T12:15:29Z</time></trkpt><trkpt lat="45.543175581378385" lon="10.74673218658365"><ele>154.0</ele><time>2026-04-21T12:15:32Z</time></trkpt><trkpt lat="45.54310978937742" lon="10.746782018832697"><ele>154.0</ele><time>2026-04-21T12:15:35Z</time></trkpt><trkpt lat="45.543040952831205" lon="10.746843492030559"><ele>154.0</ele><time>2026-04-21T12:15:38Z</time></trkpt><trkpt lat="45.54290582610653" lon="10.746907216643192"><ele>154.0</ele><time>2026-04-21T12:15:39Z</time></trkpt><trkpt lat="45.54279041010614" lon="10.746988612238395"><ele>154.0</ele><time>2026-04-21T12:15:41Z</time></trkpt><trkpt lat="45.54273354425124" lon="10.747034632030687"><ele>154.8</ele><time>2026-04-21T12:15:42Z</time></trkpt><trkpt lat="45.54262504588919" lon="10.747123850324062"><ele>155.60000000000002</ele><time>2026-04-21T12:15:44Z</time></trkpt><trkpt lat="45.542531891220946" lon="10.74720713058752"><ele>156.4</ele><time>2026-04-21T12:15:46Z</time></trkpt><trkpt lat="45.5424577001185" lon="10.747301494519714"><ele>157.20000000000002</ele><time>2026-04-21T12:15:48Z</time></trkpt><trkpt lat="45.54237999457813" lon="10.747381663856608"><ele>158.0</ele><time>2026-04-21T12:15:50Z</time></trkpt><trkpt lat="45.54229383170296" lon="10.747458644849175"><ele>158.0</ele><time>2026-04-21T12:15:52Z</time></trkpt><trkpt lat="45.54220034240538" lon="10.747543959338993"><ele>158.0</ele><time>2026-04-21T12:15:54Z</time></trkpt><trkpt lat="45.54211265321815" lon="10.747623066387716"><ele>158.0</ele><time>2026-04-21T12:15:56Z</time></trkpt><trkpt lat="45.54202062014944" lon="10.747720449015828"><ele>158.0</ele><time>2026-04-21T12:15:58Z</time></trkpt><trkpt lat="45.541920787796336" lon="10.747812243213959"><ele>158.0</ele><time>2026-04-21T12:15:59.999Z</time></trkpt><trkpt lat="45.54181742800331" lon="10.747893352108086"><ele>158.16666666666666</ele><time>2026-04-21T12:16:01.999Z</time></trkpt><trkpt lat="45.541708986634724" lon="10.747958765812381"><ele>158.33333333333331</ele><time>2026-04-21T12:16:03.999Z</time></trkpt><trkpt lat="45.541648530811955" lon="10.747999637140321"><ele>158.5</ele><time>2026-04-21T12:16:04.999Z</time></trkpt><trkpt lat="45.541589130662516" lon="10.748040889546338"><ele>158.66666666666666</ele><time>2026-04-21T12:16:05.999Z</time></trkpt><trkpt lat="45.54152679642067" lon="10.748077372537269"><ele>158.83333333333334</ele><time>2026-04-21T12:16:06.999Z</time></trkpt><trkpt lat="45.54146026020394" lon="10.74811409152994"><ele>159.0</ele><time>2026-04-21T12:16:07.999Z</time></trkpt><trkpt lat="45.54139837423177" lon="10.748156762386252"><ele>159.0</ele><time>2026-04-21T12:16:08.999Z</time></trkpt><trkpt lat="45.54133191082283" lon="10.748192737378155"><ele>159.0</ele><time>2026-04-21T12:16:09.999Z</time></trkpt><trkpt lat="45.54126900353648" lon="10.748230217506118"><ele>159.0</ele><time>2026-04-21T12:16:10.999Z</time></trkpt><trkpt lat="45.54120262226335" lon="10.748261617065852"><ele>159.0</ele><time>2026-04-21T12:16:11.999Z</time></trkpt><trkpt lat="45.54113740578203" lon="10.748291022914106"><ele>159.0</ele><time>2026-04-21T12:16:12.999Z</time></trkpt><trkpt lat="45.54107429315512" lon="10.748323641595968"><ele>159.0</ele><time>2026-04-21T12:16:13.999Z</time></trkpt><trkpt lat="45.54101331837125" lon="10.748360842858428"><ele>159.0</ele><time>2026-04-21T12:16:14.999Z</time></trkpt><trkpt lat="45.54095399981503" lon="10.748398920790827"><ele>159.5</ele><time>2026-04-21T12:16:15.999Z</time></trkpt><trkpt lat="45.5408922793607" lon="10.748441207190787"><ele>160.0</ele><time>2026-04-21T12:16:16.999Z</time></trkpt><trkpt lat="45.54082881805605" lon="10.74847780857311"><ele>160.5</ele><time>2026-04-21T12:16:17.999Z</time></trkpt><trkpt lat="45.54077297121071" lon="10.748524759404823"><ele>161.0</ele><time>2026-04-21T12:16:18.999Z</time></trkpt><trkpt lat="45.54071559200368" lon="10.748570689213421"><ele>161.5</ele><time>2026-04-21T12:16:19.999Z</time></trkpt><trkpt lat="45.54065897740727" lon="10.748610505089527"><ele>162.0</ele><time>2026-04-21T12:16:20.999Z</time></trkpt><trkpt lat="45.540551068068176" lon="10.748688164821765"><ele>162.0</ele><time>2026-04-21T12:16:22.999Z</time></trkpt><trkpt lat="45.54048427097856" lon="10.748741140677035"><ele>162.0</ele><time>2026-04-21T12:16:23.999Z</time></trkpt><trkpt lat="45.54042125553287" lon="10.748810640462331"><ele>162.0</ele><time>2026-04-21T12:16:24.999Z</time></trkpt><trkpt lat="45.54035898241197" lon="10.748887843624656"><ele>162.0</ele><time>2026-04-21T12:16:25.999Z</time></trkpt><trkpt lat="45.54029827675624" lon="10.748963698525529"><ele>162.0</ele><time>2026-04-21T12:16:26.999Z</time></trkpt><trkpt lat="45.540230396546164" lon="10.749043043228182"><ele>162.0</ele><time>2026-04-21T12:16:27.999Z</time></trkpt><trkpt lat="45.54016245959061" lon="10.74912187981818"><ele>161.66666666666666</ele><time>2026-04-21T12:16:28.999Z</time></trkpt><trkpt lat="45.54008923853455" lon="10.749199024160509"><ele>161.33333333333334</ele><time>2026-04-21T12:16:29.999Z</time></trkpt><trkpt lat="45.54001957899823" lon="10.749286455535099"><ele>161.0</ele><time>2026-04-21T12:16:30.999Z</time></trkpt><trkpt lat="45.539957926496214" lon="10.74935865263272"><ele>160.66666666666669</ele><time>2026-04-21T12:16:31.999Z</time></trkpt><trkpt lat="45.53989841466152" lon="10.749432111734803"><ele>160.33333333333334</ele><time>2026-04-21T12:16:32.999Z</time></trkpt><trkpt lat="45.53983946148775" lon="10.749484236068923"><ele>160.0</ele><time>2026-04-21T12:16:33.999Z</time></trkpt><trkpt lat="45.539775102385036" lon="10.74953588939411"><ele>160.0</ele><time>2026-04-21T12:16:34.999Z</time></trkpt><trkpt lat="45.53971763469331" lon="10.749582703964728"><ele>160.0</ele><time>2026-04-21T12:16:35.999Z</time></trkpt><trkpt lat="45.53965847618215" lon="10.749619315968442"><ele>160.0</ele><time>2026-04-21T12:16:36.999Z</time></trkpt><trkpt lat="45.539552772369305" lon="10.749694951784084"><ele>160.0</ele><time>2026-04-21T12:16:38.999Z</time></trkpt><trkpt lat="45.539467984368244" lon="10.749768314873794"><ele>160.0</ele><time>2026-04-21T12:16:40.999Z</time></trkpt><trkpt lat="45.53938909511212" lon="10.749823698381471"><ele>160.0</ele><time>2026-04-21T12:16:42.999Z</time></trkpt><trkpt lat="45.539334748024665" lon="10.749882128893775"><ele>160.33333333333334</ele><time>2026-04-21T12:16:45.999Z</time></trkpt><trkpt lat="45.539281489623455" lon="10.749944537680113"><ele>160.66666666666669</ele><time>2026-04-21T12:16:47.999Z</time></trkpt><trkpt lat="45.53922007327818" lon="10.750018058815055"><ele>161.0</ele><time>2026-04-21T12:16:50.999Z</time></trkpt><trkpt lat="45.539149055032745" lon="10.750070269544352"><ele>161.33333333333334</ele><time>2026-04-21T12:16:52.999Z</time></trkpt><trkpt lat="45.5390765532108" lon="10.750132994103806"><ele>161.66666666666666</ele><time>2026-04-21T12:16:55.999Z</time></trkpt><trkpt lat="45.53900267482492" lon="10.75019738354709"><ele>162.0</ele><time>2026-04-21T12:16:58.999Z</time></trkpt><trkpt lat="45.5389240641562" lon="10.750261204690737"><ele>162.0</ele><time>2026-04-21T12:17:01.998Z</time></trkpt><trkpt lat="45.53884326313392" lon="10.75032411457971"><ele>162.0</ele><time>2026-04-21T12:17:04.998Z</time></trkpt><trkpt lat="45.53876525959663" lon="10.750386285140648"><ele>162.0</ele><time>2026-04-21T12:17:07.998Z</time></trkpt><trkpt lat="45.538686278725486" lon="10.750449250105142"><ele>162.0</ele><time>2026-04-21T12:17:10.998Z</time></trkpt><trkpt lat="45.53861519048301" lon="10.75051355863233"><ele>162.0</ele><time>2026-04-21T12:17:13.998Z</time></trkpt><trkpt lat="45.53854721490806" lon="10.750581779625623"><ele>162.0</ele><time>2026-04-21T12:17:16.998Z</time></trkpt><trkpt lat="45.53848145954024" lon="10.750652030715662"><ele>160.2</ele><time>2026-04-21T12:17:20Z</time></trkpt><trkpt lat="45.538419260666714" lon="10.750690938720705"><ele>158.39999999999998</ele><time>2026-04-21T12:17:22Z</time></trkpt><trkpt lat="45.53833402143843" lon="10.750725460411447"><ele>156.60000000000002</ele><time>2026-04-21T12:17:24Z</time></trkpt><trkpt lat="45.538247017625956" lon="10.75073906870334"><ele>154.8</ele><time>2026-04-21T12:17:26Z</time></trkpt><trkpt lat="45.53813732826285" lon="10.750752647209207"><ele>153.0</ele><time>2026-04-21T12:17:28Z</time></trkpt><trkpt lat="45.537948683417774" lon="10.750780626913993"><ele>152.28571428571428</ele><time>2026-04-21T12:17:30Z</time></trkpt><trkpt lat="45.5378769118367" lon="10.750791621986968"><ele>151.57142857142858</ele><time>2026-04-21T12:17:31Z</time></trkpt><trkpt lat="45.5378025375459" lon="10.75080136583963"><ele>150.85714285714286</ele><time>2026-04-21T12:17:32Z</time></trkpt><trkpt lat="45.53772650678107" lon="10.750811226552177"><ele>150.14285714285714</ele><time>2026-04-21T12:17:33Z</time></trkpt><trkpt lat="45.537655838905685" lon="10.750822345742076"><ele>149.42857142857142</ele><time>2026-04-21T12:17:34Z</time></trkpt><trkpt lat="45.53758578638652" lon="10.75083449439018"><ele>148.71428571428572</ele><time>2026-04-21T12:17:35Z</time></trkpt><trkpt lat="45.537515288124155" lon="10.750847509508159"><ele>148.0</ele><time>2026-04-21T12:17:36Z</time></trkpt><trkpt lat="45.537448587227296" lon="10.750852246044454"><ele>148.0</ele><time>2026-04-21T12:17:37Z</time></trkpt><trkpt lat="45.537382355520236" lon="10.750866152112827"><ele>148.0</ele><time>2026-04-21T12:17:38Z</time></trkpt><trkpt lat="45.53731621704817" lon="10.750877814823063"><ele>148.0</ele><time>2026-04-21T12:17:39Z</time></trkpt><trkpt lat="45.537252922706664" lon="10.750885072074777"><ele>148.0</ele><time>2026-04-21T12:17:40Z</time></trkpt><trkpt lat="45.53712873439046" lon="10.750892149978954"><ele>148.0</ele><time>2026-04-21T12:17:42Z</time></trkpt><trkpt lat="45.53700935840591" lon="10.750892159381717"><ele>148.0</ele><time>2026-04-21T12:17:44Z</time></trkpt><trkpt lat="45.53689322414051" lon="10.750907809374318"><ele>148.5</ele><time>2026-04-21T12:17:46Z</time></trkpt><trkpt lat="45.53677625099046" lon="10.750899970015722"><ele>149.0</ele><time>2026-04-21T12:17:48Z</time></trkpt><trkpt lat="45.536709911345966" lon="10.75090363157077"><ele>149.5</ele><time>2026-04-21T12:17:50Z</time></trkpt><trkpt lat="45.53661769056337" lon="10.75091249292225"><ele>150.0</ele><time>2026-04-21T12:17:52Z</time></trkpt><trkpt lat="45.536544650488295" lon="10.750872361639304"><ele>150.5</ele><time>2026-04-21T12:17:54Z</time></trkpt><trkpt lat="45.53647395802418" lon="10.750822402798494"><ele>151.0</ele><time>2026-04-21T12:17:58Z</time></trkpt><trkpt lat="45.53641349067219" lon="10.750783627375942"><ele>151.0</ele><time>2026-04-21T12:18:01Z</time></trkpt><trkpt lat="45.536304426192025" lon="10.75071950056672"><ele>151.0</ele><time>2026-04-21T12:18:04Z</time></trkpt><trkpt lat="45.53622981764105" lon="10.75067164694021"><ele>151.0</ele><time>2026-04-21T12:18:06.999Z</time></trkpt><trkpt lat="45.53615668290468" lon="10.750630858953343"><ele>151.0</ele><time>2026-04-21T12:18:09.999Z</time></trkpt><trkpt lat="45.53608506470407" lon="10.750599272001487"><ele>151.0</ele><time>2026-04-21T12:18:12.999Z</time></trkpt><trkpt lat="45.53599271450582" lon="10.750550832020805"><ele>152.33333333333334</ele><time>2026-04-21T12:18:16.999Z</time></trkpt><trkpt lat="45.53591642732552" lon="10.75050737972046"><ele>153.66666666666669</ele><time>2026-04-21T12:18:20.999Z</time></trkpt><trkpt lat="45.53584879269686" lon="10.750469547242357"><ele>155.0</ele><time>2026-04-21T12:18:24.999Z</time></trkpt><trkpt lat="45.53578187337289" lon="10.75047427551227"><ele>156.33333333333334</ele><time>2026-04-21T12:18:28.999Z</time></trkpt><trkpt lat="45.535713309622246" lon="10.75050674067758"><ele>157.66666666666666</ele><time>2026-04-21T12:18:32.999Z</time></trkpt><trkpt lat="45.53564237076102" lon="10.750568556136464"><ele>159.0</ele><time>2026-04-21T12:18:36.999Z</time></trkpt><trkpt lat="45.535573479379515" lon="10.750608025513884"><ele>159.0</ele><time>2026-04-21T12:18:40.999Z</time></trkpt><trkpt lat="45.53551208479136" lon="10.750672379373528"><ele>159.0</ele><time>2026-04-21T12:18:45.999Z</time></trkpt><trkpt lat="45.53545055080281" lon="10.75072618286965"><ele>159.0</ele><time>2026-04-21T12:18:49.999Z</time></trkpt><trkpt lat="45.53539399512685" lon="10.750782806659048"><ele>159.0</ele><time>2026-04-21T12:18:53.999Z</time></trkpt><trkpt lat="45.53533698678421" lon="10.750843383616267"><ele>159.0</ele><time>2026-04-21T12:18:57.999Z</time></trkpt><trkpt lat="45.53527718658719" lon="10.75090388436306"><ele>159.0</ele><time>2026-04-21T12:19:01.999Z</time></trkpt><trkpt lat="45.53520934233414" lon="10.75094753246548"><ele>159.0</ele><time>2026-04-21T12:19:05.998Z</time></trkpt><trkpt lat="45.535153413288214" lon="10.750994346686568"><ele>159.7142857142857</ele><time>2026-04-21T12:19:08.998Z</time></trkpt><trkpt lat="45.5350952828947" lon="10.751034372871148"><ele>160.42857142857144</ele><time>2026-04-21T12:19:11.998Z</time></trkpt><trkpt lat="45.535036948571374" lon="10.751078526912412"><ele>161.14285714285714</ele><time>2026-04-21T12:19:14.998Z</time></trkpt><trkpt lat="45.53497273090575" lon="10.751122692392668"><ele>161.85714285714283</ele><time>2026-04-21T12:19:17.998Z</time></trkpt><trkpt lat="45.534906373786285" lon="10.751163815960814"><ele>162.57142857142856</ele><time>2026-04-21T12:19:20.998Z</time></trkpt><trkpt lat="45.53483963530439" lon="10.751207854372272"><ele>163.28571428571428</ele><time>2026-04-21T12:19:23.998Z</time></trkpt><trkpt lat="45.53476431401786" lon="10.751250823397749"><ele>164.0</ele><time>2026-04-21T12:19:27Z</time></trkpt><trkpt lat="45.534694970110536" lon="10.751294418625433"><ele>164.0</ele><time>2026-04-21T12:19:30Z</time></trkpt><trkpt lat="45.53462381180379" lon="10.751342506021901"><ele>164.0</ele><time>2026-04-21T12:19:33Z</time></trkpt><trkpt lat="45.534543573591684" lon="10.751380067826238"><ele>164.0</ele><time>2026-04-21T12:19:36Z</time></trkpt><trkpt lat="45.53446027560647" lon="10.751420081024069"><ele>164.0</ele><time>2026-04-21T12:19:39Z</time></trkpt><trkpt lat="45.534370724039086" lon="10.751462293039546"><ele>164.0</ele><time>2026-04-21T12:19:42Z</time></trkpt><trkpt lat="45.53430575809431" lon="10.751490964455014"><ele>164.0</ele><time>2026-04-21T12:19:44Z</time></trkpt><trkpt lat="45.53423654072945" lon="10.751497634390946"><ele>164.33333333333331</ele><time>2026-04-21T12:19:46Z</time></trkpt><trkpt lat="45.534162848915834" lon="10.751531840355078"><ele>164.66666666666666</ele><time>2026-04-21T12:19:49Z</time></trkpt><trkpt lat="45.533878531530185" lon="10.751594066223806"><ele>165.0</ele><time>2026-04-21T12:19:51Z</time></trkpt><trkpt lat="45.53376125993105" lon="10.751616874965269"><ele>164.5</ele><time>2026-04-21T12:19:53Z</time></trkpt><trkpt lat="45.53364525479061" lon="10.751637083019416"><ele>164.0</ele><time>2026-04-21T12:19:55Z</time></trkpt><trkpt lat="45.53352660425842" lon="10.75164940745088"><ele>163.5</ele><time>2026-04-21T12:19:57Z</time></trkpt><trkpt lat="45.533409278701015" lon="10.751676284376826"><ele>163.0</ele><time>2026-04-21T12:19:59Z</time></trkpt><trkpt lat="45.53328776166827" lon="10.751710314889056"><ele>163.0</ele><time>2026-04-21T12:20:01Z</time></trkpt><trkpt lat="45.53316905231687" lon="10.751739891235792"><ele>163.0</ele><time>2026-04-21T12:20:03Z</time></trkpt><trkpt lat="45.53305155453334" lon="10.751776817295067"><ele>163.0</ele><time>2026-04-21T12:20:05Z</time></trkpt><trkpt lat="45.53294638947868" lon="10.751810730130437"><ele>163.0</ele><time>2026-04-21T12:20:07Z</time></trkpt><trkpt lat="45.532844738130336" lon="10.751836547411871"><ele>162.60000000000002</ele><time>2026-04-21T12:20:09Z</time></trkpt><trkpt lat="45.53273611408595" lon="10.751871049968715"><ele>162.20000000000002</ele><time>2026-04-21T12:20:11Z</time></trkpt><trkpt lat="45.53263450724232" lon="10.751899199163944"><ele>161.8</ele><time>2026-04-21T12:20:12.999Z</time></trkpt><trkpt lat="45.53252810657045" lon="10.751923850473968"><ele>161.4</ele><time>2026-04-21T12:20:14.999Z</time></trkpt><trkpt lat="45.53242482076961" lon="10.751994054314821"><ele>161.0</ele><time>2026-04-21T12:20:16.999Z</time></trkpt><trkpt lat="45.53232107614352" lon="10.752062971473615"><ele>160.60000000000002</ele><time>2026-04-21T12:20:18.999Z</time></trkpt><trkpt lat="45.532229880213876" lon="10.75213305933792"><ele>160.20000000000002</ele><time>2026-04-21T12:20:20.999Z</time></trkpt><trkpt lat="45.532140115122054" lon="10.752220636521729"><ele>159.8</ele><time>2026-04-21T12:20:22.999Z</time></trkpt><trkpt lat="45.532049486568596" lon="10.752314915817797"><ele>159.4</ele><time>2026-04-21T12:20:24.999Z</time></trkpt><trkpt lat="45.53195362982868" lon="10.752405368251997"><ele>159.0</ele><time>2026-04-21T12:20:26.999Z</time></trkpt><trkpt lat="45.531853255604034" lon="10.752503177459674"><ele>158.83333333333334</ele><time>2026-04-21T12:20:28.999Z</time></trkpt><trkpt lat="45.531800676249674" lon="10.752561134379157"><ele>158.66666666666666</ele><time>2026-04-21T12:20:29.999Z</time></trkpt><trkpt lat="45.53174344452768" lon="10.752611221138995"><ele>158.5</ele><time>2026-04-21T12:20:30.999Z</time></trkpt><trkpt lat="45.53163698481483" lon="10.752709079813721"><ele>158.33333333333331</ele><time>2026-04-21T12:20:32.999Z</time></trkpt><trkpt lat="45.53158105711999" lon="10.752758620763096"><ele>158.16666666666666</ele><time>2026-04-21T12:20:33.999Z</time></trkpt><trkpt lat="45.53152517639424" lon="10.7528155633711"><ele>158.0</ele><time>2026-04-21T12:20:34.999Z</time></trkpt><trkpt lat="45.531469640726186" lon="10.752866009992829"><ele>157.20000000000002</ele><time>2026-04-21T12:20:35.999Z</time></trkpt><trkpt lat="45.53141289079437" lon="10.75291461882989"><ele>156.4</ele><time>2026-04-21T12:20:36.999Z</time></trkpt><trkpt lat="45.531305473704975" lon="10.752999972809748"><ele>155.60000000000002</ele><time>2026-04-21T12:20:38.999Z</time></trkpt><trkpt lat="45.531194710667336" lon="10.753071307311236"><ele>154.8</ele><time>2026-04-21T12:20:40.999Z</time></trkpt><trkpt lat="45.53109326598091" lon="10.753119515862553"><ele>154.0</ele><time>2026-04-21T12:20:42.999Z</time></trkpt><trkpt lat="45.5310318827864" lon="10.753146026077962"><ele>153.66666666666669</ele><time>2026-04-21T12:20:44.999Z</time></trkpt><trkpt lat="45.530964639771604" lon="10.753177105595785"><ele>153.33333333333334</ele><time>2026-04-21T12:21:03.999Z</time></trkpt><trkpt lat="45.530889109223885" lon="10.753207442777677"><ele>153.0</ele><time>2026-04-21T12:21:05.999Z</time></trkpt><trkpt lat="45.53079167720248" lon="10.753209351116531"><ele>152.66666666666666</ele><time>2026-04-21T12:21:07.999Z</time></trkpt><trkpt lat="45.53068567487911" lon="10.75329807720534"><ele>152.33333333333331</ele><time>2026-04-21T12:21:09.999Z</time></trkpt><trkpt lat="45.530635405667276" lon="10.753363117571714"><ele>152.0</ele><time>2026-04-21T12:21:10.998Z</time></trkpt><trkpt lat="45.53053912085143" lon="10.753463584439096"><ele>152.0</ele><time>2026-04-21T12:21:12.998Z</time></trkpt><trkpt lat="45.53047744074678" lon="10.753500068103515"><ele>152.0</ele><time>2026-04-21T12:21:13.998Z</time></trkpt><trkpt lat="45.53036797656214" lon="10.753574303366763"><ele>152.0</ele><time>2026-04-21T12:21:15.998Z</time></trkpt><trkpt lat="45.53024853792258" lon="10.753623699940572"><ele>152.0</ele><time>2026-04-21T12:21:17.998Z</time></trkpt><trkpt lat="45.53019027257094" lon="10.75365847181563"><ele>152.0</ele><time>2026-04-21T12:21:18.998Z</time></trkpt><trkpt lat="45.53013147647616" lon="10.75369191616913"><ele>152.0</ele><time>2026-04-21T12:21:19.998Z</time></trkpt><trkpt lat="45.53001858998571" lon="10.753742909074958"><ele>151.75</ele><time>2026-04-21T12:21:21.998Z</time></trkpt><trkpt lat="45.529908298533336" lon="10.753796612575087"><ele>151.5</ele><time>2026-04-21T12:21:23.998Z</time></trkpt><trkpt lat="45.529802279712975" lon="10.75385139191295"><ele>151.25</ele><time>2026-04-21T12:21:25.998Z</time></trkpt><trkpt lat="45.52969484625326" lon="10.753908309238744"><ele>151.0</ele><time>2026-04-21T12:21:27.998Z</time></trkpt><trkpt lat="45.52958799137487" lon="10.75395220018729"><ele>150.8</ele><time>2026-04-21T12:21:29.998Z</time></trkpt><trkpt lat="45.52948239211332" lon="10.754015716981977"><ele>150.6</ele><time>2026-04-21T12:21:32Z</time></trkpt><trkpt lat="45.529376436466286" lon="10.754075619586125"><ele>150.4</ele><time>2026-04-21T12:21:34Z</time></trkpt><trkpt lat="45.52928083252232" lon="10.754136122133197"><ele>150.2</ele><time>2026-04-21T12:21:36Z</time></trkpt><trkpt lat="45.52919070120002" lon="10.754199532190787"><ele>150.0</ele><time>2026-04-21T12:21:38Z</time></trkpt><trkpt lat="45.52907266878655" lon="10.754260504606243"><ele>150.0</ele><time>2026-04-21T12:21:41Z</time></trkpt><trkpt lat="45.52896028954564" lon="10.754290960309222"><ele>150.0</ele><time>2026-04-21T12:21:44Z</time></trkpt><trkpt lat="45.52884131553876" lon="10.75433215610887"><ele>150.0</ele><time>2026-04-21T12:21:46Z</time></trkpt><trkpt lat="45.528774799325994" lon="10.754355862905994"><ele>150.0</ele><time>2026-04-21T12:21:47Z</time></trkpt><trkpt lat="45.5287111126097" lon="10.75437303245132"><ele>150.0</ele><time>2026-04-21T12:21:48Z</time></trkpt><trkpt lat="45.52863887782569" lon="10.7543825900524"><ele>150.0</ele><time>2026-04-21T12:21:49Z</time></trkpt><trkpt lat="45.528572061683484" lon="10.75439682911488"><ele>149.6</ele><time>2026-04-21T12:21:50Z</time></trkpt><trkpt lat="45.52846772472025" lon="10.754462418091354"><ele>149.2</ele><time>2026-04-21T12:21:52Z</time></trkpt><trkpt lat="45.52836990543629" lon="10.754546271908147"><ele>148.8</ele><time>2026-04-21T12:21:54Z</time></trkpt><trkpt lat="45.52829219440254" lon="10.754641011004233"><ele>148.4</ele><time>2026-04-21T12:21:56Z</time></trkpt><trkpt lat="45.52820681162582" lon="10.754739990158605"><ele>148.0</ele><time>2026-04-21T12:21:58Z</time></trkpt><trkpt lat="45.52812255893102" lon="10.754839006683458"><ele>148.0</ele><time>2026-04-21T12:22:00Z</time></trkpt><trkpt lat="45.5280585507907" lon="10.754935393108584"><ele>148.0</ele><time>2026-04-21T12:22:02Z</time></trkpt><trkpt lat="45.527976256320855" lon="10.755031608615562"><ele>148.0</ele><time>2026-04-21T12:22:04Z</time></trkpt><trkpt lat="45.5278968256167" lon="10.755137387381973"><ele>148.0</ele><time>2026-04-21T12:22:06Z</time></trkpt><trkpt lat="45.52781231792295" lon="10.755244139737552"><ele>148.0</ele><time>2026-04-21T12:22:08Z</time></trkpt><trkpt lat="45.52773500939061" lon="10.755354523108748"><ele>147.6</ele><time>2026-04-21T12:22:10Z</time></trkpt><trkpt lat="45.52765570529157" lon="10.755463686411876"><ele>147.20000000000002</ele><time>2026-04-21T12:22:12Z</time></trkpt><trkpt lat="45.5275780408654" lon="10.755575782187227"><ele>146.8</ele><time>2026-04-21T12:22:14Z</time></trkpt><trkpt lat="45.527508750898924" lon="10.755692856347668"><ele>146.4</ele><time>2026-04-21T12:22:15.999Z</time></trkpt><trkpt lat="45.52743105612217" lon="10.75582005682304"><ele>146.0</ele><time>2026-04-21T12:22:17.999Z</time></trkpt><trkpt lat="45.5273513336076" lon="10.755946899669986"><ele>146.0</ele><time>2026-04-21T12:22:19.999Z</time></trkpt><trkpt lat="45.52730944396979" lon="10.756014271816943"><ele>146.0</ele><time>2026-04-21T12:22:20.999Z</time></trkpt><trkpt lat="45.52722774029789" lon="10.756145483194652"><ele>146.0</ele><time>2026-04-21T12:22:22.999Z</time></trkpt><trkpt lat="45.52714213108237" lon="10.756267470948677"><ele>146.0</ele><time>2026-04-21T12:22:24.999Z</time></trkpt><trkpt lat="45.52705469059772" lon="10.756385509064797"><ele>146.0</ele><time>2026-04-21T12:22:26.999Z</time></trkpt><trkpt lat="45.52696865551868" lon="10.756482948447573"><ele>146.0</ele><time>2026-04-21T12:22:28.999Z</time></trkpt><trkpt lat="45.52687570628802" lon="10.756581900252383"><ele>146.0</ele><time>2026-04-21T12:22:30.999Z</time></trkpt><trkpt lat="45.52679039112889" lon="10.756653358596177"><ele>146.0</ele><time>2026-04-21T12:22:32.999Z</time></trkpt><trkpt lat="45.526698179061526" lon="10.75673678680552"><ele>146.0</ele><time>2026-04-21T12:22:34.999Z</time></trkpt><trkpt lat="45.52654560956606" lon="10.756880710380216"><ele>146.0</ele><time>2026-04-21T12:22:37.999Z</time></trkpt><trkpt lat="45.526454400341954" lon="10.75696510379611"><ele>146.0</ele><time>2026-04-21T12:22:39.999Z</time></trkpt><trkpt lat="45.526367993915244" lon="10.7570492750373"><ele>146.0</ele><time>2026-04-21T12:22:41.999Z</time></trkpt><trkpt lat="45.526280065394914" lon="10.757143929533324"><ele>146.0</ele><time>2026-04-21T12:22:43.999Z</time></trkpt><trkpt lat="45.52618658611345" lon="10.757239137296724"><ele>146.0</ele><time>2026-04-21T12:22:45.999Z</time></trkpt><trkpt lat="45.526089593562254" lon="10.757326849902189"><ele>145.25</ele><time>2026-04-21T12:22:47.999Z</time></trkpt><trkpt lat="45.52597998621451" lon="10.757405038435985"><ele>144.5</ele><time>2026-04-21T12:22:49.999Z</time></trkpt><trkpt lat="45.52587952405616" lon="10.757479492635863"><ele>143.75</ele><time>2026-04-21T12:22:51.999Z</time></trkpt><trkpt lat="45.52577737158428" lon="10.757559632567816"><ele>143.0</ele><time>2026-04-21T12:22:53.999Z</time></trkpt><trkpt lat="45.52567846334998" lon="10.757644952730583"><ele>143.6</ele><time>2026-04-21T12:22:55.999Z</time></trkpt><trkpt lat="45.525569777056965" lon="10.757729122594846"><ele>144.20000000000002</ele><time>2026-04-21T12:22:57.999Z</time></trkpt><trkpt lat="45.525513326133975" lon="10.757774074440352"><ele>144.8</ele><time>2026-04-21T12:22:58.999Z</time></trkpt><trkpt lat="45.52541791902549" lon="10.7578523754112"><ele>145.4</ele><time>2026-04-21T12:23:00.999Z</time></trkpt><trkpt lat="45.52530167017802" lon="10.757907229664948"><ele>146.0</ele><time>2026-04-21T12:23:02.999Z</time></trkpt><trkpt lat="45.5251959804978" lon="10.757847403485442"><ele>146.0</ele><time>2026-04-21T12:23:04.999Z</time></trkpt><trkpt lat="45.52511062855838" lon="10.757747341701503"><ele>146.0</ele><time>2026-04-21T12:23:06.999Z</time></trkpt><trkpt lat="45.525021392908116" lon="10.757680410199876"><ele>146.0</ele><time>2026-04-21T12:23:08.999Z</time></trkpt><trkpt lat="45.524959348888885" lon="10.757619385008535"><ele>146.0</ele><time>2026-04-21T12:23:11.999Z</time></trkpt><trkpt lat="45.52483605372092" lon="10.75755882126706"><ele>146.0</ele><time>2026-04-21T12:23:12.999Z</time></trkpt><trkpt lat="45.52475323801439" lon="10.75748876544052"><ele>146.16666666666666</ele><time>2026-04-21T12:23:14.999Z</time></trkpt><trkpt lat="45.52467197245056" lon="10.757442293564457"><ele>146.33333333333331</ele><time>2026-04-21T12:23:16.998Z</time></trkpt><trkpt lat="45.524588528818526" lon="10.757397226707921"><ele>146.5</ele><time>2026-04-21T12:23:18.998Z</time></trkpt><trkpt lat="45.52450282613614" lon="10.757348203233253"><ele>146.66666666666666</ele><time>2026-04-21T12:23:20.998Z</time></trkpt><trkpt lat="45.52441327236013" lon="10.757315437186431"><ele>146.83333333333334</ele><time>2026-04-21T12:23:22.998Z</time></trkpt><trkpt lat="45.524329781840564" lon="10.757288878994576"><ele>147.0</ele><time>2026-04-21T12:23:24.998Z</time></trkpt><trkpt lat="45.52424058934311" lon="10.757254116364747"><ele>146.5</ele><time>2026-04-21T12:23:26.998Z</time></trkpt><trkpt lat="45.52415551835507" lon="10.757215303663868"><ele>146.0</ele><time>2026-04-21T12:23:28.998Z</time></trkpt><trkpt lat="45.52406368646791" lon="10.757157542952895"><ele>145.5</ele><time>2026-04-21T12:23:31.998Z</time></trkpt><trkpt lat="45.52398705007225" lon="10.757099962327368"><ele>145.0</ele><time>2026-04-21T12:23:33.998Z</time></trkpt><trkpt lat="45.52391065068791" lon="10.757037598714971"><ele>144.5</ele><time>2026-04-21T12:23:35.998Z</time></trkpt><trkpt lat="45.52385305623775" lon="10.756979804588072"><ele>144.0</ele><time>2026-04-21T12:23:38Z</time></trkpt><trkpt lat="45.523797691595945" lon="10.75691237336367"><ele>144.25</ele><time>2026-04-21T12:23:40Z</time></trkpt><trkpt lat="45.52363653268907" lon="10.756753007096835"><ele>144.5</ele><time>2026-04-21T12:23:43Z</time></trkpt><trkpt lat="45.52357097598533" lon="10.75667107621292"><ele>144.75</ele><time>2026-04-21T12:23:45Z</time></trkpt><trkpt lat="45.52350346926692" lon="10.756590033651584"><ele>145.0</ele><time>2026-04-21T12:23:47Z</time></trkpt><trkpt lat="45.52344548184647" lon="10.756504444314926"><ele>145.0</ele><time>2026-04-21T12:23:49Z</time></trkpt><trkpt lat="45.523381870504394" lon="10.75642003391325"><ele>145.0</ele><time>2026-04-21T12:23:51Z</time></trkpt><trkpt lat="45.52331615620282" lon="10.756335626686646"><ele>145.0</ele><time>2026-04-21T12:23:53Z</time></trkpt><trkpt lat="45.5232520383011" lon="10.756256761498438"><ele>145.0</ele><time>2026-04-21T12:23:55Z</time></trkpt><trkpt lat="45.5231900388168" lon="10.756175848601005"><ele>145.0</ele><time>2026-04-21T12:23:57Z</time></trkpt><trkpt lat="45.52312261794532" lon="10.756089469499733"><ele>145.0</ele><time>2026-04-21T12:23:59Z</time></trkpt><trkpt lat="45.52306931456739" lon="10.756004174591379"><ele>145.2</ele><time>2026-04-21T12:24:01Z</time></trkpt><trkpt lat="45.523101117880785" lon="10.75587106145192"><ele>145.4</ele><time>2026-04-21T12:24:04Z</time></trkpt><trkpt lat="45.52314197100234" lon="10.755794277976268"><ele>145.6</ele><time>2026-04-21T12:24:06Z</time></trkpt><trkpt lat="45.523150132339985" lon="10.75560843396498"><ele>145.8</ele><time>2026-04-21T12:24:08Z</time></trkpt><trkpt lat="45.52319859514837" lon="10.755461326989069"><ele>146.0</ele><time>2026-04-21T12:24:10Z</time></trkpt><trkpt lat="45.523237036543584" lon="10.755332957553316"><ele>146.2</ele><time>2026-04-21T12:24:12Z</time></trkpt><trkpt lat="45.52327029404936" lon="10.755203587554947"><ele>146.39999999999998</ele><time>2026-04-21T12:24:14Z</time></trkpt><trkpt lat="45.52329610738942" lon="10.755074559267788"><ele>146.6</ele><time>2026-04-21T12:24:16Z</time></trkpt><trkpt lat="45.52332390433611" lon="10.754945165433755"><ele>146.79999999999998</ele><time>2026-04-21T12:24:18Z</time></trkpt><trkpt lat="45.52334949546171" lon="10.754816545707747"><ele>147.0</ele><time>2026-04-21T12:24:20Z</time></trkpt><trkpt lat="45.523377480165294" lon="10.754697686806526"><ele>147.0</ele><time>2026-04-21T12:24:21.999Z</time></trkpt><trkpt lat="45.523379074786035" lon="10.754583018941387"><ele>147.0</ele><time>2026-04-21T12:24:23.999Z</time></trkpt><trkpt lat="45.52335243945235" lon="10.754471558301173"><ele>147.0</ele><time>2026-04-21T12:24:25.999Z</time></trkpt><trkpt lat="45.52331279161441" lon="10.75439918016321"><ele>147.0</ele><time>2026-04-21T12:24:28.999Z</time></trkpt><trkpt lat="45.523219914841775" lon="10.754257253104058"><ele>147.0</ele><time>2026-04-21T12:24:30.999Z</time></trkpt><trkpt lat="45.52316624722563" lon="10.754187316171809"><ele>147.0</ele><time>2026-04-21T12:24:32.999Z</time></trkpt><trkpt lat="45.52311633590914" lon="10.754106797468086"><ele>147.66666666666666</ele><time>2026-04-21T12:24:34.999Z</time></trkpt><trkpt lat="45.523089092453844" lon="10.753978557165906"><ele>148.33333333333334</ele><time>2026-04-21T12:24:36.999Z</time></trkpt><trkpt lat="45.523066284901624" lon="10.753879835473432"><ele>149.0</ele><time>2026-04-21T12:24:38.999Z</time></trkpt><trkpt lat="45.52305712394669" lon="10.753773938867035"><ele>149.66666666666669</ele><time>2026-04-21T12:24:40.999Z</time></trkpt><trkpt lat="45.523046603135555" lon="10.753645408904074"><ele>150.33333333333334</ele><time>2026-04-21T12:24:42.999Z</time></trkpt><trkpt lat="45.5230324639378" lon="10.753527673145372"><ele>151.0</ele><time>2026-04-21T12:24:44.999Z</time></trkpt><trkpt lat="45.52302285499757" lon="10.75340965012918"><ele>151.83333333333334</ele><time>2026-04-21T12:24:46.999Z</time></trkpt><trkpt lat="45.52302560463121" lon="10.753279834833215"><ele>152.66666666666669</ele><time>2026-04-21T12:24:49.999Z</time></trkpt><trkpt lat="45.52299446242526" lon="10.753087315709651"><ele>153.5</ele><time>2026-04-21T12:24:52.999Z</time></trkpt><trkpt lat="45.52297199101746" lon="10.752984604185508"><ele>154.33333333333334</ele><time>2026-04-21T12:24:54.999Z</time></trkpt><trkpt lat="45.52295332479897" lon="10.752895037696717"><ele>155.16666666666666</ele><time>2026-04-21T12:24:56.999Z</time></trkpt><trkpt lat="45.5229377062725" lon="10.75280036685477"><ele>156.0</ele><time>2026-04-21T12:24:58.999Z</time></trkpt><trkpt lat="45.52292815289955" lon="10.752700824957774"><ele>156.0</ele><time>2026-04-21T12:25:00.999Z</time></trkpt><trkpt lat="45.52290694577322" lon="10.75260397959437"><ele>156.0</ele><time>2026-04-21T12:25:02.999Z</time></trkpt><trkpt lat="45.522891635592146" lon="10.752507045566015"><ele>156.0</ele><time>2026-04-21T12:25:04.999Z</time></trkpt><trkpt lat="45.52288451142898" lon="10.752416708177378"><ele>156.0</ele><time>2026-04-21T12:25:06.999Z</time></trkpt><trkpt lat="45.52287445205342" lon="10.752289642368744"><ele>156.0</ele><time>2026-04-21T12:25:09.999Z</time></trkpt><trkpt lat="45.52287191198522" lon="10.75218572666176"><ele>156.0</ele><time>2026-04-21T12:25:12.999Z</time></trkpt><trkpt lat="45.522861864045325" lon="10.752066824215936"><ele>155.66666666666666</ele><time>2026-04-21T12:25:16.999Z</time></trkpt><trkpt lat="45.52281513117327" lon="10.751985426401793"><ele>155.33333333333334</ele><time>2026-04-21T12:25:19.999Z</time></trkpt><trkpt lat="45.52274834186402" lon="10.751952440274428"><ele>155.0</ele><time>2026-04-21T12:25:22.998Z</time></trkpt><trkpt lat="45.5226812858427" lon="10.751960607649664"><ele>154.66666666666669</ele><time>2026-04-21T12:25:24.998Z</time></trkpt><trkpt lat="45.52259110393343" lon="10.752016801695772"><ele>154.33333333333334</ele><time>2026-04-21T12:25:27.998Z</time></trkpt><trkpt lat="45.5225068114727" lon="10.752051584264686"><ele>154.0</ele><time>2026-04-21T12:25:30.998Z</time></trkpt><trkpt lat="45.52239837921782" lon="10.752134852904879"><ele>154.0</ele><time>2026-04-21T12:25:33.998Z</time></trkpt><trkpt lat="45.52233945700436" lon="10.752177804444155"><ele>154.0</ele><time>2026-04-21T12:25:35.998Z</time></trkpt><trkpt lat="45.522229897070886" lon="10.75222221338022"><ele>154.0</ele><time>2026-04-21T12:25:38.998Z</time></trkpt><trkpt lat="45.52190464130172" lon="10.752435138637475"><ele>154.4</ele><time>2026-04-21T12:25:40.998Z</time></trkpt><trkpt lat="45.521804010258606" lon="10.752492348771625"><ele>154.8</ele><time>2026-04-21T12:25:43Z</time></trkpt><trkpt lat="45.52170971720358" lon="10.75248771695325"><ele>155.2</ele><time>2026-04-21T12:25:45Z</time></trkpt><trkpt lat="45.52161911856776" lon="10.752428792515328"><ele>155.6</ele><time>2026-04-21T12:25:47Z</time></trkpt><trkpt lat="45.52165293415984" lon="10.75224756659627"><ele>156.0</ele><time>2026-04-21T12:25:48Z</time></trkpt><trkpt lat="45.52161151414928" lon="10.752080224542194"><ele>156.0</ele><time>2026-04-21T12:25:50Z</time></trkpt><trkpt lat="45.52157080024185" lon="10.751925650038242"><ele>156.0</ele><time>2026-04-21T12:25:52Z</time></trkpt><trkpt lat="45.52156891254176" lon="10.751749232643432"><ele>156.0</ele><time>2026-04-21T12:25:54Z</time></trkpt><trkpt lat="45.52159881500456" lon="10.751576447049688"><ele>156.0</ele><time>2026-04-21T12:25:56Z</time></trkpt><trkpt lat="45.52162232224323" lon="10.751472702481033"><ele>156.0</ele><time>2026-04-21T12:25:57Z</time></trkpt><trkpt lat="45.521702636130435" lon="10.75141669856484"><ele>155.83333333333334</ele><time>2026-04-21T12:25:58Z</time></trkpt><trkpt lat="45.52174225625722" lon="10.751327420833833"><ele>155.66666666666666</ele><time>2026-04-21T12:25:59Z</time></trkpt><trkpt lat="45.5217799333049" lon="10.751225564947688"><ele>155.5</ele><time>2026-04-21T12:26:00Z</time></trkpt><trkpt lat="45.521824671851384" lon="10.751146118449322"><ele>155.33333333333331</ele><time>2026-04-21T12:26:01Z</time></trkpt><trkpt lat="45.52184982535942" lon="10.751044088252323"><ele>155.16666666666666</ele><time>2026-04-21T12:26:02Z</time></trkpt><trkpt lat="45.52191142535037" lon="10.75091618204701"><ele>155.0</ele><time>2026-04-21T12:26:03Z</time></trkpt><trkpt lat="45.52192470375252" lon="10.750813953207905"><ele>153.4</ele><time>2026-04-21T12:26:04Z</time></trkpt><trkpt lat="45.52193410507272" lon="10.75068626283"><ele>151.8</ele><time>2026-04-21T12:26:05Z</time></trkpt><trkpt lat="45.52193336039634" lon="10.750556073413813"><ele>150.2</ele><time>2026-04-21T12:26:06Z</time></trkpt><trkpt lat="45.521913333161216" lon="10.750427487447881"><ele>148.6</ele><time>2026-04-21T12:26:07Z</time></trkpt><trkpt lat="45.521879153467296" lon="10.750305380183523"><ele>147.0</ele><time>2026-04-21T12:26:08Z</time></trkpt><trkpt lat="45.52184181313755" lon="10.750172140034405"><ele>145.4</ele><time>2026-04-21T12:26:09Z</time></trkpt><trkpt lat="45.52183150390375" lon="10.750038129267093"><ele>143.79999999999998</ele><time>2026-04-21T12:26:10Z</time></trkpt><trkpt lat="45.52183309434112" lon="10.749904824706709"><ele>142.2</ele><time>2026-04-21T12:26:11Z</time></trkpt><trkpt lat="45.521846922278364" lon="10.749770867750664"><ele>140.6</ele><time>2026-04-21T12:26:12Z</time></trkpt><trkpt lat="45.52185589730558" lon="10.749650682762526"><ele>139.0</ele><time>2026-04-21T12:26:13Z</time></trkpt><trkpt lat="45.52187006952144" lon="10.749530852719253"><ele>139.0</ele><time>2026-04-21T12:26:14Z</time></trkpt><trkpt lat="45.521896004057204" lon="10.749407045879027"><ele>139.0</ele><time>2026-04-21T12:26:15Z</time></trkpt><trkpt lat="45.52191481658159" lon="10.749280638886118"><ele>139.0</ele><time>2026-04-21T12:26:16Z</time></trkpt><trkpt lat="45.521931865376196" lon="10.749161296778643"><ele>139.0</ele><time>2026-04-21T12:26:17Z</time></trkpt><trkpt lat="45.52194834789695" lon="10.749036894356728"><ele>139.0</ele><time>2026-04-21T12:26:18Z</time></trkpt><trkpt lat="45.52196556158201" lon="10.74891480268036"><ele>139.0</ele><time>2026-04-21T12:26:19Z</time></trkpt><trkpt lat="45.52198328429732" lon="10.748797350391593"><ele>138.83333333333334</ele><time>2026-04-21T12:26:20Z</time></trkpt><trkpt lat="45.52200200930866" lon="10.748681101900479"><ele>138.66666666666669</ele><time>2026-04-21T12:26:21Z</time></trkpt><trkpt lat="45.52202114892511" lon="10.748568638500428"><ele>138.5</ele><time>2026-04-21T12:26:22Z</time></trkpt><trkpt lat="45.52204128685617" lon="10.748458032440752"><ele>138.33333333333334</ele><time>2026-04-21T12:26:23Z</time></trkpt><trkpt lat="45.52206608489821" lon="10.74834921854109"><ele>138.16666666666666</ele><time>2026-04-21T12:26:24Z</time></trkpt><trkpt lat="45.52208734592511" lon="10.74824130488015"><ele>138.0</ele><time>2026-04-21T12:26:25Z</time></trkpt><trkpt lat="45.522114692425134" lon="10.748140046020175"><ele>138.0</ele><time>2026-04-21T12:26:26Z</time></trkpt><trkpt lat="45.522126521214695" lon="10.748036470180518"><ele>138.0</ele><time>2026-04-21T12:26:26.999Z</time></trkpt><trkpt lat="45.52204049542147" lon="10.74791355866633"><ele>138.0</ele><time>2026-04-21T12:26:28.999Z</time></trkpt><trkpt lat="45.52197286313872" lon="10.747921527526191"><ele>138.0</ele><time>2026-04-21T12:26:29.999Z</time></trkpt><trkpt lat="45.52186791931464" lon="10.747973678921843"><ele>138.0</ele><time>2026-04-21T12:26:31.999Z</time></trkpt><trkpt lat="45.521769412756484" lon="10.748036362338228"><ele>138.0</ele><time>2026-04-21T12:26:33.999Z</time></trkpt><trkpt lat="45.52168134298703" lon="10.748114774438625"><ele>138.0</ele><time>2026-04-21T12:26:35.999Z</time></trkpt><trkpt lat="45.521592906713224" lon="10.74818810738363"><ele>138.0</ele><time>2026-04-21T12:26:37.999Z</time></trkpt><trkpt lat="45.521526478666615" lon="10.748250665038352"><ele>138.0</ele><time>2026-04-21T12:26:39.999Z</time></trkpt><trkpt lat="45.521434026617825" lon="10.748303462158775"><ele>138.0</ele><time>2026-04-21T12:26:41.999Z</time></trkpt><trkpt lat="45.52134597472173" lon="10.748414176659548"><ele>138.0</ele><time>2026-04-21T12:26:43.999Z</time></trkpt><trkpt lat="45.521239982777935" lon="10.748500253196541"><ele>138.0</ele><time>2026-04-21T12:26:45.999Z</time></trkpt><trkpt lat="45.52117888098745" lon="10.748530290025954"><ele>138.0</ele><time>2026-04-21T12:26:46.999Z</time></trkpt><trkpt lat="45.521114969113285" lon="10.748559211248827"><ele>138.0</ele><time>2026-04-21T12:26:47.999Z</time></trkpt><trkpt lat="45.521050965125596" lon="10.748581046950324"><ele>138.0</ele><time>2026-04-21T12:26:48.999Z</time></trkpt><trkpt lat="45.52098463860889" lon="10.748592356409537"><ele>138.0</ele><time>2026-04-21T12:26:49.999Z</time></trkpt><trkpt lat="45.52091890871234" lon="10.748602226863413"><ele>137.42857142857144</ele><time>2026-04-21T12:26:50.999Z</time></trkpt><trkpt lat="45.52085382787848" lon="10.748606813496167"><ele>136.85714285714286</ele><time>2026-04-21T12:26:51.999Z</time></trkpt><trkpt lat="45.52078358173342" lon="10.748615424266637"><ele>136.28571428571428</ele><time>2026-04-21T12:26:52.999Z</time></trkpt><trkpt lat="45.5207145682086" lon="10.748625543591034"><ele>135.71428571428572</ele><time>2026-04-21T12:26:53.999Z</time></trkpt><trkpt lat="45.520645684086546" lon="10.748626244246042"><ele>135.14285714285714</ele><time>2026-04-21T12:26:54.999Z</time></trkpt><trkpt lat="45.52057943641838" lon="10.748627731855837"><ele>134.57142857142858</ele><time>2026-04-21T12:26:55.999Z</time></trkpt><trkpt lat="45.52051127941048" lon="10.748630429384898"><ele>134.0</ele><time>2026-04-21T12:26:56.999Z</time></trkpt><trkpt lat="45.5204437215412" lon="10.748638551377423"><ele>134.2</ele><time>2026-04-21T12:26:57.999Z</time></trkpt><trkpt lat="45.52038059907789" lon="10.748652386886757"><ele>134.4</ele><time>2026-04-21T12:26:58.999Z</time></trkpt><trkpt lat="45.5202548500059" lon="10.748666195672637"><ele>134.6</ele><time>2026-04-21T12:27:00.999Z</time></trkpt><trkpt lat="45.520130100567926" lon="10.748677442322053"><ele>134.8</ele><time>2026-04-21T12:27:02.999Z</time></trkpt><trkpt lat="45.52001016603452" lon="10.748688223711017"><ele>135.0</ele><time>2026-04-21T12:27:04.999Z</time></trkpt><trkpt lat="45.519895446970615" lon="10.74869873424134"><ele>135.0</ele><time>2026-04-21T12:27:06.999Z</time></trkpt><trkpt lat="45.51978211393348" lon="10.74871645503726"><ele>135.0</ele><time>2026-04-21T12:27:08.999Z</time></trkpt><trkpt lat="45.519670610710236" lon="10.74872870473497"><ele>135.0</ele><time>2026-04-21T12:27:10.999Z</time></trkpt><trkpt lat="45.519566237884504" lon="10.748737897763132"><ele>135.0</ele><time>2026-04-21T12:27:12.999Z</time></trkpt><trkpt lat="45.51945504868613" lon="10.74874653756346"><ele>135.0</ele><time>2026-04-21T12:27:14.999Z</time></trkpt><trkpt lat="45.519342073872494" lon="10.748761543385191"><ele>135.0</ele><time>2026-04-21T12:27:16.999Z</time></trkpt><trkpt lat="45.519227822303115" lon="10.748769778707533"><ele>135.0</ele><time>2026-04-21T12:27:18.999Z</time></trkpt><trkpt lat="45.51911227341545" lon="10.748787088900428"><ele>135.0</ele><time>2026-04-21T12:27:20.999Z</time></trkpt><trkpt lat="45.518997644937194" lon="10.748791528587349"><ele>135.0</ele><time>2026-04-21T12:27:22.999Z</time></trkpt><trkpt lat="45.518883130304296" lon="10.748802911900365"><ele>135.0</ele><time>2026-04-21T12:27:24.999Z</time></trkpt><trkpt lat="45.51877033955089" lon="10.748807267724205"><ele>135.0</ele><time>2026-04-21T12:27:26.998Z</time></trkpt><trkpt lat="45.51865367453141" lon="10.748818167798408"><ele>135.0</ele><time>2026-04-21T12:27:28.998Z</time></trkpt><trkpt lat="45.51854376002927" lon="10.748824969190158"><ele>135.0</ele><time>2026-04-21T12:27:30.998Z</time></trkpt><trkpt lat="45.518428342910354" lon="10.748835103204211"><ele>134.2</ele><time>2026-04-21T12:27:32.998Z</time></trkpt><trkpt lat="45.51831867212512" lon="10.748844944153033"><ele>133.4</ele><time>2026-04-21T12:27:34.998Z</time></trkpt><trkpt lat="45.5182092800073" lon="10.748856948598428"><ele>132.6</ele><time>2026-04-21T12:27:36.998Z</time></trkpt><trkpt lat="45.518105379250635" lon="10.748865022197277"><ele>131.8</ele><time>2026-04-21T12:27:38.998Z</time></trkpt><trkpt lat="45.51800189451467" lon="10.748875343960846"><ele>131.0</ele><time>2026-04-21T12:27:40.998Z</time></trkpt><trkpt lat="45.51789817415108" lon="10.748885594256663"><ele>131.0</ele><time>2026-04-21T12:27:42.998Z</time></trkpt><trkpt lat="45.517709142578155" lon="10.748916041662937"><ele>131.0</ele><time>2026-04-21T12:27:45.998Z</time></trkpt><trkpt lat="45.51761023391829" lon="10.74891107801251"><ele>131.0</ele><time>2026-04-21T12:27:48Z</time></trkpt><trkpt lat="45.51751236195357" lon="10.748918565143907"><ele>131.0</ele><time>2026-04-21T12:27:50Z</time></trkpt><trkpt lat="45.51740985624453" lon="10.748934119091501"><ele>131.0</ele><time>2026-04-21T12:27:52Z</time></trkpt><trkpt lat="45.51730969375231" lon="10.748947175414672"><ele>131.0</ele><time>2026-04-21T12:27:54Z</time></trkpt><trkpt lat="45.517212875964596" lon="10.74894856515739"><ele>131.0</ele><time>2026-04-21T12:27:56Z</time></trkpt><trkpt lat="45.51712326474015" lon="10.748910845767222"><ele>131.0</ele><time>2026-04-21T12:27:58Z</time></trkpt><trkpt lat="45.51702423814755" lon="10.748882340269065"><ele>131.0</ele><time>2026-04-21T12:28:00Z</time></trkpt><trkpt lat="45.516943306108516" lon="10.748853443614054"><ele>131.33333333333331</ele><time>2026-04-21T12:28:02Z</time></trkpt><trkpt lat="45.51685893523936" lon="10.748818130992634"><ele>131.66666666666666</ele><time>2026-04-21T12:28:04Z</time></trkpt><trkpt lat="45.51678368595661" lon="10.748754180216546"><ele>132.0</ele><time>2026-04-21T12:28:07Z</time></trkpt><trkpt lat="45.5166700619814" lon="10.74870305298146"><ele>132.33333333333334</ele><time>2026-04-21T12:28:10Z</time></trkpt><trkpt lat="45.5166073357534" lon="10.748680976606897"><ele>132.66666666666669</ele><time>2026-04-21T12:28:11Z</time></trkpt><trkpt lat="45.51652452078143" lon="10.748663270344883"><ele>133.0</ele><time>2026-04-21T12:28:14Z</time></trkpt><trkpt lat="45.51644859830718" lon="10.74862531467266"><ele>133.0</ele><time>2026-04-21T12:28:16Z</time></trkpt><trkpt lat="45.51637363040361" lon="10.748614776844581"><ele>133.0</ele><time>2026-04-21T12:28:18Z</time></trkpt><trkpt lat="45.51629305535666" lon="10.748604547294951"><ele>133.0</ele><time>2026-04-21T12:28:19Z</time></trkpt><trkpt lat="45.51621858790359" lon="10.74860811489032"><ele>133.0</ele><time>2026-04-21T12:28:21Z</time></trkpt><trkpt lat="45.51603571741738" lon="10.748618544865394"><ele>133.0</ele><time>2026-04-21T12:28:23Z</time></trkpt><trkpt lat="45.51593842530621" lon="10.748621665933065"><ele>133.33333333333334</ele><time>2026-04-21T12:28:25Z</time></trkpt><trkpt lat="45.51584211529086" lon="10.748629026761062"><ele>133.66666666666669</ele><time>2026-04-21T12:28:27Z</time></trkpt><trkpt lat="45.515749962459516" lon="10.748630782261982"><ele>134.0</ele><time>2026-04-21T12:28:29Z</time></trkpt><trkpt lat="45.5156652629707" lon="10.748629407176198"><ele>134.33333333333334</ele><time>2026-04-21T12:28:30.999Z</time></trkpt><trkpt lat="45.51558647591513" lon="10.748611385888148"><ele>134.66666666666666</ele><time>2026-04-21T12:28:32.999Z</time></trkpt><trkpt lat="45.515496813621" lon="10.74856656326191"><ele>135.0</ele><time>2026-04-21T12:28:34.999Z</time></trkpt><trkpt lat="45.51540606987284" lon="10.74851604283188"><ele>133.4</ele><time>2026-04-21T12:28:36.999Z</time></trkpt><trkpt lat="45.515310293965875" lon="10.748466137591913"><ele>131.8</ele><time>2026-04-21T12:28:38.999Z</time></trkpt><trkpt lat="45.515212164064735" lon="10.748398053239479"><ele>130.2</ele><time>2026-04-21T12:28:40.999Z</time></trkpt><trkpt lat="45.51515122253954" lon="10.748304374777415"><ele>128.6</ele><time>2026-04-21T12:28:42.999Z</time></trkpt><trkpt lat="45.515066989096105" lon="10.748200149693458"><ele>127.0</ele><time>2026-04-21T12:28:44.999Z</time></trkpt><trkpt lat="45.51497574794554" lon="10.748098931162701"><ele>127.0</ele><time>2026-04-21T12:28:46.999Z</time></trkpt><trkpt lat="45.51488437054633" lon="10.747994172397872"><ele>126.99999999999999</ele><time>2026-04-21T12:28:48.999Z</time></trkpt><trkpt lat="45.51478892652817" lon="10.747870868789843"><ele>126.99999999999999</ele><time>2026-04-21T12:28:50.999Z</time></trkpt><trkpt lat="45.51473769727241" lon="10.747811221130977"><ele>127.0</ele><time>2026-04-21T12:28:51.999Z</time></trkpt><trkpt lat="45.514686341027975" lon="10.747741187257262"><ele>127.0</ele><time>2026-04-21T12:28:52.999Z</time></trkpt><trkpt lat="45.514627622613844" lon="10.74767160481595"><ele>126.50000000000001</ele><time>2026-04-21T12:28:53.999Z</time></trkpt><trkpt lat="45.51457433420191" lon="10.747608587038345"><ele>126.0</ele><time>2026-04-21T12:28:54.999Z</time></trkpt><trkpt lat="45.51451471230067" lon="10.747541360312848"><ele>125.5</ele><time>2026-04-21T12:28:55.999Z</time></trkpt><trkpt lat="45.514451667263366" lon="10.747471132058658"><ele>125.0</ele><time>2026-04-21T12:28:56.999Z</time></trkpt><trkpt lat="45.51439565863387" lon="10.747403972915931"><ele>124.50000000000001</ele><time>2026-04-21T12:28:57.999Z</time></trkpt><trkpt lat="45.514335152267485" lon="10.74731948972293"><ele>124.0</ele><time>2026-04-21T12:28:58.999Z</time></trkpt><trkpt lat="45.51427621248698" lon="10.747243228820718"><ele>123.66666666666667</ele><time>2026-04-21T12:28:59.999Z</time></trkpt><trkpt lat="45.51422475756678" lon="10.747153125963978"><ele>123.33333333333334</ele><time>2026-04-21T12:29:00.999Z</time></trkpt><trkpt lat="45.51416977807146" lon="10.74706469942788"><ele>123.0</ele><time>2026-04-21T12:29:01.999Z</time></trkpt><trkpt lat="45.51411553221921" lon="10.746968630923527"><ele>122.66666666666666</ele><time>2026-04-21T12:29:02.999Z</time></trkpt><trkpt lat="45.514068097655795" lon="10.746858152533584"><ele>122.33333333333333</ele><time>2026-04-21T12:29:03.999Z</time></trkpt><trkpt lat="45.5140287656369" lon="10.746736793351852"><ele>122.0</ele><time>2026-04-21T12:29:04.999Z</time></trkpt><trkpt lat="45.51399174959109" lon="10.746612965224665"><ele>121.39999999999999</ele><time>2026-04-21T12:29:05.999Z</time></trkpt><trkpt lat="45.51395894019244" lon="10.746483652859288"><ele>120.79999999999998</ele><time>2026-04-21T12:29:06.999Z</time></trkpt><trkpt lat="45.51392615320488" lon="10.746348152583057"><ele>120.2</ele><time>2026-04-21T12:29:07.999Z</time></trkpt><trkpt lat="45.513883230668185" lon="10.746220659238466"><ele>119.6</ele><time>2026-04-21T12:29:08.999Z</time></trkpt><trkpt lat="45.51383813859907" lon="10.746094977371483"><ele>119.0</ele><time>2026-04-21T12:29:09.999Z</time></trkpt><trkpt lat="45.513780858670025" lon="10.745978863342389"><ele>117.0</ele><time>2026-04-21T12:29:10.999Z</time></trkpt><trkpt lat="45.51370082232262" lon="10.745880444757457"><ele>115.0</ele><time>2026-04-21T12:29:11.999Z</time></trkpt><trkpt lat="45.513612490243105" lon="10.74580091264429"><ele>113.0</ele><time>2026-04-21T12:29:12.999Z</time></trkpt><trkpt lat="45.51351920056685" lon="10.745736555133814"><ele>111.0</ele><time>2026-04-21T12:29:13.999Z</time></trkpt><trkpt lat="45.51342516784129" lon="10.745680683347716"><ele>109.0</ele><time>2026-04-21T12:29:14.999Z</time></trkpt><trkpt lat="45.51333687999203" lon="10.745612381723063"><ele>109.0</ele><time>2026-04-21T12:29:15.999Z</time></trkpt><trkpt lat="45.51324426733597" lon="10.745546796716315"><ele>109.0</ele><time>2026-04-21T12:29:16.999Z</time></trkpt><trkpt lat="45.513157874828984" lon="10.745479248664054"><ele>109.0</ele><time>2026-04-21T12:29:17.999Z</time></trkpt><trkpt lat="45.51307158011097" lon="10.74540902815159"><ele>109.0</ele><time>2026-04-21T12:29:18.999Z</time></trkpt><trkpt lat="45.51299006483283" lon="10.745338122507743"><ele>109.0</ele><time>2026-04-21T12:29:19.999Z</time></trkpt><trkpt lat="45.512912077316" lon="10.74526111092531"><ele>107.80000000000001</ele><time>2026-04-21T12:29:20.999Z</time></trkpt><trkpt lat="45.51283331501961" lon="10.745185500444414"><ele>106.60000000000001</ele><time>2026-04-21T12:29:21.999Z</time></trkpt><trkpt lat="45.512755913249215" lon="10.745113590286262"><ele>105.4</ele><time>2026-04-21T12:29:22.999Z</time></trkpt><trkpt lat="45.51268578656654" lon="10.745028190536848"><ele>104.2</ele><time>2026-04-21T12:29:23.999Z</time></trkpt><trkpt lat="45.51261382115169" lon="10.74494817759864"><ele>103.0</ele><time>2026-04-21T12:29:24.999Z</time></trkpt><trkpt lat="45.512547200834085" lon="10.74486902010344"><ele>103.00000000000001</ele><time>2026-04-21T12:29:25.999Z</time></trkpt><trkpt lat="45.51248567668789" lon="10.744793132302016"><ele>103.0</ele><time>2026-04-21T12:29:26.999Z</time></trkpt><trkpt lat="45.51242794327653" lon="10.74471600778858"><ele>103.0</ele><time>2026-04-21T12:29:27.999Z</time></trkpt><trkpt lat="45.512370055839845" lon="10.744646168994716"><ele>103.0</ele><time>2026-04-21T12:29:28.999Z</time></trkpt><trkpt lat="45.51231566894428" lon="10.74457250890766"><ele>103.00000000000001</ele><time>2026-04-21T12:29:29.999Z</time></trkpt><trkpt lat="45.512256658522645" lon="10.744508151939435"><ele>103.0</ele><time>2026-04-21T12:29:30.998Z</time></trkpt><trkpt lat="45.51220229826047" lon="10.74443724277791"><ele>102.85714285714285</ele><time>2026-04-21T12:29:31.998Z</time></trkpt><trkpt lat="45.51214730572994" lon="10.744368079970588"><ele>102.71428571428571</ele><time>2026-04-21T12:29:32.998Z</time></trkpt><trkpt lat="45.51209236025212" lon="10.744308358251974"><ele>102.57142857142857</ele><time>2026-04-21T12:29:33.998Z</time></trkpt><trkpt lat="45.51203652793788" lon="10.744258968150206"><ele>102.42857142857142</ele><time>2026-04-21T12:29:34.998Z</time></trkpt><trkpt lat="45.51196868982595" lon="10.744214099887452"><ele>102.28571428571429</ele><time>2026-04-21T12:29:35.998Z</time></trkpt><trkpt lat="45.51190252701686" lon="10.744172230225796"><ele>102.14285714285714</ele><time>2026-04-21T12:29:36.998Z</time></trkpt><trkpt lat="45.51184032898893" lon="10.74413451197101"><ele>102.0</ele><time>2026-04-21T12:29:37.998Z</time></trkpt><trkpt lat="45.51171954170167" lon="10.744083611987987"><ele>102.0</ele><time>2026-04-21T12:29:39.998Z</time></trkpt><trkpt lat="45.5116554873986" lon="10.744052561158195"><ele>102.0</ele><time>2026-04-21T12:29:40.998Z</time></trkpt><trkpt lat="45.51153953722028" lon="10.74400957963578"><ele>102.0</ele><time>2026-04-21T12:29:42.998Z</time></trkpt><trkpt lat="45.51147756882258" lon="10.743987765244407"><ele>102.0</ele><time>2026-04-21T12:29:43.998Z</time></trkpt><trkpt lat="45.51136808847824" lon="10.743940864396269"><ele>102.0</ele><time>2026-04-21T12:29:45.998Z</time></trkpt><trkpt lat="45.51126122272215" lon="10.743900314659216"><ele>102.19999999999999</ele><time>2026-04-21T12:29:47.998Z</time></trkpt><trkpt lat="45.51116320311166" lon="10.743856266247429"><ele>102.4</ele><time>2026-04-21T12:29:49.998Z</time></trkpt><trkpt lat="45.511063370183784" lon="10.743822466715157"><ele>102.6</ele><time>2026-04-21T12:29:51.998Z</time></trkpt><trkpt lat="45.5109993193844" lon="10.743788191723374"><ele>102.80000000000001</ele><time>2026-04-21T12:29:54Z</time></trkpt><trkpt lat="45.51091661182841" lon="10.743772619492908"><ele>103.0</ele><time>2026-04-21T12:29:56Z</time></trkpt><trkpt lat="45.5107257285381" lon="10.743719294599002"><ele>103.0</ele><time>2026-04-21T12:29:58Z</time></trkpt><trkpt lat="45.510620408922954" lon="10.743709082579663"><ele>103.0</ele><time>2026-04-21T12:30:00Z</time></trkpt><trkpt lat="45.510517944879304" lon="10.743701677489879"><ele>103.0</ele><time>2026-04-21T12:30:02Z</time></trkpt><trkpt lat="45.51041447556473" lon="10.743711140045967"><ele>103.0</ele><time>2026-04-21T12:30:04Z</time></trkpt><trkpt lat="45.51031026174003" lon="10.743718570491168"><ele>103.0</ele><time>2026-04-21T12:30:06Z</time></trkpt><trkpt lat="45.510201502683366" lon="10.743727155841885"><ele>103.2</ele><time>2026-04-21T12:30:08Z</time></trkpt><trkpt lat="45.5100933168107" lon="10.743751274081283"><ele>103.4</ele><time>2026-04-21T12:30:10Z</time></trkpt><trkpt lat="45.509984960259835" lon="10.743755447027189"><ele>103.60000000000001</ele><time>2026-04-21T12:30:12Z</time></trkpt><trkpt lat="45.50987335961224" lon="10.743761734008551"><ele>103.80000000000001</ele><time>2026-04-21T12:30:14Z</time></trkpt><trkpt lat="45.509799477532525" lon="10.743750805296187"><ele>104.0</ele><time>2026-04-21T12:30:16Z</time></trkpt><trkpt lat="45.509696599018135" lon="10.743760159007042"><ele>104.0</ele><time>2026-04-21T12:30:18Z</time></trkpt><trkpt lat="45.509595412921584" lon="10.743766255387607"><ele>104.0</ele><time>2026-04-21T12:30:20Z</time></trkpt><trkpt lat="45.50946137639728" lon="10.743794128363254"><ele>104.0</ele><time>2026-04-21T12:30:23Z</time></trkpt><trkpt lat="45.50936935541333" lon="10.743834735964587"><ele>104.0</ele><time>2026-04-21T12:30:25Z</time></trkpt><trkpt lat="45.509150404186556" lon="10.743868250652508"><ele>104.25</ele><time>2026-04-21T12:30:28Z</time></trkpt><trkpt lat="45.509044824140005" lon="10.743929036279166"><ele>104.5</ele><time>2026-04-21T12:30:30Z</time></trkpt><trkpt lat="45.50894874739151" lon="10.744037614143826"><ele>104.75</ele><time>2026-04-21T12:30:32Z</time></trkpt><trkpt lat="45.50885838563975" lon="10.744157663035786"><ele>105.0</ele><time>2026-04-21T12:30:34Z</time></trkpt><trkpt lat="45.50876967614441" lon="10.744276914576792"><ele>104.75</ele><time>2026-04-21T12:30:35.999Z</time></trkpt><trkpt lat="45.50868772017547" lon="10.744401241452298"><ele>104.5</ele><time>2026-04-21T12:30:37.999Z</time></trkpt><trkpt lat="45.508597287198775" lon="10.744517609717919"><ele>104.25</ele><time>2026-04-21T12:30:39.999Z</time></trkpt><trkpt lat="45.508510418217085" lon="10.74463372152798"><ele>104.0</ele><time>2026-04-21T12:30:41.999Z</time></trkpt><trkpt lat="45.50842064462266" lon="10.744735167002768"><ele>104.0</ele><time>2026-04-21T12:30:43.999Z</time></trkpt><trkpt lat="45.5083544768018" lon="10.74482496421371"><ele>104.0</ele><time>2026-04-21T12:30:45.999Z</time></trkpt><trkpt lat="45.50828907601098" lon="10.744955050452377"><ele>104.0</ele><time>2026-04-21T12:30:47.999Z</time></trkpt><trkpt lat="45.50826100555215" lon="10.745116939697255"><ele>104.0</ele><time>2026-04-21T12:30:49.999Z</time></trkpt><trkpt lat="45.5082117511703" lon="10.745249987447338"><ele>104.0</ele><time>2026-04-21T12:30:51.999Z</time></trkpt><trkpt lat="45.50815571062057" lon="10.745373012452326"><ele>103.49999999999999</ele><time>2026-04-21T12:30:53.999Z</time></trkpt><trkpt lat="45.508125746458376" lon="10.745461726006681"><ele>103.0</ele><time>2026-04-21T12:30:55.999Z</time></trkpt><trkpt lat="45.50808213301199" lon="10.745548930091207"><ele>102.5</ele><time>2026-04-21T12:30:57.999Z</time></trkpt><trkpt lat="45.508021539231855" lon="10.745655739558986"><ele>102.0</ele><time>2026-04-21T12:30:59.999Z</time></trkpt><trkpt lat="45.50797250391732" lon="10.745713185197513"><ele>101.49999999999999</ele><time>2026-04-21T12:31:01.999Z</time></trkpt><trkpt lat="45.50789983912032" lon="10.745793353849473"><ele>101.0</ele><time>2026-04-21T12:31:03.999Z</time></trkpt><trkpt lat="45.50781659361178" lon="10.745788130813441"><ele>101.0</ele><time>2026-04-21T12:31:05.999Z</time></trkpt><trkpt lat="45.50771728691954" lon="10.745746319354268"><ele>101.0</ele><time>2026-04-21T12:31:07.999Z</time></trkpt><trkpt lat="45.507467444649805" lon="10.745667366695924"><ele>101.0</ele><time>2026-04-21T12:31:10.999Z</time></trkpt><trkpt lat="45.50741010742401" lon="10.745620665351913"><ele>101.0</ele><time>2026-04-21T12:31:11.999Z</time></trkpt><trkpt lat="45.507351728987295" lon="10.745577270965997"><ele>101.0</ele><time>2026-04-21T12:31:12.999Z</time></trkpt><trkpt lat="45.5072421341444" lon="10.745501359794423"><ele>101.0</ele><time>2026-04-21T12:31:14.999Z</time></trkpt><trkpt lat="45.50714734398379" lon="10.745416292285835"><ele>101.0</ele><time>2026-04-21T12:31:16.999Z</time></trkpt><trkpt lat="45.50706323352207" lon="10.745330884634257"><ele>101.0</ele><time>2026-04-21T12:31:18.999Z</time></trkpt><trkpt lat="45.50698505010452" lon="10.745265332021882"><ele>101.0</ele><time>2026-04-21T12:31:20.999Z</time></trkpt><trkpt lat="45.5069049900805" lon="10.74520197309866"><ele>100.83333333333333</ele><time>2026-04-21T12:31:22.999Z</time></trkpt><trkpt lat="45.506817225175695" lon="10.745157136974518"><ele>100.66666666666666</ele><time>2026-04-21T12:31:24.999Z</time></trkpt><trkpt lat="45.5067296196499" lon="10.7451197568034"><ele>100.5</ele><time>2026-04-21T12:31:26.999Z</time></trkpt><trkpt lat="45.50664629028634" lon="10.745091003739724"><ele>100.33333333333334</ele><time>2026-04-21T12:31:28.999Z</time></trkpt><trkpt lat="45.50657196532984" lon="10.745067449406102"><ele>100.16666666666667</ele><time>2026-04-21T12:31:31.999Z</time></trkpt><trkpt lat="45.50649886926653" lon="10.745086268809443"><ele>100.0</ele><time>2026-04-21T12:31:33.999Z</time></trkpt><trkpt lat="45.50640578395059" lon="10.745101704584332"><ele>100.00000000000001</ele><time>2026-04-21T12:31:36.999Z</time></trkpt><trkpt lat="45.50633253123314" lon="10.74510689425987"><ele>100.0</ele><time>2026-04-21T12:31:38.998Z</time></trkpt><trkpt lat="45.50626133072576" lon="10.745118845727204"><ele>100.0</ele><time>2026-04-21T12:31:40.998Z</time></trkpt><trkpt lat="45.50619380756693" lon="10.745142051320524"><ele>100.0</ele><time>2026-04-21T12:31:42.998Z</time></trkpt><trkpt lat="45.50612305377665" lon="10.74515530278286"><ele>100.0</ele><time>2026-04-21T12:31:44.998Z</time></trkpt><trkpt lat="45.506049904191535" lon="10.745142141177455"><ele>100.00000000000001</ele><time>2026-04-21T12:31:46.998Z</time></trkpt><trkpt lat="45.505975136250804" lon="10.745153761982332"><ele>100.0</ele><time>2026-04-21T12:31:48.998Z</time></trkpt><trkpt lat="45.50584465672611" lon="10.745130436347484"><ele>100.0</ele><time>2026-04-21T12:31:51.998Z</time></trkpt><trkpt lat="45.50577335089849" lon="10.745100523506174"><ele>100.0</ele><time>2026-04-21T12:31:53.998Z</time></trkpt><trkpt lat="45.50568907493342" lon="10.745101523842914"><ele>100.0</ele><time>2026-04-21T12:31:56.998Z</time></trkpt><trkpt lat="45.505528252222" lon="10.745092057716995"><ele>100.0</ele><time>2026-04-21T12:31:58.998Z</time></trkpt><trkpt lat="45.505453246144405" lon="10.745083859826925"><ele>100.0</ele><time>2026-04-21T12:32:01Z</time></trkpt><trkpt lat="45.505386695437515" lon="10.745075728525915"><ele>100.00000000000001</ele><time>2026-04-21T12:32:03Z</time></trkpt><trkpt lat="45.5053150593297" lon="10.745066792888641"><ele>100.0</ele><time>2026-04-21T12:32:05Z</time></trkpt><trkpt lat="45.50523265760875" lon="10.745054923431354"><ele>100.0</ele><time>2026-04-21T12:32:07Z</time></trkpt><trkpt lat="45.50514043210091" lon="10.74502843759006"><ele>100.0</ele><time>2026-04-21T12:32:09Z</time></trkpt><trkpt lat="45.505054885952546" lon="10.744987015865624"><ele>100.00000000000001</ele><time>2026-04-21T12:32:11Z</time></trkpt><trkpt lat="45.50496887696996" lon="10.744922441283295"><ele>100.0</ele><time>2026-04-21T12:32:13Z</time></trkpt><trkpt lat="45.504888293094844" lon="10.74486364225226"><ele>100.0</ele><time>2026-04-21T12:32:15Z</time></trkpt><trkpt lat="45.50480938806621" lon="10.744794605207467"><ele>100.0</ele><time>2026-04-21T12:32:17Z</time></trkpt><trkpt lat="45.50473560407949" lon="10.74473358407767"><ele>100.0</ele><time>2026-04-21T12:32:20Z</time></trkpt><trkpt lat="45.50463225001526" lon="10.744702586800758"><ele>100.0</ele><time>2026-04-21T12:32:22Z</time></trkpt><trkpt lat="45.504520466219155" lon="10.744681842497927"><ele>100.0</ele><time>2026-04-21T12:32:23Z</time></trkpt><trkpt lat="45.50440801882788" lon="10.744667010841212"><ele>99.6</ele><time>2026-04-21T12:32:25Z</time></trkpt><trkpt lat="45.50434399012661" lon="10.744662182581681"><ele>99.2</ele><time>2026-04-21T12:32:26Z</time></trkpt><trkpt lat="45.504280224993934" lon="10.744650168413925"><ele>98.80000000000001</ele><time>2026-04-21T12:32:27Z</time></trkpt><trkpt lat="45.50417745850505" lon="10.744649390683618"><ele>98.4</ele><time>2026-04-21T12:32:29Z</time></trkpt><trkpt lat="45.50406108737494" lon="10.744631215825967"><ele>98.0</ele><time>2026-04-21T12:32:31Z</time></trkpt><trkpt lat="45.503951909804215" lon="10.744621083008076"><ele>98.0</ele><time>2026-04-21T12:32:33Z</time></trkpt><trkpt lat="45.50383717050261" lon="10.744586798461478"><ele>98.0</ele><time>2026-04-21T12:32:35Z</time></trkpt><trkpt lat="45.50372425876391" lon="10.744575163877379"><ele>98.0</ele><time>2026-04-21T12:32:37Z</time></trkpt><trkpt lat="45.5036144200954" lon="10.744582878962923"><ele>98.0</ele><time>2026-04-21T12:32:39Z</time></trkpt><trkpt lat="45.50351017378273" lon="10.744613534949517"><ele>98.0</ele><time>2026-04-21T12:32:40.999Z</time></trkpt><trkpt lat="45.50339665490414" lon="10.744661880379951"><ele>98.4</ele><time>2026-04-21T12:32:42.999Z</time></trkpt><trkpt lat="45.5032974263322" lon="10.744730519576478"><ele>98.80000000000001</ele><time>2026-04-21T12:32:44.999Z</time></trkpt><trkpt lat="45.50319798519414" lon="10.74480187246567"><ele>99.2</ele><time>2026-04-21T12:32:46.999Z</time></trkpt><trkpt lat="45.50309728148128" lon="10.744865332102117"><ele>99.6</ele><time>2026-04-21T12:32:48.999Z</time></trkpt><trkpt lat="45.50299435105133" lon="10.744902267827031"><ele>100.0</ele><time>2026-04-21T12:32:50.999Z</time></trkpt><trkpt lat="45.50289247447984" lon="10.744930362039499"><ele>100.16666666666667</ele><time>2026-04-21T12:32:52.999Z</time></trkpt><trkpt lat="45.50278235255224" lon="10.744926018339356"><ele>100.33333333333334</ele><time>2026-04-21T12:32:54.999Z</time></trkpt><trkpt lat="45.5027037501325" lon="10.744936770599708"><ele>100.5</ele><time>2026-04-21T12:32:56.999Z</time></trkpt><trkpt lat="45.502616829173334" lon="10.7449335900508"><ele>100.66666666666666</ele><time>2026-04-21T12:32:58.999Z</time></trkpt><trkpt lat="45.50253180487989" lon="10.744919961071359"><ele>100.83333333333333</ele><time>2026-04-21T12:33:00.999Z</time></trkpt><trkpt lat="45.50244823970975" lon="10.744913773785555"><ele>101.0</ele><time>2026-04-21T12:33:02.999Z</time></trkpt><trkpt lat="45.50237108040528" lon="10.744906470791735"><ele>101.0</ele><time>2026-04-21T12:33:04.999Z</time></trkpt><trkpt lat="45.50229633358246" lon="10.744905535582118"><ele>101.0</ele><time>2026-04-21T12:33:06.999Z</time></trkpt><trkpt lat="45.502229050255245" lon="10.74491304459096"><ele>101.0</ele><time>2026-04-21T12:33:08.999Z</time></trkpt><trkpt lat="45.502145198750895" lon="10.74491240502309"><ele>101.0</ele><time>2026-04-21T12:33:10.999Z</time></trkpt><trkpt lat="45.5020688226809" lon="10.744882757542923"><ele>101.0</ele><time>2026-04-21T12:33:12.999Z</time></trkpt><trkpt lat="45.50199726287694" lon="10.744865633239561"><ele>101.0</ele><time>2026-04-21T12:33:14.999Z</time></trkpt><trkpt lat="45.50192869953907" lon="10.744849812135742"><ele>101.0</ele><time>2026-04-21T12:33:16.999Z</time></trkpt><trkpt lat="45.5018637914241" lon="10.744850916627861"><ele>101.16666666666666</ele><time>2026-04-21T12:33:18.999Z</time></trkpt><trkpt lat="45.50176693001212" lon="10.744860203797947"><ele>101.33333333333333</ele><time>2026-04-21T12:33:21.999Z</time></trkpt><trkpt lat="45.501674311057144" lon="10.744867909116389"><ele>101.5</ele><time>2026-04-21T12:33:24.999Z</time></trkpt><trkpt lat="45.50157937064996" lon="10.744861219925241"><ele>101.66666666666666</ele><time>2026-04-21T12:33:27.999Z</time></trkpt><trkpt lat="45.501514527208045" lon="10.744875125910545"><ele>101.83333333333333</ele><time>2026-04-21T12:33:29.999Z</time></trkpt><trkpt lat="45.50144804918421" lon="10.744888830395686"><ele>102.0</ele><time>2026-04-21T12:33:31.999Z</time></trkpt><trkpt lat="45.50138304781955" lon="10.744895297127801"><ele>102.0</ele><time>2026-04-21T12:33:33.999Z</time></trkpt><trkpt lat="45.50131927677929" lon="10.744891714909853"><ele>102.0</ele><time>2026-04-21T12:33:35.999Z</time></trkpt><trkpt lat="45.50122956547541" lon="10.744923277642092"><ele>102.0</ele><time>2026-04-21T12:33:38.999Z</time></trkpt><trkpt lat="45.5011640181989" lon="10.744943063224277"><ele>102.0</ele><time>2026-04-21T12:33:40.999Z</time></trkpt><trkpt lat="45.501083829811385" lon="10.74497907527681"><ele>102.0</ele><time>2026-04-21T12:33:43.998Z</time></trkpt><trkpt lat="45.500906847697905" lon="10.74504929064579"><ele>102.0</ele><time>2026-04-21T12:33:46.998Z</time></trkpt><trkpt lat="45.50083030514465" lon="10.745077812306732"><ele>102.0</ele><time>2026-04-21T12:33:48.998Z</time></trkpt><trkpt lat="45.50075592341328" lon="10.745116705627487"><ele>102.0</ele><time>2026-04-21T12:33:50.998Z</time></trkpt><trkpt lat="45.50068073882142" lon="10.745144314076478"><ele>102.0</ele><time>2026-04-21T12:33:52.998Z</time></trkpt><trkpt lat="45.50060391849573" lon="10.745171015719952"><ele>102.0</ele><time>2026-04-21T12:33:54.998Z</time></trkpt><trkpt lat="45.50052705402129" lon="10.745197520292871"><ele>102.0</ele><time>2026-04-21T12:33:56.998Z</time></trkpt><trkpt lat="45.500446684146915" lon="10.745224632541438"><ele>102.33333333333333</ele><time>2026-04-21T12:33:58.998Z</time></trkpt><trkpt lat="45.500369057178574" lon="10.745235875932181"><ele>102.66666666666666</ele><time>2026-04-21T12:34:01.998Z</time></trkpt><trkpt lat="45.50029525708375" lon="10.74527134081395"><ele>103.0</ele><time>2026-04-21T12:34:07Z</time></trkpt><trkpt lat="45.50018750036394" lon="10.745272151051925"><ele>103.33333333333333</ele><time>2026-04-21T12:34:09Z</time></trkpt><trkpt lat="45.50009532813371" lon="10.745305669474453"><ele>103.66666666666666</ele><time>2026-04-21T12:34:12Z</time></trkpt><trkpt lat="45.50001071661159" lon="10.745315502503631"><ele>104.0</ele><time>2026-04-21T12:34:15Z</time></trkpt><trkpt lat="45.49988229370661" lon="10.745336539710099"><ele>104.0</ele><time>2026-04-21T12:34:17Z</time></trkpt><trkpt lat="45.49979690944169" lon="10.745347578729751"><ele>104.0</ele><time>2026-04-21T12:34:19Z</time></trkpt><trkpt lat="45.499720478288275" lon="10.745357763765552"><ele>104.0</ele><time>2026-04-21T12:34:21Z</time></trkpt><trkpt lat="45.49965095349005" lon="10.74533577334213"><ele>104.0</ele><time>2026-04-21T12:34:23Z</time></trkpt><trkpt lat="45.49958558745533" lon="10.745345671599441"><ele>104.0</ele><time>2026-04-21T12:34:25Z</time></trkpt><trkpt lat="45.49952052114265" lon="10.745365021126116"><ele>104.0</ele><time>2026-04-21T12:34:27Z</time></trkpt><trkpt lat="45.49945148579334" lon="10.745369596478698"><ele>104.0</ele><time>2026-04-21T12:34:29Z</time></trkpt><trkpt lat="45.49938558123646" lon="10.745376733041404"><ele>104.0</ele><time>2026-04-21T12:34:31Z</time></trkpt><trkpt lat="45.499306632152155" lon="10.745391837622428"><ele>104.0</ele><time>2026-04-21T12:34:34Z</time></trkpt><trkpt lat="45.4992433795867" lon="10.74539940298192"><ele>104.0</ele><time>2026-04-21T12:34:37Z</time></trkpt><trkpt lat="45.499172685184554" lon="10.745406999830045"><ele>104.0</ele><time>2026-04-21T12:34:40Z</time></trkpt><trkpt lat="45.49910390994663" lon="10.74541729377433"><ele>104.0</ele><time>2026-04-21T12:34:42Z</time></trkpt><trkpt lat="45.499022335620296" lon="10.745425951861181"><ele>104.0</ele><time>2026-04-21T12:34:45Z</time></trkpt><trkpt lat="45.4989445371558" lon="10.74543940669135"><ele>104.0</ele><time>2026-04-21T12:34:47.999Z</time></trkpt><trkpt lat="45.498878493840735" lon="10.745454458487288"><ele>103.99999999999999</ele><time>2026-04-21T12:34:49.999Z</time></trkpt><trkpt lat="45.49879511125767" lon="10.745460490759182"><ele>104.0</ele><time>2026-04-21T12:34:52.999Z</time></trkpt><trkpt lat="45.49871162176676" lon="10.745487475256628"><ele>104.0</ele><time>2026-04-21T12:34:55.999Z</time></trkpt><trkpt lat="45.49862714099914" lon="10.745511821558573"><ele>104.0</ele><time>2026-04-21T12:34:58.999Z</time></trkpt><trkpt lat="45.4985493489081" lon="10.745535837974897"><ele>103.99999999999999</ele><time>2026-04-21T12:35:01.999Z</time></trkpt><trkpt lat="45.49848166352915" lon="10.745553551163113"><ele>104.0</ele><time>2026-04-21T12:35:03.999Z</time></trkpt><trkpt lat="45.49840502708298" lon="10.745571862508271"><ele>104.49999999999999</ele><time>2026-04-21T12:35:06.999Z</time></trkpt><trkpt lat="45.49831758331112" lon="10.745588358029767"><ele>105.0</ele><time>2026-04-21T12:35:09.999Z</time></trkpt><trkpt lat="45.49824062142008" lon="10.74560194621606"><ele>105.5</ele><time>2026-04-21T12:35:12.999Z</time></trkpt><trkpt lat="45.49815548689533" lon="10.745609291298672"><ele>106.0</ele><time>2026-04-21T12:35:15.999Z</time></trkpt><trkpt lat="45.49808536676961" lon="10.745611555170376"><ele>106.49999999999999</ele><time>2026-04-21T12:35:17.999Z</time></trkpt><trkpt lat="45.49800887397147" lon="10.745601921356219"><ele>107.0</ele><time>2026-04-21T12:35:20.999Z</time></trkpt><trkpt lat="45.497943103818294" lon="10.745608185279885"><ele>107.66666666666666</ele><time>2026-04-21T12:35:22.999Z</time></trkpt><trkpt lat="45.49786440826019" lon="10.7456037951794"><ele>108.33333333333333</ele><time>2026-04-21T12:35:25.999Z</time></trkpt><trkpt lat="45.497780084300345" lon="10.745582842486419"><ele>109.0</ele><time>2026-04-21T12:35:28.999Z</time></trkpt><trkpt lat="45.49769480423018" lon="10.745584710250606"><ele>109.66666666666666</ele><time>2026-04-21T12:35:31.999Z</time></trkpt><trkpt lat="45.497625753980216" lon="10.745575327426444"><ele>110.33333333333333</ele><time>2026-04-21T12:35:33.999Z</time></trkpt><trkpt lat="45.49755922787792" lon="10.74555851191549"><ele>111.0</ele><time>2026-04-21T12:35:35.999Z</time></trkpt><trkpt lat="45.49747427250805" lon="10.745535621353758"><ele>111.0</ele><time>2026-04-21T12:35:38.999Z</time></trkpt><trkpt lat="45.49738479119431" lon="10.745511310392642"><ele>111.0</ele><time>2026-04-21T12:35:41.999Z</time></trkpt><trkpt lat="45.49729536173155" lon="10.745492856493524"><ele>111.0</ele><time>2026-04-21T12:35:44.999Z</time></trkpt><trkpt lat="45.49720528206062" lon="10.745476846771147"><ele>111.0</ele><time>2026-04-21T12:35:47.998Z</time></trkpt><trkpt lat="45.4971180489841" lon="10.745461985310675"><ele>111.0</ele><time>2026-04-21T12:35:50.998Z</time></trkpt><trkpt lat="45.49703055541563" lon="10.745448811748613"><ele>111.0</ele><time>2026-04-21T12:35:53.998Z</time></trkpt><trkpt lat="45.49695160163049" lon="10.745429294071672"><ele>110.83333333333333</ele><time>2026-04-21T12:35:56.998Z</time></trkpt><trkpt lat="45.49686451503645" lon="10.745399001574969"><ele>110.66666666666666</ele><time>2026-04-21T12:35:59.998Z</time></trkpt><trkpt lat="45.496801637212585" lon="10.74538709663607"><ele>110.5</ele><time>2026-04-21T12:36:01.998Z</time></trkpt><trkpt lat="45.496711819133495" lon="10.745355639369901"><ele>110.33333333333333</ele><time>2026-04-21T12:36:04.998Z</time></trkpt><trkpt lat="45.49664353231211" lon="10.745339182507829"><ele>110.16666666666666</ele><time>2026-04-21T12:36:06.998Z</time></trkpt><trkpt lat="45.49657509571251" lon="10.745316624963083"><ele>110.0</ele><time>2026-04-21T12:36:08.998Z</time></trkpt><trkpt lat="45.49650840613999" lon="10.745297183466226"><ele>109.99999999999999</ele><time>2026-04-21T12:36:10.998Z</time></trkpt><trkpt lat="45.49640141443398" lon="10.745271481586665"><ele>110.0</ele><time>2026-04-21T12:36:14Z</time></trkpt><trkpt lat="45.496323324045186" lon="10.745243988789197"><ele>110.0</ele><time>2026-04-21T12:36:17Z</time></trkpt><trkpt lat="45.49624411585411" lon="10.745224786000614"><ele>110.0</ele><time>2026-04-21T12:36:20Z</time></trkpt><trkpt lat="45.49616966963905" lon="10.745176277510565"><ele>109.99999999999999</ele><time>2026-04-21T12:36:22Z</time></trkpt><trkpt lat="45.496090799504096" lon="10.745164405148712"><ele>110.0</ele><time>2026-04-21T12:36:24Z</time></trkpt><trkpt lat="45.496002763610974" lon="10.745151193827143"><ele>110.2</ele><time>2026-04-21T12:36:26Z</time></trkpt><trkpt lat="45.49591707254687" lon="10.745134917642025"><ele>110.4</ele><time>2026-04-21T12:36:28Z</time></trkpt><trkpt lat="45.49583529443583" lon="10.745112280241015"><ele>110.6</ele><time>2026-04-21T12:36:30Z</time></trkpt><trkpt lat="45.495745729638124" lon="10.745105215353126"><ele>110.8</ele><time>2026-04-21T12:36:32Z</time></trkpt><trkpt lat="45.49564609209882" lon="10.745083168682857"><ele>111.0</ele><time>2026-04-21T12:36:34Z</time></trkpt><trkpt lat="45.495555277648506" lon="10.745071243940695"><ele>111.0</ele><time>2026-04-21T12:36:36Z</time></trkpt><trkpt lat="45.495468898461624" lon="10.745059293373894"><ele>111.0</ele><time>2026-04-21T12:36:38Z</time></trkpt><trkpt lat="45.49536870662797" lon="10.74504974302424"><ele>111.0</ele><time>2026-04-21T12:36:40Z</time></trkpt><trkpt lat="45.495275696417615" lon="10.745040841217275"><ele>111.0</ele><time>2026-04-21T12:36:42Z</time></trkpt><trkpt lat="45.49520889685455" lon="10.745033587155595"><ele>111.0</ele><time>2026-04-21T12:36:43Z</time></trkpt><trkpt lat="45.4951089616554" lon="10.745021550747742"><ele>111.0</ele><time>2026-04-21T12:36:45Z</time></trkpt><trkpt lat="45.495009558895894" lon="10.745015865827183"><ele>110.8</ele><time>2026-04-21T12:36:47Z</time></trkpt><trkpt lat="45.49491514714143" lon="10.745015395141523"><ele>110.6</ele><time>2026-04-21T12:36:49Z</time></trkpt><trkpt lat="45.49481108272546" lon="10.745026113878653"><ele>110.4</ele><time>2026-04-21T12:36:51Z</time></trkpt><trkpt lat="45.49470040047158" lon="10.745033946198665"><ele>110.2</ele><time>2026-04-21T12:36:52.999Z</time></trkpt><trkpt lat="45.49459313634155" lon="10.745059429811764"><ele>110.0</ele><time>2026-04-21T12:36:54.999Z</time></trkpt><trkpt lat="45.49448393665016" lon="10.745086489762938"><ele>110.0</ele><time>2026-04-21T12:36:56.999Z</time></trkpt><trkpt lat="45.49438064715436" lon="10.745105484224132"><ele>110.0</ele><time>2026-04-21T12:36:58.999Z</time></trkpt><trkpt lat="45.494282283665264" lon="10.745122950979791"><ele>110.0</ele><time>2026-04-21T12:37:00.999Z</time></trkpt><trkpt lat="45.49418477101466" lon="10.745131209076323"><ele>110.0</ele><time>2026-04-21T12:37:02.999Z</time></trkpt><trkpt lat="45.49409069406549" lon="10.745152732128782"><ele>110.0</ele><time>2026-04-21T12:37:04.999Z</time></trkpt><trkpt lat="45.49397773286378" lon="10.745158300402627"><ele>110.0</ele><time>2026-04-21T12:37:05.999Z</time></trkpt><trkpt lat="45.49387970909293" lon="10.745171726160237"><ele>110.0</ele><time>2026-04-21T12:37:07.999Z</time></trkpt><trkpt lat="45.49377506950332" lon="10.745173346854617"><ele>110.0</ele><time>2026-04-21T12:37:09.999Z</time></trkpt><trkpt lat="45.4936683971557" lon="10.745189963731326"><ele>110.0</ele><time>2026-04-21T12:37:11.999Z</time></trkpt><trkpt lat="45.493563341509166" lon="10.74520148728431"><ele>110.0</ele><time>2026-04-21T12:37:13.999Z</time></trkpt><trkpt lat="45.493458585064396" lon="10.745202488588221"><ele>110.2</ele><time>2026-04-21T12:37:15.999Z</time></trkpt><trkpt lat="45.49335636529145" lon="10.74521052878529"><ele>110.4</ele><time>2026-04-21T12:37:17.999Z</time></trkpt><trkpt lat="45.4932512401217" lon="10.745215946446786"><ele>110.6</ele><time>2026-04-21T12:37:19.999Z</time></trkpt><trkpt lat="45.49314636151044" lon="10.74522070449912"><ele>110.8</ele><time>2026-04-21T12:37:21.999Z</time></trkpt><trkpt lat="45.49303984943104" lon="10.745223037826804"><ele>111.0</ele><time>2026-04-21T12:37:23.999Z</time></trkpt><trkpt lat="45.49293446196226" lon="10.745214215855892"><ele>111.19999999999999</ele><time>2026-04-21T12:37:25.999Z</time></trkpt><trkpt lat="45.49284208115093" lon="10.745199008190202"><ele>111.39999999999999</ele><time>2026-04-21T12:37:27.999Z</time></trkpt><trkpt lat="45.49275258455936" lon="10.745183085283209"><ele>111.6</ele><time>2026-04-21T12:37:29.999Z</time></trkpt><trkpt lat="45.49266262001953" lon="10.74515509986399"><ele>111.8</ele><time>2026-04-21T12:37:32.999Z</time></trkpt><trkpt lat="45.4925347963537" lon="10.74511417841465"><ele>112.0</ele><time>2026-04-21T12:37:34.999Z</time></trkpt><trkpt lat="45.49246946192676" lon="10.745088049619104"><ele>112.0</ele><time>2026-04-21T12:37:36.999Z</time></trkpt><trkpt lat="45.49240504948944" lon="10.745063210157506"><ele>112.0</ele><time>2026-04-21T12:37:38.999Z</time></trkpt><trkpt lat="45.4923410440722" lon="10.745033068398094"><ele>112.0</ele><time>2026-04-21T12:37:40.999Z</time></trkpt><trkpt lat="45.492275220255344" lon="10.745005326739294"><ele>112.0</ele><time>2026-04-21T12:37:42.999Z</time></trkpt><trkpt lat="45.492208411933035" lon="10.744972381210196"><ele>112.0</ele><time>2026-04-21T12:37:44.999Z</time></trkpt><trkpt lat="45.49214090564748" lon="10.74494463648357"><ele>112.0</ele><time>2026-04-21T12:37:46.999Z</time></trkpt><trkpt lat="45.4920721862037" lon="10.744915737710079"><ele>112.0</ele><time>2026-04-21T12:37:48.999Z</time></trkpt><trkpt lat="45.49200315294552" lon="10.744890274900222"><ele>112.33333333333334</ele><time>2026-04-21T12:37:50.999Z</time></trkpt><trkpt lat="45.49192591404441" lon="10.744845648556776"><ele>112.66666666666667</ele><time>2026-04-21T12:37:53.998Z</time></trkpt><trkpt lat="45.4918313172943" lon="10.744793178096803"><ele>113.0</ele><time>2026-04-21T12:37:55.998Z</time></trkpt><trkpt lat="45.49176272626844" lon="10.744756666190927"><ele>113.33333333333334</ele><time>2026-04-21T12:37:57.998Z</time></trkpt><trkpt lat="45.491697791354056" lon="10.744708697053742"><ele>113.66666666666667</ele><time>2026-04-21T12:37:59.998Z</time></trkpt><trkpt lat="45.49162964199539" lon="10.744665383230474"><ele>114.0</ele><time>2026-04-21T12:38:01.998Z</time></trkpt><trkpt lat="45.49156227747147" lon="10.744625134968103"><ele>114.0</ele><time>2026-04-21T12:38:03.998Z</time></trkpt><trkpt lat="45.491493769022725" lon="10.744579083453335"><ele>114.0</ele><time>2026-04-21T12:38:05.998Z</time></trkpt><trkpt lat="45.491425936644475" lon="10.744541862676543"><ele>114.0</ele><time>2026-04-21T12:38:07.998Z</time></trkpt><trkpt lat="45.49136103532264" lon="10.744493964152763"><ele>114.0</ele><time>2026-04-21T12:38:09.998Z</time></trkpt><trkpt lat="45.49129239580183" lon="10.744444255778776"><ele>114.0</ele><time>2026-04-21T12:38:11.998Z</time></trkpt><trkpt lat="45.49122203427979" lon="10.74440280524707"><ele>114.0</ele><time>2026-04-21T12:38:13.998Z</time></trkpt><trkpt lat="45.491145308570495" lon="10.744349163611627"><ele>113.83333333333333</ele><time>2026-04-21T12:38:17Z</time></trkpt><trkpt lat="45.49105971265596" lon="10.744302727366222"><ele>113.66666666666666</ele><time>2026-04-21T12:38:20Z</time></trkpt><trkpt lat="45.49100119321834" lon="10.744255360041604"><ele>113.5</ele><time>2026-04-21T12:38:22Z</time></trkpt><trkpt lat="45.490898871755654" lon="10.744207688483929"><ele>113.33333333333333</ele><time>2026-04-21T12:38:23Z</time></trkpt><trkpt lat="45.49082393350245" lon="10.744153498080678"><ele>113.16666666666666</ele><time>2026-04-21T12:38:25Z</time></trkpt><trkpt lat="45.490738395923465" lon="10.744100628942356"><ele>113.0</ele><time>2026-04-21T12:38:27Z</time></trkpt><trkpt lat="45.49065018926243" lon="10.744050981409865"><ele>113.0</ele><time>2026-04-21T12:38:29Z</time></trkpt><trkpt lat="45.49056390167" lon="10.743980114602557"><ele>113.00000000000001</ele><time>2026-04-21T12:38:31Z</time></trkpt><trkpt lat="45.490474222525926" lon="10.743913420285852"><ele>113.00000000000001</ele><time>2026-04-21T12:38:33Z</time></trkpt><trkpt lat="45.490385118918965" lon="10.743830646074736"><ele>113.0</ele><time>2026-04-21T12:38:35Z</time></trkpt><trkpt lat="45.490293692480044" lon="10.743732718237855"><ele>113.0</ele><time>2026-04-21T12:38:37Z</time></trkpt><trkpt lat="45.49020363619987" lon="10.743626772666275"><ele>113.0</ele><time>2026-04-21T12:38:39Z</time></trkpt><trkpt lat="45.49010887944652" lon="10.74352090993355"><ele>113.0</ele><time>2026-04-21T12:38:41Z</time></trkpt><trkpt lat="45.49003568722206" lon="10.743416095242804"><ele>113.0</ele><time>2026-04-21T12:38:43Z</time></trkpt><trkpt lat="45.489947730207746" lon="10.743298816540689"><ele>113.0</ele><time>2026-04-21T12:38:45Z</time></trkpt><trkpt lat="45.489860072101045" lon="10.743182498505446"><ele>113.0</ele><time>2026-04-21T12:38:47Z</time></trkpt><trkpt lat="45.489774681419085" lon="10.743062691572396"><ele>113.0</ele><time>2026-04-21T12:38:49Z</time></trkpt><trkpt lat="45.489693815483314" lon="10.742942628445606"><ele>113.0</ele><time>2026-04-21T12:38:51Z</time></trkpt><trkpt lat="45.489611438084815" lon="10.74282866385896"><ele>113.0</ele><time>2026-04-21T12:38:53Z</time></trkpt><trkpt lat="45.489532128907655" lon="10.742720700463202"><ele>113.0</ele><time>2026-04-21T12:38:55Z</time></trkpt><trkpt lat="45.48945332230883" lon="10.742620617753646"><ele>113.00000000000001</ele><time>2026-04-21T12:38:57Z</time></trkpt><trkpt lat="45.489381384971175" lon="10.742514299349438"><ele>113.00000000000001</ele><time>2026-04-21T12:38:58.999Z</time></trkpt><trkpt lat="45.48932736678026" lon="10.74242095309573"><ele>113.0</ele><time>2026-04-21T12:39:01.999Z</time></trkpt><trkpt lat="45.489237425178494" lon="10.742279496258485"><ele>113.0</ele><time>2026-04-21T12:39:02.999Z</time></trkpt><trkpt lat="45.48921282789559" lon="10.742137546668314"><ele>112.99999999999999</ele><time>2026-04-21T12:39:04.999Z</time></trkpt><trkpt lat="45.48924691449358" lon="10.741993680573861"><ele>113.0</ele><time>2026-04-21T12:39:06.999Z</time></trkpt><trkpt lat="45.48928026527176" lon="10.741859635356867"><ele>113.0</ele><time>2026-04-21T12:39:08.999Z</time></trkpt><trkpt lat="45.489293896090096" lon="10.741766790856204"><ele>113.0</ele><time>2026-04-21T12:39:11.999Z</time></trkpt><trkpt lat="45.4892162060884" lon="10.74169526178619"><ele>112.99999999999999</ele><time>2026-04-21T12:39:16.999Z</time></trkpt><trkpt lat="45.48914119459086" lon="10.74170190536684"><ele>113.0</ele><time>2026-04-21T12:39:18.999Z</time></trkpt><trkpt lat="45.48906709260553" lon="10.74172906565339"><ele>113.0</ele><time>2026-04-21T12:39:20.999Z</time></trkpt><trkpt lat="45.489001765707194" lon="10.74173052488784"><ele>113.0</ele><time>2026-04-21T12:39:22.999Z</time></trkpt><trkpt lat="45.488926351910294" lon="10.741757521052415"><ele>113.0</ele><time>2026-04-21T12:39:24.999Z</time></trkpt><trkpt lat="45.48885119884198" lon="10.741760053428566"><ele>113.0</ele><time>2026-04-21T12:39:26.999Z</time></trkpt><trkpt lat="45.48877731309816" lon="10.741772933419712"><ele>113.0</ele><time>2026-04-21T12:39:28.999Z</time></trkpt><trkpt lat="45.488703896695085" lon="10.741780655355694"><ele>113.0</ele><time>2026-04-21T12:39:31.999Z</time></trkpt><trkpt lat="45.48862645017917" lon="10.741787867949046"><ele>113.0</ele><time>2026-04-21T12:39:34.999Z</time></trkpt><trkpt lat="45.48853808693853" lon="10.741783530370938"><ele>112.99999999999999</ele><time>2026-04-21T12:39:36.999Z</time></trkpt><trkpt lat="45.488443071087346" lon="10.741799543777807"><ele>113.0</ele><time>2026-04-21T12:39:37.999Z</time></trkpt><trkpt lat="45.488362084914236" lon="10.741803842700062"><ele>113.0</ele><time>2026-04-21T12:39:39.999Z</time></trkpt><trkpt lat="45.48828802235171" lon="10.74181751036661"><ele>113.0</ele><time>2026-04-21T12:39:41.999Z</time></trkpt><trkpt lat="45.48821485898457" lon="10.74182893620619"><ele>112.99999999999999</ele><time>2026-04-21T12:39:43.999Z</time></trkpt><trkpt lat="45.48813899036507" lon="10.741817776209485"><ele>113.0</ele><time>2026-04-21T12:39:45.999Z</time></trkpt><trkpt lat="45.48806547264774" lon="10.741831437183341"><ele>112.99999999999999</ele><time>2026-04-21T12:39:47.999Z</time></trkpt><trkpt lat="45.487989142096474" lon="10.741847505209071"><ele>113.0</ele><time>2026-04-21T12:39:49.999Z</time></trkpt><trkpt lat="45.48791082405022" lon="10.741861103632704"><ele>113.0</ele><time>2026-04-21T12:39:51.999Z</time></trkpt><trkpt lat="45.487831085076635" lon="10.741867446937313"><ele>113.0</ele><time>2026-04-21T12:39:53.999Z</time></trkpt><trkpt lat="45.48774158962878" lon="10.741874039040033"><ele>112.99999999999999</ele><time>2026-04-21T12:39:55.999Z</time></trkpt><trkpt lat="45.48766405050814" lon="10.741882038389065"><ele>113.0</ele><time>2026-04-21T12:39:57.998Z</time></trkpt><trkpt lat="45.487594297506355" lon="10.741895305417286"><ele>113.16666666666666</ele><time>2026-04-21T12:40:00.998Z</time></trkpt><trkpt lat="45.48752573259727" lon="10.741898542209874"><ele>113.33333333333333</ele><time>2026-04-21T12:40:02.998Z</time></trkpt><trkpt lat="45.48744221667687" lon="10.741916597210015"><ele>113.5</ele><time>2026-04-21T12:40:04.998Z</time></trkpt><trkpt lat="45.48737098844831" lon="10.741929197335015"><ele>113.66666666666666</ele><time>2026-04-21T12:40:06.998Z</time></trkpt><trkpt lat="45.487267675540764" lon="10.741937131128585"><ele>113.83333333333333</ele><time>2026-04-21T12:40:09.998Z</time></trkpt><trkpt lat="45.48719485707389" lon="10.741930783551672"><ele>114.0</ele><time>2026-04-21T12:40:11.998Z</time></trkpt><trkpt lat="45.487123924357114" lon="10.74192591024548"><ele>114.0</ele><time>2026-04-21T12:40:13.998Z</time></trkpt><trkpt lat="45.486876644900974" lon="10.741975718094649"><ele>114.0</ele><time>2026-04-21T12:40:14.998Z</time></trkpt><trkpt lat="45.486783116577804" lon="10.741987102171455"><ele>114.0</ele><time>2026-04-21T12:40:16.998Z</time></trkpt><trkpt lat="45.48668519146857" lon="10.74200348834674"><ele>114.0</ele><time>2026-04-21T12:40:18.998Z</time></trkpt><trkpt lat="45.48659663669822" lon="10.742014857636855"><ele>114.0</ele><time>2026-04-21T12:40:20.998Z</time></trkpt><trkpt lat="45.48649759872311" lon="10.742031114207053"><ele>114.0</ele><time>2026-04-21T12:40:23Z</time></trkpt><trkpt lat="45.486393337248245" lon="10.742036114424641"><ele>114.0</ele><time>2026-04-21T12:40:25Z</time></trkpt><trkpt lat="45.48628802916542" lon="10.742047515603103"><ele>114.0</ele><time>2026-04-21T12:40:27Z</time></trkpt><trkpt lat="45.48618559188987" lon="10.741991971571194"><ele>114.0</ele><time>2026-04-21T12:40:29Z</time></trkpt><trkpt lat="45.48613608696946" lon="10.741892163741293"><ele>114.42857142857142</ele><time>2026-04-21T12:40:31Z</time></trkpt><trkpt lat="45.48610507165529" lon="10.74181337527239"><ele>114.85714285714285</ele><time>2026-04-21T12:40:34Z</time></trkpt><trkpt lat="45.48608282440834" lon="10.74171597525622"><ele>115.28571428571428</ele><time>2026-04-21T12:40:41Z</time></trkpt><trkpt lat="45.48603205980955" lon="10.741639445827932"><ele>115.71428571428572</ele><time>2026-04-21T12:40:46Z</time></trkpt><trkpt lat="45.48598906240274" lon="10.741547424374208"><ele>116.14285714285715</ele><time>2026-04-21T12:40:51Z</time></trkpt><trkpt lat="45.4859454164968" lon="10.741476428338617"><ele>116.57142857142858</ele><time>2026-04-21T12:40:55Z</time></trkpt><trkpt lat="45.48589633506449" lon="10.741409942391531"><ele>117.0</ele><time>2026-04-21T12:40:59Z</time></trkpt><trkpt lat="45.485834676442984" lon="10.741340258491725"><ele>117.0</ele><time>2026-04-21T12:41:03.999Z</time></trkpt><trkpt lat="45.485783688740675" lon="10.74127880615453"><ele>117.00000000000001</ele><time>2026-04-21T12:41:07.999Z</time></trkpt><trkpt lat="45.485727512198515" lon="10.74121563246186"><ele>117.0</ele><time>2026-04-21T12:41:11.999Z</time></trkpt><trkpt lat="45.48567239101767" lon="10.741169939530817"><ele>117.0</ele><time>2026-04-21T12:41:15.999Z</time></trkpt><trkpt lat="45.485617395283626" lon="10.741111521779056"><ele>117.00000000000001</ele><time>2026-04-21T12:41:19.999Z</time></trkpt><trkpt lat="45.48555823604599" lon="10.741054086083187"><ele>117.0</ele><time>2026-04-21T12:41:23.999Z</time></trkpt><trkpt lat="45.48550124972802" lon="10.741000292091108"><ele>117.0</ele><time>2026-04-21T12:41:27.999Z</time></trkpt><trkpt lat="45.485439470256736" lon="10.740955803377487"><ele>117.14285714285715</ele><time>2026-04-21T12:41:31.999Z</time></trkpt><trkpt lat="45.485379394132764" lon="10.740897459145703"><ele>117.2857142857143</ele><time>2026-04-21T12:41:35.999Z</time></trkpt><trkpt lat="45.48530861883954" lon="10.740833402838968"><ele>117.42857142857143</ele><time>2026-04-21T12:41:39.999Z</time></trkpt><trkpt lat="45.48526078788084" lon="10.740769645784168"><ele>117.57142857142858</ele><time>2026-04-21T12:41:42.999Z</time></trkpt><trkpt lat="45.48521182991661" lon="10.740707709157519"><ele>117.71428571428572</ele><time>2026-04-21T12:41:45.999Z</time></trkpt><trkpt lat="45.485152969152864" lon="10.740652683303342"><ele>117.85714285714286</ele><time>2026-04-21T12:41:48.999Z</time></trkpt><trkpt lat="45.48508911805841" lon="10.740593572568304"><ele>118.0</ele><time>2026-04-21T12:41:51.999Z</time></trkpt><trkpt lat="45.485017825976826" lon="10.740521246130047"><ele>118.0</ele><time>2026-04-21T12:41:54.999Z</time></trkpt><trkpt lat="45.48496379462749" lon="10.740465775272648"><ele>118.0</ele><time>2026-04-21T12:41:56.999Z</time></trkpt><trkpt lat="45.48490995190742" lon="10.740410409849046"><ele>118.0</ele><time>2026-04-21T12:41:58.999Z</time></trkpt><trkpt lat="45.484855668725736" lon="10.740359627417284"><ele>118.0</ele><time>2026-04-21T12:42:00.999Z</time></trkpt><trkpt lat="45.484802115472164" lon="10.740307842027661"><ele>118.0</ele><time>2026-04-21T12:42:02.999Z</time></trkpt><trkpt lat="45.484739506467506" lon="10.740240791697767"><ele>118.0</ele><time>2026-04-21T12:42:04.998Z</time></trkpt><trkpt lat="45.484683974881825" lon="10.740175591735705"><ele>118.0</ele><time>2026-04-21T12:42:06.998Z</time></trkpt><trkpt lat="45.484626598330856" lon="10.740120326887135"><ele>118.16666666666667</ele><time>2026-04-21T12:42:08.998Z</time></trkpt><trkpt lat="45.48457031150714" lon="10.74005681210994"><ele>118.33333333333334</ele><time>2026-04-21T12:42:10.998Z</time></trkpt><trkpt lat="45.48449865243354" lon="10.739977637527083"><ele>118.5</ele><time>2026-04-21T12:42:13.998Z</time></trkpt><trkpt lat="45.484449310990826" lon="10.739897798978289"><ele>118.66666666666666</ele><time>2026-04-21T12:42:16.998Z</time></trkpt><trkpt lat="45.4843663629736" lon="10.739820641304835"><ele>118.83333333333333</ele><time>2026-04-21T12:42:19.998Z</time></trkpt><trkpt lat="45.48430008545122" lon="10.739750132865373"><ele>119.0</ele><time>2026-04-21T12:42:22.998Z</time></trkpt><trkpt lat="45.48425085108211" lon="10.73969141529689"><ele>118.99999999999999</ele><time>2026-04-21T12:42:24.998Z</time></trkpt><trkpt lat="45.484192377144566" lon="10.739641763106832"><ele>119.0</ele><time>2026-04-21T12:42:26.998Z</time></trkpt><trkpt lat="45.48412283350485" lon="10.739567876029184"><ele>119.0</ele><time>2026-04-21T12:42:30Z</time></trkpt><trkpt lat="45.48406431100468" lon="10.73951967274316"><ele>119.0</ele><time>2026-04-21T12:42:32Z</time></trkpt><trkpt lat="45.48400979716748" lon="10.73945193257944"><ele>118.99999999999999</ele><time>2026-04-21T12:42:34Z</time></trkpt><trkpt lat="45.483942282718466" lon="10.739388204077397"><ele>119.0</ele><time>2026-04-21T12:42:37Z</time></trkpt><trkpt lat="45.48386711473515" lon="10.739308313269573"><ele>119.2</ele><time>2026-04-21T12:42:40Z</time></trkpt><trkpt lat="45.48379610950109" lon="10.739218959832424"><ele>119.4</ele><time>2026-04-21T12:42:43Z</time></trkpt><trkpt lat="45.48372987188356" lon="10.73915106081307"><ele>119.6</ele><time>2026-04-21T12:42:45Z</time></trkpt><trkpt lat="45.48365847178797" lon="10.739059560147885"><ele>119.8</ele><time>2026-04-21T12:42:47Z</time></trkpt><trkpt lat="45.48357672764705" lon="10.738950977502911"><ele>120.0</ele><time>2026-04-21T12:42:49Z</time></trkpt><trkpt lat="45.48346542545917" lon="10.738862444497032"><ele>120.0</ele><time>2026-04-21T12:42:50Z</time></trkpt><trkpt lat="45.48337997110878" lon="10.738750819049278"><ele>120.0</ele><time>2026-04-21T12:42:52Z</time></trkpt><trkpt lat="45.48329604573995" lon="10.738643096516682"><ele>120.0</ele><time>2026-04-21T12:42:54Z</time></trkpt><trkpt lat="45.483216856442034" lon="10.738527193736141"><ele>120.0</ele><time>2026-04-21T12:42:56Z</time></trkpt><trkpt lat="45.483136720121145" lon="10.738413100399695"><ele>120.0</ele><time>2026-04-21T12:42:58Z</time></trkpt><trkpt lat="45.48306189516378" lon="10.738295204895998"><ele>120.0</ele><time>2026-04-21T12:43:00Z</time></trkpt><trkpt lat="45.4829901813611" lon="10.738167690604412"><ele>120.0</ele><time>2026-04-21T12:43:02Z</time></trkpt><trkpt lat="45.48291480150075" lon="10.738042729737641"><ele>120.0</ele><time>2026-04-21T12:43:04Z</time></trkpt><trkpt lat="45.48284213676589" lon="10.737916476984042"><ele>120.0</ele><time>2026-04-21T12:43:06Z</time></trkpt><trkpt lat="45.482797030214364" lon="10.737751762467722"><ele>120.0</ele><time>2026-04-21T12:43:08Z</time></trkpt><trkpt lat="45.48272801586435" lon="10.737634648301725"><ele>120.0</ele><time>2026-04-21T12:43:09.999Z</time></trkpt><trkpt lat="45.48264918632538" lon="10.737523736106423"><ele>120.0</ele><time>2026-04-21T12:43:11.999Z</time></trkpt><trkpt lat="45.48256852136178" lon="10.737409113430123"><ele>120.4</ele><time>2026-04-21T12:43:13.999Z</time></trkpt><trkpt lat="45.482485042754654" lon="10.73730498600672"><ele>120.8</ele><time>2026-04-21T12:43:15.999Z</time></trkpt><trkpt lat="45.482396194089006" lon="10.737202108139199"><ele>121.19999999999999</ele><time>2026-04-21T12:43:17.999Z</time></trkpt><trkpt lat="45.48234130773163" lon="10.737157690779224"><ele>121.6</ele><time>2026-04-21T12:43:18.999Z</time></trkpt><trkpt lat="45.48225668580477" lon="10.737035674676116"><ele>122.0</ele><time>2026-04-21T12:43:20.999Z</time></trkpt><trkpt lat="45.48217389730402" lon="10.736903797078467"><ele>121.33333333333333</ele><time>2026-04-21T12:43:22.999Z</time></trkpt><trkpt lat="45.48209301499155" lon="10.736771442436472"><ele>120.66666666666666</ele><time>2026-04-21T12:43:24.999Z</time></trkpt><trkpt lat="45.48200648816118" lon="10.736642754735945"><ele>120.0</ele><time>2026-04-21T12:43:26.999Z</time></trkpt><trkpt lat="45.48195845772855" lon="10.73658062697513"><ele>119.33333333333334</ele><time>2026-04-21T12:43:27.999Z</time></trkpt><trkpt lat="45.48190994345009" lon="10.736522226813818"><ele>118.66666666666667</ele><time>2026-04-21T12:43:28.999Z</time></trkpt><trkpt lat="45.48186043638593" lon="10.736465236946104"><ele>118.0</ele><time>2026-04-21T12:43:29.999Z</time></trkpt><trkpt lat="45.48181128329369" lon="10.73640872019584"><ele>118.0</ele><time>2026-04-21T12:43:30.999Z</time></trkpt><trkpt lat="45.48176155768241" lon="10.736348458355037"><ele>118.0</ele><time>2026-04-21T12:43:31.999Z</time></trkpt><trkpt lat="45.48171321584928" lon="10.73628699725665"><ele>118.0</ele><time>2026-04-21T12:43:32.999Z</time></trkpt><trkpt lat="45.481658668358506" lon="10.736226508887679"><ele>118.0</ele><time>2026-04-21T12:43:33.999Z</time></trkpt><trkpt lat="45.481604939627566" lon="10.736172572580001"><ele>118.0</ele><time>2026-04-21T12:43:34.999Z</time></trkpt><trkpt lat="45.48154948805828" lon="10.736117572634887"><ele>118.0</ele><time>2026-04-21T12:43:35.999Z</time></trkpt><trkpt lat="45.48149649882259" lon="10.736060483032867"><ele>118.0</ele><time>2026-04-21T12:43:36.999Z</time></trkpt><trkpt lat="45.48144435049325" lon="10.7360022274774"><ele>118.0</ele><time>2026-04-21T12:43:37.999Z</time></trkpt><trkpt lat="45.48138843434124" lon="10.73595008905547"><ele>118.0</ele><time>2026-04-21T12:43:38.999Z</time></trkpt><trkpt lat="45.48133651533728" lon="10.735897511946407"><ele>118.0</ele><time>2026-04-21T12:43:39.999Z</time></trkpt><trkpt lat="45.481282287575134" lon="10.735847746285598"><ele>118.0</ele><time>2026-04-21T12:43:40.999Z</time></trkpt><trkpt lat="45.4812298851033" lon="10.735794437093224"><ele>118.0</ele><time>2026-04-21T12:43:41.999Z</time></trkpt><trkpt lat="45.48117714715444" lon="10.735741672416639"><ele>118.0</ele><time>2026-04-21T12:43:42.999Z</time></trkpt><trkpt lat="45.481072153479126" lon="10.735650164571357"><ele>118.0</ele><time>2026-04-21T12:43:44.999Z</time></trkpt><trkpt lat="45.481020826298405" lon="10.735596182186185"><ele>118.16666666666667</ele><time>2026-04-21T12:43:45.999Z</time></trkpt><trkpt lat="45.48096707949071" lon="10.735547076752724"><ele>118.33333333333334</ele><time>2026-04-21T12:43:46.999Z</time></trkpt><trkpt lat="45.48091417013663" lon="10.735491690935268"><ele>118.5</ele><time>2026-04-21T12:43:47.999Z</time></trkpt><trkpt lat="45.480862191994255" lon="10.735434641216242"><ele>118.66666666666666</ele><time>2026-04-21T12:43:48.999Z</time></trkpt><trkpt lat="45.4808075428776" lon="10.735387822507752"><ele>118.83333333333333</ele><time>2026-04-21T12:43:49.999Z</time></trkpt><trkpt lat="45.48070697199654" lon="10.735297736677213"><ele>119.0</ele><time>2026-04-21T12:43:51.999Z</time></trkpt><trkpt lat="45.480613795268596" lon="10.735195308168716"><ele>119.0</ele><time>2026-04-21T12:43:53.999Z</time></trkpt><trkpt lat="45.48052334605047" lon="10.73510528258919"><ele>119.0</ele><time>2026-04-21T12:43:55.999Z</time></trkpt><trkpt lat="45.480448049855084" lon="10.735023956944485"><ele>119.0</ele><time>2026-04-21T12:43:57.999Z</time></trkpt><trkpt lat="45.480392540522075" lon="10.734971893996248"><ele>119.0</ele><time>2026-04-21T12:43:59.999Z</time></trkpt><trkpt lat="45.48031011465931" lon="10.73488787568568"><ele>119.0</ele><time>2026-04-21T12:44:03.999Z</time></trkpt><trkpt lat="45.48019430243005" lon="10.734764486191162"><ele>118.99999999999999</ele><time>2026-04-21T12:44:05.999Z</time></trkpt><trkpt lat="45.48011818420253" lon="10.734699460550189"><ele>119.0</ele><time>2026-04-21T12:44:07.999Z</time></trkpt><trkpt lat="45.48006236304675" lon="10.73462278924377"><ele>119.0</ele><time>2026-04-21T12:44:09.998Z</time></trkpt><trkpt lat="45.47999393971814" lon="10.734565030343878"><ele>119.0</ele><time>2026-04-21T12:44:11.998Z</time></trkpt><trkpt lat="45.479918540580364" lon="10.734492914978812"><ele>118.99999999999999</ele><time>2026-04-21T12:44:13.998Z</time></trkpt><trkpt lat="45.47983598198374" lon="10.734411159759794"><ele>119.0</ele><time>2026-04-21T12:44:15.998Z</time></trkpt><trkpt lat="45.47974970227878" lon="10.734332899418018"><ele>119.0</ele><time>2026-04-21T12:44:17.998Z</time></trkpt><trkpt lat="45.47965631931771" lon="10.734247127329926"><ele>119.0</ele><time>2026-04-21T12:44:19.998Z</time></trkpt><trkpt lat="45.47957332088255" lon="10.734157590137778"><ele>119.0</ele><time>2026-04-21T12:44:21.998Z</time></trkpt><trkpt lat="45.47948479536418" lon="10.734074386388604"><ele>119.0</ele><time>2026-04-21T12:44:23.998Z</time></trkpt><trkpt lat="45.47940586136129" lon="10.733985631583074"><ele>119.0</ele><time>2026-04-21T12:44:25.998Z</time></trkpt><trkpt lat="45.47930918187835" lon="10.733903435673346"><ele>118.6</ele><time>2026-04-21T12:44:27.998Z</time></trkpt><trkpt lat="45.479219460099024" lon="10.73381214691694"><ele>118.2</ele><time>2026-04-21T12:44:29.998Z</time></trkpt><trkpt lat="45.479129260056204" lon="10.733723397800606"><ele>117.79999999999998</ele><time>2026-04-21T12:44:31.998Z</time></trkpt><trkpt lat="45.479036638168076" lon="10.733634569932203"><ele>117.39999999999999</ele><time>2026-04-21T12:44:34Z</time></trkpt><trkpt lat="45.47897273785656" lon="10.733509170621076"><ele>117.0</ele><time>2026-04-21T12:44:36Z</time></trkpt><trkpt lat="45.47897034720643" lon="10.73335236672602"><ele>117.0</ele><time>2026-04-21T12:44:38Z</time></trkpt><trkpt lat="45.47893926186095" lon="10.733246961706339"><ele>116.99999999999999</ele><time>2026-04-21T12:44:40Z</time></trkpt><trkpt lat="45.47883554420917" lon="10.733256213962536"><ele>116.99999999999999</ele><time>2026-04-21T12:44:42Z</time></trkpt><trkpt lat="45.47875726783485" lon="10.733258295328476"><ele>117.0</ele><time>2026-04-21T12:44:45Z</time></trkpt><trkpt lat="45.47863959462965" lon="10.733163954621757"><ele>117.0</ele><time>2026-04-21T12:44:47Z</time></trkpt><trkpt lat="45.47854107356819" lon="10.73307752534265"><ele>116.19999999999999</ele><time>2026-04-21T12:44:49Z</time></trkpt><trkpt lat="45.47844607442643" lon="10.732991082147205"><ele>115.39999999999999</ele><time>2026-04-21T12:44:51Z</time></trkpt><trkpt lat="45.47835333019188" lon="10.732900185371356"><ele>114.60000000000001</ele><time>2026-04-21T12:44:53Z</time></trkpt><trkpt lat="45.478262401446756" lon="10.732810232898322"><ele>113.80000000000001</ele><time>2026-04-21T12:44:55Z</time></trkpt><trkpt lat="45.47818118781924" lon="10.732717674561762"><ele>113.0</ele><time>2026-04-21T12:44:57Z</time></trkpt><trkpt lat="45.47809182155576" lon="10.732638412854126"><ele>113.0</ele><time>2026-04-21T12:44:59Z</time></trkpt><trkpt lat="45.4780042131123" lon="10.732552964728248"><ele>113.00000000000001</ele><time>2026-04-21T12:45:01Z</time></trkpt><trkpt lat="45.477914295583915" lon="10.732468434315555"><ele>113.00000000000001</ele><time>2026-04-21T12:45:03Z</time></trkpt><trkpt lat="45.47782823245085" lon="10.732375325691542"><ele>113.0</ele><time>2026-04-21T12:45:05Z</time></trkpt><trkpt lat="45.47776629891034" lon="10.732275925679698"><ele>113.0</ele><time>2026-04-21T12:45:07Z</time></trkpt><trkpt lat="45.47767223022506" lon="10.73224267695181"><ele>113.2</ele><time>2026-04-21T12:45:09Z</time></trkpt><trkpt lat="45.47759566130913" lon="10.73216217932383"><ele>113.4</ele><time>2026-04-21T12:45:10.999Z</time></trkpt><trkpt lat="45.47750088609219" lon="10.732079109825026"><ele>113.60000000000001</ele><time>2026-04-21T12:45:13.999Z</time></trkpt><trkpt lat="45.47743519080501" lon="10.73201567035508"><ele>113.80000000000001</ele><time>2026-04-21T12:45:14.999Z</time></trkpt><trkpt lat="45.477362780604636" lon="10.73193652931852"><ele>114.0</ele><time>2026-04-21T12:45:16.999Z</time></trkpt><trkpt lat="45.47721222391349" lon="10.731802392694451"><ele>114.0</ele><time>2026-04-21T12:45:19.999Z</time></trkpt><trkpt lat="45.477124410655975" lon="10.731713101534648"><ele>114.0</ele><time>2026-04-21T12:45:21.999Z</time></trkpt><trkpt lat="45.47702940962667" lon="10.731635443379224"><ele>114.0</ele><time>2026-04-21T12:45:23.999Z</time></trkpt><trkpt lat="45.47693295983815" lon="10.73156040372185"><ele>114.0</ele><time>2026-04-21T12:45:25.999Z</time></trkpt><trkpt lat="45.476834879348324" lon="10.73149572033051"><ele>114.0</ele><time>2026-04-21T12:45:27.999Z</time></trkpt><trkpt lat="45.476740228374624" lon="10.731437743215638"><ele>114.5</ele><time>2026-04-21T12:45:29.999Z</time></trkpt><trkpt lat="45.47665218541071" lon="10.731382287417315"><ele>115.0</ele><time>2026-04-21T12:45:31.999Z</time></trkpt><trkpt lat="45.47657302466427" lon="10.731328253224298"><ele>115.5</ele><time>2026-04-21T12:45:33.999Z</time></trkpt><trkpt lat="45.47649428271364" lon="10.731277429948682"><ele>116.0</ele><time>2026-04-21T12:45:35.999Z</time></trkpt><trkpt lat="45.47641838298337" lon="10.731235429040536"><ele>116.5</ele><time>2026-04-21T12:45:37.999Z</time></trkpt><trkpt lat="45.47635577816458" lon="10.731187141498268"><ele>117.0</ele><time>2026-04-21T12:45:39.999Z</time></trkpt><trkpt lat="45.476281785793624" lon="10.731128608074036"><ele>117.0</ele><time>2026-04-21T12:45:41.999Z</time></trkpt><trkpt lat="45.476210906710634" lon="10.73108623980008"><ele>116.99999999999999</ele><time>2026-04-21T12:45:44.999Z</time></trkpt><trkpt lat="45.47610946968863" lon="10.731028430848294"><ele>116.99999999999999</ele><time>2026-04-21T12:45:45.999Z</time></trkpt><trkpt lat="45.47602016866667" lon="10.730979423414801"><ele>117.0</ele><time>2026-04-21T12:45:47.999Z</time></trkpt><trkpt lat="45.475932389699196" lon="10.73092296551878"><ele>117.0</ele><time>2026-04-21T12:45:49.999Z</time></trkpt><trkpt lat="45.47584712407702" lon="10.730863104822491"><ele>117.0</ele><time>2026-04-21T12:45:51.999Z</time></trkpt><trkpt lat="45.47576187371974" lon="10.730806927677207"><ele>116.99999999999999</ele><time>2026-04-21T12:45:53.999Z</time></trkpt><trkpt lat="45.47567904588342" lon="10.730733946507835"><ele>116.99999999999999</ele><time>2026-04-21T12:45:55.999Z</time></trkpt><trkpt lat="45.475593615325636" lon="10.730673457888374"><ele>117.0</ele><time>2026-04-21T12:45:57.999Z</time></trkpt><trkpt lat="45.47550921057904" lon="10.730621104937454"><ele>117.0</ele><time>2026-04-21T12:45:59.999Z</time></trkpt><trkpt lat="45.47542699927548" lon="10.7305573037192"><ele>117.0</ele><time>2026-04-21T12:46:01.999Z</time></trkpt><trkpt lat="45.47534103872387" lon="10.730499943087063"><ele>116.99999999999999</ele><time>2026-04-21T12:46:03.999Z</time></trkpt><trkpt lat="45.47526525836805" lon="10.730438970124702"><ele>116.99999999999999</ele><time>2026-04-21T12:46:05.999Z</time></trkpt><trkpt lat="45.475185292569165" lon="10.730366885277961"><ele>117.0</ele><time>2026-04-21T12:46:07.999Z</time></trkpt><trkpt lat="45.47511093337699" lon="10.730310807451449"><ele>117.0</ele><time>2026-04-21T12:46:10.998Z</time></trkpt><trkpt lat="45.475020823005416" lon="10.730249429218494"><ele>116.83333333333333</ele><time>2026-04-21T12:46:11.998Z</time></trkpt><trkpt lat="45.47494800102752" lon="10.730191367708724"><ele>116.66666666666666</ele><time>2026-04-21T12:46:13.998Z</time></trkpt><trkpt lat="45.47487451874513" lon="10.730129717984326"><ele>116.5</ele><time>2026-04-21T12:46:15.998Z</time></trkpt><trkpt lat="45.47480148296387" lon="10.730071742686679"><ele>116.33333333333333</ele><time>2026-04-21T12:46:17.998Z</time></trkpt><trkpt lat="45.474729545744076" lon="10.730005484515202"><ele>116.16666666666666</ele><time>2026-04-21T12:46:19.998Z</time></trkpt><trkpt lat="45.47465727459921" lon="10.729943254784608"><ele>116.0</ele><time>2026-04-21T12:46:21.998Z</time></trkpt><trkpt lat="45.47459203058315" lon="10.729856851135608"><ele>115.66666666666666</ele><time>2026-04-21T12:46:23.998Z</time></trkpt><trkpt lat="45.47451573233528" lon="10.729780767529665"><ele>115.33333333333333</ele><time>2026-04-21T12:46:25.998Z</time></trkpt><trkpt lat="45.47444313024369" lon="10.729711354322458"><ele>115.0</ele><time>2026-04-21T12:46:27.998Z</time></trkpt><trkpt lat="45.474376894062985" lon="10.729630562192755"><ele>114.66666666666666</ele><time>2026-04-21T12:46:29.998Z</time></trkpt><trkpt lat="45.47433900061197" lon="10.729553647194384"><ele>114.33333333333333</ele><time>2026-04-21T12:46:31.998Z</time></trkpt><trkpt lat="45.474252442009856" lon="10.729453522858078"><ele>114.0</ele><time>2026-04-21T12:46:33.998Z</time></trkpt><trkpt lat="45.4741854378291" lon="10.729367249926865"><ele>115.0</ele><time>2026-04-21T12:46:35.998Z</time></trkpt><trkpt lat="45.47413025758529" lon="10.72927123977964"><ele>116.0</ele><time>2026-04-21T12:46:37.998Z</time></trkpt><trkpt lat="45.47406270607447" lon="10.729187110180254"><ele>117.0</ele><time>2026-04-21T12:46:40Z</time></trkpt><trkpt lat="45.473990478916555" lon="10.729093861036882"><ele>118.0</ele><time>2026-04-21T12:46:42Z</time></trkpt><trkpt lat="45.47392670255881" lon="10.728995262304933"><ele>119.0</ele><time>2026-04-21T12:46:44Z</time></trkpt><trkpt lat="45.47387312290236" lon="10.728879691055802"><ele>119.0</ele><time>2026-04-21T12:46:46Z</time></trkpt><trkpt lat="45.473817472648655" lon="10.728760885099708"><ele>119.0</ele><time>2026-04-21T12:46:48Z</time></trkpt><trkpt lat="45.473766267271735" lon="10.728629047245322"><ele>119.0</ele><time>2026-04-21T12:46:50Z</time></trkpt><trkpt lat="45.47370883728275" lon="10.72849381830758"><ele>119.0</ele><time>2026-04-21T12:46:52Z</time></trkpt><trkpt lat="45.47367578013239" lon="10.728359722485186"><ele>119.0</ele><time>2026-04-21T12:46:54Z</time></trkpt><trkpt lat="45.473642453883464" lon="10.728273757456089"><ele>117.83333333333333</ele><time>2026-04-21T12:46:55Z</time></trkpt><trkpt lat="45.47360954600728" lon="10.728193531354046"><ele>116.66666666666666</ele><time>2026-04-21T12:46:56Z</time></trkpt><trkpt lat="45.473576392155444" lon="10.728108922773743"><ele>115.5</ele><time>2026-04-21T12:46:57Z</time></trkpt><trkpt lat="45.47354170014708" lon="10.72803250474694"><ele>114.33333333333334</ele><time>2026-04-21T12:46:58Z</time></trkpt><trkpt lat="45.473462982115265" lon="10.727890348833"><ele>113.16666666666667</ele><time>2026-04-21T12:47:00Z</time></trkpt><trkpt lat="45.47341763554138" lon="10.727821261489794"><ele>112.0</ele><time>2026-04-21T12:47:01Z</time></trkpt><trkpt lat="45.47337343383647" lon="10.727747757685846"><ele>112.28571428571428</ele><time>2026-04-21T12:47:02Z</time></trkpt><trkpt lat="45.47333097958026" lon="10.727677866391144"><ele>112.57142857142857</ele><time>2026-04-21T12:47:03Z</time></trkpt><trkpt lat="45.473285476397464" lon="10.727611337559562"><ele>112.85714285714286</ele><time>2026-04-21T12:47:04Z</time></trkpt><trkpt lat="45.4732300581774" lon="10.727544739934777"><ele>113.14285714285714</ele><time>2026-04-21T12:47:05Z</time></trkpt><trkpt lat="45.47317811063047" lon="10.72748894559163"><ele>113.42857142857142</ele><time>2026-04-21T12:47:06Z</time></trkpt><trkpt lat="45.47312973168078" lon="10.727427766840927"><ele>113.71428571428571</ele><time>2026-04-21T12:47:07Z</time></trkpt><trkpt lat="45.473083398368516" lon="10.72736336550815"><ele>114.0</ele><time>2026-04-21T12:47:08Z</time></trkpt><trkpt lat="45.473027141815635" lon="10.72730318361715"><ele>113.33333333333333</ele><time>2026-04-21T12:47:09Z</time></trkpt><trkpt lat="45.47292129341607" lon="10.727212193242153"><ele>112.66666666666666</ele><time>2026-04-21T12:47:11Z</time></trkpt><trkpt lat="45.47286014790316" lon="10.727183121386725"><ele>112.0</ele><time>2026-04-21T12:47:12Z</time></trkpt><trkpt lat="45.47279314672938" lon="10.727170863574669"><ele>111.33333333333333</ele><time>2026-04-21T12:47:13Z</time></trkpt><trkpt lat="45.47273091402661" lon="10.727156387195807"><ele>110.66666666666666</ele><time>2026-04-21T12:47:14Z</time></trkpt><trkpt lat="45.472666253586645" lon="10.727142981542945"><ele>110.0</ele><time>2026-04-21T12:47:15Z</time></trkpt><trkpt lat="45.47259910348208" lon="10.727124616215393"><ele>109.99999999999999</ele><time>2026-04-21T12:47:16Z</time></trkpt><trkpt lat="45.472535472875364" lon="10.727109184469331"><ele>110.0</ele><time>2026-04-21T12:47:16.999Z</time></trkpt><trkpt lat="45.472412382148974" lon="10.727064316655616"><ele>110.0</ele><time>2026-04-21T12:47:18.999Z</time></trkpt><trkpt lat="45.47234898335895" lon="10.727051528933167"><ele>110.0</ele><time>2026-04-21T12:47:19.999Z</time></trkpt><trkpt lat="45.47228654647097" lon="10.727037871075288"><ele>109.99999999999999</ele><time>2026-04-21T12:47:20.999Z</time></trkpt><trkpt lat="45.472219270495344" lon="10.727032530794661"><ele>110.0</ele><time>2026-04-21T12:47:21.999Z</time></trkpt><trkpt lat="45.472153460449064" lon="10.727021787191187"><ele>109.71428571428571</ele><time>2026-04-21T12:47:22.999Z</time></trkpt><trkpt lat="45.47209069555853" lon="10.727008234276552"><ele>109.42857142857143</ele><time>2026-04-21T12:47:23.999Z</time></trkpt><trkpt lat="45.47202052515327" lon="10.727003076631293"><ele>109.14285714285714</ele><time>2026-04-21T12:47:24.999Z</time></trkpt><trkpt lat="45.47195515788492" lon="10.726999940858926"><ele>108.85714285714286</ele><time>2026-04-21T12:47:25.999Z</time></trkpt><trkpt lat="45.47188865440917" lon="10.726992856826925"><ele>108.57142857142857</ele><time>2026-04-21T12:47:26.999Z</time></trkpt><trkpt lat="45.47182060409685" lon="10.72698196628462"><ele>108.28571428571428</ele><time>2026-04-21T12:47:27.999Z</time></trkpt><trkpt lat="45.47175512411162" lon="10.726979426532452"><ele>108.0</ele><time>2026-04-21T12:47:28.999Z</time></trkpt><trkpt lat="45.471689822360666" lon="10.726969868259646"><ele>108.0</ele><time>2026-04-21T12:47:29.999Z</time></trkpt><trkpt lat="45.47162389799486" lon="10.726962410162054"><ele>108.0</ele><time>2026-04-21T12:47:30.999Z</time></trkpt><trkpt lat="45.471553602252605" lon="10.726959304808448"><ele>108.0</ele><time>2026-04-21T12:47:31.999Z</time></trkpt><trkpt lat="45.47148966866206" lon="10.726952984515098"><ele>108.0</ele><time>2026-04-21T12:47:32.999Z</time></trkpt><trkpt lat="45.47142494229059" lon="10.726946485002868"><ele>108.0</ele><time>2026-04-21T12:47:33.999Z</time></trkpt><trkpt lat="45.47136086631618" lon="10.726937044846318"><ele>108.0</ele><time>2026-04-21T12:47:34.999Z</time></trkpt><trkpt lat="45.47129708486453" lon="10.726934738251305"><ele>108.0</ele><time>2026-04-21T12:47:35.999Z</time></trkpt><trkpt lat="45.47123181390105" lon="10.726924857297774"><ele>108.25</ele><time>2026-04-21T12:47:36.999Z</time></trkpt><trkpt lat="45.471108141489516" lon="10.726905445045814"><ele>108.5</ele><time>2026-04-21T12:47:38.999Z</time></trkpt><trkpt lat="45.47098790986648" lon="10.7268960552535"><ele>108.75</ele><time>2026-04-21T12:47:40.999Z</time></trkpt><trkpt lat="45.47086906585667" lon="10.726888000252563"><ele>109.0</ele><time>2026-04-21T12:47:42.999Z</time></trkpt><trkpt lat="45.470751280766535" lon="10.726878217560625"><ele>109.0</ele><time>2026-04-21T12:47:44.999Z</time></trkpt><trkpt lat="45.470634947375224" lon="10.726858783681921"><ele>109.0</ele><time>2026-04-21T12:47:46.999Z</time></trkpt><trkpt lat="45.47051571118951" lon="10.726843173231218"><ele>109.0</ele><time>2026-04-21T12:47:48.999Z</time></trkpt><trkpt lat="45.47039412188145" lon="10.72683005388724"><ele>109.0</ele><time>2026-04-21T12:47:50.999Z</time></trkpt><trkpt lat="45.47026873085734" lon="10.726818213693814"><ele>109.0</ele><time>2026-04-21T12:47:52.999Z</time></trkpt><trkpt lat="45.47014794242351" lon="10.726809526158124"><ele>109.0</ele><time>2026-04-21T12:47:54.999Z</time></trkpt><trkpt lat="45.47002723467059" lon="10.726799628869388"><ele>109.0</ele><time>2026-04-21T12:47:56.999Z</time></trkpt><trkpt lat="45.46996358137224" lon="10.726797573591925"><ele>109.0</ele><time>2026-04-21T12:47:57.999Z</time></trkpt><trkpt lat="45.469838923308636" lon="10.726798887269467"><ele>109.0</ele><time>2026-04-21T12:47:59.999Z</time></trkpt><trkpt lat="45.46971288055965" lon="10.726797607210138"><ele>109.0</ele><time>2026-04-21T12:48:01.999Z</time></trkpt><trkpt lat="45.46958814331956" lon="10.726796228074406"><ele>109.0</ele><time>2026-04-21T12:48:03.999Z</time></trkpt><trkpt lat="45.46952492751701" lon="10.726787438602415"><ele>109.0</ele><time>2026-04-21T12:48:04.999Z</time></trkpt><trkpt lat="45.46946052133608" lon="10.726786008643554"><ele>109.0</ele><time>2026-04-21T12:48:05.999Z</time></trkpt><trkpt lat="45.46933496884474" lon="10.726769564142254"><ele>109.0</ele><time>2026-04-21T12:48:07.999Z</time></trkpt><trkpt lat="45.46920992626963" lon="10.726741565461955"><ele>109.00000000000001</ele><time>2026-04-21T12:48:09.999Z</time></trkpt><trkpt lat="45.46914698678245" lon="10.726731650930414"><ele>109.0</ele><time>2026-04-21T12:48:10.999Z</time></trkpt><trkpt lat="45.46908430639238" lon="10.726718327799176"><ele>109.0</ele><time>2026-04-21T12:48:11.999Z</time></trkpt><trkpt lat="45.4690214842503" lon="10.726698450653599"><ele>109.0</ele><time>2026-04-21T12:48:12.999Z</time></trkpt><trkpt lat="45.468903837745785" lon="10.726657704589375"><ele>109.00000000000001</ele><time>2026-04-21T12:48:14.999Z</time></trkpt><trkpt lat="45.46879061744023" lon="10.726623377475832"><ele>109.0</ele><time>2026-04-21T12:48:16.998Z</time></trkpt><trkpt lat="45.468694389571326" lon="10.726580542394492"><ele>108.83333333333334</ele><time>2026-04-21T12:48:18.998Z</time></trkpt><trkpt lat="45.46861483620563" lon="10.726547427974198"><ele>108.66666666666667</ele><time>2026-04-21T12:48:20.998Z</time></trkpt><trkpt lat="45.468555563938075" lon="10.726514475530822"><ele>108.5</ele><time>2026-04-21T12:48:25.998Z</time></trkpt><trkpt lat="45.46850482415385" lon="10.72646017456739"><ele>108.33333333333334</ele><time>2026-04-21T12:49:14Z</time></trkpt><trkpt lat="45.46841539663089" lon="10.726418976085354"><ele>108.16666666666667</ele><time>2026-04-21T12:49:40.999Z</time></trkpt><trkpt lat="45.46834384794871" lon="10.726398764517949"><ele>108.0</ele><time>2026-04-21T12:49:42.999Z</time></trkpt><trkpt lat="45.468264982533874" lon="10.726400436457505"><ele>108.0</ele><time>2026-04-21T12:49:44.999Z</time></trkpt><trkpt lat="45.46819110796492" lon="10.72632380513779"><ele>108.00000000000001</ele><time>2026-04-21T12:49:46.999Z</time></trkpt><trkpt lat="45.46810054744566" lon="10.72625240863282"><ele>108.00000000000001</ele><time>2026-04-21T12:49:48.999Z</time></trkpt><trkpt lat="45.46799827949143" lon="10.726188939687765"><ele>108.0</ele><time>2026-04-21T12:49:50.999Z</time></trkpt><trkpt lat="45.46789829624791" lon="10.726114745539657"><ele>108.0</ele><time>2026-04-21T12:49:52.999Z</time></trkpt><trkpt lat="45.46779792095084" lon="10.726052308625675"><ele>107.80000000000001</ele><time>2026-04-21T12:49:54.999Z</time></trkpt><trkpt lat="45.467691493930566" lon="10.725982717737613"><ele>107.60000000000001</ele><time>2026-04-21T12:49:56.999Z</time></trkpt><trkpt lat="45.46758825623385" lon="10.725921805641482"><ele>107.39999999999999</ele><time>2026-04-21T12:49:58.999Z</time></trkpt><trkpt lat="45.46748266677387" lon="10.72587555884801"><ele>107.19999999999999</ele><time>2026-04-21T12:50:00.999Z</time></trkpt><trkpt lat="45.467382923731634" lon="10.725835278321295"><ele>107.0</ele><time>2026-04-21T12:50:02.999Z</time></trkpt><trkpt lat="45.46728027808262" lon="10.725808117266576"><ele>106.99999999999999</ele><time>2026-04-21T12:50:04.999Z</time></trkpt><trkpt lat="45.46718924953177" lon="10.725780018852689"><ele>107.0</ele><time>2026-04-21T12:50:06.999Z</time></trkpt><trkpt lat="45.467111653061785" lon="10.72575525229102"><ele>107.0</ele><time>2026-04-21T12:50:09.999Z</time></trkpt><trkpt lat="45.46703669177619" lon="10.72574186945031"><ele>107.0</ele><time>2026-04-21T12:50:11.999Z</time></trkpt><trkpt lat="45.46695186760264" lon="10.725725385490533"><ele>106.99999999999999</ele><time>2026-04-21T12:50:14.999Z</time></trkpt><trkpt lat="45.46687378356023" lon="10.725720242714743"><ele>107.0</ele><time>2026-04-21T12:50:18.998Z</time></trkpt><trkpt lat="45.466809416085006" lon="10.725715351305565"><ele>106.99999999999999</ele><time>2026-04-21T12:50:22.998Z</time></trkpt><trkpt lat="45.46686386938997" lon="10.725769381605968"><ele>107.0</ele><time>2026-04-21T12:50:35.998Z</time></trkpt><trkpt lat="45.46693232207213" lon="10.725784152953429"><ele>107.0</ele><time>2026-04-21T12:50:37.998Z</time></trkpt><trkpt lat="45.467014496194444" lon="10.725788712485384"><ele>107.0</ele><time>2026-04-21T12:50:39.998Z</time></trkpt><trkpt lat="45.4670931922895" lon="10.725800478768445"><ele>106.99999999999999</ele><time>2026-04-21T12:50:41.998Z</time></trkpt><trkpt lat="45.46718423573992" lon="10.72581576645638"><ele>107.0</ele><time>2026-04-21T12:50:43.998Z</time></trkpt><trkpt lat="45.467271878127576" lon="10.725824726779951"><ele>106.99999999999999</ele><time>2026-04-21T12:50:45.998Z</time></trkpt><trkpt lat="45.46734553463155" lon="10.72586485957905"><ele>107.0</ele><time>2026-04-21T12:50:47.998Z</time></trkpt><trkpt lat="45.467407181301134" lon="10.725888758302379"><ele>107.0</ele><time>2026-04-21T12:50:48.998Z</time></trkpt><trkpt lat="45.4674721539906" lon="10.725914714178883"><ele>107.0</ele><time>2026-04-21T12:50:51Z</time></trkpt><trkpt lat="45.46757654870477" lon="10.725984885967847"><ele>106.99999999999999</ele><time>2026-04-21T12:50:53Z</time></trkpt><trkpt lat="45.467659452018744" lon="10.72603016767638"><ele>107.0</ele><time>2026-04-21T12:50:55Z</time></trkpt><trkpt lat="45.46774194392528" lon="10.726082868315853"><ele>106.83333333333333</ele><time>2026-04-21T12:50:57Z</time></trkpt><trkpt lat="45.467819445442224" lon="10.726138579018551"><ele>106.66666666666666</ele><time>2026-04-21T12:50:59Z</time></trkpt><trkpt lat="45.467897663692625" lon="10.726176924926733"><ele>106.5</ele><time>2026-04-21T12:51:01Z</time></trkpt><trkpt lat="45.46796502269418" lon="10.726233780848359"><ele>106.33333333333334</ele><time>2026-04-21T12:51:03Z</time></trkpt><trkpt lat="45.46802298918371" lon="10.726306052088653"><ele>106.16666666666667</ele><time>2026-04-21T12:51:05Z</time></trkpt><trkpt lat="45.468086198676644" lon="10.726338723747167"><ele>106.0</ele><time>2026-04-21T12:51:07Z</time></trkpt><trkpt lat="45.46815086793162" lon="10.726379559327796"><ele>106.33333333333334</ele><time>2026-04-21T12:51:10Z</time></trkpt><trkpt lat="45.468215380377266" lon="10.726415521574626"><ele>106.66666666666667</ele><time>2026-04-21T12:52:35.998Z</time></trkpt><trkpt lat="45.46827803235785" lon="10.72646617781627"><ele>107.0</ele><time>2026-04-21T12:53:03Z</time></trkpt><trkpt lat="45.46835444617214" lon="10.726454383781237"><ele>107.33333333333334</ele><time>2026-04-21T12:53:07Z</time></trkpt><trkpt lat="45.46839416403601" lon="10.726332759124356"><ele>107.66666666666667</ele><time>2026-04-21T12:53:09Z</time></trkpt><trkpt lat="45.46842060944508" lon="10.726203273011782"><ele>108.0</ele><time>2026-04-21T12:53:11Z</time></trkpt><trkpt lat="45.46846551498719" lon="10.726071888440279"><ele>108.0</ele><time>2026-04-21T12:53:13Z</time></trkpt><trkpt lat="45.46850020862127" lon="10.725917832493844"><ele>108.0</ele><time>2026-04-21T12:53:15Z</time></trkpt><trkpt lat="45.46855387732869" lon="10.725757987283153"><ele>108.0</ele><time>2026-04-21T12:53:17Z</time></trkpt><trkpt lat="45.46857634022968" lon="10.725672329901423"><ele>108.0</ele><time>2026-04-21T12:53:18Z</time></trkpt><trkpt lat="45.468598920892575" lon="10.725588524060868"><ele>108.0</ele><time>2026-04-21T12:53:19Z</time></trkpt><trkpt lat="45.46862844681341" lon="10.725503185155013"><ele>108.0</ele><time>2026-04-21T12:53:20Z</time></trkpt><trkpt lat="45.4686529364986" lon="10.725413551343406"><ele>108.0</ele><time>2026-04-21T12:53:21Z</time></trkpt><trkpt lat="45.46867858367951" lon="10.725325637429377"><ele>108.0</ele><time>2026-04-21T12:53:22Z</time></trkpt><trkpt lat="45.46870505244509" lon="10.725235916804344"><ele>108.0</ele><time>2026-04-21T12:53:23Z</time></trkpt><trkpt lat="45.4687334279676" lon="10.7251448224767"><ele>108.0</ele><time>2026-04-21T12:53:24Z</time></trkpt><trkpt lat="45.46876556972339" lon="10.725054036846144"><ele>108.0</ele><time>2026-04-21T12:53:25Z</time></trkpt><trkpt lat="45.46879601578729" lon="10.724962240383933"><ele>108.0</ele><time>2026-04-21T12:53:26Z</time></trkpt><trkpt lat="45.46882174942507" lon="10.724869597776014"><ele>108.0</ele><time>2026-04-21T12:53:27Z</time></trkpt><trkpt lat="45.46884649317044" lon="10.72477639568845"><ele>107.42857142857143</ele><time>2026-04-21T12:53:27.999Z</time></trkpt><trkpt lat="45.468874894252714" lon="10.724680152258935"><ele>106.85714285714286</ele><time>2026-04-21T12:53:28.999Z</time></trkpt><trkpt lat="45.468901906178495" lon="10.724586021369934"><ele>106.28571428571428</ele><time>2026-04-21T12:53:29.999Z</time></trkpt><trkpt lat="45.46892601023277" lon="10.724492530052391"><ele>105.71428571428572</ele><time>2026-04-21T12:53:30.999Z</time></trkpt><trkpt lat="45.468951782999135" lon="10.724395310502722"><ele>105.14285714285715</ele><time>2026-04-21T12:53:31.999Z</time></trkpt><trkpt lat="45.46897878717147" lon="10.72429844049182"><ele>104.57142857142857</ele><time>2026-04-21T12:53:32.999Z</time></trkpt><trkpt lat="45.469007183967236" lon="10.724207833591729"><ele>104.0</ele><time>2026-04-21T12:53:33.999Z</time></trkpt><trkpt lat="45.469043092025565" lon="10.724117545744438"><ele>104.0</ele><time>2026-04-21T12:53:34.999Z</time></trkpt><trkpt lat="45.469083254140095" lon="10.724034342724478"><ele>104.0</ele><time>2026-04-21T12:53:35.999Z</time></trkpt><trkpt lat="45.46912215297336" lon="10.72395044882551"><ele>104.0</ele><time>2026-04-21T12:53:36.999Z</time></trkpt><trkpt lat="45.4691624197704" lon="10.723863910170309"><ele>104.0</ele><time>2026-04-21T12:53:37.999Z</time></trkpt><trkpt lat="45.46920770256415" lon="10.723782377103289"><ele>104.0</ele><time>2026-04-21T12:53:38.999Z</time></trkpt><trkpt lat="45.469255255907136" lon="10.723710536650865"><ele>104.0</ele><time>2026-04-21T12:53:39.999Z</time></trkpt><trkpt lat="45.46930745130643" lon="10.72363992394982"><ele>104.0</ele><time>2026-04-21T12:53:40.999Z</time></trkpt><trkpt lat="45.46936381670186" lon="10.723572728610252"><ele>104.0</ele><time>2026-04-21T12:53:41.999Z</time></trkpt><trkpt lat="45.46941135104779" lon="10.723506305733244"><ele>104.0</ele><time>2026-04-21T12:53:42.999Z</time></trkpt><trkpt lat="45.46946250239315" lon="10.723437209909735"><ele>104.0</ele><time>2026-04-21T12:53:43.999Z</time></trkpt><trkpt lat="45.469516690703" lon="10.72336542338445"><ele>104.0</ele><time>2026-04-21T12:53:44.999Z</time></trkpt><trkpt lat="45.46956926107951" lon="10.723306682715172"><ele>104.0</ele><time>2026-04-21T12:53:45.999Z</time></trkpt><trkpt lat="45.46962217255577" lon="10.723245288490645"><ele>104.0</ele><time>2026-04-21T12:53:46.999Z</time></trkpt><trkpt lat="45.46967370968431" lon="10.723178149124148"><ele>104.0</ele><time>2026-04-21T12:53:47.999Z</time></trkpt><trkpt lat="45.46976932073101" lon="10.723056510731814"><ele>104.0</ele><time>2026-04-21T12:53:49.999Z</time></trkpt><trkpt lat="45.469828984686245" lon="10.72300564540428"><ele>104.0</ele><time>2026-04-21T12:53:50.999Z</time></trkpt><trkpt lat="45.46988829143653" lon="10.722936787470084"><ele>104.0</ele><time>2026-04-21T12:53:51.999Z</time></trkpt><trkpt lat="45.469933886500186" lon="10.722865799542236"><ele>104.0</ele><time>2026-04-21T12:53:52.999Z</time></trkpt><trkpt lat="45.469978338003735" lon="10.722795663919896"><ele>104.0</ele><time>2026-04-21T12:53:53.999Z</time></trkpt><trkpt lat="45.47002745779499" lon="10.72273084875446"><ele>104.0</ele><time>2026-04-21T12:53:54.999Z</time></trkpt><trkpt lat="45.47008035946714" lon="10.722672911426612"><ele>104.0</ele><time>2026-04-21T12:53:55.999Z</time></trkpt><trkpt lat="45.47013132762407" lon="10.722618835572346"><ele>103.6</ele><time>2026-04-21T12:53:56.999Z</time></trkpt><trkpt lat="45.47020909617567" lon="10.722539652406205"><ele>103.2</ele><time>2026-04-21T12:53:58.999Z</time></trkpt><trkpt lat="45.47028856764071" lon="10.722505055566794"><ele>102.8</ele><time>2026-04-21T12:54:05.999Z</time></trkpt><trkpt lat="45.47035146318453" lon="10.722355223955773"><ele>102.39999999999999</ele><time>2026-04-21T12:54:08.999Z</time></trkpt><trkpt lat="45.47041294069724" lon="10.722278612815572"><ele>102.0</ele><time>2026-04-21T12:54:09.999Z</time></trkpt><trkpt lat="45.47036252437102" lon="10.722120340290488"><ele>102.0</ele><time>2026-04-21T12:54:11.999Z</time></trkpt><trkpt lat="45.47028272330156" lon="10.721980585157475"><ele>102.0</ele><time>2026-04-21T12:54:13.999Z</time></trkpt><trkpt lat="45.47023206102914" lon="10.721891923422325"><ele>102.0</ele><time>2026-04-21T12:54:14.999Z</time></trkpt><trkpt lat="45.47018324642852" lon="10.72181206413053"><ele>102.0</ele><time>2026-04-21T12:54:15.999Z</time></trkpt><trkpt lat="45.47012964695121" lon="10.721730142357476"><ele>102.0</ele><time>2026-04-21T12:54:16.999Z</time></trkpt><trkpt lat="45.470087415608226" lon="10.721658061795607"><ele>102.0</ele><time>2026-04-21T12:54:17.999Z</time></trkpt><trkpt lat="45.47000578707308" lon="10.72152357408142"><ele>102.0</ele><time>2026-04-21T12:54:19.999Z</time></trkpt><trkpt lat="45.469960615741826" lon="10.721460725399345"><ele>102.0</ele><time>2026-04-21T12:54:20.999Z</time></trkpt><trkpt lat="45.46991849068501" lon="10.72139361242117"><ele>102.0</ele><time>2026-04-21T12:54:21.999Z</time></trkpt><trkpt lat="45.469863316765135" lon="10.721340374758835"><ele>102.0</ele><time>2026-04-21T12:54:22.999Z</time></trkpt><trkpt lat="45.46981172215955" lon="10.721286199365995"><ele>102.0</ele><time>2026-04-21T12:54:23.999Z</time></trkpt><trkpt lat="45.46975669153543" lon="10.721241296684964"><ele>102.0</ele><time>2026-04-21T12:54:24.999Z</time></trkpt><trkpt lat="45.46969992561164" lon="10.721196374240073"><ele>102.0</ele><time>2026-04-21T12:54:25.999Z</time></trkpt><trkpt lat="45.469586948603265" lon="10.721139122437116"><ele>102.0</ele><time>2026-04-21T12:54:27.999Z</time></trkpt><trkpt lat="45.469499341392094" lon="10.721066660782126"><ele>102.0</ele><time>2026-04-21T12:54:29.998Z</time></trkpt><trkpt lat="45.469379683533795" lon="10.721014558469147"><ele>102.0</ele><time>2026-04-21T12:54:31.998Z</time></trkpt><trkpt lat="45.469317886141155" lon="10.720988788822256"><ele>102.0</ele><time>2026-04-21T12:54:32.998Z</time></trkpt><trkpt lat="45.46925419980682" lon="10.720978560635954"><ele>102.0</ele><time>2026-04-21T12:54:33.998Z</time></trkpt><trkpt lat="45.46913122015216" lon="10.720960727575754"><ele>102.0</ele><time>2026-04-21T12:54:35.998Z</time></trkpt><trkpt lat="45.46900926482657" lon="10.7209454580381"><ele>102.0</ele><time>2026-04-21T12:54:37.998Z</time></trkpt><trkpt lat="45.46890071237764" lon="10.720926243516352"><ele>102.0</ele><time>2026-04-21T12:54:39.998Z</time></trkpt><trkpt lat="45.46878308803414" lon="10.72091242516388"><ele>102.0</ele><time>2026-04-21T12:54:41.998Z</time></trkpt><trkpt lat="45.46867611091185" lon="10.720879251800941"><ele>102.0</ele><time>2026-04-21T12:54:43.998Z</time></trkpt><trkpt lat="45.468559470132035" lon="10.720857259220542"><ele>102.0</ele><time>2026-04-21T12:54:45.998Z</time></trkpt><trkpt lat="45.46844991483642" lon="10.72083687004697"><ele>102.0</ele><time>2026-04-21T12:54:47.998Z</time></trkpt><trkpt lat="45.46833951892652" lon="10.72082407533571"><ele>102.0</ele><time>2026-04-21T12:54:49.998Z</time></trkpt><trkpt lat="45.468237137245495" lon="10.720812160326536"><ele>102.0</ele><time>2026-04-21T12:54:51.998Z</time></trkpt><trkpt lat="45.468146152328025" lon="10.720768780102206"><ele>102.0</ele><time>2026-04-21T12:54:53.998Z</time></trkpt><trkpt lat="45.46799174788094" lon="10.720653891149004"><ele>102.0</ele><time>2026-04-21T12:54:56.998Z</time></trkpt><trkpt lat="45.46788434905833" lon="10.720639611744154"><ele>102.0</ele><time>2026-04-21T12:54:58.998Z</time></trkpt><trkpt lat="45.46777935085126" lon="10.720682132518723"><ele>102.0</ele><time>2026-04-21T12:55:00.998Z</time></trkpt><trkpt lat="45.46767603419959" lon="10.720692422876711"><ele>102.19999999999999</ele><time>2026-04-21T12:55:03Z</time></trkpt><trkpt lat="45.46758229330466" lon="10.720679544451656"><ele>102.4</ele><time>2026-04-21T12:55:05Z</time></trkpt><trkpt lat="45.46748371415412" lon="10.72066438292588"><ele>102.6</ele><time>2026-04-21T12:55:07Z</time></trkpt><trkpt lat="45.46739162096866" lon="10.720643612856215"><ele>102.80000000000001</ele><time>2026-04-21T12:55:09Z</time></trkpt><trkpt lat="45.46731068989602" lon="10.720639204219141"><ele>103.0</ele><time>2026-04-21T12:55:11Z</time></trkpt><trkpt lat="45.46722645384078" lon="10.720631608803364"><ele>103.00000000000001</ele><time>2026-04-21T12:55:13Z</time></trkpt><trkpt lat="45.467226479706056" lon="10.720520591864654"><ele>103.0</ele><time>2026-04-21T12:55:18Z</time></trkpt><trkpt lat="45.467224316647346" lon="10.720421820632847"><ele>103.0</ele><time>2026-04-21T12:55:20Z</time></trkpt><trkpt lat="45.46717395982002" lon="10.720348646150539"><ele>103.0</ele><time>2026-04-21T12:55:21Z</time></trkpt><trkpt lat="45.4672020230102" lon="10.720186391026918"><ele>103.00000000000001</ele><time>2026-04-21T12:55:23Z</time></trkpt><trkpt lat="45.46720449334783" lon="10.720068308484619"><ele>103.0</ele><time>2026-04-21T12:55:24Z</time></trkpt><trkpt lat="45.46720298577876" lon="10.71993799415316"><ele>102.66666666666667</ele><time>2026-04-21T12:55:25Z</time></trkpt><trkpt lat="45.46719100182883" lon="10.719810987037715"><ele>102.33333333333334</ele><time>2026-04-21T12:55:26Z</time></trkpt><trkpt lat="45.46717388494853" lon="10.71969177904797"><ele>102.0</ele><time>2026-04-21T12:55:27Z</time></trkpt><trkpt lat="45.467170994228205" lon="10.719570689643014"><ele>101.66666666666666</ele><time>2026-04-21T12:55:28Z</time></trkpt><trkpt lat="45.46717829827858" lon="10.719458930473893"><ele>101.33333333333333</ele><time>2026-04-21T12:55:29Z</time></trkpt><trkpt lat="45.46718931825469" lon="10.719348207730315"><ele>101.0</ele><time>2026-04-21T12:55:30Z</time></trkpt><trkpt lat="45.46721258883696" lon="10.719242169465224"><ele>100.42857142857143</ele><time>2026-04-21T12:55:31Z</time></trkpt><trkpt lat="45.46724035155131" lon="10.719143800525385"><ele>99.85714285714286</ele><time>2026-04-21T12:55:31.999Z</time></trkpt><trkpt lat="45.467264472862546" lon="10.719043947632052"><ele>99.28571428571428</ele><time>2026-04-21T12:55:32.999Z</time></trkpt><trkpt lat="45.467298005546475" lon="10.718949521987666"><ele>98.71428571428572</ele><time>2026-04-21T12:55:33.999Z</time></trkpt><trkpt lat="45.4673252627354" lon="10.718853979145564"><ele>98.14285714285715</ele><time>2026-04-21T12:55:34.999Z</time></trkpt><trkpt lat="45.46735518319534" lon="10.718766677543325"><ele>97.57142857142857</ele><time>2026-04-21T12:55:35.999Z</time></trkpt><trkpt lat="45.46737835749371" lon="10.718670274445769"><ele>97.0</ele><time>2026-04-21T12:55:36.999Z</time></trkpt><trkpt lat="45.467399688396945" lon="10.718570567978178"><ele>96.83333333333334</ele><time>2026-04-21T12:55:37.999Z</time></trkpt><trkpt lat="45.46741734720072" lon="10.718468259150132"><ele>96.66666666666667</ele><time>2026-04-21T12:55:38.999Z</time></trkpt><trkpt lat="45.46744102288003" lon="10.718366621170619"><ele>96.5</ele><time>2026-04-21T12:55:39.999Z</time></trkpt><trkpt lat="45.467474629818284" lon="10.718251292250274"><ele>96.33333333333334</ele><time>2026-04-21T12:55:40.999Z</time></trkpt><trkpt lat="45.46750108447737" lon="10.71814811058534"><ele>96.16666666666667</ele><time>2026-04-21T12:55:41.999Z</time></trkpt><trkpt lat="45.467524235082664" lon="10.718036655232856"><ele>96.0</ele><time>2026-04-21T12:55:42.999Z</time></trkpt><trkpt lat="45.46754724968222" lon="10.717920323402298"><ele>96.0</ele><time>2026-04-21T12:55:43.999Z</time></trkpt><trkpt lat="45.467569985196924" lon="10.717804102221786"><ele>96.0</ele><time>2026-04-21T12:55:44.999Z</time></trkpt><trkpt lat="45.46759620209258" lon="10.717691998162646"><ele>96.0</ele><time>2026-04-21T12:55:45.999Z</time></trkpt><trkpt lat="45.46761654748095" lon="10.717570510389184"><ele>96.0</ele><time>2026-04-21T12:55:46.999Z</time></trkpt><trkpt lat="45.467637396173025" lon="10.717452227067593"><ele>96.0</ele><time>2026-04-21T12:55:47.999Z</time></trkpt><trkpt lat="45.467648266744696" lon="10.717326137119052"><ele>96.0</ele><time>2026-04-21T12:55:48.999Z</time></trkpt><trkpt lat="45.46766490564057" lon="10.717200254675333"><ele>95.19999999999999</ele><time>2026-04-21T12:55:49.999Z</time></trkpt><trkpt lat="45.46768357308959" lon="10.717079291069613"><ele>94.39999999999999</ele><time>2026-04-21T12:55:50.999Z</time></trkpt><trkpt lat="45.46770253062322" lon="10.716950625559083"><ele>93.6</ele><time>2026-04-21T12:55:51.999Z</time></trkpt><trkpt lat="45.467720984845464" lon="10.716825757016803"><ele>92.8</ele><time>2026-04-21T12:55:52.999Z</time></trkpt><trkpt lat="45.46773320654953" lon="10.716698123005338"><ele>92.0</ele><time>2026-04-21T12:55:53.999Z</time></trkpt><trkpt lat="45.46774510331435" lon="10.716569399978411"><ele>91.19999999999999</ele><time>2026-04-21T12:55:54.999Z</time></trkpt><trkpt lat="45.46776685026383" lon="10.716440494603372"><ele>90.4</ele><time>2026-04-21T12:55:55.999Z</time></trkpt><trkpt lat="45.46778714475788" lon="10.716309137437854"><ele>89.6</ele><time>2026-04-21T12:55:56.999Z</time></trkpt><trkpt lat="45.46780075959894" lon="10.716176129965975"><ele>88.80000000000001</ele><time>2026-04-21T12:55:57.999Z</time></trkpt><trkpt lat="45.46782176672513" lon="10.716042826173014"><ele>88.0</ele><time>2026-04-21T12:55:58.999Z</time></trkpt><trkpt lat="45.46784594958583" lon="10.715910643975734"><ele>87.60000000000001</ele><time>2026-04-21T12:55:59.999Z</time></trkpt><trkpt lat="45.46788253755701" lon="10.715784773176605"><ele>87.2</ele><time>2026-04-21T12:56:00.999Z</time></trkpt><trkpt lat="45.46793104847369" lon="10.715661082363416"><ele>86.8</ele><time>2026-04-21T12:56:01.999Z</time></trkpt><trkpt lat="45.467974763871624" lon="10.715536539783661"><ele>86.4</ele><time>2026-04-21T12:56:02.999Z</time></trkpt><trkpt lat="45.46802184340422" lon="10.715410511084265"><ele>86.0</ele><time>2026-04-21T12:56:03.999Z</time></trkpt><trkpt lat="45.46806988321233" lon="10.715284780680644"><ele>84.0</ele><time>2026-04-21T12:56:04.999Z</time></trkpt><trkpt lat="45.46811735707866" lon="10.715159653730682"><ele>82.0</ele><time>2026-04-21T12:56:05.999Z</time></trkpt><trkpt lat="45.46816064072156" lon="10.715033422383215"><ele>80.0</ele><time>2026-04-21T12:56:06.999Z</time></trkpt><trkpt lat="45.46819702491145" lon="10.714907450894762"><ele>78.0</ele><time>2026-04-21T12:56:07.999Z</time></trkpt><trkpt lat="45.46821867343653" lon="10.714771577253202"><ele>76.0</ele><time>2026-04-21T12:56:08.999Z</time></trkpt><trkpt lat="45.46821712997715" lon="10.714631870163428"><ele>76.0</ele><time>2026-04-21T12:56:09.999Z</time></trkpt><trkpt lat="45.46818895597258" lon="10.714491677217504"><ele>76.0</ele><time>2026-04-21T12:56:10.999Z</time></trkpt><trkpt lat="45.46816518319298" lon="10.714351721014369"><ele>76.0</ele><time>2026-04-21T12:56:11.999Z</time></trkpt><trkpt lat="45.46814401460307" lon="10.71420980185159"><ele>76.0</ele><time>2026-04-21T12:56:12.999Z</time></trkpt><trkpt lat="45.468118572043664" lon="10.714066939748935"><ele>76.0</ele><time>2026-04-21T12:56:13.999Z</time></trkpt><trkpt lat="45.468095434672755" lon="10.713924151403042"><ele>75.16666666666666</ele><time>2026-04-21T12:56:14.999Z</time></trkpt><trkpt lat="45.4680793568845" lon="10.713794314686531"><ele>74.33333333333333</ele><time>2026-04-21T12:56:15.999Z</time></trkpt><trkpt lat="45.46808464774002" lon="10.713679083421365"><ele>73.5</ele><time>2026-04-21T12:56:16.999Z</time></trkpt><trkpt lat="45.46807551428126" lon="10.713561109564868"><ele>72.66666666666667</ele><time>2026-04-21T12:56:17.999Z</time></trkpt><trkpt lat="45.46805547264565" lon="10.713469222365717"><ele>71.83333333333334</ele><time>2026-04-21T12:56:18.999Z</time></trkpt><trkpt lat="45.46805414003085" lon="10.713362531391045"><ele>71.0</ele><time>2026-04-21T12:56:20.999Z</time></trkpt><trkpt lat="45.46812052662093" lon="10.713289789180866"><ele>71.0</ele><time>2026-04-21T12:56:25.999Z</time></trkpt><trkpt lat="45.468200460404525" lon="10.713352985812705"><ele>71.0</ele><time>2026-04-21T12:56:27.999Z</time></trkpt><trkpt lat="45.468286871528335" lon="10.713439526825823"><ele>71.0</ele><time>2026-04-21T12:56:29.999Z</time></trkpt><trkpt lat="45.46837112026567" lon="10.71351840019563"><ele>71.0</ele><time>2026-04-21T12:56:31.999Z</time></trkpt><trkpt lat="45.46845745852177" lon="10.71361379724446"><ele>71.0</ele><time>2026-04-21T12:56:33.998Z</time></trkpt><trkpt lat="45.468554829213744" lon="10.713694533421426"><ele>71.0</ele><time>2026-04-21T12:56:35.998Z</time></trkpt><trkpt lat="45.46865314168365" lon="10.713782859456739"><ele>71.0</ele><time>2026-04-21T12:56:37.998Z</time></trkpt><trkpt lat="45.46875693315959" lon="10.713871860978701"><ele>71.0</ele><time>2026-04-21T12:56:39.998Z</time></trkpt><trkpt lat="45.46886410869318" lon="10.713963056170684"><ele>71.0</ele><time>2026-04-21T12:56:41.998Z</time></trkpt><trkpt lat="45.46892006327702" lon="10.714012281218533"><ele>71.0</ele><time>2026-04-21T12:56:42.998Z</time></trkpt><trkpt lat="45.46902638346683" lon="10.714102722028088"><ele>70.39999999999999</ele><time>2026-04-21T12:56:44.998Z</time></trkpt><trkpt lat="45.469083574745504" lon="10.714151165915569"><ele>69.8</ele><time>2026-04-21T12:56:45.998Z</time></trkpt><trkpt lat="45.46913821952087" lon="10.714198035491583"><ele>69.19999999999999</ele><time>2026-04-21T12:56:46.998Z</time></trkpt><trkpt lat="45.469242471875255" lon="10.714284017646749"><ele>68.6</ele><time>2026-04-21T12:56:48.998Z</time></trkpt><trkpt lat="45.46935122580241" lon="10.714360730664898"><ele>68.0</ele><time>2026-04-21T12:56:50.998Z</time></trkpt><trkpt lat="45.46946931165115" lon="10.714414657551005"><ele>68.6</ele><time>2026-04-21T12:56:52.998Z</time></trkpt><trkpt lat="45.46958158696834" lon="10.714463162800692"><ele>69.19999999999999</ele><time>2026-04-21T12:56:54.998Z</time></trkpt><trkpt lat="45.46969136948138" lon="10.714508804723316"><ele>69.8</ele><time>2026-04-21T12:56:56.998Z</time></trkpt><trkpt lat="45.46979911380869" lon="10.714548297809882"><ele>70.39999999999999</ele><time>2026-04-21T12:56:58.998Z</time></trkpt><trkpt lat="45.469897753644695" lon="10.71456726162003"><ele>71.0</ele><time>2026-04-21T12:57:00.998Z</time></trkpt><trkpt lat="45.46997820988597" lon="10.714583987028925"><ele>71.0</ele><time>2026-04-21T12:57:02.998Z</time></trkpt><trkpt lat="45.47005621356546" lon="10.714604917850933"><ele>71.0</ele><time>2026-04-21T12:57:04.998Z</time></trkpt><trkpt lat="45.470129121015056" lon="10.71462717462962"><ele>71.0</ele><time>2026-04-21T12:57:07Z</time></trkpt><trkpt lat="45.470265604048116" lon="10.714703215781322"><ele>71.0</ele><time>2026-04-21T12:57:10Z</time></trkpt><trkpt lat="45.47034575269847" lon="10.714750272339492"><ele>71.0</ele><time>2026-04-21T12:57:12Z</time></trkpt><trkpt lat="45.47040814826033" lon="10.714787547345033"><ele>69.8</ele><time>2026-04-21T12:57:14Z</time></trkpt><trkpt lat="45.47047403313559" lon="10.714834029864539"><ele>68.6</ele><time>2026-04-21T12:57:16Z</time></trkpt><trkpt lat="45.47057003329477" lon="10.714905085440174"><ele>67.4</ele><time>2026-04-21T12:57:17Z</time></trkpt><trkpt lat="45.47066956122995" lon="10.714959598385747"><ele>66.2</ele><time>2026-04-21T12:57:19Z</time></trkpt><trkpt lat="45.470763978448176" lon="10.715027582533223"><ele>65.0</ele><time>2026-04-21T12:57:21Z</time></trkpt><trkpt lat="45.4708621371412" lon="10.715071163475494"><ele>65.0</ele><time>2026-04-21T12:57:23Z</time></trkpt><trkpt lat="45.47095642341891" lon="10.715104348826996"><ele>65.0</ele><time>2026-04-21T12:57:25Z</time></trkpt><trkpt lat="45.47104842666616" lon="10.715123580425221"><ele>65.0</ele><time>2026-04-21T12:57:27Z</time></trkpt><trkpt lat="45.471140513577964" lon="10.715123606002061"><ele>65.0</ele><time>2026-04-21T12:57:29Z</time></trkpt><trkpt lat="45.471233758396714" lon="10.71511150914909"><ele>65.0</ele><time>2026-04-21T12:57:31Z</time></trkpt><trkpt lat="45.471319102491464" lon="10.715102368619066"><ele>64.6</ele><time>2026-04-21T12:57:33Z</time></trkpt><trkpt lat="45.47141664899887" lon="10.715151651709986"><ele>64.2</ele><time>2026-04-21T12:57:35Z</time></trkpt><trkpt lat="45.47147533242428" lon="10.715185874719829"><ele>63.8</ele><time>2026-04-21T12:57:35.999Z</time></trkpt><trkpt lat="45.47158851951143" lon="10.715229849905159"><ele>63.4</ele><time>2026-04-21T12:57:37.999Z</time></trkpt><trkpt lat="45.47170546972469" lon="10.715297298260907"><ele>63.0</ele><time>2026-04-21T12:57:39.999Z</time></trkpt><trkpt lat="45.471767449126354" lon="10.715321105510398"><ele>64.0</ele><time>2026-04-21T12:57:40.999Z</time></trkpt><trkpt lat="45.47182816172252" lon="10.715345777606622"><ele>65.0</ele><time>2026-04-21T12:57:41.999Z</time></trkpt><trkpt lat="45.47189053182928" lon="10.715364184604706"><ele>66.0</ele><time>2026-04-21T12:57:42.999Z</time></trkpt><trkpt lat="45.4719526177567" lon="10.715392287948166"><ele>67.0</ele><time>2026-04-21T12:57:43.999Z</time></trkpt><trkpt lat="45.47201790595951" lon="10.715418947349155"><ele>68.0</ele><time>2026-04-21T12:57:44.999Z</time></trkpt><trkpt lat="45.47208080514488" lon="10.715446762660552"><ele>69.0</ele><time>2026-04-21T12:57:45.999Z</time></trkpt><trkpt lat="45.472141322512854" lon="10.715472081798943"><ele>70.0</ele><time>2026-04-21T12:57:46.999Z</time></trkpt><trkpt lat="45.4722586971537" lon="10.71553116299537"><ele>70.0</ele><time>2026-04-21T12:57:48.999Z</time></trkpt><trkpt lat="45.47237501078168" lon="10.715587452772487"><ele>70.0</ele><time>2026-04-21T12:57:50.999Z</time></trkpt><trkpt lat="45.472489538409036" lon="10.715639417421245"><ele>70.0</ele><time>2026-04-21T12:57:52.999Z</time></trkpt><trkpt lat="45.47260542102584" lon="10.715676459890421"><ele>70.0</ele><time>2026-04-21T12:57:54.999Z</time></trkpt><trkpt lat="45.47272343291255" lon="10.715721674272494"><ele>70.0</ele><time>2026-04-21T12:57:56.999Z</time></trkpt><trkpt lat="45.472832641449465" lon="10.715762489950393"><ele>70.0</ele><time>2026-04-21T12:57:58.999Z</time></trkpt><trkpt lat="45.472953086126886" lon="10.715787725913613"><ele>70.0</ele><time>2026-04-21T12:58:00.999Z</time></trkpt><trkpt lat="45.47307538026762" lon="10.715788281455032"><ele>70.0</ele><time>2026-04-21T12:58:02.999Z</time></trkpt><trkpt lat="45.47314270580066" lon="10.715782679848232"><ele>70.0</ele><time>2026-04-21T12:58:03.999Z</time></trkpt><trkpt lat="45.47320861456397" lon="10.71577126176902"><ele>69.0</ele><time>2026-04-21T12:58:04.999Z</time></trkpt><trkpt lat="45.47333306484291" lon="10.715762554727219"><ele>68.0</ele><time>2026-04-21T12:58:06.999Z</time></trkpt><trkpt lat="45.47344939720604" lon="10.715788516073554"><ele>67.0</ele><time>2026-04-21T12:58:08.999Z</time></trkpt><trkpt lat="45.47355085569729" lon="10.715851575636773"><ele>66.0</ele><time>2026-04-21T12:58:10.999Z</time></trkpt><trkpt lat="45.47366699197527" lon="10.715917713723114"><ele>66.0</ele><time>2026-04-21T12:58:12.999Z</time></trkpt><trkpt lat="45.47372739047541" lon="10.715952235672589"><ele>66.0</ele><time>2026-04-21T12:58:13.999Z</time></trkpt><trkpt lat="45.47383341813808" lon="10.716014048423299"><ele>66.0</ele><time>2026-04-21T12:58:15.999Z</time></trkpt><trkpt lat="45.47393652301673" lon="10.716088849445647"><ele>66.0</ele><time>2026-04-21T12:58:17.999Z</time></trkpt><trkpt lat="45.47404550442914" lon="10.716126662146955"><ele>66.0</ele><time>2026-04-21T12:58:19.999Z</time></trkpt><trkpt lat="45.474156770679585" lon="10.716142244707909"><ele>66.5</ele><time>2026-04-21T12:58:21.999Z</time></trkpt><trkpt lat="45.47425298814376" lon="10.716194051808447"><ele>67.0</ele><time>2026-04-21T12:58:23.999Z</time></trkpt><trkpt lat="45.47435791547619" lon="10.71623571973994"><ele>67.5</ele><time>2026-04-21T12:58:25.999Z</time></trkpt><trkpt lat="45.474498116538754" lon="10.716309852815003"><ele>68.0</ele><time>2026-04-21T12:58:28.999Z</time></trkpt><trkpt lat="45.47459733260285" lon="10.71638212187819"><ele>67.4</ele><time>2026-04-21T12:58:30.999Z</time></trkpt><trkpt lat="45.474705532846144" lon="10.716436348915794"><ele>66.8</ele><time>2026-04-21T12:58:32.999Z</time></trkpt><trkpt lat="45.474803081499566" lon="10.716506339344205"><ele>66.2</ele><time>2026-04-21T12:58:34.999Z</time></trkpt><trkpt lat="45.47489718750909" lon="10.716568653296662"><ele>65.6</ele><time>2026-04-21T12:58:36.998Z</time></trkpt><trkpt lat="45.47499607940987" lon="10.716638394312692"><ele>65.0</ele><time>2026-04-21T12:58:38.998Z</time></trkpt><trkpt lat="45.47508976153795" lon="10.716713281999848"><ele>65.0</ele><time>2026-04-21T12:58:40.998Z</time></trkpt><trkpt lat="45.475190252619704" lon="10.716786828391145"><ele>65.0</ele><time>2026-04-21T12:58:42.998Z</time></trkpt><trkpt lat="45.4752951131233" lon="10.716845246835325"><ele>65.0</ele><time>2026-04-21T12:58:44.998Z</time></trkpt><trkpt lat="45.47540120036459" lon="10.716899565564836"><ele>65.0</ele><time>2026-04-21T12:58:46.998Z</time></trkpt><trkpt lat="45.475504615426175" lon="10.716955437699124"><ele>65.0</ele><time>2026-04-21T12:58:48.998Z</time></trkpt><trkpt lat="45.47559474338926" lon="10.717002718840606"><ele>66.5</ele><time>2026-04-21T12:58:50.998Z</time></trkpt><trkpt lat="45.47569719954645" lon="10.71706984483792"><ele>68.0</ele><time>2026-04-21T12:58:52.998Z</time></trkpt><trkpt lat="45.47579158231836" lon="10.717125691930496"><ele>69.5</ele><time>2026-04-21T12:58:54.998Z</time></trkpt><trkpt lat="45.475937397639576" lon="10.717240572806007"><ele>71.0</ele><time>2026-04-21T12:58:57.998Z</time></trkpt><trkpt lat="45.47602725312721" lon="10.717304990603042"><ele>71.0</ele><time>2026-04-21T12:58:59.998Z</time></trkpt><trkpt lat="45.476117439606966" lon="10.717357267701278"><ele>71.0</ele><time>2026-04-21T12:59:01.998Z</time></trkpt><trkpt lat="45.476189071871914" lon="10.7174424001659"><ele>71.0</ele><time>2026-04-21T12:59:03.998Z</time></trkpt><trkpt lat="45.47626360345177" lon="10.717504449281407"><ele>71.0</ele><time>2026-04-21T12:59:05.998Z</time></trkpt><trkpt lat="45.47633768942404" lon="10.717564169933679"><ele>71.0</ele><time>2026-04-21T12:59:07.998Z</time></trkpt><trkpt lat="45.476404193255284" lon="10.717629025421866"><ele>71.0</ele><time>2026-04-21T12:59:09.998Z</time></trkpt><trkpt lat="45.47645409034365" lon="10.717684980621502"><ele>71.66666666666667</ele><time>2026-04-21T12:59:11.998Z</time></trkpt><trkpt lat="45.476525716254706" lon="10.717726945115565"><ele>72.33333333333334</ele><time>2026-04-21T12:59:16Z</time></trkpt><trkpt lat="45.476583971105185" lon="10.717768776913204"><ele>73.0</ele><time>2026-04-21T12:59:18Z</time></trkpt><trkpt lat="45.4766577554876" lon="10.717841999395102"><ele>73.66666666666667</ele><time>2026-04-21T12:59:21Z</time></trkpt><trkpt lat="45.47671588501489" lon="10.717892852093005"><ele>74.33333333333333</ele><time>2026-04-21T12:59:23Z</time></trkpt><trkpt lat="45.47677502826022" lon="10.71796115863304"><ele>75.0</ele><time>2026-04-21T12:59:26Z</time></trkpt><trkpt lat="45.47684869635648" lon="10.717952782014478"><ele>75.0</ele><time>2026-04-21T12:59:30Z</time></trkpt><trkpt lat="45.47688045656621" lon="10.71786545465603"><ele>75.0</ele><time>2026-04-21T12:59:33Z</time></trkpt><trkpt lat="45.476923050562995" lon="10.717797172220298"><ele>75.0</ele><time>2026-04-21T12:59:36Z</time></trkpt><trkpt lat="45.477001958525925" lon="10.717850141962654"><ele>75.0</ele><time>2026-04-21T12:59:39Z</time></trkpt><trkpt lat="45.477091496879225" lon="10.717901741181818"><ele>75.0</ele><time>2026-04-21T12:59:41.999Z</time></trkpt><trkpt lat="45.47724096262274" lon="10.717927363171741"><ele>73.5</ele><time>2026-04-21T12:59:43.999Z</time></trkpt><trkpt lat="45.477326667339604" lon="10.71795950075431"><ele>72.0</ele><time>2026-04-21T12:59:45.999Z</time></trkpt><trkpt lat="45.47740464302917" lon="10.717995042647308"><ele>70.5</ele><time>2026-04-21T12:59:47.999Z</time></trkpt><trkpt lat="45.477437621867416" lon="10.718076732081105"><ele>69.0</ele><time>2026-04-21T12:59:51.999Z</time></trkpt><trkpt lat="45.47740587385712" lon="10.718168794269193"><ele>67.5</ele><time>2026-04-21T12:59:53.999Z</time></trkpt><trkpt lat="45.47735973880022" lon="10.71831399230022"><ele>66.0</ele><time>2026-04-21T12:59:55.999Z</time></trkpt><trkpt lat="45.47734795940429" lon="10.718432406929248"><ele>66.0</ele><time>2026-04-21T12:59:57.999Z</time></trkpt><trkpt lat="45.47737941297618" lon="10.718535644886547"><ele>66.0</ele><time>2026-04-21T13:00:00.999Z</time></trkpt><trkpt lat="45.477428707773726" lon="10.718463415549307"><ele>66.0</ele><time>2026-04-21T13:00:05.999Z</time></trkpt><trkpt lat="45.47748843092714" lon="10.718424280382123"><ele>66.0</ele><time>2026-04-21T13:00:07.999Z</time></trkpt><trkpt lat="45.47763880331676" lon="10.718319837482222"><ele>66.0</ele><time>2026-04-21T13:00:09.999Z</time></trkpt><trkpt lat="45.477710832160895" lon="10.718280451650655"><ele>66.0</ele><time>2026-04-21T13:00:10.999Z</time></trkpt><trkpt lat="45.47780766529614" lon="10.71822547640859"><ele>66.0</ele><time>2026-04-21T13:00:12.999Z</time></trkpt><trkpt lat="45.477919887724696" lon="10.71818573040638"><ele>66.0</ele><time>2026-04-21T13:00:14.999Z</time></trkpt><trkpt lat="45.47802415412375" lon="10.718148557035502"><ele>66.0</ele><time>2026-04-21T13:00:16.999Z</time></trkpt><trkpt lat="45.47812075635649" lon="10.718224597477443"><ele>66.0</ele><time>2026-04-21T13:00:18.999Z</time></trkpt><trkpt lat="45.47822363381318" lon="10.718300259704757"><ele>65.6</ele><time>2026-04-21T13:00:20.999Z</time></trkpt><trkpt lat="45.478337983830826" lon="10.718373509070279"><ele>65.19999999999999</ele><time>2026-04-21T13:00:22.999Z</time></trkpt><trkpt lat="45.47844138731715" lon="10.718423849094867"><ele>64.80000000000001</ele><time>2026-04-21T13:00:24.999Z</time></trkpt><trkpt lat="45.478549617763655" lon="10.718423871268676"><ele>64.4</ele><time>2026-04-21T13:00:26.999Z</time></trkpt><trkpt lat="45.47864856426324" lon="10.718474751266363"><ele>64.0</ele><time>2026-04-21T13:00:28.999Z</time></trkpt><trkpt lat="45.478691695696284" lon="10.718542138946386"><ele>64.33333333333333</ele><time>2026-04-21T13:00:29.999Z</time></trkpt><trkpt lat="45.478740635305414" lon="10.718601662091105"><ele>64.66666666666666</ele><time>2026-04-21T13:00:30.999Z</time></trkpt><trkpt lat="45.4787921683697" lon="10.71866334788728"><ele>65.0</ele><time>2026-04-21T13:00:31.999Z</time></trkpt><trkpt lat="45.4788382006329" lon="10.718728848034631"><ele>65.33333333333333</ele><time>2026-04-21T13:00:32.999Z</time></trkpt><trkpt lat="45.478928480509964" lon="10.718841085920733"><ele>65.66666666666667</ele><time>2026-04-21T13:00:34.999Z</time></trkpt><trkpt lat="45.4790108030912" lon="10.718919365731173"><ele>66.0</ele><time>2026-04-21T13:00:36.999Z</time></trkpt><trkpt lat="45.479089300920315" lon="10.71902138785002"><ele>66.0</ele><time>2026-04-21T13:00:38.999Z</time></trkpt><trkpt lat="45.47917907982812" lon="10.719133215853528"><ele>66.0</ele><time>2026-04-21T13:00:40.999Z</time></trkpt><trkpt lat="45.47927506159247" lon="10.719235477587565"><ele>66.0</ele><time>2026-04-21T13:00:42.998Z</time></trkpt><trkpt lat="45.47937049611614" lon="10.71932114296553"><ele>66.0</ele><time>2026-04-21T13:00:44.998Z</time></trkpt><trkpt lat="45.47947285026309" lon="10.719413507727708"><ele>66.8</ele><time>2026-04-21T13:00:46.998Z</time></trkpt><trkpt lat="45.47957252515241" lon="10.719512439723333"><ele>67.6</ele><time>2026-04-21T13:00:48.998Z</time></trkpt><trkpt lat="45.47962614895944" lon="10.719567756814826"><ele>68.4</ele><time>2026-04-21T13:00:49.998Z</time></trkpt><trkpt lat="45.479716763323495" lon="10.719668508986471"><ele>69.2</ele><time>2026-04-21T13:00:51.998Z</time></trkpt><trkpt lat="45.47981636835702" lon="10.719757438491254"><ele>70.0</ele><time>2026-04-21T13:00:53.998Z</time></trkpt><trkpt lat="45.47990220659375" lon="10.7198709536966"><ele>70.0</ele><time>2026-04-21T13:00:55.998Z</time></trkpt><trkpt lat="45.47998793763388" lon="10.719983575114648"><ele>70.0</ele><time>2026-04-21T13:00:57.998Z</time></trkpt><trkpt lat="45.4800845608898" lon="10.720068357059212"><ele>70.0</ele><time>2026-04-21T13:00:59.998Z</time></trkpt><trkpt lat="45.48017915489479" lon="10.720154909641458"><ele>70.0</ele><time>2026-04-21T13:01:01.998Z</time></trkpt><trkpt lat="45.48028048834872" lon="10.720230886442051"><ele>70.8</ele><time>2026-04-21T13:01:03.998Z</time></trkpt><trkpt lat="45.480371316279104" lon="10.720315242349805"><ele>71.6</ele><time>2026-04-21T13:01:05.998Z</time></trkpt><trkpt lat="45.480468583068735" lon="10.720391046705785"><ele>72.4</ele><time>2026-04-21T13:01:07.998Z</time></trkpt><trkpt lat="45.48055170281424" lon="10.72048464437792"><ele>73.2</ele><time>2026-04-21T13:01:09.998Z</time></trkpt><trkpt lat="45.48063546022024" lon="10.72056895464851"><ele>74.0</ele><time>2026-04-21T13:01:11.998Z</time></trkpt><trkpt lat="45.48071777980116" lon="10.720629476768313"><ele>74.0</ele><time>2026-04-21T13:01:13.998Z</time></trkpt><trkpt lat="45.480798285604976" lon="10.720703403060337"><ele>74.0</ele><time>2026-04-21T13:01:15.998Z</time></trkpt><trkpt lat="45.48090559811258" lon="10.720753545585259"><ele>74.0</ele><time>2026-04-21T13:01:17.998Z</time></trkpt><trkpt lat="45.4809818998692" lon="10.720848573966313"><ele>74.0</ele><time>2026-04-21T13:01:20Z</time></trkpt><trkpt lat="45.48108388109749" lon="10.720911481187136"><ele>74.0</ele><time>2026-04-21T13:01:22Z</time></trkpt><trkpt lat="45.48116412724723" lon="10.720976971314935"><ele>74.0</ele><time>2026-04-21T13:01:24Z</time></trkpt><trkpt lat="45.48125730448349" lon="10.721051990091404"><ele>74.0</ele><time>2026-04-21T13:01:26Z</time></trkpt><trkpt lat="45.48134559873949" lon="10.721123519732412"><ele>74.0</ele><time>2026-04-21T13:01:28Z</time></trkpt><trkpt lat="45.48144198806352" lon="10.721203529165047"><ele>74.0</ele><time>2026-04-21T13:01:30Z</time></trkpt><trkpt lat="45.48149858450008" lon="10.721246295062937"><ele>74.0</ele><time>2026-04-21T13:01:31Z</time></trkpt><trkpt lat="45.481620644740666" lon="10.721295196316168"><ele>74.33333333333334</ele><time>2026-04-21T13:01:33Z</time></trkpt><trkpt lat="45.481689381804884" lon="10.721315908796631"><ele>74.66666666666667</ele><time>2026-04-21T13:01:34Z</time></trkpt><trkpt lat="45.481772349376506" lon="10.721365396526158"><ele>75.0</ele><time>2026-04-21T13:01:36Z</time></trkpt><trkpt lat="45.481871553880524" lon="10.721434048343978"><ele>75.33333333333333</ele><time>2026-04-21T13:01:38Z</time></trkpt><trkpt lat="45.48196156671997" lon="10.721481533145345"><ele>75.66666666666666</ele><time>2026-04-21T13:01:40Z</time></trkpt><trkpt lat="45.482019751043644" lon="10.721548503889762"><ele>76.0</ele><time>2026-04-21T13:01:42Z</time></trkpt><trkpt lat="45.48209546711747" lon="10.721631902823487"><ele>76.66666666666666</ele><time>2026-04-21T13:01:45Z</time></trkpt><trkpt lat="45.482170254244934" lon="10.721701859023892"><ele>77.33333333333333</ele><time>2026-04-21T13:01:47Z</time></trkpt><trkpt lat="45.48223898970676" lon="10.721775327406911"><ele>78.0</ele><time>2026-04-21T13:01:47.999Z</time></trkpt><trkpt lat="45.48229141214973" lon="10.721828147275303"><ele>78.66666666666667</ele><time>2026-04-21T13:01:48.999Z</time></trkpt><trkpt lat="45.482357755135105" lon="10.721872759661549"><ele>79.33333333333334</ele><time>2026-04-21T13:01:50.999Z</time></trkpt><trkpt lat="45.48242661579029" lon="10.721935544965381"><ele>80.0</ele><time>2026-04-21T13:01:51.999Z</time></trkpt><trkpt lat="45.48247757884337" lon="10.72199378646101"><ele>80.0</ele><time>2026-04-21T13:01:52.999Z</time></trkpt><trkpt lat="45.482565679087905" lon="10.722087791056829"><ele>80.0</ele><time>2026-04-21T13:01:54.999Z</time></trkpt><trkpt lat="45.482629692650924" lon="10.722165498569183"><ele>80.0</ele><time>2026-04-21T13:01:56.999Z</time></trkpt><trkpt lat="45.48271311023656" lon="10.72224709784041"><ele>80.0</ele><time>2026-04-21T13:01:58.999Z</time></trkpt><trkpt lat="45.48283966149687" lon="10.722363227928536"><ele>80.0</ele><time>2026-04-21T13:01:59.999Z</time></trkpt><trkpt lat="45.48292483644432" lon="10.722452746599723"><ele>80.2</ele><time>2026-04-21T13:02:01.999Z</time></trkpt><trkpt lat="45.48301001103684" lon="10.722545535830857"><ele>80.4</ele><time>2026-04-21T13:02:03.999Z</time></trkpt><trkpt lat="45.48309257555139" lon="10.722610984944431"><ele>80.6</ele><time>2026-04-21T13:02:05.999Z</time></trkpt><trkpt lat="45.48317491205218" lon="10.722678128502412"><ele>80.8</ele><time>2026-04-21T13:02:07.999Z</time></trkpt><trkpt lat="45.48326465062292" lon="10.722754086082235"><ele>81.0</ele><time>2026-04-21T13:02:09.999Z</time></trkpt><trkpt lat="45.48335337232996" lon="10.722834081227889"><ele>81.0</ele><time>2026-04-21T13:02:11.999Z</time></trkpt><trkpt lat="45.48343833122312" lon="10.722915116334297"><ele>81.0</ele><time>2026-04-21T13:02:13.999Z</time></trkpt><trkpt lat="45.483528218523716" lon="10.723003738014674"><ele>81.0</ele><time>2026-04-21T13:02:15.999Z</time></trkpt><trkpt lat="45.48360437644698" lon="10.723056939854164"><ele>81.0</ele><time>2026-04-21T13:02:17.999Z</time></trkpt><trkpt lat="45.48367720715848" lon="10.7231167681825"><ele>81.0</ele><time>2026-04-21T13:02:19.999Z</time></trkpt><trkpt lat="45.483725332183994" lon="10.723184585201219"><ele>81.0</ele><time>2026-04-21T13:02:22.999Z</time></trkpt><trkpt lat="45.483784142497214" lon="10.723235352763508"><ele>77.75</ele><time>2026-04-21T13:02:25.999Z</time></trkpt><trkpt lat="45.48395224923158" lon="10.723344194217715"><ele>74.5</ele><time>2026-04-21T13:02:26.999Z</time></trkpt><trkpt lat="45.4840457320383" lon="10.723391744223665"><ele>71.25</ele><time>2026-04-21T13:02:28.999Z</time></trkpt><trkpt lat="45.484132861787614" lon="10.723427607722693"><ele>68.0</ele><time>2026-04-21T13:02:30.999Z</time></trkpt><trkpt lat="45.484220459469604" lon="10.72347393440116"><ele>68.0</ele><time>2026-04-21T13:02:32.999Z</time></trkpt><trkpt lat="45.48430737299037" lon="10.723540014157406"><ele>68.0</ele><time>2026-04-21T13:02:34.999Z</time></trkpt><trkpt lat="45.48439142353229" lon="10.723616903573662"><ele>68.0</ele><time>2026-04-21T13:02:36.999Z</time></trkpt><trkpt lat="45.484483464722985" lon="10.72370139379999"><ele>68.0</ele><time>2026-04-21T13:02:38.999Z</time></trkpt><trkpt lat="45.48458155501183" lon="10.723780633231147"><ele>68.0</ele><time>2026-04-21T13:02:40.999Z</time></trkpt><trkpt lat="45.48467873120042" lon="10.72386041642238"><ele>68.6</ele><time>2026-04-21T13:02:42.999Z</time></trkpt><trkpt lat="45.48477780723355" lon="10.723948594718772"><ele>69.19999999999999</ele><time>2026-04-21T13:02:44.999Z</time></trkpt><trkpt lat="45.48485973336947" lon="10.724013694320067"><ele>69.8</ele><time>2026-04-21T13:02:46.999Z</time></trkpt><trkpt lat="45.48493556065983" lon="10.724088870958028"><ele>70.39999999999999</ele><time>2026-04-21T13:02:48.998Z</time></trkpt><trkpt lat="45.48502912129412" lon="10.724157364975373"><ele>71.0</ele><time>2026-04-21T13:02:50.998Z</time></trkpt><trkpt lat="45.48509270493241" lon="10.724197918054395"><ele>71.0</ele><time>2026-04-21T13:02:52.998Z</time></trkpt><trkpt lat="45.48515817633211" lon="10.724250177871125"><ele>71.0</ele><time>2026-04-21T13:02:54.998Z</time></trkpt><trkpt lat="45.48525406568439" lon="10.72430668398309"><ele>71.0</ele><time>2026-04-21T13:02:56.998Z</time></trkpt><trkpt lat="45.48540300291517" lon="10.724420691906438"><ele>71.0</ele><time>2026-04-21T13:02:58.998Z</time></trkpt><trkpt lat="45.48548150916873" lon="10.72448425260064"><ele>71.0</ele><time>2026-04-21T13:03:00.998Z</time></trkpt><trkpt lat="45.48555956355012" lon="10.724546785978216"><ele>71.8</ele><time>2026-04-21T13:03:02.998Z</time></trkpt><trkpt lat="45.485644229718574" lon="10.724591477755991"><ele>72.6</ele><time>2026-04-21T13:03:04.998Z</time></trkpt><trkpt lat="45.48573353652067" lon="10.724632198646265"><ele>73.4</ele><time>2026-04-21T13:03:06.998Z</time></trkpt><trkpt lat="45.48582326946333" lon="10.724676246604172"><ele>74.2</ele><time>2026-04-21T13:03:08.998Z</time></trkpt><trkpt lat="45.485910578434584" lon="10.724718037184676"><ele>75.0</ele><time>2026-04-21T13:03:10.998Z</time></trkpt><trkpt lat="45.48599413712703" lon="10.724752895231925"><ele>75.0</ele><time>2026-04-21T13:03:12.998Z</time></trkpt><trkpt lat="45.486078554046344" lon="10.724808422193286"><ele>75.0</ele><time>2026-04-21T13:03:14.998Z</time></trkpt><trkpt lat="45.486164545380255" lon="10.7248678146437"><ele>75.0</ele><time>2026-04-21T13:03:16.998Z</time></trkpt><trkpt lat="45.4862268449342" lon="10.724926691557418"><ele>75.0</ele><time>2026-04-21T13:03:19.998Z</time></trkpt><trkpt lat="45.486323141492925" lon="10.724974006023572"><ele>75.0</ele><time>2026-04-21T13:03:20.998Z</time></trkpt><trkpt lat="45.48640790650571" lon="10.725019731162254"><ele>74.4</ele><time>2026-04-21T13:03:22.998Z</time></trkpt><trkpt lat="45.48648463495893" lon="10.725071378976468"><ele>73.8</ele><time>2026-04-21T13:03:25Z</time></trkpt><trkpt lat="45.48657889244142" lon="10.725140507148513"><ele>73.2</ele><time>2026-04-21T13:03:27Z</time></trkpt><trkpt lat="45.4866675371679" lon="10.72522426924944"><ele>72.6</ele><time>2026-04-21T13:03:29Z</time></trkpt><trkpt lat="45.486753591113825" lon="10.725309340752778"><ele>72.0</ele><time>2026-04-21T13:03:31Z</time></trkpt><trkpt lat="45.48684140328268" lon="10.725381208182103"><ele>71.8</ele><time>2026-04-21T13:03:33Z</time></trkpt><trkpt lat="45.48693441669333" lon="10.725464548826672"><ele>71.6</ele><time>2026-04-21T13:03:35Z</time></trkpt><trkpt lat="45.48702074079243" lon="10.725548331924081"><ele>71.39999999999999</ele><time>2026-04-21T13:03:37Z</time></trkpt><trkpt lat="45.48709925716635" lon="10.725630938642974"><ele>71.2</ele><time>2026-04-21T13:03:39Z</time></trkpt><trkpt lat="45.487178620136724" lon="10.725674969509345"><ele>71.0</ele><time>2026-04-21T13:03:41Z</time></trkpt><trkpt lat="45.487280994773" lon="10.725729357155723"><ele>71.0</ele><time>2026-04-21T13:03:43Z</time></trkpt><trkpt lat="45.487396664459446" lon="10.72577907085507"><ele>71.0</ele><time>2026-04-21T13:03:45Z</time></trkpt><trkpt lat="45.487454052740986" lon="10.725831430259126"><ele>71.0</ele><time>2026-04-21T13:03:46Z</time></trkpt><trkpt lat="45.48751150627326" lon="10.725896966015606"><ele>71.0</ele><time>2026-04-21T13:03:47Z</time></trkpt><trkpt lat="45.48756343529706" lon="10.726025129513802"><ele>71.0</ele><time>2026-04-21T13:03:49Z</time></trkpt><trkpt lat="45.487617717612444" lon="10.726105306882696"><ele>71.0</ele><time>2026-04-21T13:03:53.999Z</time></trkpt><trkpt lat="45.48766728863298" lon="10.726170497188615"><ele>71.16666666666667</ele><time>2026-04-21T13:03:57.999Z</time></trkpt><trkpt lat="45.487724152007594" lon="10.726250412120557"><ele>71.33333333333334</ele><time>2026-04-21T13:04:02.999Z</time></trkpt><trkpt lat="45.487806425610096" lon="10.726284498627855"><ele>71.5</ele><time>2026-04-21T13:04:06.999Z</time></trkpt><trkpt lat="45.48787249754335" lon="10.726344949690429"><ele>71.66666666666667</ele><time>2026-04-21T13:04:09.999Z</time></trkpt><trkpt lat="45.48794300172862" lon="10.726374849601012"><ele>71.83333333333333</ele><time>2026-04-21T13:04:12.999Z</time></trkpt><trkpt lat="45.48800207329268" lon="10.726433616532384"><ele>72.0</ele><time>2026-04-21T13:04:15.999Z</time></trkpt><trkpt lat="45.488114959287515" lon="10.726521297267018"><ele>72.0</ele><time>2026-04-21T13:04:18.999Z</time></trkpt><trkpt lat="45.48818459550057" lon="10.726581748691586"><ele>72.0</ele><time>2026-04-21T13:04:20.999Z</time></trkpt><trkpt lat="45.48859336174589" lon="10.72686734724837"><ele>71.8</ele><time>2026-04-21T13:04:22.999Z</time></trkpt><trkpt lat="45.488676755633136" lon="10.726932423259957"><ele>71.6</ele><time>2026-04-21T13:04:24.999Z</time></trkpt><trkpt lat="45.48875246280112" lon="10.727007291080254"><ele>71.39999999999999</ele><time>2026-04-21T13:04:26.999Z</time></trkpt><trkpt lat="45.48882280031825" lon="10.727087174181301"><ele>71.2</ele><time>2026-04-21T13:04:28.999Z</time></trkpt><trkpt lat="45.48889898738707" lon="10.72716030517926"><ele>71.0</ele><time>2026-04-21T13:04:30.999Z</time></trkpt><trkpt lat="45.488980352047435" lon="10.727211985677108"><ele>71.0</ele><time>2026-04-21T13:04:32.999Z</time></trkpt><trkpt lat="45.489070570898996" lon="10.72726338356853"><ele>71.0</ele><time>2026-04-21T13:04:34.999Z</time></trkpt><trkpt lat="45.48915370070847" lon="10.72732968294207"><ele>71.0</ele><time>2026-04-21T13:04:36.999Z</time></trkpt><trkpt lat="45.48923376192914" lon="10.727394285920955"><ele>71.0</ele><time>2026-04-21T13:04:38.999Z</time></trkpt><trkpt lat="45.489318360751035" lon="10.72741455992194"><ele>71.0</ele><time>2026-04-21T13:04:40.999Z</time></trkpt><trkpt lat="45.48934156183611" lon="10.727315980839967"><ele>71.0</ele><time>2026-04-21T13:04:41.999Z</time></trkpt><trkpt lat="45.489453636695416" lon="10.727312982570286"><ele>71.0</ele><time>2026-04-21T13:04:43.999Z</time></trkpt><trkpt lat="45.48951935828565" lon="10.727327930835473"><ele>71.0</ele><time>2026-04-21T13:04:46.999Z</time></trkpt><trkpt lat="45.489666098910575" lon="10.727417706293519"><ele>71.0</ele><time>2026-04-21T13:04:48.999Z</time></trkpt><trkpt lat="45.489758772018355" lon="10.727445102645651"><ele>71.0</ele><time>2026-04-21T13:04:50.999Z</time></trkpt><trkpt lat="45.48987511123853" lon="10.727522130489358"><ele>71.0</ele><time>2026-04-21T13:04:52.998Z</time></trkpt><trkpt lat="45.48991791160768" lon="10.72759564758331"><ele>71.2</ele><time>2026-04-21T13:04:53.998Z</time></trkpt><trkpt lat="45.48995740125999" lon="10.727670352786946"><ele>71.39999999999999</ele><time>2026-04-21T13:04:54.998Z</time></trkpt><trkpt lat="45.49005446632725" lon="10.727779235627255"><ele>71.6</ele><time>2026-04-21T13:04:56.998Z</time></trkpt><trkpt lat="45.49015411070486" lon="10.727862645923794"><ele>71.8</ele><time>2026-04-21T13:04:58.998Z</time></trkpt><trkpt lat="45.49024949227107" lon="10.727949254057506"><ele>72.0</ele><time>2026-04-21T13:05:00.998Z</time></trkpt><trkpt lat="45.49034887235843" lon="10.728017824497748"><ele>71.6</ele><time>2026-04-21T13:05:02.998Z</time></trkpt><trkpt lat="45.49044281668016" lon="10.728095623004585"><ele>71.2</ele><time>2026-04-21T13:05:04.998Z</time></trkpt><trkpt lat="45.49053929430939" lon="10.728169830831584"><ele>70.8</ele><time>2026-04-21T13:05:06.998Z</time></trkpt><trkpt lat="45.49061367778936" lon="10.728220713703346"><ele>70.4</ele><time>2026-04-21T13:05:08.998Z</time></trkpt><trkpt lat="45.49071274888425" lon="10.728270038043014"><ele>70.0</ele><time>2026-04-21T13:05:10.998Z</time></trkpt><trkpt lat="45.490814447688265" lon="10.728325314365822"><ele>70.0</ele><time>2026-04-21T13:05:12.998Z</time></trkpt><trkpt lat="45.49091924392446" lon="10.728390269659066"><ele>70.0</ele><time>2026-04-21T13:05:14.998Z</time></trkpt><trkpt lat="45.4909777255622" lon="10.728425873259397"><ele>70.0</ele><time>2026-04-21T13:05:15.998Z</time></trkpt><trkpt lat="45.491085636782735" lon="10.728479500193881"><ele>70.0</ele><time>2026-04-21T13:05:17.998Z</time></trkpt><trkpt lat="45.491195424975004" lon="10.728528882540314"><ele>70.0</ele><time>2026-04-21T13:05:19.998Z</time></trkpt><trkpt lat="45.49130157211566" lon="10.728574842333728"><ele>68.75</ele><time>2026-04-21T13:05:21.998Z</time></trkpt><trkpt lat="45.491407011826716" lon="10.72861381238849"><ele>67.5</ele><time>2026-04-21T13:05:23.998Z</time></trkpt><trkpt lat="45.49152119073372" lon="10.728650127310118"><ele>66.25</ele><time>2026-04-21T13:05:25.998Z</time></trkpt><trkpt lat="45.4916335627135" lon="10.728675935271307"><ele>65.0</ele><time>2026-04-21T13:05:27.998Z</time></trkpt><trkpt lat="45.49175665572572" lon="10.72867212485684"><ele>65.0</ele><time>2026-04-21T13:05:29.998Z</time></trkpt><trkpt lat="45.49184789133829" lon="10.728669076853048"><ele>65.0</ele><time>2026-04-21T13:05:32Z</time></trkpt><trkpt lat="45.49194563152947" lon="10.728682384018875"><ele>65.0</ele><time>2026-04-21T13:05:34Z</time></trkpt><trkpt lat="45.492042014606724" lon="10.728673477858543"><ele>65.0</ele><time>2026-04-21T13:05:36Z</time></trkpt><trkpt lat="45.49210527179675" lon="10.728661966842717"><ele>65.0</ele><time>2026-04-21T13:05:38Z</time></trkpt><trkpt lat="45.492184306973115" lon="10.728658027739748"><ele>65.0</ele><time>2026-04-21T13:05:40Z</time></trkpt><trkpt lat="45.49238203436591" lon="10.728648957561697"><ele>65.0</ele><time>2026-04-21T13:05:42Z</time></trkpt><trkpt lat="45.49248130340296" lon="10.728629645655051"><ele>65.0</ele><time>2026-04-21T13:05:44Z</time></trkpt><trkpt lat="45.49257907494015" lon="10.728610532683291"><ele>65.0</ele><time>2026-04-21T13:05:46Z</time></trkpt><trkpt lat="45.492679581997734" lon="10.728647525275653"><ele>65.0</ele><time>2026-04-21T13:05:48Z</time></trkpt><trkpt lat="45.49277510027165" lon="10.728689109280358"><ele>65.0</ele><time>2026-04-21T13:05:50Z</time></trkpt><trkpt lat="45.49286330984201" lon="10.728721063178217"><ele>64.83333333333334</ele><time>2026-04-21T13:05:52Z</time></trkpt><trkpt lat="45.49294074874021" lon="10.72874584744114"><ele>64.66666666666667</ele><time>2026-04-21T13:05:54Z</time></trkpt><trkpt lat="45.49301450871173" lon="10.728769366586164"><ele>64.5</ele><time>2026-04-21T13:05:56Z</time></trkpt><trkpt lat="45.49307606282031" lon="10.728827422283342"><ele>64.33333333333333</ele><time>2026-04-21T13:05:57.999Z</time></trkpt><trkpt lat="45.493112789330105" lon="10.728927172810959"><ele>64.16666666666666</ele><time>2026-04-21T13:05:59.999Z</time></trkpt><trkpt lat="45.493107880041194" lon="10.729044193414536"><ele>64.0</ele><time>2026-04-21T13:06:02.999Z</time></trkpt><trkpt lat="45.493099958659265" lon="10.729146437612604"><ele>63.99999999999999</ele><time>2026-04-21T13:06:05.999Z</time></trkpt><trkpt lat="45.49308627561438" lon="10.729277853079145"><ele>64.0</ele><time>2026-04-21T13:06:08.999Z</time></trkpt><trkpt lat="45.493086862173435" lon="10.72936971029309"><ele>64.0</ele><time>2026-04-21T13:06:10.999Z</time></trkpt><trkpt lat="45.493096267152055" lon="10.729533318580776"><ele>64.0</ele><time>2026-04-21T13:06:11.999Z</time></trkpt><trkpt lat="45.493086427568045" lon="10.729642120697562"><ele>63.99999999999999</ele><time>2026-04-21T13:06:13.999Z</time></trkpt><trkpt lat="45.49310224216254" lon="10.72974763077696"><ele>64.0</ele><time>2026-04-21T13:06:15.999Z</time></trkpt><trkpt lat="45.493135452735864" lon="10.729856521878085"><ele>64.5</ele><time>2026-04-21T13:06:17.999Z</time></trkpt><trkpt lat="45.49316448605041" lon="10.729942042781353"><ele>65.0</ele><time>2026-04-21T13:06:19.999Z</time></trkpt><trkpt lat="45.49320803599522" lon="10.730046160743855"><ele>65.5</ele><time>2026-04-21T13:06:22.999Z</time></trkpt><trkpt lat="45.49327761669908" lon="10.730129085423425"><ele>66.0</ele><time>2026-04-21T13:06:25.999Z</time></trkpt><trkpt lat="45.493332443646175" lon="10.730224077132803"><ele>66.5</ele><time>2026-04-21T13:06:28.999Z</time></trkpt><trkpt lat="45.49340349305974" lon="10.730310539794731"><ele>67.0</ele><time>2026-04-21T13:06:33.999Z</time></trkpt><trkpt lat="45.49346474624045" lon="10.730377848099176"><ele>66.66666666666666</ele><time>2026-04-21T13:06:36.999Z</time></trkpt><trkpt lat="45.49353275186392" lon="10.730445086801668"><ele>66.33333333333333</ele><time>2026-04-21T13:06:39.999Z</time></trkpt><trkpt lat="45.49358304435819" lon="10.730503383817474"><ele>66.0</ele><time>2026-04-21T13:06:41.999Z</time></trkpt><trkpt lat="45.49363010158496" lon="10.730583007595829"><ele>65.66666666666667</ele><time>2026-04-21T13:06:44.999Z</time></trkpt><trkpt lat="45.49368124439894" lon="10.730657255053135"><ele>65.33333333333334</ele><time>2026-04-21T13:06:46.999Z</time></trkpt><trkpt lat="45.49373270995143" lon="10.73073096902257"><ele>65.0</ele><time>2026-04-21T13:06:49.999Z</time></trkpt><trkpt lat="45.49379847131135" lon="10.730809197637264"><ele>65.0</ele><time>2026-04-21T13:06:52.999Z</time></trkpt><trkpt lat="45.493858528679326" lon="10.730880374457124"><ele>65.0</ele><time>2026-04-21T13:06:55.999Z</time></trkpt><trkpt lat="45.493925374310315" lon="10.730944376530791"><ele>65.0</ele><time>2026-04-21T13:06:57.999Z</time></trkpt><trkpt lat="45.493986005589655" lon="10.73099518954722"><ele>65.0</ele><time>2026-04-21T13:07:00.998Z</time></trkpt><trkpt lat="45.49405412884066" lon="10.731047742904954"><ele>65.0</ele><time>2026-04-21T13:07:03.998Z</time></trkpt><trkpt lat="45.49411724240079" lon="10.731084607495655"><ele>65.0</ele><time>2026-04-21T13:07:05.998Z</time></trkpt><trkpt lat="45.49418723276077" lon="10.73115002461566"><ele>65.0</ele><time>2026-04-21T13:07:08.998Z</time></trkpt><trkpt lat="45.49424681967979" lon="10.731206695111462"><ele>65.0</ele><time>2026-04-21T13:07:10.998Z</time></trkpt><trkpt lat="45.49430692607603" lon="10.731271973270706"><ele>65.0</ele><time>2026-04-21T13:07:13.998Z</time></trkpt><trkpt lat="45.49437193171631" lon="10.731317977896174"><ele>65.0</ele><time>2026-04-21T13:07:16.998Z</time></trkpt><trkpt lat="45.494433086141385" lon="10.731365806887576"><ele>65.0</ele><time>2026-04-21T13:07:18.998Z</time></trkpt><trkpt lat="45.49451442276896" lon="10.731429025525756"><ele>65.0</ele><time>2026-04-21T13:07:21.998Z</time></trkpt><trkpt lat="45.4945979670702" lon="10.731494783733648"><ele>65.0</ele><time>2026-04-21T13:07:24.998Z</time></trkpt><trkpt lat="45.494664330663724" lon="10.731536165212027"><ele>65.0</ele><time>2026-04-21T13:07:26.998Z</time></trkpt><trkpt lat="45.494746554181326" lon="10.731584348332325"><ele>65.0</ele><time>2026-04-21T13:07:29.998Z</time></trkpt><trkpt lat="45.494812372431966" lon="10.731638201285651"><ele>65.0</ele><time>2026-04-21T13:07:31.998Z</time></trkpt><trkpt lat="45.494855843947136" lon="10.73171471180055"><ele>65.0</ele><time>2026-04-21T13:07:34.998Z</time></trkpt><trkpt lat="45.49491319732393" lon="10.73175185499822"><ele>65.0</ele><time>2026-04-21T13:07:37Z</time></trkpt><trkpt lat="45.494995554754226" lon="10.731811756652265"><ele>65.0</ele><time>2026-04-21T13:07:40Z</time></trkpt><trkpt lat="45.49506377126139" lon="10.731850933105308"><ele>65.0</ele><time>2026-04-21T13:07:43Z</time></trkpt><trkpt lat="45.49522952540316" lon="10.731956780768265"><ele>65.0</ele><time>2026-04-21T13:07:44Z</time></trkpt><trkpt lat="45.49529570753339" lon="10.73198643082617"><ele>65.0</ele><time>2026-04-21T13:07:46Z</time></trkpt><trkpt lat="45.49536310965229" lon="10.732022425665589"><ele>65.0</ele><time>2026-04-21T13:07:48Z</time></trkpt><trkpt lat="45.49543075211789" lon="10.732057160198798"><ele>65.00000000000001</ele><time>2026-04-21T13:07:50Z</time></trkpt><trkpt lat="45.49551031193691" lon="10.732115901235607"><ele>65.0</ele><time>2026-04-21T13:07:53Z</time></trkpt><trkpt lat="45.495575346513824" lon="10.732152240273548"><ele>65.0</ele><time>2026-04-21T13:07:55Z</time></trkpt><trkpt lat="45.495637956311505" lon="10.732191173380945"><ele>65.0</ele><time>2026-04-21T13:07:57Z</time></trkpt><trkpt lat="45.49569838270212" lon="10.732236098470866"><ele>65.0</ele><time>2026-04-21T13:07:59Z</time></trkpt><trkpt lat="45.49575924866976" lon="10.7322821474345"><ele>65.00000000000001</ele><time>2026-04-21T13:08:01Z</time></trkpt><trkpt lat="45.49582307227191" lon="10.73232052247976"><ele>65.0</ele><time>2026-04-21T13:08:04.999Z</time></trkpt><trkpt lat="45.495886910233985" lon="10.732353337980628"><ele>65.0</ele><time>2026-04-21T13:08:07.999Z</time></trkpt><trkpt lat="45.49597509344933" lon="10.732390179003625"><ele>65.0</ele><time>2026-04-21T13:08:10.999Z</time></trkpt><trkpt lat="45.49604422826697" lon="10.732464739268764"><ele>65.0</ele><time>2026-04-21T13:08:13.999Z</time></trkpt><trkpt lat="45.496113589073076" lon="10.732516977745217"><ele>65.0</ele><time>2026-04-21T13:08:15.999Z</time></trkpt><trkpt lat="45.49619023409434" lon="10.732565165093357"><ele>65.0</ele><time>2026-04-21T13:08:18.999Z</time></trkpt><trkpt lat="45.49638564825636" lon="10.732644805963242"><ele>64.5</ele><time>2026-04-21T13:08:19.999Z</time></trkpt><trkpt lat="45.49646177998925" lon="10.73267372419611"><ele>64.0</ele><time>2026-04-21T13:08:21.999Z</time></trkpt><trkpt lat="45.496540630857766" lon="10.732689478971919"><ele>63.5</ele><time>2026-04-21T13:08:23.999Z</time></trkpt><trkpt lat="45.4966239554645" lon="10.732714712697394"><ele>63.0</ele><time>2026-04-21T13:08:25.999Z</time></trkpt><trkpt lat="45.49670122109515" lon="10.732739180862666"><ele>62.50000000000001</ele><time>2026-04-21T13:08:27.999Z</time></trkpt><trkpt lat="45.49677689998751" lon="10.732766866141617"><ele>62.0</ele><time>2026-04-21T13:08:29.999Z</time></trkpt><trkpt lat="45.49685338876518" lon="10.732793763153364"><ele>63.16666666666667</ele><time>2026-04-21T13:08:31.999Z</time></trkpt><trkpt lat="45.496928395533736" lon="10.732815547917761"><ele>64.33333333333334</ele><time>2026-04-21T13:08:33.999Z</time></trkpt><trkpt lat="45.4970044245129" lon="10.732834465828697"><ele>65.5</ele><time>2026-04-21T13:08:35.999Z</time></trkpt><trkpt lat="45.49708356119599" lon="10.732852215202318"><ele>66.66666666666667</ele><time>2026-04-21T13:08:37.999Z</time></trkpt><trkpt lat="45.497176115276496" lon="10.732891452683887"><ele>67.83333333333333</ele><time>2026-04-21T13:08:41.999Z</time></trkpt><trkpt lat="45.497259044043766" lon="10.73292720725093"><ele>69.0</ele><time>2026-04-21T13:08:44.999Z</time></trkpt><trkpt lat="45.49732273980896" lon="10.732948346296437"><ele>69.0</ele><time>2026-04-21T13:08:47.999Z</time></trkpt><trkpt lat="45.497387436296655" lon="10.732970254798156"><ele>69.0</ele><time>2026-04-21T13:08:50.999Z</time></trkpt><trkpt lat="45.49745314432311" lon="10.732988776027486"><ele>69.0</ele><time>2026-04-21T13:08:53.999Z</time></trkpt><trkpt lat="45.49752727075271" lon="10.73300525718121"><ele>69.0</ele><time>2026-04-21T13:08:56.999Z</time></trkpt><trkpt lat="45.4976194679692" lon="10.733037427459294"><ele>69.0</ele><time>2026-04-21T13:08:59.999Z</time></trkpt><trkpt lat="45.49770998658117" lon="10.733055210617648"><ele>69.0</ele><time>2026-04-21T13:09:02.999Z</time></trkpt><trkpt lat="45.497789215856585" lon="10.733079589898459"><ele>69.0</ele><time>2026-04-21T13:09:05.998Z</time></trkpt><trkpt lat="45.497888975270236" lon="10.733099267135884"><ele>69.0</ele><time>2026-04-21T13:09:08.998Z</time></trkpt><trkpt lat="45.49797759564663" lon="10.73310073882268"><ele>69.0</ele><time>2026-04-21T13:09:11.998Z</time></trkpt><trkpt lat="45.4980715172758" lon="10.733135249766852"><ele>69.0</ele><time>2026-04-21T13:09:14.998Z</time></trkpt><trkpt lat="45.49815039265131" lon="10.733161000697939"><ele>69.0</ele><time>2026-04-21T13:09:17.998Z</time></trkpt><trkpt lat="45.49822541920639" lon="10.733179159335622"><ele>69.0</ele><time>2026-04-21T13:09:19.998Z</time></trkpt><trkpt lat="45.49831704537303" lon="10.733194012368712"><ele>68.57142857142857</ele><time>2026-04-21T13:09:22.998Z</time></trkpt><trkpt lat="45.49839418623957" lon="10.73319633290114"><ele>68.14285714285715</ele><time>2026-04-21T13:09:25.998Z</time></trkpt><trkpt lat="45.49845782462474" lon="10.733173441868674"><ele>67.71428571428572</ele><time>2026-04-21T13:09:27.998Z</time></trkpt><trkpt lat="45.49852323072974" lon="10.733150836471287"><ele>67.28571428571429</ele><time>2026-04-21T13:09:31.998Z</time></trkpt><trkpt lat="45.49859666260197" lon="10.733150340263757"><ele>66.85714285714286</ele><time>2026-04-21T13:09:33.998Z</time></trkpt><trkpt lat="45.49866824477868" lon="10.73314338218472"><ele>66.42857142857143</ele><time>2026-04-21T13:09:35.998Z</time></trkpt><trkpt lat="45.498737800269986" lon="10.733126926484038"><ele>66.0</ele><time>2026-04-21T13:09:38.998Z</time></trkpt><trkpt lat="45.4988066505176" lon="10.733137552723324"><ele>65.5</ele><time>2026-04-21T13:09:40.998Z</time></trkpt><trkpt lat="45.498881341029744" lon="10.733137716082469"><ele>65.0</ele><time>2026-04-21T13:09:43Z</time></trkpt><trkpt lat="45.499144408412725" lon="10.733145394939731"><ele>64.5</ele><time>2026-04-21T13:09:45Z</time></trkpt><trkpt lat="45.499216716026446" lon="10.733142464101437"><ele>64.0</ele><time>2026-04-21T13:09:47Z</time></trkpt><trkpt lat="45.49928635255467" lon="10.73313368164569"><ele>63.99999999999999</ele><time>2026-04-21T13:09:49Z</time></trkpt><trkpt lat="45.49936950145736" lon="10.733135751992538"><ele>64.0</ele><time>2026-04-21T13:09:52Z</time></trkpt><trkpt lat="45.49946245170934" lon="10.733129076409016"><ele>64.0</ele><time>2026-04-21T13:09:55Z</time></trkpt><trkpt lat="45.49952986051332" lon="10.733105069893622"><ele>64.0</ele><time>2026-04-21T13:09:57Z</time></trkpt><trkpt lat="45.49960161727194" lon="10.733082449799495"><ele>63.99999999999999</ele><time>2026-04-21T13:09:59Z</time></trkpt><trkpt lat="45.49967331655756" lon="10.733057602057734"><ele>64.0</ele><time>2026-04-21T13:10:01Z</time></trkpt><trkpt lat="45.499740358593904" lon="10.7330314177381"><ele>64.5</ele><time>2026-04-21T13:10:03Z</time></trkpt><trkpt lat="45.499819449476746" lon="10.732994292192545"><ele>65.0</ele><time>2026-04-21T13:10:06Z</time></trkpt><trkpt lat="45.4998959277322" lon="10.732999079402553"><ele>65.5</ele><time>2026-04-21T13:10:09Z</time></trkpt><trkpt lat="45.49998353659129" lon="10.733009034312245"><ele>66.0</ele><time>2026-04-21T13:10:10.999Z</time></trkpt><trkpt lat="45.500058465271415" lon="10.732995727300581"><ele>66.5</ele><time>2026-04-21T13:10:13.999Z</time></trkpt><trkpt lat="45.500144717800396" lon="10.732974239950991"><ele>67.0</ele><time>2026-04-21T13:10:15.999Z</time></trkpt><trkpt lat="45.500328904117275" lon="10.732971600491835"><ele>67.0</ele><time>2026-04-21T13:10:17.999Z</time></trkpt><trkpt lat="45.500397080875445" lon="10.73293961256902"><ele>67.0</ele><time>2026-04-21T13:10:19.999Z</time></trkpt><trkpt lat="45.500469220074876" lon="10.73289465071037"><ele>67.0</ele><time>2026-04-21T13:10:21.999Z</time></trkpt><trkpt lat="45.50053501353631" lon="10.73284749947412"><ele>67.0</ele><time>2026-04-21T13:10:23.999Z</time></trkpt><trkpt lat="45.50060677551982" lon="10.732806779633627"><ele>67.0</ele><time>2026-04-21T13:10:25.999Z</time></trkpt><trkpt lat="45.50067937868426" lon="10.73276397266992"><ele>67.0</ele><time>2026-04-21T13:10:27.999Z</time></trkpt><trkpt lat="45.50075134474519" lon="10.732731192065792"><ele>66.5</ele><time>2026-04-21T13:10:29.999Z</time></trkpt><trkpt lat="45.50081778363653" lon="10.732683994734415"><ele>66.0</ele><time>2026-04-21T13:10:31.999Z</time></trkpt><trkpt lat="45.50089168413379" lon="10.732633428707283"><ele>65.5</ele><time>2026-04-21T13:10:34.999Z</time></trkpt><trkpt lat="45.50094887837005" lon="10.732577829884026"><ele>65.0</ele><time>2026-04-21T13:10:39.999Z</time></trkpt><trkpt lat="45.501028633688186" lon="10.73252521011266"><ele>64.5</ele><time>2026-04-21T13:10:43.999Z</time></trkpt><trkpt lat="45.50109830536952" lon="10.732461788206733"><ele>64.0</ele><time>2026-04-21T13:10:46.999Z</time></trkpt><trkpt lat="45.50117875254017" lon="10.732400223219821"><ele>63.99999999999999</ele><time>2026-04-21T13:10:49.999Z</time></trkpt><trkpt lat="45.50124134131734" lon="10.732351502892513"><ele>64.0</ele><time>2026-04-21T13:10:51.999Z</time></trkpt><trkpt lat="45.501312531458545" lon="10.732325004076168"><ele>64.0</ele><time>2026-04-21T13:10:53.999Z</time></trkpt><trkpt lat="45.50139699854102" lon="10.732284370024583"><ele>64.0</ele><time>2026-04-21T13:10:55.999Z</time></trkpt><trkpt lat="45.50146967167703" lon="10.732257618190403"><ele>63.99999999999999</ele><time>2026-04-21T13:10:57.999Z</time></trkpt><trkpt lat="45.501536923243094" lon="10.73219437575863"><ele>64.0</ele><time>2026-04-21T13:10:59.999Z</time></trkpt><trkpt lat="45.50160125105351" lon="10.732142421536686"><ele>64.16666666666666</ele><time>2026-04-21T13:11:02.999Z</time></trkpt><trkpt lat="45.50167356491763" lon="10.732183756315477"><ele>64.33333333333333</ele><time>2026-04-21T13:11:07.999Z</time></trkpt><trkpt lat="45.501711212245425" lon="10.732314305850764"><ele>64.5</ele><time>2026-04-21T13:11:11.998Z</time></trkpt><trkpt lat="45.50174600597538" lon="10.732395907095743"><ele>64.66666666666667</ele><time>2026-04-21T13:11:14.998Z</time></trkpt><trkpt lat="45.50176685107972" lon="10.732491028442984"><ele>64.83333333333334</ele><time>2026-04-21T13:11:16.998Z</time></trkpt><trkpt lat="45.50179219644196" lon="10.732610160156616"><ele>65.0</ele><time>2026-04-21T13:11:18.998Z</time></trkpt><trkpt lat="45.501812209797215" lon="10.732708622487262"><ele>65.4</ele><time>2026-04-21T13:11:20.998Z</time></trkpt><trkpt lat="45.501823334299246" lon="10.732885981596413"><ele>65.8</ele><time>2026-04-21T13:11:23.998Z</time></trkpt><trkpt lat="45.501886024014695" lon="10.733032825730225"><ele>66.2</ele><time>2026-04-21T13:11:27.998Z</time></trkpt><trkpt lat="45.501902964946034" lon="10.73312526550291"><ele>66.6</ele><time>2026-04-21T13:11:30.998Z</time></trkpt><trkpt lat="45.50195409784229" lon="10.73320592340043"><ele>67.0</ele><time>2026-04-21T13:11:33.998Z</time></trkpt><trkpt lat="45.50202844866315" lon="10.733203453115365"><ele>67.0</ele><time>2026-04-21T13:11:35.998Z</time></trkpt><trkpt lat="45.50209925271759" lon="10.733193406124174"><ele>67.0</ele><time>2026-04-21T13:11:37.998Z</time></trkpt><trkpt lat="45.50217524730695" lon="10.733176960709155"><ele>67.0</ele><time>2026-04-21T13:11:39.998Z</time></trkpt><trkpt lat="45.50225431463858" lon="10.733158207617246"><ele>67.0</ele><time>2026-04-21T13:11:41.998Z</time></trkpt><trkpt lat="45.50234253130232" lon="10.73313287143971"><ele>67.0</ele><time>2026-04-21T13:11:44.998Z</time></trkpt><trkpt lat="45.502408817694544" lon="10.73311957761328"><ele>67.0</ele><time>2026-04-21T13:11:46.998Z</time></trkpt><trkpt lat="45.50255521282343" lon="10.733122175555161"><ele>67.0</ele><time>2026-04-21T13:11:49Z</time></trkpt><trkpt lat="45.502641794627785" lon="10.733103247663172"><ele>67.0</ele><time>2026-04-21T13:11:51Z</time></trkpt><trkpt lat="45.502732236351406" lon="10.733070258481977"><ele>67.0</ele><time>2026-04-21T13:11:53Z</time></trkpt><trkpt lat="45.502814702293804" lon="10.733058045738535"><ele>67.0</ele><time>2026-04-21T13:11:55Z</time></trkpt><trkpt lat="45.502893902059206" lon="10.733047641584509"><ele>67.0</ele><time>2026-04-21T13:11:57Z</time></trkpt><trkpt lat="45.502975686851606" lon="10.73303261369659"><ele>67.0</ele><time>2026-04-21T13:11:59Z</time></trkpt><trkpt lat="45.50306547250146" lon="10.733028666419317"><ele>67.16666666666666</ele><time>2026-04-21T13:12:01Z</time></trkpt><trkpt lat="45.50315182443128" lon="10.733080707624026"><ele>67.33333333333333</ele><time>2026-04-21T13:12:03Z</time></trkpt><trkpt lat="45.50321243697171" lon="10.733171459749745"><ele>67.5</ele><time>2026-04-21T13:12:05Z</time></trkpt><trkpt lat="45.50321631303438" lon="10.733305487911654"><ele>67.66666666666667</ele><time>2026-04-21T13:12:07Z</time></trkpt><trkpt lat="45.503229805676966" lon="10.733417879751213"><ele>67.83333333333334</ele><time>2026-04-21T13:12:10Z</time></trkpt><trkpt lat="45.50329032012721" lon="10.733488492101964"><ele>68.0</ele><time>2026-04-21T13:12:13Z</time></trkpt><trkpt lat="45.50338678820565" lon="10.733481074104649"><ele>68.0</ele><time>2026-04-21T13:12:15.999Z</time></trkpt><trkpt lat="45.50346763056692" lon="10.733487948616562"><ele>68.0</ele><time>2026-04-21T13:12:17.999Z</time></trkpt><trkpt lat="45.50354581234733" lon="10.733461635045948"><ele>68.0</ele><time>2026-04-21T13:12:19.999Z</time></trkpt><trkpt lat="45.50361230064119" lon="10.733449722572825"><ele>68.0</ele><time>2026-04-21T13:12:21.999Z</time></trkpt><trkpt lat="45.503694419638855" lon="10.733422518683733"><ele>68.0</ele><time>2026-04-21T13:12:24.999Z</time></trkpt><trkpt lat="45.503770627738966" lon="10.733401150915398"><ele>68.0</ele><time>2026-04-21T13:12:27.999Z</time></trkpt><trkpt lat="45.503833393980265" lon="10.73336100617202"><ele>68.28571428571428</ele><time>2026-04-21T13:12:32.999Z</time></trkpt><trkpt lat="45.50390443070056" lon="10.733329675933307"><ele>68.57142857142857</ele><time>2026-04-21T13:12:37.999Z</time></trkpt><trkpt lat="45.50397132450195" lon="10.733314823029948"><ele>68.85714285714286</ele><time>2026-04-21T13:12:40.999Z</time></trkpt><trkpt lat="45.5040436380891" lon="10.73326952748056"><ele>69.14285714285714</ele><time>2026-04-21T13:12:43.999Z</time></trkpt><trkpt lat="45.50412076123354" lon="10.733292012261996"><ele>69.42857142857143</ele><time>2026-04-21T13:12:46.999Z</time></trkpt><trkpt lat="45.504189407946136" lon="10.733254168153731"><ele>69.71428571428571</ele><time>2026-04-21T13:12:52.999Z</time></trkpt><trkpt lat="45.504239876948475" lon="10.733183974218788"><ele>70.0</ele><time>2026-04-21T13:13:01.999Z</time></trkpt><trkpt lat="45.50430584926812" lon="10.733168990981076"><ele>70.0</ele><time>2026-04-21T13:13:07.999Z</time></trkpt><trkpt lat="45.5043939021229" lon="10.733175682970105"><ele>70.0</ele><time>2026-04-21T13:13:13.999Z</time></trkpt><trkpt lat="45.50444709821666" lon="10.733080850375599"><ele>70.0</ele><time>2026-04-21T13:13:19.998Z</time></trkpt><trkpt lat="45.50443857608177" lon="10.732954205713988"><ele>70.0</ele><time>2026-04-21T13:13:21.998Z</time></trkpt><trkpt lat="45.50443574745955" lon="10.732839354656758"><ele>70.0</ele><time>2026-04-21T13:13:23.998Z</time></trkpt><trkpt lat="45.504423861958315" lon="10.732717700415652"><ele>70.0</ele><time>2026-04-21T13:13:25.998Z</time></trkpt><trkpt lat="45.504403355620575" lon="10.732598342847819"><ele>70.0</ele><time>2026-04-21T13:13:27.998Z</time></trkpt><trkpt lat="45.50438966929774" lon="10.732482716547642"><ele>70.0</ele><time>2026-04-21T13:13:29.998Z</time></trkpt><trkpt lat="45.5043774607492" lon="10.732368216895958"><ele>70.0</ele><time>2026-04-21T13:13:31.998Z</time></trkpt><trkpt lat="45.504380253899" lon="10.732265745945837"><ele>70.0</ele><time>2026-04-21T13:13:33.998Z</time></trkpt><trkpt lat="45.50438738249542" lon="10.732172328501195"><ele>70.0</ele><time>2026-04-21T13:13:35.998Z</time></trkpt><trkpt lat="45.504516090906954" lon="10.732145283559829"><ele>70.0</ele><time>2026-04-21T13:13:39.998Z</time></trkpt><trkpt lat="45.504593507691695" lon="10.732161870752288"><ele>70.0</ele><time>2026-04-21T13:13:41.998Z</time></trkpt><trkpt lat="45.504686757697954" lon="10.732181850818593"><ele>70.0</ele><time>2026-04-21T13:13:43.998Z</time></trkpt><trkpt lat="45.504868747359595" lon="10.732186422175845"><ele>70.0</ele><time>2026-04-21T13:13:47.998Z</time></trkpt><trkpt lat="45.50494097062192" lon="10.732223309116623"><ele>70.0</ele><time>2026-04-21T13:13:49.998Z</time></trkpt><trkpt lat="45.50501568430406" lon="10.732269950358138"><ele>70.0</ele><time>2026-04-21T13:13:53.998Z</time></trkpt><trkpt lat="45.505088459524586" lon="10.732276009306098"><ele>70.0</ele><time>2026-04-21T13:13:57Z</time></trkpt><trkpt lat="45.50515706874502" lon="10.732259669358655"><ele>70.0</ele><time>2026-04-21T13:14:00Z</time></trkpt><trkpt lat="45.5051914921467" lon="10.732148833945766"><ele>70.0</ele><time>2026-04-21T13:14:03Z</time></trkpt><trkpt lat="45.5052401189529" lon="10.732064767539663"><ele>70.0</ele><time>2026-04-21T13:14:06Z</time></trkpt><trkpt lat="45.5052965669067" lon="10.731964540495747"><ele>70.0</ele><time>2026-04-21T13:14:08Z</time></trkpt><trkpt lat="45.505338156294464" lon="10.731868897710319"><ele>70.0</ele><time>2026-04-21T13:14:13Z</time></trkpt><trkpt lat="45.50533301936691" lon="10.731767439938572"><ele>69.85714285714286</ele><time>2026-04-21T13:14:17.999Z</time></trkpt><trkpt lat="45.505350655549684" lon="10.7316727626733"><ele>69.71428571428572</ele><time>2026-04-21T13:14:25.999Z</time></trkpt><trkpt lat="45.50535515280965" lon="10.731576969004823"><ele>69.57142857142857</ele><time>2026-04-21T13:14:32.999Z</time></trkpt><trkpt lat="45.50535719141154" lon="10.731486614655495"><ele>69.42857142857143</ele><time>2026-04-21T13:14:39.999Z</time></trkpt><trkpt lat="45.50535050468839" lon="10.731373888485967"><ele>69.28571428571429</ele><time>2026-04-21T13:14:46.999Z</time></trkpt><trkpt lat="45.505349477658996" lon="10.731274111152873"><ele>69.14285714285714</ele><time>2026-04-21T13:14:50.999Z</time></trkpt><trkpt lat="45.505351719917215" lon="10.731175222633153"><ele>69.0</ele><time>2026-04-21T13:14:55.999Z</time></trkpt><trkpt lat="45.50535336155567" lon="10.731079248176712"><ele>68.33333333333333</ele><time>2026-04-21T13:15:00.999Z</time></trkpt><trkpt lat="45.505429578425165" lon="10.731055136153316"><ele>67.66666666666667</ele><time>2026-04-21T13:15:04.999Z</time></trkpt><trkpt lat="45.50551727844895" lon="10.731056559349122"><ele>67.0</ele><time>2026-04-21T13:15:07.999Z</time></trkpt><trkpt lat="45.50559893035814" lon="10.731025116379959"><ele>66.33333333333334</ele><time>2026-04-21T13:15:10.999Z</time></trkpt><trkpt lat="45.50568944442661" lon="10.730992815549042"><ele>65.66666666666667</ele><time>2026-04-21T13:15:13.999Z</time></trkpt><trkpt lat="45.50576901790837" lon="10.730976785077614"><ele>65.0</ele><time>2026-04-21T13:15:15.999Z</time></trkpt><trkpt lat="45.50583147349477" lon="10.730964819015918"><ele>65.0</ele><time>2026-04-21T13:15:17.998Z</time></trkpt><trkpt lat="45.50590313501789" lon="10.730972501373806"><ele>65.0</ele><time>2026-04-21T13:15:18.998Z</time></trkpt><trkpt lat="45.50598687446436" lon="10.730942699746912"><ele>65.0</ele><time>2026-04-21T13:15:20.998Z</time></trkpt><trkpt lat="45.50605515671605" lon="10.730882496565348"><ele>65.0</ele><time>2026-04-21T13:15:22.998Z</time></trkpt><trkpt lat="45.5061435958814" lon="10.730857561314702"><ele>65.0</ele><time>2026-04-21T13:15:24.998Z</time></trkpt><trkpt lat="45.5062214567708" lon="10.730860241128998"><ele>65.0</ele><time>2026-04-21T13:15:27.998Z</time></trkpt><trkpt lat="45.50630755299966" lon="10.73086562972034"><ele>64.71428571428572</ele><time>2026-04-21T13:15:30.998Z</time></trkpt><trkpt lat="45.50637066910186" lon="10.73089207783732"><ele>64.42857142857143</ele><time>2026-04-21T13:15:34.998Z</time></trkpt><trkpt lat="45.506436430114" lon="10.730881426582107"><ele>64.14285714285714</ele><time>2026-04-21T13:15:38.998Z</time></trkpt><trkpt lat="45.506500601255624" lon="10.730913461053937"><ele>63.85714285714286</ele><time>2026-04-21T13:15:43.998Z</time></trkpt><trkpt lat="45.506568217353" lon="10.730919004747198"><ele>63.57142857142857</ele><time>2026-04-21T13:15:48.998Z</time></trkpt><trkpt lat="45.506636922698355" lon="10.730908689836603"><ele>63.285714285714285</ele><time>2026-04-21T13:15:52.998Z</time></trkpt><trkpt lat="45.5067138337407" lon="10.730922261941581"><ele>63.0</ele><time>2026-04-21T13:15:54.998Z</time></trkpt><trkpt lat="45.50677750099591" lon="10.73093502855941"><ele>63.0</ele><time>2026-04-21T13:15:55.998Z</time></trkpt><trkpt lat="45.50685092219056" lon="10.730933636106334"><ele>63.0</ele><time>2026-04-21T13:15:57.998Z</time></trkpt><trkpt lat="45.506953011066926" lon="10.730985467605542"><ele>63.0</ele><time>2026-04-21T13:15:59.998Z</time></trkpt><trkpt lat="45.50700816590321" lon="10.73104458572992"><ele>63.0</ele><time>2026-04-21T13:16:02Z</time></trkpt><trkpt lat="45.50709199134546" lon="10.731082247974628"><ele>63.0</ele><time>2026-04-21T13:16:04Z</time></trkpt><trkpt lat="45.50719649494952" lon="10.731137770270491"><ele>63.4</ele><time>2026-04-21T13:16:05Z</time></trkpt><trkpt lat="45.5073029970721" lon="10.731164532626307"><ele>63.8</ele><time>2026-04-21T13:16:07Z</time></trkpt><trkpt lat="45.5074086898922" lon="10.731179925068233"><ele>64.2</ele><time>2026-04-21T13:16:09Z</time></trkpt><trkpt lat="45.50750999417478" lon="10.731216050708083"><ele>64.6</ele><time>2026-04-21T13:16:11Z</time></trkpt><trkpt lat="45.50761169474029" lon="10.731255946992382"><ele>65.0</ele><time>2026-04-21T13:16:13Z</time></trkpt><trkpt lat="45.50771160264714" lon="10.731299817388585"><ele>65.0</ele><time>2026-04-21T13:16:15Z</time></trkpt><trkpt lat="45.507800351816684" lon="10.731382391083047"><ele>65.0</ele><time>2026-04-21T13:16:17Z</time></trkpt><trkpt lat="45.507874408940125" lon="10.731475346716664"><ele>65.0</ele><time>2026-04-21T13:16:19Z</time></trkpt><trkpt lat="45.50795946145546" lon="10.7315508171864"><ele>65.0</ele><time>2026-04-21T13:16:21Z</time></trkpt><trkpt lat="45.508063593439125" lon="10.731553394189495"><ele>65.0</ele><time>2026-04-21T13:16:22.999Z</time></trkpt><trkpt lat="45.50815509533289" lon="10.731506419536688"><ele>65.0</ele><time>2026-04-21T13:16:24.999Z</time></trkpt><trkpt lat="45.508222983143625" lon="10.731413607257117"><ele>65.0</ele><time>2026-04-21T13:16:26.999Z</time></trkpt><trkpt lat="45.50828181357323" lon="10.731334720567203"><ele>65.0</ele><time>2026-04-21T13:16:29.999Z</time></trkpt><trkpt lat="45.50844573715671" lon="10.731318420929597"><ele>65.0</ele><time>2026-04-21T13:16:31.999Z</time></trkpt><trkpt lat="45.5085466490129" lon="10.731330019693523"><ele>65.0</ele><time>2026-04-21T13:16:33.999Z</time></trkpt><trkpt lat="45.508634775261875" lon="10.731320745457548"><ele>65.0</ele><time>2026-04-21T13:16:35.999Z</time></trkpt><trkpt lat="45.508721298200285" lon="10.731325684889287"><ele>65.0</ele><time>2026-04-21T13:16:37.999Z</time></trkpt><trkpt lat="45.50880044196788" lon="10.731328480457357"><ele>65.0</ele><time>2026-04-21T13:16:39.999Z</time></trkpt><trkpt lat="45.50888619413354" lon="10.73128530391517"><ele>65.0</ele><time>2026-04-21T13:16:42.999Z</time></trkpt><trkpt lat="45.50895703014464" lon="10.731286641587866"><ele>65.0</ele><time>2026-04-21T13:16:44.999Z</time></trkpt><trkpt lat="45.509040477064865" lon="10.731305520360058"><ele>65.0</ele><time>2026-04-21T13:16:46.999Z</time></trkpt><trkpt lat="45.50913542272037" lon="10.731294730650154"><ele>65.0</ele><time>2026-04-21T13:16:48.999Z</time></trkpt><trkpt lat="45.50922620433689" lon="10.731255796422115"><ele>65.0</ele><time>2026-04-21T13:16:50.999Z</time></trkpt><trkpt lat="45.50933139438091" lon="10.731247509973771"><ele>65.0</ele><time>2026-04-21T13:16:52.999Z</time></trkpt><trkpt lat="45.50943370848618" lon="10.731258309650999"><ele>65.0</ele><time>2026-04-21T13:16:55.999Z</time></trkpt><trkpt lat="45.50962959186" lon="10.731278074964598"><ele>65.2</ele><time>2026-04-21T13:16:58.999Z</time></trkpt><trkpt lat="45.50971779263573" lon="10.731278216328757"><ele>65.4</ele><time>2026-04-21T13:17:00.999Z</time></trkpt><trkpt lat="45.50980745995801" lon="10.731275347073387"><ele>65.6</ele><time>2026-04-21T13:17:02.999Z</time></trkpt><trkpt lat="45.50990612259061" lon="10.731263304611668"><ele>65.8</ele><time>2026-04-21T13:17:04.999Z</time></trkpt><trkpt lat="45.51002167444369" lon="10.731244542116004"><ele>66.0</ele><time>2026-04-21T13:17:06.999Z</time></trkpt><trkpt lat="45.51013557239274" lon="10.731232571237445"><ele>66.0</ele><time>2026-04-21T13:17:08.999Z</time></trkpt><trkpt lat="45.51023849827268" lon="10.73121102629232"><ele>66.0</ele><time>2026-04-21T13:17:10.999Z</time></trkpt><trkpt lat="45.51033758031903" lon="10.731199286461907"><ele>66.0</ele><time>2026-04-21T13:17:12.999Z</time></trkpt><trkpt lat="45.510424019051726" lon="10.73120261931079"><ele>66.0</ele><time>2026-04-21T13:17:14.999Z</time></trkpt><trkpt lat="45.51050589805006" lon="10.731156206900023"><ele>66.0</ele><time>2026-04-21T13:17:16.999Z</time></trkpt><trkpt lat="45.510618424409394" lon="10.731129036566724"><ele>66.0</ele><time>2026-04-21T13:17:18.999Z</time></trkpt><trkpt lat="45.51072841318106" lon="10.731111238162"><ele>66.0</ele><time>2026-04-21T13:17:20.999Z</time></trkpt><trkpt lat="45.51079294355728" lon="10.731104051750602"><ele>66.0</ele><time>2026-04-21T13:17:21.999Z</time></trkpt><trkpt lat="45.51091746320759" lon="10.731083524470078"><ele>66.0</ele><time>2026-04-21T13:17:23.999Z</time></trkpt><trkpt lat="45.510983653028106" lon="10.73107977119729"><ele>66.0</ele><time>2026-04-21T13:17:24.998Z</time></trkpt><trkpt lat="45.511046858997226" lon="10.731075413574885"><ele>66.0</ele><time>2026-04-21T13:17:25.998Z</time></trkpt><trkpt lat="45.511165193043205" lon="10.731052231817896"><ele>65.8</ele><time>2026-04-21T13:17:27.998Z</time></trkpt><trkpt lat="45.51128639231539" lon="10.731025094882328"><ele>65.6</ele><time>2026-04-21T13:17:29.998Z</time></trkpt><trkpt lat="45.51140424360539" lon="10.731009336848304"><ele>65.4</ele><time>2026-04-21T13:17:31.998Z</time></trkpt><trkpt lat="45.51151932676318" lon="10.730975160533434"><ele>65.2</ele><time>2026-04-21T13:17:33.998Z</time></trkpt><trkpt lat="45.511582246635946" lon="10.730958896873023"><ele>65.0</ele><time>2026-04-21T13:17:34.998Z</time></trkpt><trkpt lat="45.51169800292334" lon="10.730935486382494"><ele>65.0</ele><time>2026-04-21T13:17:36.998Z</time></trkpt><trkpt lat="45.511806323463055" lon="10.730903108472496"><ele>65.0</ele><time>2026-04-21T13:17:38.998Z</time></trkpt><trkpt lat="45.511919236481184" lon="10.730878042335446"><ele>65.0</ele><time>2026-04-21T13:17:40.998Z</time></trkpt><trkpt lat="45.51202047528877" lon="10.730840185545727"><ele>65.0</ele><time>2026-04-21T13:17:42.998Z</time></trkpt><trkpt lat="45.512106863270446" lon="10.730830655252555"><ele>65.0</ele><time>2026-04-21T13:17:44.998Z</time></trkpt><trkpt lat="45.51218118314594" lon="10.73081047792286"><ele>65.00000000000001</ele><time>2026-04-21T13:17:46.998Z</time></trkpt><trkpt lat="45.51224667342428" lon="10.730791521460405"><ele>65.0</ele><time>2026-04-21T13:17:48.998Z</time></trkpt><trkpt lat="45.51230906894524" lon="10.73076364807416"><ele>65.0</ele><time>2026-04-21T13:17:51.998Z</time></trkpt><trkpt lat="45.512389945176615" lon="10.730737047002195"><ele>65.0</ele><time>2026-04-21T13:17:53.998Z</time></trkpt><trkpt lat="45.51245309241584" lon="10.730734039372077"><ele>65.0</ele><time>2026-04-21T13:17:57.998Z</time></trkpt><trkpt lat="45.51251807021513" lon="10.730707024327366"><ele>65.00000000000001</ele><time>2026-04-21T13:18:00.998Z</time></trkpt><trkpt lat="45.51260118244591" lon="10.730680672614819"><ele>65.0</ele><time>2026-04-21T13:18:02.998Z</time></trkpt><trkpt lat="45.51269066196645" lon="10.730658906837673"><ele>65.0</ele><time>2026-04-21T13:18:04.998Z</time></trkpt><trkpt lat="45.51278052506601" lon="10.730635811079262"><ele>65.0</ele><time>2026-04-21T13:18:07Z</time></trkpt><trkpt lat="45.51286620198456" lon="10.730625144092325"><ele>65.0</ele><time>2026-04-21T13:18:09Z</time></trkpt><trkpt lat="45.512943301403425" lon="10.730630417835881"><ele>65.0</ele><time>2026-04-21T13:18:11Z</time></trkpt><trkpt lat="45.51302554243572" lon="10.730630296737477"><ele>65.0</ele><time>2026-04-21T13:18:13Z</time></trkpt><trkpt lat="45.513109097863435" lon="10.73066714254055"><ele>65.0</ele><time>2026-04-21T13:18:15Z</time></trkpt><trkpt lat="45.51320359805895" lon="10.730677262524454"><ele>66.0</ele><time>2026-04-21T13:18:17Z</time></trkpt><trkpt lat="45.51330505350715" lon="10.730681851791124"><ele>67.0</ele><time>2026-04-21T13:18:19Z</time></trkpt><trkpt lat="45.5134053506852" lon="10.730702940835425"><ele>68.0</ele><time>2026-04-21T13:18:21Z</time></trkpt><trkpt lat="45.51350791390192" lon="10.730657749692368"><ele>69.0</ele><time>2026-04-21T13:18:23Z</time></trkpt><trkpt lat="45.513608800766825" lon="10.73060736950509"><ele>70.0</ele><time>2026-04-21T13:18:25Z</time></trkpt><trkpt lat="45.51370245945292" lon="10.73058502751066"><ele>70.5</ele><time>2026-04-21T13:18:26.999Z</time></trkpt><trkpt lat="45.51378473908646" lon="10.7305464217995"><ele>71.0</ele><time>2026-04-21T13:18:28.999Z</time></trkpt><trkpt lat="45.51386142144027" lon="10.730509574620891"><ele>71.5</ele><time>2026-04-21T13:18:30.999Z</time></trkpt><trkpt lat="45.513937822093006" lon="10.730469258617081"><ele>72.0</ele><time>2026-04-21T13:18:32.999Z</time></trkpt><trkpt lat="45.51401916343311" lon="10.730425006375738"><ele>72.5</ele><time>2026-04-21T13:18:34.999Z</time></trkpt><trkpt lat="45.51411345416732" lon="10.730369563515564"><ele>73.0</ele><time>2026-04-21T13:18:36.999Z</time></trkpt><trkpt lat="45.51422171620107" lon="10.730299452808591"><ele>73.0</ele><time>2026-04-21T13:18:38.999Z</time></trkpt><trkpt lat="45.51430154409564" lon="10.730249502941396"><ele>73.0</ele><time>2026-04-21T13:18:40.999Z</time></trkpt><trkpt lat="45.51441017409386" lon="10.730188476625642"><ele>73.0</ele><time>2026-04-21T13:18:42.999Z</time></trkpt><trkpt lat="45.514526682009695" lon="10.73014389258596"><ele>73.0</ele><time>2026-04-21T13:18:44.999Z</time></trkpt><trkpt lat="45.514633021030214" lon="10.73011940187189"><ele>73.0</ele><time>2026-04-21T13:18:46.999Z</time></trkpt><trkpt lat="45.51474459945315" lon="10.730097104664322"><ele>70.25</ele><time>2026-04-21T13:18:48.999Z</time></trkpt><trkpt lat="45.514849667650374" lon="10.730071809702231"><ele>67.5</ele><time>2026-04-21T13:18:50.999Z</time></trkpt><trkpt lat="45.51500022116288" lon="10.730007348134496"><ele>64.75</ele><time>2026-04-21T13:18:53.999Z</time></trkpt><trkpt lat="45.515096376713686" lon="10.729951845822631"><ele>62.0</ele><time>2026-04-21T13:18:55.999Z</time></trkpt><trkpt lat="45.51519099264698" lon="10.729880353003841"><ele>62.0</ele><time>2026-04-21T13:18:57.999Z</time></trkpt><trkpt lat="45.5152894456254" lon="10.729822216010636"><ele>62.0</ele><time>2026-04-21T13:18:59.999Z</time></trkpt><trkpt lat="45.515380913902945" lon="10.729788450895736"><ele>62.0</ele><time>2026-04-21T13:19:01.999Z</time></trkpt><trkpt lat="45.515470582804525" lon="10.72977613690154"><ele>62.0</ele><time>2026-04-21T13:19:03.999Z</time></trkpt><trkpt lat="45.51557818366899" lon="10.729775276363517"><ele>62.0</ele><time>2026-04-21T13:19:05.999Z</time></trkpt><trkpt lat="45.515692366287304" lon="10.729773467493715"><ele>63.0</ele><time>2026-04-21T13:19:07.999Z</time></trkpt><trkpt lat="45.51580420659067" lon="10.729762679880935"><ele>64.0</ele><time>2026-04-21T13:19:09.999Z</time></trkpt><trkpt lat="45.51591323928227" lon="10.729735653760747"><ele>65.0</ele><time>2026-04-21T13:19:11.999Z</time></trkpt><trkpt lat="45.51602285405115" lon="10.72972889842115"><ele>66.0</ele><time>2026-04-21T13:19:13.999Z</time></trkpt><trkpt lat="45.51613463159691" lon="10.729715819753574"><ele>67.0</ele><time>2026-04-21T13:19:15.999Z</time></trkpt><trkpt lat="45.51624035425832" lon="10.729701344221487"><ele>67.8</ele><time>2026-04-21T13:19:17.999Z</time></trkpt><trkpt lat="45.516334922911085" lon="10.729741231632815"><ele>68.6</ele><time>2026-04-21T13:19:20.999Z</time></trkpt><trkpt lat="45.51645320230781" lon="10.729731562749846"><ele>69.39999999999999</ele><time>2026-04-21T13:19:22.999Z</time></trkpt><trkpt lat="45.5165364208683" lon="10.729674974866914"><ele>70.2</ele><time>2026-04-21T13:19:24.999Z</time></trkpt><trkpt lat="45.51661858317784" lon="10.729599913410082"><ele>71.0</ele><time>2026-04-21T13:19:26.998Z</time></trkpt><trkpt lat="45.516689289234165" lon="10.72947264062196"><ele>70.2</ele><time>2026-04-21T13:19:28.998Z</time></trkpt><trkpt lat="45.51677081500156" lon="10.729380593112408"><ele>69.39999999999999</ele><time>2026-04-21T13:19:30.998Z</time></trkpt><trkpt lat="45.51686432439506" lon="10.729326443415111"><ele>68.6</ele><time>2026-04-21T13:19:32.998Z</time></trkpt><trkpt lat="45.516963327181095" lon="10.729332477123952"><ele>67.8</ele><time>2026-04-21T13:19:34.998Z</time></trkpt><trkpt lat="45.517057251466895" lon="10.729330546774303"><ele>67.0</ele><time>2026-04-21T13:19:36.998Z</time></trkpt><trkpt lat="45.51715335058707" lon="10.729313728408021"><ele>67.0</ele><time>2026-04-21T13:19:38.998Z</time></trkpt><trkpt lat="45.51724237255605" lon="10.729299466501502"><ele>67.0</ele><time>2026-04-21T13:19:40.998Z</time></trkpt><trkpt lat="45.51734817171711" lon="10.729292885902952"><ele>67.0</ele><time>2026-04-21T13:19:42.998Z</time></trkpt><trkpt lat="45.5174464766822" lon="10.72925689912894"><ele>67.0</ele><time>2026-04-21T13:19:44.998Z</time></trkpt><trkpt lat="45.51754534114753" lon="10.729215906731701"><ele>67.0</ele><time>2026-04-21T13:19:46.998Z</time></trkpt><trkpt lat="45.51763393596945" lon="10.729159243273287"><ele>67.0</ele><time>2026-04-21T13:19:48.998Z</time></trkpt><trkpt lat="45.51772590590965" lon="10.729108932832437"><ele>67.0</ele><time>2026-04-21T13:19:50.998Z</time></trkpt><trkpt lat="45.517822282615754" lon="10.729063103238438"><ele>67.0</ele><time>2026-04-21T13:19:52.998Z</time></trkpt><trkpt lat="45.51791863006822" lon="10.729017248689376"><ele>67.0</ele><time>2026-04-21T13:19:54.998Z</time></trkpt><trkpt lat="45.518020009145864" lon="10.728980520311381"><ele>67.0</ele><time>2026-04-21T13:19:56.998Z</time></trkpt><trkpt lat="45.518128472497594" lon="10.728939862669462"><ele>68.75</ele><time>2026-04-21T13:19:58.998Z</time></trkpt><trkpt lat="45.51822201013749" lon="10.728891100938062"><ele>70.5</ele><time>2026-04-21T13:20:00.998Z</time></trkpt><trkpt lat="45.51828952074681" lon="10.728807669911738"><ele>72.25</ele><time>2026-04-21T13:20:02.998Z</time></trkpt><trkpt lat="45.518373874517515" lon="10.728742478378628"><ele>74.0</ele><time>2026-04-21T13:20:04.998Z</time></trkpt><trkpt lat="45.51855060079171" lon="10.728694697990594"><ele>74.0</ele><time>2026-04-21T13:20:07.998Z</time></trkpt><trkpt lat="45.51865768106182" lon="10.72865395815853"><ele>74.0</ele><time>2026-04-21T13:20:09.998Z</time></trkpt><trkpt lat="45.51876280142764" lon="10.728626081896458"><ele>74.0</ele><time>2026-04-21T13:20:12Z</time></trkpt><trkpt lat="45.518861563519614" lon="10.728583076015845"><ele>74.0</ele><time>2026-04-21T13:20:14Z</time></trkpt><trkpt lat="45.51895772013373" lon="10.728515939709764"><ele>74.0</ele><time>2026-04-21T13:20:16Z</time></trkpt><trkpt lat="45.51905866154476" lon="10.72847399411035"><ele>72.4</ele><time>2026-04-21T13:20:18Z</time></trkpt><trkpt lat="45.519166410564274" lon="10.728436082500814"><ele>70.80000000000001</ele><time>2026-04-21T13:20:20Z</time></trkpt><trkpt lat="45.51928127150351" lon="10.728389713656519"><ele>69.19999999999999</ele><time>2026-04-21T13:20:22Z</time></trkpt><trkpt lat="45.519380657555175" lon="10.728360564703117"><ele>67.6</ele><time>2026-04-21T13:20:24Z</time></trkpt><trkpt lat="45.51944796512761" lon="10.728333177893234"><ele>66.0</ele><time>2026-04-21T13:20:26Z</time></trkpt><trkpt lat="45.51952914710136" lon="10.728302922069494"><ele>67.14285714285714</ele><time>2026-04-21T13:20:28Z</time></trkpt><trkpt lat="45.51959288209486" lon="10.728251877471813"><ele>68.28571428571429</ele><time>2026-04-21T13:20:31Z</time></trkpt><trkpt lat="45.51965372685041" lon="10.72822399283857"><ele>69.42857142857143</ele><time>2026-04-21T13:20:34.999Z</time></trkpt><trkpt lat="45.51972384581172" lon="10.728203506084864"><ele>70.57142857142857</ele><time>2026-04-21T13:20:39.999Z</time></trkpt><trkpt lat="45.5197862329807" lon="10.728181662176606"><ele>71.71428571428571</ele><time>2026-04-21T13:20:45.999Z</time></trkpt><trkpt lat="45.51986130114507" lon="10.728137489004776"><ele>72.85714285714286</ele><time>2026-04-21T13:20:49.999Z</time></trkpt><trkpt lat="45.519919966432866" lon="10.728086967939689"><ele>74.0</ele><time>2026-04-21T13:20:51.999Z</time></trkpt><trkpt lat="45.51999942909768" lon="10.728050809742708"><ele>74.0</ele><time>2026-04-21T13:20:53.999Z</time></trkpt><trkpt lat="45.520084582114634" lon="10.728001388457367"><ele>74.0</ele><time>2026-04-21T13:20:55.999Z</time></trkpt><trkpt lat="45.52017644645097" lon="10.727959380528167"><ele>74.0</ele><time>2026-04-21T13:20:57.999Z</time></trkpt><trkpt lat="45.520274930981" lon="10.727903699326015"><ele>74.0</ele><time>2026-04-21T13:20:59.999Z</time></trkpt><trkpt lat="45.52037699756479" lon="10.727831188636229"><ele>74.0</ele><time>2026-04-21T13:21:01.999Z</time></trkpt><trkpt lat="45.52047532445359" lon="10.727770850275508"><ele>72.2</ele><time>2026-04-21T13:21:03.999Z</time></trkpt><trkpt lat="45.52057971769697" lon="10.7277139230949"><ele>70.4</ele><time>2026-04-21T13:21:05.999Z</time></trkpt><trkpt lat="45.52068589500329" lon="10.727679695068522"><ele>68.6</ele><time>2026-04-21T13:21:07.999Z</time></trkpt><trkpt lat="45.52080196493553" lon="10.727649223344908"><ele>66.8</ele><time>2026-04-21T13:21:09.999Z</time></trkpt><trkpt lat="45.520909684351814" lon="10.727637596743563"><ele>65.0</ele><time>2026-04-21T13:21:11.999Z</time></trkpt><trkpt lat="45.521013315187886" lon="10.727605694802854"><ele>65.0</ele><time>2026-04-21T13:21:13.999Z</time></trkpt><trkpt lat="45.5211155912532" lon="10.727590854572119"><ele>65.0</ele><time>2026-04-21T13:21:15.999Z</time></trkpt><trkpt lat="45.521192138069146" lon="10.727582466652688"><ele>65.0</ele><time>2026-04-21T13:21:17.999Z</time></trkpt><trkpt lat="45.52128774207701" lon="10.727562907570858"><ele>65.0</ele><time>2026-04-21T13:21:19.999Z</time></trkpt><trkpt lat="45.521374426671706" lon="10.727552197926164"><ele>65.0</ele><time>2026-04-21T13:21:21.999Z</time></trkpt><trkpt lat="45.52144959576759" lon="10.727532649322516"><ele>65.0</ele><time>2026-04-21T13:21:23.999Z</time></trkpt><trkpt lat="45.52155135521936" lon="10.727525329309435"><ele>65.4</ele><time>2026-04-21T13:21:25.999Z</time></trkpt><trkpt lat="45.5216530028189" lon="10.727511004598629"><ele>65.8</ele><time>2026-04-21T13:21:27.999Z</time></trkpt><trkpt lat="45.521763519844484" lon="10.727490453991974"><ele>66.2</ele><time>2026-04-21T13:21:29.999Z</time></trkpt><trkpt lat="45.52187871466962" lon="10.72746974012332"><ele>66.6</ele><time>2026-04-21T13:21:31.999Z</time></trkpt><trkpt lat="45.52199709536888" lon="10.727457128263975"><ele>67.0</ele><time>2026-04-21T13:21:33.998Z</time></trkpt><trkpt lat="45.52210999875656" lon="10.727436938891222"><ele>67.5</ele><time>2026-04-21T13:21:35.998Z</time></trkpt><trkpt lat="45.52222291897688" lon="10.727413634102717"><ele>68.0</ele><time>2026-04-21T13:21:37.998Z</time></trkpt><trkpt lat="45.522337072017365" lon="10.727401571155271"><ele>68.5</ele><time>2026-04-21T13:21:39.998Z</time></trkpt><trkpt lat="45.52245260212225" lon="10.727382081144292"><ele>69.0</ele><time>2026-04-21T13:21:41.998Z</time></trkpt><trkpt lat="45.522570656315" lon="10.727365982963827"><ele>69.0</ele><time>2026-04-21T13:21:43.998Z</time></trkpt><trkpt lat="45.52268785760028" lon="10.727350679168834"><ele>69.0</ele><time>2026-04-21T13:21:45.998Z</time></trkpt><trkpt lat="45.52280745528924" lon="10.727338594537102"><ele>69.0</ele><time>2026-04-21T13:21:47.998Z</time></trkpt><trkpt lat="45.522923829871324" lon="10.72732347024944"><ele>69.0</ele><time>2026-04-21T13:21:49.998Z</time></trkpt><trkpt lat="45.52303978202441" lon="10.727314497671085"><ele>69.25</ele><time>2026-04-21T13:21:51.998Z</time></trkpt><trkpt lat="45.52315706811017" lon="10.727298690459726"><ele>69.5</ele><time>2026-04-21T13:21:53.998Z</time></trkpt><trkpt lat="45.523274857270174" lon="10.727281865705866"><ele>69.75</ele><time>2026-04-21T13:21:55.998Z</time></trkpt><trkpt lat="45.523386937353166" lon="10.72726474880727"><ele>70.0</ele><time>2026-04-21T13:21:57.998Z</time></trkpt><trkpt lat="45.52350337490932" lon="10.727247912202978"><ele>70.0</ele><time>2026-04-21T13:21:59.998Z</time></trkpt><trkpt lat="45.5236203227593" lon="10.727236447683024"><ele>70.0</ele><time>2026-04-21T13:22:01.998Z</time></trkpt><trkpt lat="45.5237234691826" lon="10.727227307449372"><ele>70.0</ele><time>2026-04-21T13:22:03.998Z</time></trkpt><trkpt lat="45.52383280828787" lon="10.7272150761241"><ele>70.0</ele><time>2026-04-21T13:22:05.998Z</time></trkpt><trkpt lat="45.52393058368669" lon="10.727214158173593"><ele>70.0</ele><time>2026-04-21T13:22:07.998Z</time></trkpt><trkpt lat="45.524052278425145" lon="10.727216807869471"><ele>70.6</ele><time>2026-04-21T13:22:09.998Z</time></trkpt><trkpt lat="45.524149795909416" lon="10.727201258885787"><ele>71.2</ele><time>2026-04-21T13:22:11.998Z</time></trkpt><trkpt lat="45.524243959831864" lon="10.727186536260263"><ele>71.8</ele><time>2026-04-21T13:22:13.998Z</time></trkpt><trkpt lat="45.52433719099429" lon="10.72718103116348"><ele>72.4</ele><time>2026-04-21T13:22:15.998Z</time></trkpt><trkpt lat="45.524438080411116" lon="10.727154180373102"><ele>73.0</ele><time>2026-04-21T13:22:18Z</time></trkpt><trkpt lat="45.524538556851915" lon="10.727129330850868"><ele>72.6</ele><time>2026-04-21T13:22:20Z</time></trkpt><trkpt lat="45.52462051866466" lon="10.727113678269129"><ele>72.19999999999999</ele><time>2026-04-21T13:22:22Z</time></trkpt><trkpt lat="45.52471213900832" lon="10.727077930105274"><ele>71.8</ele><time>2026-04-21T13:22:24Z</time></trkpt><trkpt lat="45.524805352147595" lon="10.727043670994044"><ele>71.39999999999999</ele><time>2026-04-21T13:22:26Z</time></trkpt><trkpt lat="45.52490637607597" lon="10.727019858309374"><ele>71.0</ele><time>2026-04-21T13:22:28Z</time></trkpt><trkpt lat="45.524999054278766" lon="10.727013684414569"><ele>71.0</ele><time>2026-04-21T13:22:30Z</time></trkpt><trkpt lat="45.525090266009165" lon="10.727015685430048"><ele>71.0</ele><time>2026-04-21T13:22:32Z</time></trkpt><trkpt lat="45.525175246155065" lon="10.727062536465601"><ele>71.0</ele><time>2026-04-21T13:22:34Z</time></trkpt><trkpt lat="45.52526572019468" lon="10.727094834452515"><ele>71.0</ele><time>2026-04-21T13:22:36Z</time></trkpt><trkpt lat="45.52536540200704" lon="10.727134567041485"><ele>71.0</ele><time>2026-04-21T13:22:37.999Z</time></trkpt><trkpt lat="45.52545192085784" lon="10.727163970758129"><ele>70.39999999999999</ele><time>2026-04-21T13:22:39.999Z</time></trkpt><trkpt lat="45.525550034311884" lon="10.72713841334484"><ele>69.8</ele><time>2026-04-21T13:22:41.999Z</time></trkpt><trkpt lat="45.52564042801544" lon="10.727128666210378"><ele>69.19999999999999</ele><time>2026-04-21T13:22:43.999Z</time></trkpt><trkpt lat="45.52572838353105" lon="10.727109795138032"><ele>68.6</ele><time>2026-04-21T13:22:45.999Z</time></trkpt><trkpt lat="45.52582099650793" lon="10.727087088098278"><ele>68.0</ele><time>2026-04-21T13:22:47.999Z</time></trkpt><trkpt lat="45.525924663515816" lon="10.727082981330357"><ele>68.0</ele><time>2026-04-21T13:22:49.999Z</time></trkpt><trkpt lat="45.52601488153458" lon="10.727065662745758"><ele>68.0</ele><time>2026-04-21T13:22:51.999Z</time></trkpt><trkpt lat="45.526104869968954" lon="10.727055600206384"><ele>68.0</ele><time>2026-04-21T13:22:53.999Z</time></trkpt><trkpt lat="45.526196758829315" lon="10.727039162849852"><ele>68.0</ele><time>2026-04-21T13:22:55.999Z</time></trkpt><trkpt lat="45.526300988336004" lon="10.726991196230081"><ele>68.0</ele><time>2026-04-21T13:22:57.999Z</time></trkpt><trkpt lat="45.5263955923687" lon="10.72695651736091"><ele>68.33333333333334</ele><time>2026-04-21T13:22:59.999Z</time></trkpt><trkpt lat="45.52649040207676" lon="10.726937383052071"><ele>68.66666666666667</ele><time>2026-04-21T13:23:01.999Z</time></trkpt><trkpt lat="45.526583768658305" lon="10.726914945255265"><ele>69.0</ele><time>2026-04-21T13:23:03.999Z</time></trkpt><trkpt lat="45.52667430830546" lon="10.726894200680526"><ele>69.33333333333333</ele><time>2026-04-21T13:23:05.999Z</time></trkpt><trkpt lat="45.52676545094732" lon="10.726872779008582"><ele>69.66666666666666</ele><time>2026-04-21T13:23:07.999Z</time></trkpt><trkpt lat="45.52683052404152" lon="10.726855471526878"><ele>70.0</ele><time>2026-04-21T13:23:09.999Z</time></trkpt><trkpt lat="45.52692332549751" lon="10.726869796648872"><ele>69.8</ele><time>2026-04-21T13:23:11.999Z</time></trkpt><trkpt lat="45.527007415593545" lon="10.72688174241734"><ele>69.6</ele><time>2026-04-21T13:23:13.999Z</time></trkpt><trkpt lat="45.52710139040855" lon="10.72684969298967"><ele>69.4</ele><time>2026-04-21T13:23:15.999Z</time></trkpt><trkpt lat="45.527189391683685" lon="10.7268104782068"><ele>69.2</ele><time>2026-04-21T13:23:17.999Z</time></trkpt><trkpt lat="45.52728039233889" lon="10.726759592503308"><ele>69.0</ele><time>2026-04-21T13:23:19.999Z</time></trkpt><trkpt lat="45.527365227964395" lon="10.72671436002455"><ele>69.0</ele><time>2026-04-21T13:23:21.999Z</time></trkpt><trkpt lat="45.52744981910514" lon="10.72665330864941"><ele>69.0</ele><time>2026-04-21T13:23:23.999Z</time></trkpt><trkpt lat="45.527528455070005" lon="10.72658982196399"><ele>69.0</ele><time>2026-04-21T13:23:25.999Z</time></trkpt><trkpt lat="45.52760988253544" lon="10.72652651771815"><ele>69.0</ele><time>2026-04-21T13:23:27.999Z</time></trkpt><trkpt lat="45.52769819479722" lon="10.726476863565134"><ele>69.0</ele><time>2026-04-21T13:23:29.999Z</time></trkpt><trkpt lat="45.527785357157256" lon="10.726450539396177"><ele>69.0</ele><time>2026-04-21T13:23:31.999Z</time></trkpt><trkpt lat="45.527871941623815" lon="10.726399330452516"><ele>69.0</ele><time>2026-04-21T13:23:33.999Z</time></trkpt><trkpt lat="45.52795940974549" lon="10.726355851177814"><ele>69.0</ele><time>2026-04-21T13:23:35.999Z</time></trkpt><trkpt lat="45.528049119771815" lon="10.726324541922919"><ele>69.0</ele><time>2026-04-21T13:23:37.999Z</time></trkpt><trkpt lat="45.52813141212802" lon="10.726278998606965"><ele>69.0</ele><time>2026-04-21T13:23:39.998Z</time></trkpt><trkpt lat="45.52821333000256" lon="10.726251979804758"><ele>69.16666666666667</ele><time>2026-04-21T13:23:41.998Z</time></trkpt><trkpt lat="45.52828834050136" lon="10.72621248030663"><ele>69.33333333333333</ele><time>2026-04-21T13:23:43.998Z</time></trkpt><trkpt lat="45.52835955812675" lon="10.726169098604098"><ele>69.5</ele><time>2026-04-21T13:23:45.998Z</time></trkpt><trkpt lat="45.52839890322839" lon="10.726093343392828"><ele>69.66666666666666</ele><time>2026-04-21T13:23:47.998Z</time></trkpt><trkpt lat="45.52839657565261" lon="10.725996759956047"><ele>69.83333333333333</ele><time>2026-04-21T13:23:49.998Z</time></trkpt><trkpt lat="45.5284699033525" lon="10.725907616909002"><ele>70.0</ele><time>2026-04-21T13:23:52.998Z</time></trkpt><trkpt lat="45.52855414788367" lon="10.725895019350569"><ele>69.5</ele><time>2026-04-21T13:23:54.998Z</time></trkpt><trkpt lat="45.52863842511793" lon="10.725873442227906"><ele>69.0</ele><time>2026-04-21T13:23:56.998Z</time></trkpt><trkpt lat="45.528729692811424" lon="10.725856914340902"><ele>68.5</ele><time>2026-04-21T13:23:58.998Z</time></trkpt><trkpt lat="45.528822993649776" lon="10.725864356103415"><ele>68.0</ele><time>2026-04-21T13:24:00.998Z</time></trkpt><trkpt lat="45.5289059110201" lon="10.72582989155294"><ele>67.5</ele><time>2026-04-21T13:24:02.998Z</time></trkpt><trkpt lat="45.52899228242842" lon="10.725830666000187"><ele>67.0</ele><time>2026-04-21T13:24:04.998Z</time></trkpt><trkpt lat="45.52907093342729" lon="10.72588610755986"><ele>67.0</ele><time>2026-04-21T13:24:06.998Z</time></trkpt><trkpt lat="45.529164376991176" lon="10.725896907666934"><ele>67.0</ele><time>2026-04-21T13:24:08.998Z</time></trkpt><trkpt lat="45.529259057013995" lon="10.725896179311496"><ele>67.0</ele><time>2026-04-21T13:24:10.998Z</time></trkpt><trkpt lat="45.52935634337936" lon="10.725901707891534"><ele>67.0</ele><time>2026-04-21T13:24:12.998Z</time></trkpt><trkpt lat="45.52945374940315" lon="10.725887006837164"><ele>67.0</ele><time>2026-04-21T13:24:14.998Z</time></trkpt><trkpt lat="45.52955198288785" lon="10.72587806437461"><ele>66.83333333333333</ele><time>2026-04-21T13:24:16.998Z</time></trkpt><trkpt lat="45.52964395567273" lon="10.725874626677996"><ele>66.66666666666666</ele><time>2026-04-21T13:24:18.998Z</time></trkpt><trkpt lat="45.52974104273208" lon="10.725881935838151"><ele>66.5</ele><time>2026-04-21T13:24:20.998Z</time></trkpt><trkpt lat="45.52983250659722" lon="10.725868667225637"><ele>66.33333333333333</ele><time>2026-04-21T13:24:22.998Z</time></trkpt><trkpt lat="45.52992659599055" lon="10.725853276222697"><ele>66.16666666666667</ele><time>2026-04-21T13:24:25Z</time></trkpt><trkpt lat="45.52999712702665" lon="10.725835385975397"><ele>66.0</ele><time>2026-04-21T13:24:27Z</time></trkpt><trkpt lat="45.5300778912925" lon="10.72583044276409"><ele>66.0</ele><time>2026-04-21T13:24:29Z</time></trkpt><trkpt lat="45.530161221815355" lon="10.725843649458623"><ele>66.0</ele><time>2026-04-21T13:24:31Z</time></trkpt><trkpt lat="45.530239228773176" lon="10.725863187417302"><ele>66.0</ele><time>2026-04-21T13:24:33Z</time></trkpt><trkpt lat="45.530267872763105" lon="10.725961585265747"><ele>66.0</ele><time>2026-04-21T13:24:36Z</time></trkpt><trkpt lat="45.53035157533499" lon="10.725936552977418"><ele>66.0</ele><time>2026-04-21T13:24:39Z</time></trkpt><trkpt lat="45.53042572327973" lon="10.725923782525529"><ele>66.0</ele><time>2026-04-21T13:24:41Z</time></trkpt><trkpt lat="45.530507654907" lon="10.725920989363013"><ele>66.0</ele><time>2026-04-21T13:24:42.999Z</time></trkpt><trkpt lat="45.53058084081041" lon="10.725915534224814"><ele>66.0</ele><time>2026-04-21T13:24:44.999Z</time></trkpt><trkpt lat="45.53060445711324" lon="10.726020186084046"><ele>66.0</ele><time>2026-04-21T13:24:47.999Z</time></trkpt><trkpt lat="45.530608284368235" lon="10.726133931907345"><ele>66.0</ele><time>2026-04-21T13:24:49.999Z</time></trkpt><trkpt lat="45.530674234700854" lon="10.726210475599409"><ele>66.0</ele><time>2026-04-21T13:24:51.999Z</time></trkpt><trkpt lat="45.530755697708045" lon="10.726256483934844"><ele>66.0</ele><time>2026-04-21T13:24:53.999Z</time></trkpt><trkpt lat="45.53084139155849" lon="10.726278391754303"><ele>66.39999999999999</ele><time>2026-04-21T13:24:55.999Z</time></trkpt><trkpt lat="45.530926201775806" lon="10.726281741451183"><ele>66.8</ele><time>2026-04-21T13:24:57.999Z</time></trkpt><trkpt lat="45.53101973263752" lon="10.72630271853181"><ele>67.19999999999999</ele><time>2026-04-21T13:24:59.999Z</time></trkpt><trkpt lat="45.53111664024691" lon="10.726317200227095"><ele>67.6</ele><time>2026-04-21T13:25:01.999Z</time></trkpt><trkpt lat="45.531216308083025" lon="10.72632078708988"><ele>68.0</ele><time>2026-04-21T13:25:03.999Z</time></trkpt><trkpt lat="45.531320457348855" lon="10.726333447540398"><ele>68.0</ele><time>2026-04-21T13:25:05.999Z</time></trkpt><trkpt lat="45.531415014095515" lon="10.726288312011933"><ele>68.0</ele><time>2026-04-21T13:25:07.999Z</time></trkpt><trkpt lat="45.53151478967618" lon="10.726245269419028"><ele>68.0</ele><time>2026-04-21T13:25:09.999Z</time></trkpt><trkpt lat="45.531610601586685" lon="10.72620020243196"><ele>68.0</ele><time>2026-04-21T13:25:11.999Z</time></trkpt><trkpt lat="45.53170828982595" lon="10.726233385518068"><ele>68.0</ele><time>2026-04-21T13:25:13.999Z</time></trkpt><trkpt lat="45.531811799446345" lon="10.726277233600195"><ele>68.0</ele><time>2026-04-21T13:25:15.999Z</time></trkpt><trkpt lat="45.53190442129892" lon="10.726346911023635"><ele>68.0</ele><time>2026-04-21T13:25:17.999Z</time></trkpt><trkpt lat="45.53197679897844" lon="10.72643774334533"><ele>68.0</ele><time>2026-04-21T13:25:19.999Z</time></trkpt><trkpt lat="45.532040008449556" lon="10.72655246160314"><ele>68.0</ele><time>2026-04-21T13:25:21.999Z</time></trkpt><trkpt lat="45.532137053136154" lon="10.726581320553223"><ele>68.0</ele><time>2026-04-21T13:25:23.999Z</time></trkpt><trkpt lat="45.532233263661254" lon="10.726601563462328"><ele>67.5</ele><time>2026-04-21T13:25:25.999Z</time></trkpt><trkpt lat="45.532325274379915" lon="10.726627071856418"><ele>67.0</ele><time>2026-04-21T13:25:27.999Z</time></trkpt><trkpt lat="45.53241821792088" lon="10.726637183197795"><ele>66.5</ele><time>2026-04-21T13:25:29.999Z</time></trkpt><trkpt lat="45.53249827033543" lon="10.726658405940194"><ele>66.0</ele><time>2026-04-21T13:25:31.999Z</time></trkpt><trkpt lat="45.532594312512096" lon="10.726680754552344"><ele>65.5</ele><time>2026-04-21T13:25:33.999Z</time></trkpt><trkpt lat="45.5326496155303" lon="10.726725200290874"><ele>65.0</ele><time>2026-04-21T13:25:34.999Z</time></trkpt><trkpt lat="45.53274923267483" lon="10.72676232292721"><ele>65.0</ele><time>2026-04-21T13:25:36.999Z</time></trkpt><trkpt lat="45.53285654532545" lon="10.7267940432495"><ele>65.0</ele><time>2026-04-21T13:25:38.999Z</time></trkpt><trkpt lat="45.53296184311261" lon="10.726833515346623"><ele>65.0</ele><time>2026-04-21T13:25:40.999Z</time></trkpt><trkpt lat="45.53306736512545" lon="10.726865882738466"><ele>65.0</ele><time>2026-04-21T13:25:42.999Z</time></trkpt><trkpt lat="45.533174796841664" lon="10.726899297797242"><ele>65.0</ele><time>2026-04-21T13:25:44.998Z</time></trkpt><trkpt lat="45.53327554695011" lon="10.726935259247918"><ele>65.16666666666667</ele><time>2026-04-21T13:25:46.998Z</time></trkpt><trkpt lat="45.53335885305286" lon="10.726940816979699"><ele>65.33333333333334</ele><time>2026-04-21T13:25:48.998Z</time></trkpt><trkpt lat="45.53345212899825" lon="10.726976473088664"><ele>65.5</ele><time>2026-04-21T13:25:50.998Z</time></trkpt><trkpt lat="45.53352343737304" lon="10.726966481212777"><ele>65.66666666666667</ele><time>2026-04-21T13:25:53.998Z</time></trkpt><trkpt lat="45.53357015098143" lon="10.726829247291446"><ele>65.83333333333333</ele><time>2026-04-21T13:25:56.998Z</time></trkpt><trkpt lat="45.53363807618843" lon="10.72677299417142"><ele>66.0</ele><time>2026-04-21T13:25:59.998Z</time></trkpt><trkpt lat="45.53372063640135" lon="10.726799953558958"><ele>66.0</ele><time>2026-04-21T13:26:01.998Z</time></trkpt><trkpt lat="45.533785702095564" lon="10.726775949221718"><ele>66.0</ele><time>2026-04-21T13:26:03.998Z</time></trkpt><trkpt lat="45.533871660336864" lon="10.726776867744649"><ele>66.0</ele><time>2026-04-21T13:26:05.998Z</time></trkpt><trkpt lat="45.53395408565116" lon="10.726760719749352"><ele>66.0</ele><time>2026-04-21T13:26:07.998Z</time></trkpt><trkpt lat="45.53405105149731" lon="10.726753729816533"><ele>66.0</ele><time>2026-04-21T13:26:10.998Z</time></trkpt><trkpt lat="45.53412620598407" lon="10.72676248795931"><ele>66.0</ele><time>2026-04-21T13:26:12.998Z</time></trkpt><trkpt lat="45.534210784144115" lon="10.726738689265506"><ele>66.0</ele><time>2026-04-21T13:26:14.998Z</time></trkpt><trkpt lat="45.5342956071694" lon="10.726740952176133"><ele>66.0</ele><time>2026-04-21T13:26:16.998Z</time></trkpt><trkpt lat="45.53439186885086" lon="10.72674844764522"><ele>66.0</ele><time>2026-04-21T13:26:18.998Z</time></trkpt><trkpt lat="45.53447911281481" lon="10.7267487578101"><ele>66.0</ele><time>2026-04-21T13:26:20.998Z</time></trkpt><trkpt lat="45.53457935354347" lon="10.72675434497852"><ele>66.0</ele><time>2026-04-21T13:26:22.998Z</time></trkpt><trkpt lat="45.534673388336806" lon="10.726754897832581"><ele>65.8</ele><time>2026-04-21T13:26:24.998Z</time></trkpt><trkpt lat="45.53477794906041" lon="10.72675115145122"><ele>65.6</ele><time>2026-04-21T13:26:26.998Z</time></trkpt><trkpt lat="45.53489350592243" lon="10.726746086710603"><ele>65.4</ele><time>2026-04-21T13:26:28.998Z</time></trkpt><trkpt lat="45.53499995910912" lon="10.726745956826978"><ele>65.2</ele><time>2026-04-21T13:26:31Z</time></trkpt><trkpt lat="45.53510724688584" lon="10.726747466238086"><ele>65.0</ele><time>2026-04-21T13:26:33Z</time></trkpt><trkpt lat="45.535208647186835" lon="10.72678864722869"><ele>65.0</ele><time>2026-04-21T13:26:35Z</time></trkpt><trkpt lat="45.53531248265548" lon="10.72680673129966"><ele>65.0</ele><time>2026-04-21T13:26:37Z</time></trkpt><trkpt lat="45.53541655426162" lon="10.72683449894978"><ele>65.0</ele><time>2026-04-21T13:26:39Z</time></trkpt><trkpt lat="45.535516780515714" lon="10.726842295559196"><ele>65.0</ele><time>2026-04-21T13:26:41Z</time></trkpt><trkpt lat="45.53561058391185" lon="10.726855223396358"><ele>65.0</ele><time>2026-04-21T13:26:43Z</time></trkpt><trkpt lat="45.5357105620846" lon="10.72687424215867"><ele>65.0</ele><time>2026-04-21T13:26:45Z</time></trkpt><trkpt lat="45.53580954084512" lon="10.726889808835251"><ele>65.0</ele><time>2026-04-21T13:26:47Z</time></trkpt><trkpt lat="45.535885407742356" lon="10.726886123638176"><ele>65.0</ele><time>2026-04-21T13:26:49Z</time></trkpt><trkpt lat="45.536007131258884" lon="10.726908962582948"><ele>65.0</ele><time>2026-04-21T13:26:49.999Z</time></trkpt><trkpt lat="45.53610021156735" lon="10.726887731800172"><ele>65.0</ele><time>2026-04-21T13:26:51.999Z</time></trkpt><trkpt lat="45.53620312949861" lon="10.726866754005114"><ele>64.8</ele><time>2026-04-21T13:26:53.999Z</time></trkpt><trkpt lat="45.536305778157576" lon="10.726840314705099"><ele>64.6</ele><time>2026-04-21T13:26:55.999Z</time></trkpt><trkpt lat="45.53640741846399" lon="10.72681597273799"><ele>64.4</ele><time>2026-04-21T13:26:57.999Z</time></trkpt><trkpt lat="45.53650808922338" lon="10.726794135477713"><ele>64.2</ele><time>2026-04-21T13:26:59.999Z</time></trkpt><trkpt lat="45.536607799512396" lon="10.726779379715484"><ele>64.0</ele><time>2026-04-21T13:27:01.999Z</time></trkpt><trkpt lat="45.5367095853568" lon="10.726776444650838"><ele>64.0</ele><time>2026-04-21T13:27:03.999Z</time></trkpt><trkpt lat="45.536813172802546" lon="10.726795350222213"><ele>64.0</ele><time>2026-04-21T13:27:05.999Z</time></trkpt><trkpt lat="45.53691327641041" lon="10.726796112765388"><ele>64.0</ele><time>2026-04-21T13:27:07.999Z</time></trkpt><trkpt lat="45.53700518051752" lon="10.726776232411254"><ele>64.0</ele><time>2026-04-21T13:27:09.999Z</time></trkpt><trkpt lat="45.53709104544697" lon="10.726751407345253"><ele>64.0</ele><time>2026-04-21T13:27:11.999Z</time></trkpt><trkpt lat="45.53720513435471" lon="10.726730180810433"><ele>64.2</ele><time>2026-04-21T13:27:14.999Z</time></trkpt><trkpt lat="45.53728069703699" lon="10.726714819385228"><ele>64.4</ele><time>2026-04-21T13:27:15.999Z</time></trkpt><trkpt lat="45.53737190041198" lon="10.726671176347923"><ele>64.6</ele><time>2026-04-21T13:27:17.999Z</time></trkpt><trkpt lat="45.537470738889404" lon="10.72661376627759"><ele>64.8</ele><time>2026-04-21T13:27:19.999Z</time></trkpt><trkpt lat="45.53757101696517" lon="10.726558456039484"><ele>65.0</ele><time>2026-04-21T13:27:21.999Z</time></trkpt><trkpt lat="45.53766214042206" lon="10.726497669315673"><ele>65.0</ele><time>2026-04-21T13:27:23.999Z</time></trkpt><trkpt lat="45.53775663562324" lon="10.726447818851726"><ele>65.0</ele><time>2026-04-21T13:27:25.999Z</time></trkpt><trkpt lat="45.537858663554175" lon="10.72641387094308"><ele>65.0</ele><time>2026-04-21T13:27:27.999Z</time></trkpt><trkpt lat="45.53796457769515" lon="10.726385648340466"><ele>65.0</ele><time>2026-04-21T13:27:29.999Z</time></trkpt><trkpt lat="45.53807574790817" lon="10.72636396135497"><ele>65.0</ele><time>2026-04-21T13:27:31.999Z</time></trkpt><trkpt lat="45.53817698326187" lon="10.726321293381153"><ele>65.2</ele><time>2026-04-21T13:27:33.999Z</time></trkpt><trkpt lat="45.538258837010375" lon="10.726241823918208"><ele>65.4</ele><time>2026-04-21T13:27:35.999Z</time></trkpt><trkpt lat="45.538352206650636" lon="10.726185086478003"><ele>65.6</ele><time>2026-04-21T13:27:37.999Z</time></trkpt><trkpt lat="45.53845377062604" lon="10.726120973977313"><ele>65.8</ele><time>2026-04-21T13:27:39.999Z</time></trkpt><trkpt lat="45.53855142727837" lon="10.726075458833265"><ele>66.0</ele><time>2026-04-21T13:27:41.999Z</time></trkpt><trkpt lat="45.538655138404046" lon="10.726044923450827"><ele>65.6</ele><time>2026-04-21T13:27:43.999Z</time></trkpt><trkpt lat="45.538758670928914" lon="10.726011606675556"><ele>65.19999999999999</ele><time>2026-04-21T13:27:45.999Z</time></trkpt><trkpt lat="45.538859126417634" lon="10.725972222919484"><ele>64.80000000000001</ele><time>2026-04-21T13:27:47.999Z</time></trkpt><trkpt lat="45.538966807383105" lon="10.725944034048803"><ele>64.4</ele><time>2026-04-21T13:27:49.999Z</time></trkpt><trkpt lat="45.53907185438345" lon="10.725920520916146"><ele>64.0</ele><time>2026-04-21T13:27:51.998Z</time></trkpt><trkpt lat="45.53917467171946" lon="10.725886803440503"><ele>64.0</ele><time>2026-04-21T13:27:53.998Z</time></trkpt><trkpt lat="45.53927745111504" lon="10.725855518554956"><ele>64.0</ele><time>2026-04-21T13:27:55.998Z</time></trkpt><trkpt lat="45.539378096360906" lon="10.725816847481292"><ele>64.0</ele><time>2026-04-21T13:27:57.998Z</time></trkpt><trkpt lat="45.53947209374311" lon="10.725749343124908"><ele>64.0</ele><time>2026-04-21T13:27:59.998Z</time></trkpt><trkpt lat="45.53954607278599" lon="10.725722187588827"><ele>64.0</ele><time>2026-04-21T13:28:01.998Z</time></trkpt><trkpt lat="45.539613630584924" lon="10.725679685627044"><ele>64.16666666666666</ele><time>2026-04-21T13:28:06.998Z</time></trkpt><trkpt lat="45.53967922565165" lon="10.725648216447178"><ele>64.33333333333333</ele><time>2026-04-21T13:28:11.998Z</time></trkpt><trkpt lat="45.539752552477104" lon="10.725608822800105"><ele>64.5</ele><time>2026-04-21T13:28:15.998Z</time></trkpt><trkpt lat="45.53981161031253" lon="10.72555900565746"><ele>64.66666666666667</ele><time>2026-04-21T13:28:17.998Z</time></trkpt><trkpt lat="45.53989486314957" lon="10.72552701095573"><ele>64.83333333333334</ele><time>2026-04-21T13:28:19.998Z</time></trkpt><trkpt lat="45.539974597102315" lon="10.725495221706028"><ele>65.0</ele><time>2026-04-21T13:28:21.998Z</time></trkpt><trkpt lat="45.540058771374824" lon="10.725464119675966"><ele>65.0</ele><time>2026-04-21T13:28:23.998Z</time></trkpt><trkpt lat="45.54014904138094" lon="10.725420996779555"><ele>65.0</ele><time>2026-04-21T13:28:25.998Z</time></trkpt><trkpt lat="45.54023601276971" lon="10.725375381333244"><ele>65.0</ele><time>2026-04-21T13:28:27.998Z</time></trkpt><trkpt lat="45.54032728395946" lon="10.725332747765707"><ele>65.0</ele><time>2026-04-21T13:28:29.998Z</time></trkpt><trkpt lat="45.54041445671927" lon="10.72528646669743"><ele>65.0</ele><time>2026-04-21T13:28:31.998Z</time></trkpt><trkpt lat="45.540474412538266" lon="10.725245659379636"><ele>65.0</ele><time>2026-04-21T13:28:33.998Z</time></trkpt><trkpt lat="45.54061225663609" lon="10.725204345917795"><ele>65.2</ele><time>2026-04-21T13:28:36Z</time></trkpt><trkpt lat="45.54069597936343" lon="10.725155117407846"><ele>65.4</ele><time>2026-04-21T13:28:38Z</time></trkpt><trkpt lat="45.54078873224811" lon="10.725089364353302"><ele>65.6</ele><time>2026-04-21T13:28:40Z</time></trkpt><trkpt lat="45.540879652996004" lon="10.725028632560134"><ele>65.8</ele><time>2026-04-21T13:28:42Z</time></trkpt><trkpt lat="45.54097125701301" lon="10.724960260648752"><ele>66.0</ele><time>2026-04-21T13:28:44Z</time></trkpt><trkpt lat="45.54106505569222" lon="10.724893333273862"><ele>66.0</ele><time>2026-04-21T13:28:46Z</time></trkpt><trkpt lat="45.541155262314575" lon="10.724816564312055"><ele>66.0</ele><time>2026-04-21T13:28:48Z</time></trkpt><trkpt lat="45.54124682235774" lon="10.724738504464568"><ele>66.0</ele><time>2026-04-21T13:28:50Z</time></trkpt><trkpt lat="45.54133438316518" lon="10.724655152378496"><ele>66.0</ele><time>2026-04-21T13:28:52Z</time></trkpt><trkpt lat="45.541418359714044" lon="10.724572216358212"><ele>66.0</ele><time>2026-04-21T13:28:54Z</time></trkpt><trkpt lat="45.54150537745721" lon="10.724490453533875"><ele>65.0</ele><time>2026-04-21T13:28:55.999Z</time></trkpt><trkpt lat="45.54158080785548" lon="10.724384271473161"><ele>64.0</ele><time>2026-04-21T13:28:57.999Z</time></trkpt><trkpt lat="45.541673624286815" lon="10.724312488174672"><ele>63.0</ele><time>2026-04-21T13:28:59.999Z</time></trkpt><trkpt lat="45.54183141355575" lon="10.724227013954987"><ele>62.0</ele><time>2026-04-21T13:29:02.999Z</time></trkpt><trkpt lat="45.54192545811523" lon="10.724145240014595"><ele>62.0</ele><time>2026-04-21T13:29:04.999Z</time></trkpt><trkpt lat="45.542015429521186" lon="10.72405985116061"><ele>62.0</ele><time>2026-04-21T13:29:06.999Z</time></trkpt><trkpt lat="45.54210790810819" lon="10.723982431348158"><ele>62.0</ele><time>2026-04-21T13:29:08.999Z</time></trkpt><trkpt lat="45.542194784185725" lon="10.723896303316328"><ele>62.0</ele><time>2026-04-21T13:29:10.999Z</time></trkpt><trkpt lat="45.54228213794852" lon="10.723814203175861"><ele>62.0</ele><time>2026-04-21T13:29:12.999Z</time></trkpt><trkpt lat="45.542366137996694" lon="10.723730902351011"><ele>63.0</ele><time>2026-04-21T13:29:14.999Z</time></trkpt><trkpt lat="45.54244541531845" lon="10.723641604523738"><ele>64.0</ele><time>2026-04-21T13:29:16.999Z</time></trkpt><trkpt lat="45.54251003902919" lon="10.723537242330721"><ele>65.0</ele><time>2026-04-21T13:29:18.999Z</time></trkpt><trkpt lat="45.542548504020736" lon="10.723373570050459"><ele>66.0</ele><time>2026-04-21T13:29:20.999Z</time></trkpt><trkpt lat="45.54260949961485" lon="10.723254299471138"><ele>67.0</ele><time>2026-04-21T13:29:22.999Z</time></trkpt><trkpt lat="45.542684602225776" lon="10.723157957676007"><ele>67.0</ele><time>2026-04-21T13:29:24.999Z</time></trkpt><trkpt lat="45.54274597656224" lon="10.723079200464568"><ele>67.0</ele><time>2026-04-21T13:29:27.999Z</time></trkpt><trkpt lat="45.54285978085599" lon="10.723000509705681"><ele>67.0</ele><time>2026-04-21T13:29:28.999Z</time></trkpt><trkpt lat="45.54294969632688" lon="10.722908338827175"><ele>67.0</ele><time>2026-04-21T13:29:30.999Z</time></trkpt><trkpt lat="45.54303383796357" lon="10.722805430117916"><ele>67.0</ele><time>2026-04-21T13:29:32.999Z</time></trkpt><trkpt lat="45.54311006217507" lon="10.722704510814244"><ele>67.2</ele><time>2026-04-21T13:29:34.999Z</time></trkpt><trkpt lat="45.54317834838972" lon="10.72260581553729"><ele>67.4</ele><time>2026-04-21T13:29:36.999Z</time></trkpt><trkpt lat="45.543220750695895" lon="10.722483194915391"><ele>67.6</ele><time>2026-04-21T13:29:38.999Z</time></trkpt><trkpt lat="45.54326432794983" lon="10.7223605692608"><ele>67.8</ele><time>2026-04-21T13:29:40.999Z</time></trkpt><trkpt lat="45.54331807697448" lon="10.722247785620755"><ele>68.0</ele><time>2026-04-21T13:29:42.999Z</time></trkpt><trkpt lat="45.54336708654633" lon="10.722139462509833"><ele>68.0</ele><time>2026-04-21T13:29:44.999Z</time></trkpt><trkpt lat="45.54341915810908" lon="10.722015282416091"><ele>68.0</ele><time>2026-04-21T13:29:46.999Z</time></trkpt><trkpt lat="45.5434579707156" lon="10.721878041686903"><ele>68.0</ele><time>2026-04-21T13:29:48.999Z</time></trkpt><trkpt lat="45.5434734397125" lon="10.72174240605082"><ele>68.0</ele><time>2026-04-21T13:29:50.999Z</time></trkpt><trkpt lat="45.54349078791478" lon="10.72162218185906"><ele>68.0</ele><time>2026-04-21T13:29:52.999Z</time></trkpt><trkpt lat="45.54350557370004" lon="10.721485222582626"><ele>68.0</ele><time>2026-04-21T13:29:54.998Z</time></trkpt><trkpt lat="45.54352124063553" lon="10.721346706650959"><ele>68.0</ele><time>2026-04-21T13:29:56.998Z</time></trkpt><trkpt lat="45.543523711228" lon="10.721216218695412"><ele>68.0</ele><time>2026-04-21T13:29:58.998Z</time></trkpt><trkpt lat="45.543535536668536" lon="10.721068536690904"><ele>68.0</ele><time>2026-04-21T13:30:00.998Z</time></trkpt><trkpt lat="45.54353823728582" lon="10.72092644348292"><ele>68.0</ele><time>2026-04-21T13:30:02.998Z</time></trkpt><trkpt lat="45.543541440900775" lon="10.720785826784994"><ele>67.6</ele><time>2026-04-21T13:30:04.998Z</time></trkpt><trkpt lat="45.543540126459845" lon="10.720636674436074"><ele>67.19999999999999</ele><time>2026-04-21T13:30:06.998Z</time></trkpt><trkpt lat="45.543532182787786" lon="10.720490114124619"><ele>66.8</ele><time>2026-04-21T13:30:08.998Z</time></trkpt><trkpt lat="45.54351744647311" lon="10.720353338338622"><ele>66.39999999999999</ele><time>2026-04-21T13:30:10.998Z</time></trkpt><trkpt lat="45.54352378542386" lon="10.720211697030768"><ele>66.0</ele><time>2026-04-21T13:30:12.998Z</time></trkpt><trkpt lat="45.54353942542161" lon="10.720094457229266"><ele>65.83333333333333</ele><time>2026-04-21T13:30:14.998Z</time></trkpt><trkpt lat="45.543569460748735" lon="10.719986822135157"><ele>65.66666666666667</ele><time>2026-04-21T13:30:16.998Z</time></trkpt><trkpt lat="45.5435987603413" lon="10.719882356083842"><ele>65.5</ele><time>2026-04-21T13:30:18.998Z</time></trkpt><trkpt lat="45.543635492972946" lon="10.719788032532309"><ele>65.33333333333334</ele><time>2026-04-21T13:30:20.998Z</time></trkpt><trkpt lat="45.54368684565745" lon="10.719726022733166"><ele>65.16666666666667</ele><time>2026-04-21T13:30:22.998Z</time></trkpt><trkpt lat="45.543761640220744" lon="10.719664380824751"><ele>65.0</ele><time>2026-04-21T13:30:25.998Z</time></trkpt><trkpt lat="45.54382958114993" lon="10.719641783681807"><ele>65.0</ele><time>2026-04-21T13:30:29.998Z</time></trkpt><trkpt lat="45.54390868252514" lon="10.71966004731312"><ele>65.0</ele><time>2026-04-21T13:30:35.998Z</time></trkpt><trkpt lat="45.54397455995836" lon="10.719662703607293"><ele>65.0</ele><time>2026-04-21T13:30:37.998Z</time></trkpt><trkpt lat="45.5440505913129" lon="10.719693912362684"><ele>65.0</ele><time>2026-04-21T13:30:39.998Z</time></trkpt><trkpt lat="45.5441339631467" lon="10.719731491928888"><ele>65.0</ele><time>2026-04-21T13:30:42Z</time></trkpt><trkpt lat="45.544214914229435" lon="10.719787488900485"><ele>65.0</ele><time>2026-04-21T13:30:44Z</time></trkpt><trkpt lat="45.54429271774362" lon="10.71985863022741"><ele>65.0</ele><time>2026-04-21T13:30:46Z</time></trkpt><trkpt lat="45.544367135584814" lon="10.719926655465217"><ele>65.0</ele><time>2026-04-21T13:30:48Z</time></trkpt><trkpt lat="45.54445002503824" lon="10.719992092904937"><ele>65.0</ele><time>2026-04-21T13:30:50Z</time></trkpt><trkpt lat="45.544527115174304" lon="10.720047636097222"><ele>65.0</ele><time>2026-04-21T13:30:52Z</time></trkpt><trkpt lat="45.54461148130867" lon="10.720099142693783"><ele>65.0</ele><time>2026-04-21T13:30:54Z</time></trkpt><trkpt lat="45.54471477473575" lon="10.720139336505891"><ele>64.5</ele><time>2026-04-21T13:30:57Z</time></trkpt><trkpt lat="45.54488599191205" lon="10.720221916767278"><ele>64.0</ele><time>2026-04-21T13:31:00Z</time></trkpt><trkpt lat="45.544980563458225" lon="10.720246770994539"><ele>63.5</ele><time>2026-04-21T13:31:01.999Z</time></trkpt><trkpt lat="45.545074290546964" lon="10.720257894470697"><ele>63.0</ele><time>2026-04-21T13:31:03.999Z</time></trkpt><trkpt lat="45.545166153766786" lon="10.7202566470276"><ele>63.0</ele><time>2026-04-21T13:31:05.999Z</time></trkpt><trkpt lat="45.545245878186094" lon="10.72024556906861"><ele>63.0</ele><time>2026-04-21T13:31:07.999Z</time></trkpt><trkpt lat="45.54533259048528" lon="10.720223314514302"><ele>63.0</ele><time>2026-04-21T13:31:09.999Z</time></trkpt><trkpt lat="45.54542078657208" lon="10.720201493701202"><ele>63.0</ele><time>2026-04-21T13:31:11.999Z</time></trkpt><trkpt lat="45.545508133829436" lon="10.720165182348666"><ele>63.0</ele><time>2026-04-21T13:31:13.999Z</time></trkpt><trkpt lat="45.545592262791665" lon="10.7201282077074"><ele>63.0</ele><time>2026-04-21T13:31:15.999Z</time></trkpt><trkpt lat="45.54567382259219" lon="10.720078760674811"><ele>63.333333333333336</ele><time>2026-04-21T13:31:17.999Z</time></trkpt><trkpt lat="45.54573250193884" lon="10.71999746761993"><ele>63.66666666666667</ele><time>2026-04-21T13:31:19.999Z</time></trkpt><trkpt lat="45.545787108958116" lon="10.719948960595552"><ele>64.0</ele><time>2026-04-21T13:31:21.999Z</time></trkpt><trkpt lat="45.545853415208676" lon="10.71992266258042"><ele>64.33333333333334</ele><time>2026-04-21T13:31:22.999Z</time></trkpt><trkpt lat="45.54592061547739" lon="10.719866619266716"><ele>64.66666666666667</ele><time>2026-04-21T13:31:24.999Z</time></trkpt><trkpt lat="45.546010930365945" lon="10.719809767742872"><ele>65.0</ele><time>2026-04-21T13:31:27.999Z</time></trkpt><trkpt lat="45.54608333283847" lon="10.719757762588708"><ele>65.0</ele><time>2026-04-21T13:31:30.999Z</time></trkpt><trkpt lat="45.54615978572818" lon="10.719736253561617"><ele>65.0</ele><time>2026-04-21T13:31:34.999Z</time></trkpt><trkpt lat="45.546221750577025" lon="10.719682559256723"><ele>65.0</ele><time>2026-04-21T13:31:36.999Z</time></trkpt><trkpt lat="45.54629958148433" lon="10.719622111024506"><ele>65.0</ele><time>2026-04-21T13:31:39.999Z</time></trkpt><trkpt lat="45.54639670053552" lon="10.719612116644312"><ele>65.0</ele><time>2026-04-21T13:31:42.999Z</time></trkpt><trkpt lat="45.546467211156084" lon="10.719608016072886"><ele>65.0</ele><time>2026-04-21T13:31:44.999Z</time></trkpt><trkpt lat="45.54653632630618" lon="10.719565387899422"><ele>65.33333333333334</ele><time>2026-04-21T13:31:46.999Z</time></trkpt><trkpt lat="45.54660411166485" lon="10.71952874724408"><ele>65.66666666666667</ele><time>2026-04-21T13:31:48.999Z</time></trkpt><trkpt lat="45.546769916618665" lon="10.719518978917831"><ele>66.0</ele><time>2026-04-21T13:32:03.998Z</time></trkpt><trkpt lat="45.546829123152705" lon="10.719474193312067"><ele>66.33333333333333</ele><time>2026-04-21T13:32:08.998Z</time></trkpt><trkpt lat="45.54688125184431" lon="10.719403474344343"><ele>66.66666666666666</ele><time>2026-04-21T13:32:14.998Z</time></trkpt><trkpt lat="45.54692972614384" lon="10.719327799626567"><ele>67.0</ele><time>2026-04-21T13:32:23.998Z</time></trkpt><trkpt lat="45.54698994108937" lon="10.719280913285418"><ele>67.0</ele><time>2026-04-21T13:32:28.998Z</time></trkpt><trkpt lat="45.547060184550205" lon="10.719226065863701"><ele>67.0</ele><time>2026-04-21T13:32:33.998Z</time></trkpt><trkpt lat="45.547126089734526" lon="10.719158279531978"><ele>67.0</ele><time>2026-04-21T13:32:37.998Z</time></trkpt><trkpt lat="45.54718215370774" lon="10.719069987048679"><ele>67.0</ele><time>2026-04-21T13:32:40.998Z</time></trkpt><trkpt lat="45.54725627665396" lon="10.719019899564431"><ele>67.0</ele><time>2026-04-21T13:32:43.998Z</time></trkpt><trkpt lat="45.54732653974821" lon="10.718951958816024"><ele>67.0</ele><time>2026-04-21T13:32:48Z</time></trkpt><trkpt lat="45.5473875621181" lon="10.718886075595782"><ele>67.0</ele><time>2026-04-21T13:32:51Z</time></trkpt><trkpt lat="45.54743794440172" lon="10.718784153976088"><ele>67.0</ele><time>2026-04-21T13:32:54Z</time></trkpt><trkpt lat="45.54750025892438" lon="10.718743366512513"><ele>67.0</ele><time>2026-04-21T13:32:57Z</time></trkpt><trkpt lat="45.54757450013433" lon="10.718667076642785"><ele>67.0</ele><time>2026-04-21T13:33:00Z</time></trkpt><trkpt lat="45.54763498538429" lon="10.718626848222753"><ele>67.0</ele><time>2026-04-21T13:33:02Z</time></trkpt><trkpt lat="45.54770508266874" lon="10.718570970366756"><ele>67.0</ele><time>2026-04-21T13:33:05Z</time></trkpt><trkpt lat="45.547775105541675" lon="10.71850480798952"><ele>66.83333333333333</ele><time>2026-04-21T13:33:07.999Z</time></trkpt><trkpt lat="45.54784072995192" lon="10.718433024658205"><ele>66.66666666666666</ele><time>2026-04-21T13:33:09.999Z</time></trkpt><trkpt lat="45.54791300106752" lon="10.718367463268102"><ele>66.5</ele><time>2026-04-21T13:33:11.999Z</time></trkpt><trkpt lat="45.54798517933199" lon="10.718287696986208"><ele>66.33333333333333</ele><time>2026-04-21T13:33:13.999Z</time></trkpt><trkpt lat="45.54807023777745" lon="10.718228570988407"><ele>66.16666666666667</ele><time>2026-04-21T13:33:15.999Z</time></trkpt><trkpt lat="45.54814088127007" lon="10.718178150159922"><ele>66.0</ele><time>2026-04-21T13:33:18.999Z</time></trkpt><trkpt lat="45.54825883622647" lon="10.71811710364607"><ele>66.0</ele><time>2026-04-21T13:33:19.999Z</time></trkpt><trkpt lat="45.548342492432226" lon="10.718049840286136"><ele>66.0</ele><time>2026-04-21T13:33:21.999Z</time></trkpt><trkpt lat="45.54841711446237" lon="10.717943180953489"><ele>66.0</ele><time>2026-04-21T13:33:23.999Z</time></trkpt><trkpt lat="45.54851390449485" lon="10.71786335239722"><ele>66.0</ele><time>2026-04-21T13:33:25.999Z</time></trkpt><trkpt lat="45.54861275661039" lon="10.71781868900915"><ele>66.0</ele><time>2026-04-21T13:33:27.999Z</time></trkpt><trkpt lat="45.54870896001384" lon="10.717749588781485"><ele>66.0</ele><time>2026-04-21T13:33:29.999Z</time></trkpt><trkpt lat="45.54880175238623" lon="10.717681275585713"><ele>66.0</ele><time>2026-04-21T13:33:31.999Z</time></trkpt><trkpt lat="45.54889215124357" lon="10.717588604425897"><ele>66.0</ele><time>2026-04-21T13:33:33.999Z</time></trkpt><trkpt lat="45.54898125650082" lon="10.717489388833489"><ele>66.0</ele><time>2026-04-21T13:33:35.999Z</time></trkpt><trkpt lat="45.54906250556112" lon="10.717374573384136"><ele>66.0</ele><time>2026-04-21T13:33:37.999Z</time></trkpt><trkpt lat="45.54914553321828" lon="10.717260869090321"><ele>66.0</ele><time>2026-04-21T13:33:39.999Z</time></trkpt><trkpt lat="45.54920136744958" lon="10.71714596847448"><ele>66.0</ele><time>2026-04-21T13:33:41.999Z</time></trkpt><trkpt lat="45.54924874131886" lon="10.716999127134446"><ele>66.0</ele><time>2026-04-21T13:33:43.999Z</time></trkpt><trkpt lat="45.54928260868031" lon="10.7168104306223"><ele>66.0</ele><time>2026-04-21T13:33:46.999Z</time></trkpt><trkpt lat="45.5492903903777" lon="10.716668477858475"><ele>66.0</ele><time>2026-04-21T13:33:48.999Z</time></trkpt><trkpt lat="45.549288959721984" lon="10.716525969572775"><ele>65.6</ele><time>2026-04-21T13:33:50.999Z</time></trkpt><trkpt lat="45.5493044038944" lon="10.716386998596182"><ele>65.19999999999999</ele><time>2026-04-21T13:33:52.999Z</time></trkpt><trkpt lat="45.54931862631596" lon="10.716249812588247"><ele>64.80000000000001</ele><time>2026-04-21T13:33:54.999Z</time></trkpt><trkpt lat="45.549327245165244" lon="10.716113562965806"><ele>64.4</ele><time>2026-04-21T13:33:56.999Z</time></trkpt><trkpt lat="45.549337337720125" lon="10.715976601228766"><ele>64.0</ele><time>2026-04-21T13:33:58.999Z</time></trkpt><trkpt lat="45.54934307224632" lon="10.71584462487805"><ele>64.0</ele><time>2026-04-21T13:34:00.999Z</time></trkpt><trkpt lat="45.54935360182978" lon="10.715699026018891"><ele>64.0</ele><time>2026-04-21T13:34:02.999Z</time></trkpt><trkpt lat="45.549366135521076" lon="10.715559222618431"><ele>64.0</ele><time>2026-04-21T13:34:04.998Z</time></trkpt><trkpt lat="45.54934226881235" lon="10.715432601840115"><ele>64.0</ele><time>2026-04-21T13:34:05.998Z</time></trkpt><trkpt lat="45.54934089442305" lon="10.715303115692448"><ele>64.0</ele><time>2026-04-21T13:34:07.998Z</time></trkpt><trkpt lat="45.54938014860228" lon="10.715219316939807"><ele>63.666666666666664</ele><time>2026-04-21T13:34:09.998Z</time></trkpt><trkpt lat="45.54943760896343" lon="10.715147029248051"><ele>63.33333333333333</ele><time>2026-04-21T13:34:11.998Z</time></trkpt><trkpt lat="45.549517043137264" lon="10.715150462812504"><ele>63.0</ele><time>2026-04-21T13:34:13.998Z</time></trkpt><trkpt lat="45.54959359477673" lon="10.715184121300018"><ele>62.66666666666667</ele><time>2026-04-21T13:34:15.998Z</time></trkpt><trkpt lat="45.549641440988566" lon="10.715301180401045"><ele>62.333333333333336</ele><time>2026-04-21T13:34:17.998Z</time></trkpt><trkpt lat="45.549676471397675" lon="10.715416890700963"><ele>62.0</ele><time>2026-04-21T13:34:19.998Z</time></trkpt><trkpt lat="45.549704343072364" lon="10.715541575748416"><ele>62.00000000000001</ele><time>2026-04-21T13:34:21.998Z</time></trkpt><trkpt lat="45.549729760740334" lon="10.715675297681782"><ele>62.0</ele><time>2026-04-21T13:34:23.998Z</time></trkpt><trkpt lat="45.54976418535675" lon="10.715792993539925"><ele>62.0</ele><time>2026-04-21T13:34:25.998Z</time></trkpt><trkpt lat="45.54981506634763" lon="10.71589942835648"><ele>62.0</ele><time>2026-04-21T13:34:27.998Z</time></trkpt><trkpt lat="45.54986459577216" lon="10.716011941425377"><ele>62.00000000000001</ele><time>2026-04-21T13:34:29.998Z</time></trkpt><trkpt lat="45.54990698790721" lon="10.71610654096375"><ele>62.0</ele><time>2026-04-21T13:34:31.998Z</time></trkpt><trkpt lat="45.55002163718139" lon="10.716301334611328"><ele>62.400000000000006</ele><time>2026-04-21T13:34:35.998Z</time></trkpt><trkpt lat="45.550068659651984" lon="10.716406401524276"><ele>62.800000000000004</ele><time>2026-04-21T13:34:37.998Z</time></trkpt><trkpt lat="45.55011646904305" lon="10.716531758822429"><ele>63.2</ele><time>2026-04-21T13:34:39.998Z</time></trkpt><trkpt lat="45.55014512601554" lon="10.716668832933667"><ele>63.6</ele><time>2026-04-21T13:34:41.998Z</time></trkpt><trkpt lat="45.55016959265195" lon="10.716804802356462"><ele>64.0</ele><time>2026-04-21T13:34:43.998Z</time></trkpt><trkpt lat="45.550214149102324" lon="10.716930398297043"><ele>64.0</ele><time>2026-04-21T13:34:45.998Z</time></trkpt><trkpt lat="45.55027449612264" lon="10.71704269262932"><ele>64.0</ele><time>2026-04-21T13:34:47.998Z</time></trkpt><trkpt lat="45.550332212329536" lon="10.717160726225323"><ele>64.0</ele><time>2026-04-21T13:34:49.998Z</time></trkpt><trkpt lat="45.5503932064776" lon="10.717282694995568"><ele>64.0</ele><time>2026-04-21T13:34:51.998Z</time></trkpt><trkpt lat="45.55045081369643" lon="10.717380986370156"><ele>64.0</ele><time>2026-04-21T13:34:54Z</time></trkpt><trkpt lat="45.550512173993" lon="10.717492457207351"><ele>64.0</ele><time>2026-04-21T13:34:56Z</time></trkpt><trkpt lat="45.55058665713424" lon="10.717613104910885"><ele>64.0</ele><time>2026-04-21T13:34:58Z</time></trkpt><trkpt lat="45.550655086331616" lon="10.717667277519837"><ele>64.0</ele><time>2026-04-21T13:35:00Z</time></trkpt><trkpt lat="45.550769890117344" lon="10.717707953137817"><ele>64.0</ele><time>2026-04-21T13:35:02Z</time></trkpt><trkpt lat="45.55083877294868" lon="10.717785671742142"><ele>64.0</ele><time>2026-04-21T13:35:03Z</time></trkpt><trkpt lat="45.5509481062309" lon="10.717808259056724"><ele>64.60000000000001</ele><time>2026-04-21T13:35:05Z</time></trkpt><trkpt lat="45.551057532171605" lon="10.717835233349446"><ele>65.2</ele><time>2026-04-21T13:35:07Z</time></trkpt><trkpt lat="45.55116771245376" lon="10.717868472940907"><ele>65.80000000000001</ele><time>2026-04-21T13:35:09Z</time></trkpt><trkpt lat="45.55127507145032" lon="10.71790954364852"><ele>66.4</ele><time>2026-04-21T13:35:10.999Z</time></trkpt><trkpt lat="45.551384142469686" lon="10.71793796950838"><ele>67.0</ele><time>2026-04-21T13:35:12.999Z</time></trkpt><trkpt lat="45.55148767985322" lon="10.717969839029507"><ele>67.0</ele><time>2026-04-21T13:35:14.999Z</time></trkpt><trkpt lat="45.55159365388228" lon="10.717997898568633"><ele>67.0</ele><time>2026-04-21T13:35:16.999Z</time></trkpt><trkpt lat="45.55169825488885" lon="10.718027478223975"><ele>67.0</ele><time>2026-04-21T13:35:18.999Z</time></trkpt><trkpt lat="45.55179906353048" lon="10.718041649328562"><ele>67.0</ele><time>2026-04-21T13:35:20.999Z</time></trkpt><trkpt lat="45.551861507972866" lon="10.718070022254528"><ele>67.0</ele><time>2026-04-21T13:35:22.999Z</time></trkpt><trkpt lat="45.55189395649813" lon="10.718177800512592"><ele>67.0</ele><time>2026-04-21T13:35:24.999Z</time></trkpt><trkpt lat="45.55186448671842" lon="10.71825978571874"><ele>67.0</ele><time>2026-04-21T13:35:25.999Z</time></trkpt><trkpt lat="45.55187341490614" lon="10.71834905582905"><ele>67.0</ele><time>2026-04-21T13:35:27.999Z</time></trkpt><trkpt lat="45.55187417126639" lon="10.718451062936976"><ele>67.0</ele><time>2026-04-21T13:35:31.999Z</time></trkpt><trkpt lat="45.5518947676017" lon="10.718555876087459"><ele>67.0</ele><time>2026-04-21T13:35:34.999Z</time></trkpt><trkpt lat="45.55191646199871" lon="10.718669299117375"><ele>67.0</ele><time>2026-04-21T13:35:38.999Z</time></trkpt><trkpt lat="45.55194775635222" lon="10.71877303247146"><ele>67.0</ele><time>2026-04-21T13:35:42.999Z</time></trkpt><trkpt lat="45.55200913447057" lon="10.718857231952994"><ele>67.5</ele><time>2026-04-21T13:35:46.999Z</time></trkpt><trkpt lat="45.5520805749827" lon="10.718850708344702"><ele>68.0</ele><time>2026-04-21T13:35:49.999Z</time></trkpt><trkpt lat="45.55215765297636" lon="10.718832977922322"><ele>68.5</ele><time>2026-04-21T13:35:52.999Z</time></trkpt><trkpt lat="45.552243696669564" lon="10.71881552369982"><ele>69.0</ele><time>2026-04-21T13:35:55.999Z</time></trkpt><trkpt lat="45.552327746072834" lon="10.718805396535036"><ele>69.5</ele><time>2026-04-21T13:35:58.999Z</time></trkpt><trkpt lat="45.55240451546664" lon="10.718755070252364"><ele>70.0</ele><time>2026-04-21T13:36:01.999Z</time></trkpt><trkpt lat="45.552485466636796" lon="10.718714020212163"><ele>70.0</ele><time>2026-04-21T13:36:03.999Z</time></trkpt><trkpt lat="45.55257018215207" lon="10.7186729147464"><ele>70.0</ele><time>2026-04-21T13:36:05.999Z</time></trkpt><trkpt lat="45.55266813549076" lon="10.718615040089544"><ele>70.0</ele><time>2026-04-21T13:36:08.999Z</time></trkpt><trkpt lat="45.55288385303728" lon="10.718518464537897"><ele>70.0</ele><time>2026-04-21T13:36:11.998Z</time></trkpt><trkpt lat="45.55297822621271" lon="10.718455082818775"><ele>69.33333333333333</ele><time>2026-04-21T13:36:13.998Z</time></trkpt><trkpt lat="45.55306763272154" lon="10.718409700467245"><ele>68.66666666666666</ele><time>2026-04-21T13:36:15.998Z</time></trkpt><trkpt lat="45.55315640385778" lon="10.718378155467327"><ele>68.0</ele><time>2026-04-21T13:36:17.998Z</time></trkpt><trkpt lat="45.55323307139321" lon="10.718319733171107"><ele>67.33333333333333</ele><time>2026-04-21T13:36:19.998Z</time></trkpt><trkpt lat="45.553291639603096" lon="10.718267635478119"><ele>66.66666666666667</ele><time>2026-04-21T13:36:21.998Z</time></trkpt><trkpt lat="45.55335472098463" lon="10.71824880279661"><ele>66.0</ele><time>2026-04-21T13:36:23.998Z</time></trkpt><trkpt lat="45.55342591861718" lon="10.718183224208634"><ele>66.0</ele><time>2026-04-21T13:36:26.998Z</time></trkpt><trkpt lat="45.55348932912941" lon="10.71811611475697"><ele>66.0</ele><time>2026-04-21T13:36:29.998Z</time></trkpt><trkpt lat="45.55358227214984" lon="10.718057483207794"><ele>66.0</ele><time>2026-04-21T13:36:32.998Z</time></trkpt><trkpt lat="45.553656384807034" lon="10.718048069510445"><ele>66.0</ele><time>2026-04-21T13:36:34.998Z</time></trkpt><trkpt lat="45.55374053070967" lon="10.718009146928246"><ele>66.0</ele><time>2026-04-21T13:36:36.998Z</time></trkpt><trkpt lat="45.55381988254909" lon="10.717958868159908"><ele>66.0</ele><time>2026-04-21T13:36:38.998Z</time></trkpt><trkpt lat="45.5539062566571" lon="10.71791774507732"><ele>66.0</ele><time>2026-04-21T13:36:40.998Z</time></trkpt><trkpt lat="45.55397934999783" lon="10.717878403123942"><ele>66.0</ele><time>2026-04-21T13:36:42.998Z</time></trkpt><trkpt lat="45.55405433548949" lon="10.71781836759047"><ele>66.0</ele><time>2026-04-21T13:36:44.998Z</time></trkpt><trkpt lat="45.55414113939551" lon="10.717761487194151"><ele>66.0</ele><time>2026-04-21T13:36:46.998Z</time></trkpt><trkpt lat="45.55423591380222" lon="10.717718919314308"><ele>66.0</ele><time>2026-04-21T13:36:48.998Z</time></trkpt><trkpt lat="45.554385737595126" lon="10.717679047214201"><ele>66.2</ele><time>2026-04-21T13:36:50.998Z</time></trkpt><trkpt lat="45.55448276756038" lon="10.717637893567256"><ele>66.39999999999999</ele><time>2026-04-21T13:36:52.998Z</time></trkpt><trkpt lat="45.55457571448221" lon="10.717599653065257"><ele>66.6</ele><time>2026-04-21T13:36:54.998Z</time></trkpt><trkpt lat="45.5546672236645" lon="10.71755360459711"><ele>66.8</ele><time>2026-04-21T13:36:56.998Z</time></trkpt><trkpt lat="45.55475922002741" lon="10.717504241951723"><ele>67.0</ele><time>2026-04-21T13:36:58.998Z</time></trkpt><trkpt lat="45.55484983673914" lon="10.717455636207895"><ele>67.0</ele><time>2026-04-21T13:37:01Z</time></trkpt><trkpt lat="45.554937025318125" lon="10.717409965767704"><ele>67.0</ele><time>2026-04-21T13:37:03Z</time></trkpt><trkpt lat="45.555029323247915" lon="10.717364858044185"><ele>67.0</ele><time>2026-04-21T13:37:05Z</time></trkpt><trkpt lat="45.555123332307495" lon="10.717318699085869"><ele>67.0</ele><time>2026-04-21T13:37:07Z</time></trkpt><trkpt lat="45.55521139584243" lon="10.71727032855046"><ele>67.0</ele><time>2026-04-21T13:37:09Z</time></trkpt><trkpt lat="45.55528883482791" lon="10.717171561139487"><ele>67.0</ele><time>2026-04-21T13:37:11Z</time></trkpt><trkpt lat="45.55535787748279" lon="10.717147881493368"><ele>67.0</ele><time>2026-04-21T13:37:13Z</time></trkpt><trkpt lat="45.555439244028584" lon="10.717137730786938"><ele>67.0</ele><time>2026-04-21T13:37:14Z</time></trkpt><trkpt lat="45.555533763569606" lon="10.717100594127889"><ele>67.0</ele><time>2026-04-21T13:37:15.999Z</time></trkpt><trkpt lat="45.5556272861647" lon="10.717042675147516"><ele>67.0</ele><time>2026-04-21T13:37:17.999Z</time></trkpt><trkpt lat="45.55572098671536" lon="10.716989246775158"><ele>66.6</ele><time>2026-04-21T13:37:19.999Z</time></trkpt><trkpt lat="45.55581398694539" lon="10.71694175462413"><ele>66.2</ele><time>2026-04-21T13:37:21.999Z</time></trkpt><trkpt lat="45.55590016414523" lon="10.716895216047776"><ele>65.8</ele><time>2026-04-21T13:37:23.999Z</time></trkpt><trkpt lat="45.55598807118032" lon="10.71685932265769"><ele>65.4</ele><time>2026-04-21T13:37:25.999Z</time></trkpt><trkpt lat="45.556079051156594" lon="10.716816862987024"><ele>65.0</ele><time>2026-04-21T13:37:27.999Z</time></trkpt><trkpt lat="45.55616981342554" lon="10.716756454388554"><ele>66.0</ele><time>2026-04-21T13:37:29.999Z</time></trkpt><trkpt lat="45.55626213145963" lon="10.716707284304631"><ele>67.0</ele><time>2026-04-21T13:37:31.999Z</time></trkpt><trkpt lat="45.556362820604676" lon="10.716606106842459"><ele>68.0</ele><time>2026-04-21T13:37:33.999Z</time></trkpt><trkpt lat="45.556446556326605" lon="10.71661534587325"><ele>69.0</ele><time>2026-04-21T13:37:35.999Z</time></trkpt><trkpt lat="45.55653058671593" lon="10.716560964669956"><ele>70.0</ele><time>2026-04-21T13:37:37.999Z</time></trkpt><trkpt lat="45.55661925962434" lon="10.71650219640806"><ele>70.0</ele><time>2026-04-21T13:37:39.999Z</time></trkpt><trkpt lat="45.55670685006837" lon="10.71645934866754"><ele>70.0</ele><time>2026-04-21T13:37:41.999Z</time></trkpt><trkpt lat="45.556795135300675" lon="10.716420420953465"><ele>70.0</ele><time>2026-04-21T13:37:43.999Z</time></trkpt><trkpt lat="45.556886483663924" lon="10.716369624930078"><ele>70.0</ele><time>2026-04-21T13:37:45.999Z</time></trkpt><trkpt lat="45.55697934966156" lon="10.71631070649904"><ele>70.0</ele><time>2026-04-21T13:37:47.999Z</time></trkpt><trkpt lat="45.55707575110198" lon="10.716269558149024"><ele>70.6</ele><time>2026-04-21T13:37:49.999Z</time></trkpt><trkpt lat="45.55716502323089" lon="10.71622616948064"><ele>71.2</ele><time>2026-04-21T13:37:51.999Z</time></trkpt><trkpt lat="45.55726534513332" lon="10.716182358256418"><ele>71.8</ele><time>2026-04-21T13:37:53.999Z</time></trkpt><trkpt lat="45.55731403155016" lon="10.716123061394661"><ele>72.4</ele><time>2026-04-21T13:37:54.999Z</time></trkpt><trkpt lat="45.55740521029144" lon="10.716075325874375"><ele>73.0</ele><time>2026-04-21T13:37:56.999Z</time></trkpt><trkpt lat="45.55748350559325" lon="10.715999611418184"><ele>71.83333333333333</ele><time>2026-04-21T13:37:59.999Z</time></trkpt><trkpt lat="45.557548523630494" lon="10.715958705697558"><ele>70.66666666666666</ele><time>2026-04-21T13:38:00.999Z</time></trkpt><trkpt lat="45.557639221654455" lon="10.715914387520206"><ele>69.5</ele><time>2026-04-21T13:38:02.999Z</time></trkpt><trkpt lat="45.557703842436084" lon="10.715859342370292"><ele>68.33333333333333</ele><time>2026-04-21T13:38:04.999Z</time></trkpt><trkpt lat="45.557784558474836" lon="10.715814350496903"><ele>67.16666666666667</ele><time>2026-04-21T13:38:07Z</time></trkpt><trkpt lat="45.55785998564467" lon="10.715777610116966"><ele>66.0</ele><time>2026-04-21T13:38:09Z</time></trkpt><trkpt lat="45.558051757460085" lon="10.71570675387785"><ele>66.0</ele><time>2026-04-21T13:38:12Z</time></trkpt><trkpt lat="45.558137519697475" lon="10.71565738635461"><ele>66.0</ele><time>2026-04-21T13:38:14Z</time></trkpt><trkpt lat="45.558222823226735" lon="10.715605981528022"><ele>66.0</ele><time>2026-04-21T13:38:15.999Z</time></trkpt><trkpt lat="45.55831873003351" lon="10.71555387998837"><ele>66.0</ele><time>2026-04-21T13:38:17.999Z</time></trkpt><trkpt lat="45.5584011974168" lon="10.715513782638732"><ele>66.0</ele><time>2026-04-21T13:38:19.999Z</time></trkpt><trkpt lat="45.55849546772805" lon="10.715481370604584"><ele>66.0</ele><time>2026-04-21T13:38:21.999Z</time></trkpt><trkpt lat="45.558580655481926" lon="10.71543788686431"><ele>66.0</ele><time>2026-04-21T13:38:23.999Z</time></trkpt><trkpt lat="45.55866510396695" lon="10.715390321032054"><ele>66.0</ele><time>2026-04-21T13:38:25.999Z</time></trkpt><trkpt lat="45.558754287253244" lon="10.71534144580519"><ele>66.0</ele><time>2026-04-21T13:38:27.999Z</time></trkpt><trkpt lat="45.55883799998884" lon="10.715305695177578"><ele>66.0</ele><time>2026-04-21T13:38:29.999Z</time></trkpt><trkpt lat="45.55887703135546" lon="10.715222161861766"><ele>66.0</ele><time>2026-04-21T13:38:30.999Z</time></trkpt><trkpt lat="45.55896288734247" lon="10.715173982719632"><ele>66.0</ele><time>2026-04-21T13:38:32.999Z</time></trkpt><trkpt lat="45.55903707275597" lon="10.715127051974362"><ele>66.0</ele><time>2026-04-21T13:38:34.999Z</time></trkpt><trkpt lat="45.5591285375486" lon="10.715082035004308"><ele>66.0</ele><time>2026-04-21T13:38:36.999Z</time></trkpt><trkpt lat="45.55922344165199" lon="10.715037955580055"><ele>66.0</ele><time>2026-04-21T13:38:38.999Z</time></trkpt><trkpt lat="45.55931483936403" lon="10.71498726425644"><ele>66.0</ele><time>2026-04-21T13:38:40.999Z</time></trkpt><trkpt lat="45.55939818680267" lon="10.714935897509433"><ele>66.0</ele><time>2026-04-21T13:38:42.999Z</time></trkpt><trkpt lat="45.55949021579478" lon="10.714894366194034"><ele>66.0</ele><time>2026-04-21T13:38:44.999Z</time></trkpt><trkpt lat="45.55956933581168" lon="10.714845708125821"><ele>66.0</ele><time>2026-04-21T13:38:46.999Z</time></trkpt><trkpt lat="45.55965114669071" lon="10.71480105186652"><ele>66.0</ele><time>2026-04-21T13:38:48.999Z</time></trkpt><trkpt lat="45.55973042300527" lon="10.71475330311697"><ele>66.0</ele><time>2026-04-21T13:38:50.999Z</time></trkpt><trkpt lat="45.55980578162776" lon="10.714711788128433"><ele>66.0</ele><time>2026-04-21T13:38:52.999Z</time></trkpt><trkpt lat="45.55988365296368" lon="10.714675104567386"><ele>66.33333333333333</ele><time>2026-04-21T13:38:54.999Z</time></trkpt><trkpt lat="45.55996062566044" lon="10.714630853479042"><ele>66.66666666666667</ele><time>2026-04-21T13:38:56.999Z</time></trkpt><trkpt lat="45.56004796276151" lon="10.714615537914453"><ele>67.0</ele><time>2026-04-21T13:38:58.999Z</time></trkpt><trkpt lat="45.560127924283755" lon="10.714558144403563"><ele>67.33333333333334</ele><time>2026-04-21T13:39:00.999Z</time></trkpt><trkpt lat="45.56021676260119" lon="10.71451322877877"><ele>67.66666666666667</ele><time>2026-04-21T13:39:02.999Z</time></trkpt><trkpt lat="45.56029127213568" lon="10.714459703322744"><ele>68.0</ele><time>2026-04-21T13:39:04.999Z</time></trkpt><trkpt lat="45.56037132753126" lon="10.71441307227679"><ele>68.2</ele><time>2026-04-21T13:39:07.001Z</time></trkpt><trkpt lat="45.56046167057485" lon="10.71434558323098"><ele>68.4</ele><time>2026-04-21T13:39:09.001Z</time></trkpt><trkpt lat="45.560552777187844" lon="10.714289912990425"><ele>68.60000000000001</ele><time>2026-04-21T13:39:11.001Z</time></trkpt><trkpt lat="45.56063994991547" lon="10.71422750555518"><ele>68.8</ele><time>2026-04-21T13:39:13.001Z</time></trkpt><trkpt lat="45.560747190111734" lon="10.714154567433184"><ele>69.0</ele><time>2026-04-21T13:39:16.001Z</time></trkpt><trkpt lat="45.56091336139364" lon="10.714103683937088"><ele>69.0</ele><time>2026-04-21T13:39:19.001Z</time></trkpt><trkpt lat="45.5609954463179" lon="10.714042586387334"><ele>69.0</ele><time>2026-04-21T13:39:21Z</time></trkpt><trkpt lat="45.56107716999335" lon="10.71399824580614"><ele>69.0</ele><time>2026-04-21T13:39:23Z</time></trkpt><trkpt lat="45.56115319807167" lon="10.713957751182464"><ele>69.0</ele><time>2026-04-21T13:39:25Z</time></trkpt><trkpt lat="45.561223777226" lon="10.713919592395102"><ele>69.0</ele><time>2026-04-21T13:39:27Z</time></trkpt><trkpt lat="45.56130205566785" lon="10.713851695236418"><ele>69.0</ele><time>2026-04-21T13:39:29Z</time></trkpt><trkpt lat="45.561385072814744" lon="10.713784231359462"><ele>68.60000000000001</ele><time>2026-04-21T13:39:31Z</time></trkpt><trkpt lat="45.56147494251357" lon="10.713723307286575"><ele>68.2</ele><time>2026-04-21T13:39:33Z</time></trkpt><trkpt lat="45.56156380528757" lon="10.713662970750361"><ele>67.80000000000001</ele><time>2026-04-21T13:39:35Z</time></trkpt><trkpt lat="45.561642014167155" lon="10.713611534064077"><ele>67.4</ele><time>2026-04-21T13:39:37Z</time></trkpt><trkpt lat="45.56172586684375" lon="10.713526241530149"><ele>67.0</ele><time>2026-04-21T13:39:39Z</time></trkpt><trkpt lat="45.561792313328205" lon="10.713468771280144"><ele>67.0</ele><time>2026-04-21T13:39:41Z</time></trkpt><trkpt lat="45.56187449492099" lon="10.713413450293823"><ele>67.0</ele><time>2026-04-21T13:39:43Z</time></trkpt><trkpt lat="45.561940544744424" lon="10.713347700067946"><ele>67.0</ele><time>2026-04-21T13:39:45Z</time></trkpt><trkpt lat="45.56201860826684" lon="10.713286996598978"><ele>67.0</ele><time>2026-04-21T13:39:47Z</time></trkpt><trkpt lat="45.56209391965629" lon="10.713228892516977"><ele>67.0</ele><time>2026-04-21T13:39:49Z</time></trkpt><trkpt lat="45.562179360716925" lon="10.71318279656806"><ele>67.0</ele><time>2026-04-21T13:39:51Z</time></trkpt><trkpt lat="45.56225781097603" lon="10.713126613110562"><ele>67.16666666666666</ele><time>2026-04-21T13:39:53Z</time></trkpt><trkpt lat="45.5623379105336" lon="10.713053460034025"><ele>67.33333333333333</ele><time>2026-04-21T13:39:55Z</time></trkpt><trkpt lat="45.56242114072877" lon="10.71300823692083"><ele>67.5</ele><time>2026-04-21T13:39:57Z</time></trkpt><trkpt lat="45.56249348966267" lon="10.712952688656753"><ele>67.66666666666667</ele><time>2026-04-21T13:39:59Z</time></trkpt><trkpt lat="45.56257940831782" lon="10.71290915466421"><ele>67.83333333333334</ele><time>2026-04-21T13:40:01Z</time></trkpt><trkpt lat="45.56265856356008" lon="10.71286226034988"><ele>68.0</ele><time>2026-04-21T13:40:03Z</time></trkpt><trkpt lat="45.56271731101984" lon="10.712796105956647"><ele>67.71428571428571</ele><time>2026-04-21T13:40:05Z</time></trkpt><trkpt lat="45.56277851256416" lon="10.712726064430308"><ele>67.42857142857143</ele><time>2026-04-21T13:40:07Z</time></trkpt><trkpt lat="45.562838674029436" lon="10.712681760913192"><ele>67.14285714285714</ele><time>2026-04-21T13:40:09Z</time></trkpt><trkpt lat="45.56290806787157" lon="10.712634540009502"><ele>66.85714285714286</ele><time>2026-04-21T13:40:11Z</time></trkpt><trkpt lat="45.56297248804515" lon="10.712559300733203"><ele>66.57142857142857</ele><time>2026-04-21T13:40:13Z</time></trkpt><trkpt lat="45.56302929135374" lon="10.71249465431792"><ele>66.28571428571428</ele><time>2026-04-21T13:40:16Z</time></trkpt><trkpt lat="45.56309013691325" lon="10.712449015758594"><ele>66.0</ele><time>2026-04-21T13:40:17Z</time></trkpt><trkpt lat="45.56315621577695" lon="10.712409300698637"><ele>66.0</ele><time>2026-04-21T13:40:18Z</time></trkpt><trkpt lat="45.563229957044754" lon="10.71235233034424"><ele>66.0</ele><time>2026-04-21T13:40:19.999Z</time></trkpt><trkpt lat="45.563296842177564" lon="10.71228370485539"><ele>66.0</ele><time>2026-04-21T13:40:21.999Z</time></trkpt><trkpt lat="45.56335970577564" lon="10.712224986108582"><ele>66.0</ele><time>2026-04-21T13:40:23.999Z</time></trkpt><trkpt lat="45.56342738762295" lon="10.712150508248152"><ele>66.0</ele><time>2026-04-21T13:40:25.999Z</time></trkpt><trkpt lat="45.56349702653958" lon="10.712064093744269"><ele>66.0</ele><time>2026-04-21T13:40:27.999Z</time></trkpt><trkpt lat="45.563559121570016" lon="10.71199436363442"><ele>66.0</ele><time>2026-04-21T13:40:29.999Z</time></trkpt><trkpt lat="45.563616780988134" lon="10.711931532206496"><ele>66.0</ele><time>2026-04-21T13:40:31.999Z</time></trkpt><trkpt lat="45.563672553507054" lon="10.711870281343684"><ele>66.0</ele><time>2026-04-21T13:40:33.999Z</time></trkpt><trkpt lat="45.56374530144133" lon="10.711820204587625"><ele>66.0</ele><time>2026-04-21T13:40:35.999Z</time></trkpt><trkpt lat="45.56376408873201" lon="10.711717840121702"><ele>66.0</ele><time>2026-04-21T13:40:37.999Z</time></trkpt><trkpt lat="45.56383451145662" lon="10.711632145098447"><ele>66.0</ele><time>2026-04-21T13:40:39.999Z</time></trkpt><trkpt lat="45.56390305704164" lon="10.71157494531183"><ele>66.39999999999999</ele><time>2026-04-21T13:40:41.999Z</time></trkpt><trkpt lat="45.56400120787513" lon="10.71148478446403"><ele>66.8</ele><time>2026-04-21T13:40:43.999Z</time></trkpt><trkpt lat="45.56407152204825" lon="10.71139992136183"><ele>67.19999999999999</ele><time>2026-04-21T13:40:45.999Z</time></trkpt><trkpt lat="45.56413872268721" lon="10.7113294027719"><ele>67.6</ele><time>2026-04-21T13:40:48.999Z</time></trkpt><trkpt lat="45.56419213977244" lon="10.711239171486627"><ele>68.0</ele><time>2026-04-21T13:40:51.999Z</time></trkpt><trkpt lat="45.56425151411039" lon="10.711161350825686"><ele>68.66666666666667</ele><time>2026-04-21T13:40:54.999Z</time></trkpt><trkpt lat="45.56427727242262" lon="10.7110589035625"><ele>69.33333333333333</ele><time>2026-04-21T13:40:57.999Z</time></trkpt><trkpt lat="45.56433753326948" lon="10.710979130898464"><ele>70.0</ele><time>2026-04-21T13:40:59.999Z</time></trkpt><trkpt lat="45.56467177326526" lon="10.710861234133617"><ele>70.0</ele><time>2026-04-21T13:41:00.999Z</time></trkpt><trkpt lat="45.564748805556384" lon="10.71078517250368"><ele>70.0</ele><time>2026-04-21T13:41:02.999Z</time></trkpt><trkpt lat="45.564820887293564" lon="10.710718180790003"><ele>70.0</ele><time>2026-04-21T13:41:04.999Z</time></trkpt><trkpt lat="45.564890404160046" lon="10.710646568797992"><ele>70.0</ele><time>2026-04-21T13:41:06.999Z</time></trkpt><trkpt lat="45.56496747930991" lon="10.710579029551143"><ele>70.0</ele><time>2026-04-21T13:41:08.999Z</time></trkpt><trkpt lat="45.56505325133426" lon="10.710500306651726"><ele>70.0</ele><time>2026-04-21T13:41:10.999Z</time></trkpt><trkpt lat="45.565132792291735" lon="10.710441526669694"><ele>70.0</ele><time>2026-04-21T13:41:13.001Z</time></trkpt><trkpt lat="45.56522133199118" lon="10.710398931777725"><ele>70.0</ele><time>2026-04-21T13:41:15.001Z</time></trkpt><trkpt lat="45.56532286001326" lon="10.710362959039148"><ele>70.0</ele><time>2026-04-21T13:41:17Z</time></trkpt><trkpt lat="45.56541417946268" lon="10.710307486725908"><ele>70.0</ele><time>2026-04-21T13:41:19.001Z</time></trkpt><trkpt lat="45.56549263126799" lon="10.71019414110376"><ele>69.5</ele><time>2026-04-21T13:41:23Z</time></trkpt><trkpt lat="45.56556399536533" lon="10.710156114970276"><ele>69.0</ele><time>2026-04-21T13:41:25.001Z</time></trkpt><trkpt lat="45.565806966854446" lon="10.710167960892322"><ele>68.5</ele><time>2026-04-21T13:41:27Z</time></trkpt><trkpt lat="45.56591241378361" lon="10.710158502612742"><ele>68.0</ele><time>2026-04-21T13:41:29Z</time></trkpt><trkpt lat="45.56601128453157" lon="10.710140444320674"><ele>68.0</ele><time>2026-04-21T13:41:31Z</time></trkpt><trkpt lat="45.5661007848339" lon="10.710109490457016"><ele>68.0</ele><time>2026-04-21T13:41:33Z</time></trkpt><trkpt lat="45.56618637616104" lon="10.71007982491644"><ele>68.0</ele><time>2026-04-21T13:41:35Z</time></trkpt><trkpt lat="45.56628610999125" lon="10.71005164287526"><ele>68.0</ele><time>2026-04-21T13:41:37Z</time></trkpt><trkpt lat="45.56637603940183" lon="10.710004938556674"><ele>68.0</ele><time>2026-04-21T13:41:39Z</time></trkpt><trkpt lat="45.566458192978516" lon="10.709953573533593"><ele>69.66666666666667</ele><time>2026-04-21T13:41:41Z</time></trkpt><trkpt lat="45.56653394436621" lon="10.70989856406635"><ele>71.33333333333334</ele><time>2026-04-21T13:41:43Z</time></trkpt><trkpt lat="45.56661313132957" lon="10.709835729653117"><ele>73.0</ele><time>2026-04-21T13:41:45Z</time></trkpt><trkpt lat="45.566641135119795" lon="10.709740327203285"><ele>74.66666666666667</ele><time>2026-04-21T13:41:47Z</time></trkpt><trkpt lat="45.566725825238215" lon="10.70968891993739"><ele>76.33333333333333</ele><time>2026-04-21T13:41:49Z</time></trkpt><trkpt lat="45.566800481395475" lon="10.709630697365505"><ele>78.0</ele><time>2026-04-21T13:41:51Z</time></trkpt><trkpt lat="45.56688130295854" lon="10.709580442561986"><ele>78.0</ele><time>2026-04-21T13:41:53Z</time></trkpt><trkpt lat="45.56695477207105" lon="10.709501442017501"><ele>78.0</ele><time>2026-04-21T13:41:55Z</time></trkpt><trkpt lat="45.567002365209724" lon="10.709441920456609"><ele>78.0</ele><time>2026-04-21T13:41:57Z</time></trkpt><trkpt lat="45.56707100254556" lon="10.709385353663537"><ele>78.0</ele><time>2026-04-21T13:41:58Z</time></trkpt><trkpt lat="45.56714952633261" lon="10.70932777802736"><ele>78.0</ele><time>2026-04-21T13:42:00Z</time></trkpt><trkpt lat="45.567237023331806" lon="10.709293410788472"><ele>78.0</ele><time>2026-04-21T13:42:02Z</time></trkpt><trkpt lat="45.56732273550968" lon="10.70926111462638"><ele>77.5</ele><time>2026-04-21T13:42:04Z</time></trkpt><trkpt lat="45.5673932314091" lon="10.709198663081235"><ele>77.0</ele><time>2026-04-21T13:42:06Z</time></trkpt><trkpt lat="45.56746347031993" lon="10.709133371755637"><ele>76.5</ele><time>2026-04-21T13:42:08Z</time></trkpt><trkpt lat="45.567535522256726" lon="10.709059824406232"><ele>76.0</ele><time>2026-04-21T13:42:10Z</time></trkpt><trkpt lat="45.56760651544737" lon="10.708999812734678"><ele>75.5</ele><time>2026-04-21T13:42:12Z</time></trkpt><trkpt lat="45.56768530666107" lon="10.708946358753666"><ele>75.0</ele><time>2026-04-21T13:42:14Z</time></trkpt><trkpt lat="45.567754230088745" lon="10.708900745040255"><ele>84.0</ele><time>2026-04-21T13:42:16Z</time></trkpt><trkpt lat="45.5679921535599" lon="10.708745567026806"><ele>93.0</ele><time>2026-04-21T13:42:22Z</time></trkpt><trkpt lat="45.5681482015965" lon="10.709026484435592"><ele>93.0</ele><time>2026-04-21T13:42:24.999Z</time></trkpt><trkpt lat="45.568217205208164" lon="10.708995260959178"><ele>93.0</ele><time>2026-04-21T13:42:25.999Z</time></trkpt><trkpt lat="45.56831045154081" lon="10.708953123373567"><ele>93.0</ele><time>2026-04-21T13:42:26.999Z</time></trkpt><trkpt lat="45.568387897877976" lon="10.708918680588958"><ele>93.0</ele><time>2026-04-21T13:42:28.999Z</time></trkpt><trkpt lat="45.56846806028779" lon="10.708883029866003"><ele>93.0</ele><time>2026-04-21T13:42:30.999Z</time></trkpt><trkpt lat="45.56855803104348" lon="10.708843017084666"><ele>93.0</ele><time>2026-04-21T13:42:32.999Z</time></trkpt><trkpt lat="45.56863720792509" lon="10.70881082147378"><ele>95.60000000000001</ele><time>2026-04-21T13:42:34.999Z</time></trkpt><trkpt lat="45.568723201467876" lon="10.7087842413618"><ele>98.2</ele><time>2026-04-21T13:42:36.999Z</time></trkpt><trkpt lat="45.568799777394204" lon="10.708767805164962"><ele>100.8</ele><time>2026-04-21T13:42:38.999Z</time></trkpt><trkpt lat="45.568874930119385" lon="10.70875760810756"><ele>103.4</ele><time>2026-04-21T13:42:40.999Z</time></trkpt><trkpt lat="45.56896576834198" lon="10.708752381071093"><ele>106.0</ele><time>2026-04-21T13:42:42.999Z</time></trkpt><trkpt lat="45.56906653870658" lon="10.708553331711386"><ele>104.00000000000001</ele><time>2026-04-21T13:42:44.999Z</time></trkpt><trkpt lat="45.569120073704674" lon="10.708473574049645"><ele>102.0</ele><time>2026-04-21T13:42:46.999Z</time></trkpt><trkpt lat="45.56920110813072" lon="10.708483417199938"><ele>100.0</ele><time>2026-04-21T13:42:49.999Z</time></trkpt><trkpt lat="45.56930567110426" lon="10.708498995185993"><ele>98.0</ele><time>2026-04-21T13:42:51.999Z</time></trkpt><trkpt lat="45.569367111834204" lon="10.70853367209593"><ele>96.0</ele><time>2026-04-21T13:42:53.999Z</time></trkpt><trkpt lat="45.569443997398196" lon="10.708567915232651"><ele>94.0</ele><time>2026-04-21T13:42:56.999Z</time></trkpt><trkpt lat="45.569551548396255" lon="10.708600240945028"><ele>94.0</ele><time>2026-04-21T13:42:58.999Z</time></trkpt><trkpt lat="45.569636018520704" lon="10.708621281396962"><ele>94.0</ele><time>2026-04-21T13:43:01.999Z</time></trkpt><trkpt lat="45.5697071952878" lon="10.708644731683592"><ele>94.0</ele><time>2026-04-21T13:43:02.999Z</time></trkpt><trkpt lat="45.56977957127693" lon="10.708687712613573"><ele>94.0</ele><time>2026-04-21T13:43:05.999Z</time></trkpt><trkpt lat="45.5698585050174" lon="10.708719622285935"><ele>94.0</ele><time>2026-04-21T13:43:06.999Z</time></trkpt><trkpt lat="45.5699316923361" lon="10.708739625121028"><ele>94.0</ele><time>2026-04-21T13:43:09.999Z</time></trkpt><trkpt lat="45.57000231238828" lon="10.708760622418701"><ele>94.0</ele><time>2026-04-21T13:43:10.999Z</time></trkpt><trkpt lat="45.57007291481371" lon="10.708788043563885"><ele>94.0</ele><time>2026-04-21T13:43:12.999Z</time></trkpt><trkpt lat="45.57017029283614" lon="10.708827961654658"><ele>94.0</ele><time>2026-04-21T13:43:14.999Z</time></trkpt><trkpt lat="45.570254106080206" lon="10.708860921405284"><ele>94.0</ele><time>2026-04-21T13:43:17Z</time></trkpt><trkpt lat="45.570322349835585" lon="10.708903739571719"><ele>94.0</ele><time>2026-04-21T13:43:19Z</time></trkpt><trkpt lat="45.57040192601409" lon="10.7089392915414"><ele>94.0</ele><time>2026-04-21T13:43:21.001Z</time></trkpt><trkpt lat="45.57059492667888" lon="10.709107334481212"><ele>90.0</ele><time>2026-04-21T13:43:22Z</time></trkpt><trkpt lat="45.57067463442667" lon="10.70915174210477"><ele>86.0</ele><time>2026-04-21T13:43:24Z</time></trkpt><trkpt lat="45.570753349958935" lon="10.709194642574506"><ele>82.0</ele><time>2026-04-21T13:43:26Z</time></trkpt><trkpt lat="45.57083684840779" lon="10.709236781139792"><ele>78.0</ele><time>2026-04-21T13:43:28Z</time></trkpt><trkpt lat="45.57092231829797" lon="10.70926945646458"><ele>74.0</ele><time>2026-04-21T13:43:30Z</time></trkpt><trkpt lat="45.57100536322084" lon="10.709302033526328"><ele>70.0</ele><time>2026-04-21T13:43:32Z</time></trkpt><trkpt lat="45.57107764887653" lon="10.709335949770074"><ele>70.0</ele><time>2026-04-21T13:43:34Z</time></trkpt><trkpt lat="45.57115496271574" lon="10.709387044392315"><ele>70.0</ele><time>2026-04-21T13:43:36Z</time></trkpt><trkpt lat="45.57123553557" lon="10.709439101452366"><ele>70.0</ele><time>2026-04-21T13:43:38Z</time></trkpt><trkpt lat="45.571317778119855" lon="10.709481504574565"><ele>70.0</ele><time>2026-04-21T13:43:40Z</time></trkpt><trkpt lat="45.57143518779271" lon="10.709544226448807"><ele>70.0</ele><time>2026-04-21T13:43:43Z</time></trkpt><trkpt lat="45.571416882808826" lon="10.709449889714499"><ele>71.5</ele><time>2026-04-21T13:43:44Z</time></trkpt><trkpt lat="45.57147729027067" lon="10.709481748685695"><ele>73.0</ele><time>2026-04-21T13:43:46Z</time></trkpt><trkpt lat="45.571564560614696" lon="10.709502669231126"><ele>74.5</ele><time>2026-04-21T13:43:48Z</time></trkpt><trkpt lat="45.57164159718985" lon="10.709512694712812"><ele>76.0</ele><time>2026-04-21T13:43:50Z</time></trkpt><trkpt lat="45.5717116700475" lon="10.709528112939141"><ele>77.5</ele><time>2026-04-21T13:43:52Z</time></trkpt><trkpt lat="45.57179087054981" lon="10.70954421978505"><ele>79.0</ele><time>2026-04-21T13:43:54Z</time></trkpt><trkpt lat="45.57187332786624" lon="10.7095617339923"><ele>79.0</ele><time>2026-04-21T13:43:56Z</time></trkpt><trkpt lat="45.571960284848195" lon="10.70956804669836"><ele>79.0</ele><time>2026-04-21T13:43:58Z</time></trkpt><trkpt lat="45.57206281571401" lon="10.709561246405356"><ele>79.0</ele><time>2026-04-21T13:44:01Z</time></trkpt><trkpt lat="45.57226164699815" lon="10.709602070275086"><ele>79.0</ele><time>2026-04-21T13:44:04Z</time></trkpt><trkpt lat="45.57234551095908" lon="10.709580525041572"><ele>77.5</ele><time>2026-04-21T13:44:06Z</time></trkpt><trkpt lat="45.57243224934876" lon="10.709559739378621"><ele>76.0</ele><time>2026-04-21T13:44:08Z</time></trkpt><trkpt lat="45.572516281619656" lon="10.709547837818807"><ele>74.5</ele><time>2026-04-21T13:44:10Z</time></trkpt><trkpt lat="45.57260461155217" lon="10.709534661095304"><ele>73.0</ele><time>2026-04-21T13:44:12Z</time></trkpt><trkpt lat="45.572691602578956" lon="10.70954457532063"><ele>71.5</ele><time>2026-04-21T13:44:14Z</time></trkpt><trkpt lat="45.5727698391793" lon="10.709567549105719"><ele>70.0</ele><time>2026-04-21T13:44:16Z</time></trkpt><trkpt lat="45.57283047297685" lon="10.709653293789804"><ele>70.0</ele><time>2026-04-21T13:44:18Z</time></trkpt><trkpt lat="45.57283398100984" lon="10.709772799355626"><ele>70.0</ele><time>2026-04-21T13:44:20Z</time></trkpt><trkpt lat="45.57286990969661" lon="10.709877178985508"><ele>70.0</ele><time>2026-04-21T13:44:22Z</time></trkpt><trkpt lat="45.572876910730486" lon="10.710007352579545"><ele>70.0</ele><time>2026-04-21T13:44:27Z</time></trkpt><trkpt lat="45.57291056382003" lon="10.710119955591056"><ele>70.0</ele><time>2026-04-21T13:44:28.999Z</time></trkpt><trkpt lat="45.572973902972706" lon="10.710166490125086"><ele>70.0</ele><time>2026-04-21T13:44:32.999Z</time></trkpt><trkpt lat="45.57304019080428" lon="10.710192271120423"><ele>70.0</ele><time>2026-04-21T13:44:34.999Z</time></trkpt><trkpt lat="45.57310438486572" lon="10.710200391605326"><ele>70.0</ele><time>2026-04-21T13:44:36.999Z</time></trkpt><trkpt lat="45.573184366832955" lon="10.71019144896239"><ele>70.0</ele><time>2026-04-21T13:44:39.999Z</time></trkpt><trkpt lat="45.57325898292689" lon="10.710121886481435"><ele>70.0</ele><time>2026-04-21T13:44:41.999Z</time></trkpt><trkpt lat="45.57333155715163" lon="10.710058355735196"><ele>70.0</ele><time>2026-04-21T13:44:43.999Z</time></trkpt><trkpt lat="45.57339859864591" lon="10.71001816524462"><ele>70.0</ele><time>2026-04-21T13:44:45.999Z</time></trkpt><trkpt lat="45.57356467448292" lon="10.710079527127046"><ele>70.0</ele><time>2026-04-21T13:44:46.999Z</time></trkpt><trkpt lat="45.573635463687644" lon="10.710018412364693"><ele>70.0</ele><time>2026-04-21T13:44:48.999Z</time></trkpt><trkpt lat="45.573705561783704" lon="10.709981996822208"><ele>70.0</ele><time>2026-04-21T13:44:50.999Z</time></trkpt><trkpt lat="45.57364780563202" lon="10.709920892465151"><ele>70.0</ele><time>2026-04-21T13:44:53.999Z</time></trkpt><trkpt lat="45.57372172212663" lon="10.709898955156358"><ele>70.0</ele><time>2026-04-21T13:44:56.999Z</time></trkpt><trkpt lat="45.573967400843735" lon="10.709867245565727"><ele>69.83333333333333</ele><time>2026-04-21T13:51:39.877Z</time></trkpt><trkpt lat="45.574043492668835" lon="10.709842808287927"><ele>69.66666666666666</ele><time>2026-04-21T13:51:45.877Z</time></trkpt><trkpt lat="45.57411498141908" lon="10.709813193436782"><ele>69.5</ele><time>2026-04-21T13:51:47.877Z</time></trkpt><trkpt lat="45.57418874100643" lon="10.709798080115673"><ele>69.33333333333333</ele><time>2026-04-21T13:51:50.877Z</time></trkpt><trkpt lat="45.57426576798785" lon="10.709765708577384"><ele>69.16666666666667</ele><time>2026-04-21T13:51:53.877Z</time></trkpt><trkpt lat="45.574370529683144" lon="10.709772657152099"><ele>69.0</ele><time>2026-04-21T13:51:56.877Z</time></trkpt><trkpt lat="45.57443071235095" lon="10.709804119869949"><ele>68.8</ele><time>2026-04-21T13:51:57.992Z</time></trkpt><trkpt lat="45.574547448095004" lon="10.709775849903792"><ele>68.60000000000001</ele><time>2026-04-21T13:51:59.992Z</time></trkpt><trkpt lat="45.57462538652947" lon="10.709757412506399"><ele>68.4</ele><time>2026-04-21T13:52:00.992Z</time></trkpt><trkpt lat="45.5747084830937" lon="10.70974702898866"><ele>68.2</ele><time>2026-04-21T13:52:01.992Z</time></trkpt><trkpt lat="45.574788665766185" lon="10.709669970863912"><ele>68.0</ele><time>2026-04-21T13:52:03.992Z</time></trkpt><trkpt lat="45.57489132132771" lon="10.709606655622894"><ele>68.0</ele><time>2026-04-21T13:52:06.992Z</time></trkpt><trkpt lat="45.57502572243808" lon="10.709433542725632"><ele>68.0</ele><time>2026-04-21T13:52:09.992Z</time></trkpt><trkpt lat="45.575098054287416" lon="10.709361334282383"><ele>68.0</ele><time>2026-04-21T13:52:11.992Z</time></trkpt><trkpt lat="45.57516476291531" lon="10.709308673388378"><ele>68.0</ele><time>2026-04-21T13:52:13.992Z</time></trkpt><trkpt lat="45.57521731462852" lon="10.709240189910068"><ele>68.0</ele><time>2026-04-21T13:52:15.992Z</time></trkpt><trkpt lat="45.57526954057822" lon="10.709166872029487"><ele>68.0</ele><time>2026-04-21T13:52:17.991Z</time></trkpt><trkpt lat="45.575311905948176" lon="10.709094262627584"><ele>68.0</ele><time>2026-04-21T13:52:19.991Z</time></trkpt><trkpt lat="45.5753532960058" lon="10.709023395784238"><ele>68.0</ele><time>2026-04-21T13:52:21.991Z</time></trkpt><trkpt lat="45.575395577088834" lon="10.708953907420748"><ele>68.0</ele><time>2026-04-21T13:52:23.991Z</time></trkpt><trkpt lat="45.57679658437224" lon="10.70832575541231"><ele>69.0</ele><time>2026-04-21T13:53:25.99Z</time></trkpt><trkpt lat="45.57680558588469" lon="10.708217654675591"><ele>70.0</ele><time>2026-04-21T14:00:35Z</time></trkpt><trkpt lat="45.57686613099509" lon="10.708158849513278"><ele>71.0</ele><time>2026-04-21T14:00:38Z</time></trkpt><trkpt lat="45.57694114214372" lon="10.708103171236226"><ele>72.0</ele><time>2026-04-21T14:00:43Z</time></trkpt><trkpt lat="45.577007464983474" lon="10.70813860388814"><ele>73.0</ele><time>2026-04-21T14:00:46Z</time></trkpt><trkpt lat="45.57705858876075" lon="10.708210361075148"><ele>74.0</ele><time>2026-04-21T14:00:48Z</time></trkpt><trkpt lat="45.57711452672102" lon="10.708282945855405"><ele>74.57142857142857</ele><time>2026-04-21T14:00:51Z</time></trkpt><trkpt lat="45.577159446419444" lon="10.70836540382234"><ele>75.14285714285714</ele><time>2026-04-21T14:00:54Z</time></trkpt><trkpt lat="45.57723158926436" lon="10.708401215036131"><ele>75.71428571428572</ele><time>2026-04-21T14:00:57Z</time></trkpt><trkpt lat="45.57729354287904" lon="10.708432474584846"><ele>76.28571428571428</ele><time>2026-04-21T14:01:00Z</time></trkpt><trkpt lat="45.57736151098609" lon="10.708492818373683"><ele>76.85714285714285</ele><time>2026-04-21T14:01:02.999Z</time></trkpt><trkpt lat="45.57741589857002" lon="10.708556625163668"><ele>77.42857142857143</ele><time>2026-04-21T14:01:05.999Z</time></trkpt><trkpt lat="45.5774751312172" lon="10.708610316038657"><ele>78.0</ele><time>2026-04-21T14:01:08.999Z</time></trkpt><trkpt lat="45.57753208384883" lon="10.708672919531173"><ele>78.0</ele><time>2026-04-21T14:01:11.999Z</time></trkpt><trkpt lat="45.57759168777096" lon="10.708716224876573"><ele>78.0</ele><time>2026-04-21T14:01:14.999Z</time></trkpt><trkpt lat="45.5776701710832" lon="10.708751071751607"><ele>78.0</ele><time>2026-04-21T14:01:18.999Z</time></trkpt><trkpt lat="45.57772321596574" lon="10.7088299592243"><ele>78.0</ele><time>2026-04-21T14:01:22.999Z</time></trkpt><trkpt lat="45.57778495315688" lon="10.708898698313538"><ele>78.0</ele><time>2026-04-21T14:01:26.999Z</time></trkpt><trkpt lat="45.57785316761632" lon="10.70896290563464"><ele>78.0</ele><time>2026-04-21T14:01:30.999Z</time></trkpt><trkpt lat="45.577908347149595" lon="10.70904904693036"><ele>79.16666666666667</ele><time>2026-04-21T14:01:34.999Z</time></trkpt><trkpt lat="45.577975609050974" lon="10.709120913020973"><ele>80.33333333333333</ele><time>2026-04-21T14:01:38.999Z</time></trkpt><trkpt lat="45.578035220049756" lon="10.709199185895631"><ele>81.5</ele><time>2026-04-21T14:01:42.999Z</time></trkpt><trkpt lat="45.57810115711772" lon="10.709270193120634"><ele>82.66666666666666</ele><time>2026-04-21T14:01:46.999Z</time></trkpt><trkpt lat="45.578172618147214" lon="10.709327596193726"><ele>83.83333333333333</ele><time>2026-04-21T14:01:50.999Z</time></trkpt><trkpt lat="45.5782475660119" lon="10.70938323188165"><ele>85.0</ele><time>2026-04-21T14:01:54.999Z</time></trkpt><trkpt lat="45.578324940977424" lon="10.709411743928776"><ele>85.0</ele><time>2026-04-21T14:01:58.999Z</time></trkpt><trkpt lat="45.57840970308517" lon="10.709429102318659"><ele>85.0</ele><time>2026-04-21T14:02:02.998Z</time></trkpt><trkpt lat="45.57847262854986" lon="10.709418251664438"><ele>85.0</ele><time>2026-04-21T14:02:05.998Z</time></trkpt><trkpt lat="45.57855375746878" lon="10.709440056813303"><ele>85.0</ele><time>2026-04-21T14:02:09.998Z</time></trkpt><trkpt lat="45.57863128325191" lon="10.709456152048217"><ele>85.0</ele><time>2026-04-21T14:02:13.998Z</time></trkpt><trkpt lat="45.57870807852435" lon="10.709468301008823"><ele>85.0</ele><time>2026-04-21T14:02:17.998Z</time></trkpt><trkpt lat="45.57878240282759" lon="10.709498015507972"><ele>86.28571428571429</ele><time>2026-04-21T14:02:21.998Z</time></trkpt><trkpt lat="45.57885752354909" lon="10.709547791070847"><ele>87.57142857142857</ele><time>2026-04-21T14:02:26Z</time></trkpt><trkpt lat="45.57893051541215" lon="10.709595394071755"><ele>88.85714285714286</ele><time>2026-04-21T14:02:30Z</time></trkpt><trkpt lat="45.578977879039705" lon="10.709659025121962"><ele>90.14285714285714</ele><time>2026-04-21T14:02:33Z</time></trkpt><trkpt lat="45.579028743167505" lon="10.70971556571534"><ele>91.42857142857142</ele><time>2026-04-21T14:02:36Z</time></trkpt><trkpt lat="45.5790713746817" lon="10.709785160846085"><ele>92.71428571428571</ele><time>2026-04-21T14:02:39Z</time></trkpt><trkpt lat="45.57912154565979" lon="10.709860310833024"><ele>94.0</ele><time>2026-04-21T14:02:42Z</time></trkpt><trkpt lat="45.57918173345419" lon="10.70995601533011"><ele>94.0</ele><time>2026-04-21T14:02:45Z</time></trkpt><trkpt lat="45.57923672078671" lon="10.71005128763352"><ele>94.0</ele><time>2026-04-21T14:02:48Z</time></trkpt><trkpt lat="45.57928421063078" lon="10.710166461552731"><ele>94.0</ele><time>2026-04-21T14:02:51Z</time></trkpt><trkpt lat="45.579321148321796" lon="10.71027110058197"><ele>94.0</ele><time>2026-04-21T14:02:53Z</time></trkpt><trkpt lat="45.579358285512896" lon="10.71035648619056"><ele>94.0</ele><time>2026-04-21T14:02:55Z</time></trkpt><trkpt lat="45.57938610442335" lon="10.710457958219932"><ele>94.0</ele><time>2026-04-21T14:02:57Z</time></trkpt><trkpt lat="45.579416311538225" lon="10.71055059216606"><ele>93.66666666666666</ele><time>2026-04-21T14:02:59Z</time></trkpt><trkpt lat="45.57944156067411" lon="10.710649854867077"><ele>93.33333333333333</ele><time>2026-04-21T14:03:01Z</time></trkpt><trkpt lat="45.57946531097753" lon="10.71076049318712"><ele>93.0</ele><time>2026-04-21T14:03:03Z</time></trkpt><trkpt lat="45.57948389548103" lon="10.710871718626269"><ele>92.66666666666667</ele><time>2026-04-21T14:03:05Z</time></trkpt><trkpt lat="45.57949963002793" lon="10.710987999936432"><ele>92.33333333333334</ele><time>2026-04-21T14:03:07Z</time></trkpt><trkpt lat="45.57951397445919" lon="10.71110170980317"><ele>92.0</ele><time>2026-04-21T14:03:08.999Z</time></trkpt><trkpt lat="45.57952795549138" lon="10.711235342980837"><ele>92.8</ele><time>2026-04-21T14:03:10.999Z</time></trkpt><trkpt lat="45.57954348613715" lon="10.711358605053091"><ele>93.6</ele><time>2026-04-21T14:03:12.999Z</time></trkpt><trkpt lat="45.579562560869824" lon="10.711491801521042"><ele>94.39999999999999</ele><time>2026-04-21T14:03:14.999Z</time></trkpt><trkpt lat="45.57958035688405" lon="10.71162460533253"><ele>95.19999999999999</ele><time>2026-04-21T14:03:16.999Z</time></trkpt><trkpt lat="45.57958521300003" lon="10.711752628275748"><ele>96.0</ele><time>2026-04-21T14:03:18.999Z</time></trkpt><trkpt lat="45.57961850003535" lon="10.7120042351076"><ele>96.0</ele><time>2026-04-21T14:03:20.999Z</time></trkpt><trkpt lat="45.579646808682526" lon="10.712162305586306"><ele>96.0</ele><time>2026-04-21T14:03:22.999Z</time></trkpt><trkpt lat="45.579667804867455" lon="10.712327758355892"><ele>96.0</ele><time>2026-04-21T14:03:24.999Z</time></trkpt><trkpt lat="45.57969993263617" lon="10.712496538624912"><ele>96.0</ele><time>2026-04-21T14:03:26.999Z</time></trkpt><trkpt lat="45.579735195694234" lon="10.712664927230149"><ele>95.5</ele><time>2026-04-21T14:03:28.999Z</time></trkpt><trkpt lat="45.579771457919456" lon="10.712843585393777"><ele>95.0</ele><time>2026-04-21T14:03:30.999Z</time></trkpt><trkpt lat="45.579790993172594" lon="10.712935514179517"><ele>94.5</ele><time>2026-04-21T14:03:31.999Z</time></trkpt><trkpt lat="45.579803155638324" lon="10.71302506082674"><ele>94.0</ele><time>2026-04-21T14:03:32.999Z</time></trkpt><trkpt lat="45.57982517802298" lon="10.71311452316793"><ele>93.5</ele><time>2026-04-21T14:03:33.999Z</time></trkpt><trkpt lat="45.57984926549661" lon="10.713203820938752"><ele>93.0</ele><time>2026-04-21T14:03:34.999Z</time></trkpt><trkpt lat="45.579863643113306" lon="10.713296585668353"><ele>93.00000000000001</ele><time>2026-04-21T14:03:35.999Z</time></trkpt><trkpt lat="45.57987899488201" lon="10.713389878418694"><ele>93.0</ele><time>2026-04-21T14:03:36.999Z</time></trkpt><trkpt lat="45.579896153485066" lon="10.713485938157243"><ele>93.0</ele><time>2026-04-21T14:03:37.999Z</time></trkpt><trkpt lat="45.57991266974668" lon="10.713581400382441"><ele>93.0</ele><time>2026-04-21T14:03:38.999Z</time></trkpt><trkpt lat="45.57995044093048" lon="10.713700020527606"><ele>93.0</ele><time>2026-04-21T14:03:39.999Z</time></trkpt><trkpt lat="45.57997098709166" lon="10.713787236080998"><ele>93.00000000000001</ele><time>2026-04-21T14:03:40.999Z</time></trkpt><trkpt lat="45.579990113597624" lon="10.71387477657442"><ele>93.0</ele><time>2026-04-21T14:03:41.999Z</time></trkpt><trkpt lat="45.579994604520856" lon="10.713971504898431"><ele>92.80000000000001</ele><time>2026-04-21T14:03:42.999Z</time></trkpt><trkpt lat="45.580009675068446" lon="10.714067878588493"><ele>92.6</ele><time>2026-04-21T14:03:43.999Z</time></trkpt><trkpt lat="45.58004959613799" lon="10.714235905285012"><ele>92.4</ele><time>2026-04-21T14:03:45.999Z</time></trkpt><trkpt lat="45.58006288233882" lon="10.714330177839834"><ele>92.19999999999999</ele><time>2026-04-21T14:03:46.999Z</time></trkpt><trkpt lat="45.58009724254897" lon="10.714496925544053"><ele>92.0</ele><time>2026-04-21T14:03:48.999Z</time></trkpt><trkpt lat="45.58012108630018" lon="10.714674971651013"><ele>91.75</ele><time>2026-04-21T14:03:50.999Z</time></trkpt><trkpt lat="45.580141501588955" lon="10.714849601707684"><ele>91.5</ele><time>2026-04-21T14:03:52.999Z</time></trkpt><trkpt lat="45.58016572067414" lon="10.715022949324453"><ele>91.25</ele><time>2026-04-21T14:03:54.999Z</time></trkpt><trkpt lat="45.58019296985716" lon="10.715192381210246"><ele>91.0</ele><time>2026-04-21T14:03:56.999Z</time></trkpt><trkpt lat="45.58021686251412" lon="10.715361513088109"><ele>91.0</ele><time>2026-04-21T14:03:58.999Z</time></trkpt><trkpt lat="45.58024412950847" lon="10.715525714125745"><ele>91.0</ele><time>2026-04-21T14:04:00.999Z</time></trkpt><trkpt lat="45.58025144084597" lon="10.7156744303723"><ele>91.0</ele><time>2026-04-21T14:04:02.999Z</time></trkpt><trkpt lat="45.58026247773031" lon="10.715806309868356"><ele>91.0</ele><time>2026-04-21T14:04:04.999Z</time></trkpt><trkpt lat="45.5802618567795" lon="10.715940083762302"><ele>91.0</ele><time>2026-04-21T14:04:06.999Z</time></trkpt><trkpt lat="45.58026259917913" lon="10.716066937450657"><ele>91.28571428571429</ele><time>2026-04-21T14:04:08.998Z</time></trkpt><trkpt lat="45.58026909213856" lon="10.716182842023434"><ele>91.57142857142857</ele><time>2026-04-21T14:04:11.998Z</time></trkpt><trkpt lat="45.58026800604757" lon="10.716284284137235"><ele>91.85714285714286</ele><time>2026-04-21T14:04:12.998Z</time></trkpt><trkpt lat="45.580273020170466" lon="10.716384950868596"><ele>92.14285714285714</ele><time>2026-04-21T14:04:14.998Z</time></trkpt><trkpt lat="45.580278024867894" lon="10.716478137181095"><ele>92.42857142857143</ele><time>2026-04-21T14:04:15.998Z</time></trkpt><trkpt lat="45.58027367603668" lon="10.71657155178156"><ele>92.71428571428572</ele><time>2026-04-21T14:04:17.998Z</time></trkpt><trkpt lat="45.58026479518937" lon="10.716673394852146"><ele>93.0</ele><time>2026-04-21T14:04:19.998Z</time></trkpt><trkpt lat="45.58019920355163" lon="10.716815298213714"><ele>93.2</ele><time>2026-04-21T14:04:21.998Z</time></trkpt><trkpt lat="45.580183481413414" lon="10.71696542726625"><ele>93.4</ele><time>2026-04-21T14:04:23.998Z</time></trkpt><trkpt lat="45.58012902136851" lon="10.717061376317186"><ele>93.60000000000001</ele><time>2026-04-21T14:04:25.998Z</time></trkpt><trkpt lat="45.58008347758833" lon="10.717127014935606"><ele>93.80000000000001</ele><time>2026-04-21T14:04:26.998Z</time></trkpt><trkpt lat="45.58001101435564" lon="10.71723390167516"><ele>94.0</ele><time>2026-04-21T14:04:28.998Z</time></trkpt><trkpt lat="45.57995262746517" lon="10.717368510907136"><ele>94.0</ele><time>2026-04-21T14:04:31Z</time></trkpt><trkpt lat="45.57991206063476" lon="10.717513330395793"><ele>94.0</ele><time>2026-04-21T14:04:33Z</time></trkpt><trkpt lat="45.579903114133515" lon="10.717667983979673"><ele>94.0</ele><time>2026-04-21T14:04:35Z</time></trkpt><trkpt lat="45.57990980661086" lon="10.717814369120932"><ele>94.0</ele><time>2026-04-21T14:04:37Z</time></trkpt><trkpt lat="45.57990050819237" lon="10.717950814628312"><ele>94.0</ele><time>2026-04-21T14:04:39Z</time></trkpt><trkpt lat="45.57990607109716" lon="10.718078635869066"><ele>94.33333333333333</ele><time>2026-04-21T14:04:41Z</time></trkpt><trkpt lat="45.579907695530046" lon="10.718196278209678"><ele>94.66666666666666</ele><time>2026-04-21T14:04:43Z</time></trkpt><trkpt lat="45.579911668256734" lon="10.71830232722875"><ele>95.0</ele><time>2026-04-21T14:04:45Z</time></trkpt><trkpt lat="45.57990657948867" lon="10.718404125539838"><ele>95.33333333333333</ele><time>2026-04-21T14:04:47Z</time></trkpt><trkpt lat="45.57987608757728" lon="10.718513614948451"><ele>95.66666666666667</ele><time>2026-04-21T14:04:50Z</time></trkpt><trkpt lat="45.57982608337777" lon="10.71865386544457"><ele>96.0</ele><time>2026-04-21T14:04:54Z</time></trkpt><trkpt lat="45.57978354853518" lon="10.71873856879488"><ele>96.33333333333333</ele><time>2026-04-21T14:04:57Z</time></trkpt><trkpt lat="45.57974383341042" lon="10.718839686159567"><ele>96.66666666666666</ele><time>2026-04-21T14:05:00Z</time></trkpt><trkpt lat="45.579704124835516" lon="10.718932437292171"><ele>97.0</ele><time>2026-04-21T14:05:03Z</time></trkpt><trkpt lat="45.57966218895923" lon="10.719038337821079"><ele>97.33333333333333</ele><time>2026-04-21T14:05:06Z</time></trkpt><trkpt lat="45.57961878521778" lon="10.719136469155252"><ele>97.66666666666666</ele><time>2026-04-21T14:05:09Z</time></trkpt><trkpt lat="45.57957845321154" lon="10.719218530681642"><ele>98.0</ele><time>2026-04-21T14:05:12Z</time></trkpt><trkpt lat="45.5795299883504" lon="10.719281720159435"><ele>97.83333333333333</ele><time>2026-04-21T14:05:19.999Z</time></trkpt><trkpt lat="45.57947038885152" lon="10.719342731528632"><ele>97.66666666666666</ele><time>2026-04-21T14:05:21.999Z</time></trkpt><trkpt lat="45.5794505145714" lon="10.719428303382882"><ele>97.5</ele><time>2026-04-21T14:05:23.999Z</time></trkpt><trkpt lat="45.57948744382126" lon="10.719557719669671"><ele>97.33333333333334</ele><time>2026-04-21T14:05:26.999Z</time></trkpt><trkpt lat="45.57951709800801" lon="10.719675629063316"><ele>97.16666666666667</ele><time>2026-04-21T14:05:29.999Z</time></trkpt><trkpt lat="45.579545605770264" lon="10.719773642494523"><ele>97.0</ele><time>2026-04-21T14:05:32.999Z</time></trkpt><trkpt lat="45.579568342995" lon="10.71987560178201"><ele>97.66666666666667</ele><time>2026-04-21T14:05:35.999Z</time></trkpt><trkpt lat="45.57959532755609" lon="10.719979150921082"><ele>98.33333333333334</ele><time>2026-04-21T14:05:38.999Z</time></trkpt><trkpt lat="45.579624038650515" lon="10.720085399516151"><ele>99.0</ele><time>2026-04-21T14:05:41.999Z</time></trkpt><trkpt lat="45.579650808043155" lon="10.720183969656905"><ele>99.66666666666666</ele><time>2026-04-21T14:05:44.999Z</time></trkpt><trkpt lat="45.579677284840756" lon="10.720278177305378"><ele>100.33333333333333</ele><time>2026-04-21T14:05:47.999Z</time></trkpt><trkpt lat="45.57970563009139" lon="10.720382126951513"><ele>101.0</ele><time>2026-04-21T14:05:50.999Z</time></trkpt><trkpt lat="45.579747782297915" lon="10.720509886204626"><ele>101.66666666666666</ele><time>2026-04-21T14:05:53.999Z</time></trkpt><trkpt lat="45.579783734241495" lon="10.7206210151152"><ele>102.33333333333333</ele><time>2026-04-21T14:05:57.999Z</time></trkpt><trkpt lat="45.57981149206122" lon="10.720725940963165"><ele>103.0</ele><time>2026-04-21T14:06:00.999Z</time></trkpt><trkpt lat="45.5798436816721" lon="10.72082333232016"><ele>103.66666666666666</ele><time>2026-04-21T14:06:03.999Z</time></trkpt><trkpt lat="45.579889023199954" lon="10.72091691950154"><ele>104.33333333333333</ele><time>2026-04-21T14:06:06.999Z</time></trkpt><trkpt lat="45.57992532371948" lon="10.721000270152912"><ele>105.0</ele><time>2026-04-21T14:06:09.999Z</time></trkpt><trkpt lat="45.57995884437841" lon="10.721088140708698"><ele>105.14285714285714</ele><time>2026-04-21T14:06:12.999Z</time></trkpt><trkpt lat="45.57999231176939" lon="10.721175154425824"><ele>105.28571428571428</ele><time>2026-04-21T14:06:15.998Z</time></trkpt><trkpt lat="45.58003002639131" lon="10.721257559249514"><ele>105.42857142857143</ele><time>2026-04-21T14:06:18.998Z</time></trkpt><trkpt lat="45.580071084447745" lon="10.721347922365432"><ele>105.57142857142857</ele><time>2026-04-21T14:06:21.998Z</time></trkpt><trkpt lat="45.58009677117893" lon="10.721432997712503"><ele>105.71428571428571</ele><time>2026-04-21T14:06:24.998Z</time></trkpt><trkpt lat="45.58013286707206" lon="10.72151360867089"><ele>105.85714285714286</ele><time>2026-04-21T14:06:27.998Z</time></trkpt><trkpt lat="45.58016932607643" lon="10.721599149821769"><ele>106.0</ele><time>2026-04-21T14:06:30.998Z</time></trkpt><trkpt lat="45.5802091706548" lon="10.721676713195196"><ele>106.0</ele><time>2026-04-21T14:06:33.998Z</time></trkpt><trkpt lat="45.58025447809824" lon="10.721768034823057"><ele>106.0</ele><time>2026-04-21T14:06:38Z</time></trkpt><trkpt lat="45.580289519720615" lon="10.721843764376935"><ele>106.0</ele><time>2026-04-21T14:06:41Z</time></trkpt><trkpt lat="45.580330977710545" lon="10.721919653194758"><ele>106.0</ele><time>2026-04-21T14:06:44Z</time></trkpt><trkpt lat="45.58036419553708" lon="10.7219966335166"><ele>106.0</ele><time>2026-04-21T14:06:47Z</time></trkpt><trkpt lat="45.58040211250225" lon="10.722098612518966"><ele>106.0</ele><time>2026-04-21T14:06:51Z</time></trkpt><trkpt lat="45.5804587503659" lon="10.72217999380194"><ele>106.0</ele><time>2026-04-21T14:06:55Z</time></trkpt><trkpt lat="45.580524422644885" lon="10.722250112293464"><ele>106.83333333333334</ele><time>2026-04-21T14:06:59Z</time></trkpt><trkpt lat="45.580581263761864" lon="10.72233714765073"><ele>107.66666666666667</ele><time>2026-04-21T14:07:03Z</time></trkpt><trkpt lat="45.5806383052687" lon="10.722422223561326"><ele>108.5</ele><time>2026-04-21T14:07:07Z</time></trkpt><trkpt lat="45.58070084524598" lon="10.722503171174576"><ele>109.33333333333334</ele><time>2026-04-21T14:07:11Z</time></trkpt><trkpt lat="45.580744275446676" lon="10.722574390193593"><ele>110.16666666666667</ele><time>2026-04-21T14:07:14Z</time></trkpt><trkpt lat="45.58080537435459" lon="10.722656288147467"><ele>111.0</ele><time>2026-04-21T14:07:18Z</time></trkpt><trkpt lat="45.58086028452745" lon="10.72272192033985"><ele>111.28571428571428</ele><time>2026-04-21T14:07:20.999Z</time></trkpt><trkpt lat="45.580911117962025" lon="10.722776855479948"><ele>111.57142857142858</ele><time>2026-04-21T14:07:23.999Z</time></trkpt><trkpt lat="45.58097737377004" lon="10.722849062933575"><ele>111.85714285714286</ele><time>2026-04-21T14:07:27.999Z</time></trkpt><trkpt lat="45.58104504736639" lon="10.722921042482676"><ele>112.14285714285714</ele><time>2026-04-21T14:07:31.999Z</time></trkpt><trkpt lat="45.581095622394265" lon="10.72297979248719"><ele>112.42857142857142</ele><time>2026-04-21T14:07:34.999Z</time></trkpt><trkpt lat="45.581162483222705" lon="10.723052843176772"><ele>112.71428571428572</ele><time>2026-04-21T14:07:38.999Z</time></trkpt><trkpt lat="45.58121630692836" lon="10.723101529618377"><ele>113.0</ele><time>2026-04-21T14:07:41.999Z</time></trkpt><trkpt lat="45.581269375153624" lon="10.723150562792311"><ele>113.42857142857143</ele><time>2026-04-21T14:07:44.999Z</time></trkpt><trkpt lat="45.58132130369674" lon="10.723204030450079"><ele>113.85714285714286</ele><time>2026-04-21T14:07:47.999Z</time></trkpt><trkpt lat="45.581376211492696" lon="10.7232604081846"><ele>114.28571428571429</ele><time>2026-04-21T14:07:50.999Z</time></trkpt><trkpt lat="45.581429112307475" lon="10.723319903116382"><ele>114.71428571428572</ele><time>2026-04-21T14:07:53.999Z</time></trkpt><trkpt lat="45.581483834319926" lon="10.723376486454084"><ele>115.14285714285714</ele><time>2026-04-21T14:07:56.999Z</time></trkpt><trkpt lat="45.58153772258948" lon="10.723428034785226"><ele>115.57142857142858</ele><time>2026-04-21T14:07:59.999Z</time></trkpt><trkpt lat="45.581586349692195" lon="10.723490218205846"><ele>116.00000000000001</ele><time>2026-04-21T14:08:02.999Z</time></trkpt><trkpt lat="45.58164500089156" lon="10.72353595426822"><ele>115.85714285714288</ele><time>2026-04-21T14:08:05.999Z</time></trkpt><trkpt lat="45.58169103121448" lon="10.723610297644855"><ele>115.71428571428572</ele><time>2026-04-21T14:08:08.999Z</time></trkpt><trkpt lat="45.581747547891624" lon="10.723653080272099"><ele>115.57142857142857</ele><time>2026-04-21T14:08:11.999Z</time></trkpt><trkpt lat="45.58180437019112" lon="10.723698849797"><ele>115.42857142857143</ele><time>2026-04-21T14:08:14.999Z</time></trkpt><trkpt lat="45.581875275316726" lon="10.723755378650772"><ele>115.28571428571428</ele><time>2026-04-21T14:08:18.998Z</time></trkpt><trkpt lat="45.58193028569605" lon="10.7238217383775"><ele>115.14285714285712</ele><time>2026-04-21T14:08:21.998Z</time></trkpt><trkpt lat="45.581977497573924" lon="10.723887631099688"><ele>114.99999999999999</ele><time>2026-04-21T14:08:24.998Z</time></trkpt><trkpt lat="45.58203061891888" lon="10.72394747882507"><ele>115.57142857142856</ele><time>2026-04-21T14:08:27.998Z</time></trkpt><trkpt lat="45.58208250521383" lon="10.724012554370905"><ele>116.14285714285714</ele><time>2026-04-21T14:08:30.998Z</time></trkpt><trkpt lat="45.58212694994583" lon="10.724076554438302"><ele>116.71428571428571</ele><time>2026-04-21T14:08:33.998Z</time></trkpt><trkpt lat="45.58217751040458" lon="10.724146747793139"><ele>117.28571428571428</ele><time>2026-04-21T14:08:37.998Z</time></trkpt><trkpt lat="45.58222144363709" lon="10.72421157472129"><ele>117.85714285714286</ele><time>2026-04-21T14:08:40.998Z</time></trkpt><trkpt lat="45.58226934029413" lon="10.724274602597543"><ele>118.42857142857143</ele><time>2026-04-21T14:08:44Z</time></trkpt><trkpt lat="45.582326539249905" lon="10.724360776246039"><ele>119.0</ele><time>2026-04-21T14:08:48Z</time></trkpt><trkpt lat="45.58236837657349" lon="10.724431111136264"><ele>119.49999999999999</ele><time>2026-04-21T14:08:51Z</time></trkpt><trkpt lat="45.58241462967438" lon="10.724516327075282"><ele>120.0</ele><time>2026-04-21T14:08:55Z</time></trkpt><trkpt lat="45.58247113449738" lon="10.72460584279582"><ele>120.5</ele><time>2026-04-21T14:08:59Z</time></trkpt><trkpt lat="45.58251373945363" lon="10.724673499776832"><ele>121.0</ele><time>2026-04-21T14:09:02Z</time></trkpt><trkpt lat="45.58256977917916" lon="10.7247590187259"><ele>121.49999999999999</ele><time>2026-04-21T14:09:06Z</time></trkpt><trkpt lat="45.582620288708675" lon="10.72484596785596"><ele>122.0</ele><time>2026-04-21T14:09:10Z</time></trkpt><trkpt lat="45.58265927531338" lon="10.724932637980679"><ele>121.99999999999999</ele><time>2026-04-21T14:09:13Z</time></trkpt><trkpt lat="45.582705202333656" lon="10.725015495473464"><ele>122.0</ele><time>2026-04-21T14:09:17Z</time></trkpt><trkpt lat="45.5827464855803" lon="10.725095639266709"><ele>122.0</ele><time>2026-04-21T14:09:21Z</time></trkpt><trkpt lat="45.582808455359334" lon="10.725157457254832"><ele>122.0</ele><time>2026-04-21T14:09:24.999Z</time></trkpt><trkpt lat="45.58287316483664" lon="10.725220818896606"><ele>121.99999999999999</ele><time>2026-04-21T14:09:28.999Z</time></trkpt><trkpt lat="45.582924794699665" lon="10.725303064115492"><ele>122.0</ele><time>2026-04-21T14:09:32.999Z</time></trkpt><trkpt lat="45.58298007417617" lon="10.725386469567518"><ele>122.99999999999999</ele><time>2026-04-21T14:09:36.999Z</time></trkpt><trkpt lat="45.583037131109805" lon="10.725480048481787"><ele>124.0</ele><time>2026-04-21T14:09:40.999Z</time></trkpt><trkpt lat="45.58311587836277" lon="10.725482977888435"><ele>125.0</ele><time>2026-04-21T14:09:44.999Z</time></trkpt><trkpt lat="45.58319549410198" lon="10.725482947930049"><ele>126.0</ele><time>2026-04-21T14:09:48.999Z</time></trkpt><trkpt lat="45.58325661391373" lon="10.725460950635355"><ele>126.99999999999999</ele><time>2026-04-21T14:09:51.999Z</time></trkpt><trkpt lat="45.583338146458345" lon="10.725452630019284"><ele>128.0</ele><time>2026-04-21T14:09:55.999Z</time></trkpt><trkpt lat="45.583417310504544" lon="10.725446572217338"><ele>127.99999999999999</ele><time>2026-04-21T14:09:59.999Z</time></trkpt><trkpt lat="45.583492157410845" lon="10.725431133317285"><ele>128.0</ele><time>2026-04-21T14:10:03.999Z</time></trkpt><trkpt lat="45.583566463367866" lon="10.725410266500004"><ele>128.0</ele><time>2026-04-21T14:10:07.999Z</time></trkpt><trkpt lat="45.58364539092568" lon="10.725414595642235"><ele>128.0</ele><time>2026-04-21T14:10:11.999Z</time></trkpt><trkpt lat="45.58372183728729" lon="10.725394287145647"><ele>127.99999999999999</ele><time>2026-04-21T14:10:15.999Z</time></trkpt><trkpt lat="45.5837936193997" lon="10.725360261735064"><ele>128.0</ele><time>2026-04-21T14:10:19.999Z</time></trkpt><trkpt lat="45.583869142759625" lon="10.725352474853523"><ele>129.33333333333331</ele><time>2026-04-21T14:10:23.998Z</time></trkpt><trkpt lat="45.58394484010125" lon="10.725337607926466"><ele>130.66666666666666</ele><time>2026-04-21T14:10:27.998Z</time></trkpt><trkpt lat="45.58401979257187" lon="10.725317860234684"><ele>132.0</ele><time>2026-04-21T14:10:31.998Z</time></trkpt><trkpt lat="45.584094029297596" lon="10.725293146902962"><ele>133.33333333333334</ele><time>2026-04-21T14:10:35.998Z</time></trkpt><trkpt lat="45.584168342084695" lon="10.72527372316855"><ele>134.66666666666669</ele><time>2026-04-21T14:10:39.998Z</time></trkpt><trkpt lat="45.58424563462655" lon="10.725257137595982"><ele>136.0</ele><time>2026-04-21T14:10:43.998Z</time></trkpt><trkpt lat="45.58432031032195" lon="10.72526018478473"><ele>136.0</ele><time>2026-04-21T14:10:48Z</time></trkpt><trkpt lat="45.58441054268315" lon="10.72526054684829"><ele>136.0</ele><time>2026-04-21T14:10:52Z</time></trkpt><trkpt lat="45.584492571886386" lon="10.725273991673616"><ele>136.0</ele><time>2026-04-21T14:10:56Z</time></trkpt><trkpt lat="45.58456244826447" lon="10.725277053711569"><ele>136.0</ele><time>2026-04-21T14:11:00Z</time></trkpt><trkpt lat="45.58463866168421" lon="10.725282640755244"><ele>136.0</ele><time>2026-04-21T14:11:04Z</time></trkpt><trkpt lat="45.58471830730872" lon="10.725295834824975"><ele>136.0</ele><time>2026-04-21T14:11:08Z</time></trkpt><trkpt lat="45.58479830593598" lon="10.72531564802484"><ele>137.0</ele><time>2026-04-21T14:11:12Z</time></trkpt><trkpt lat="45.584878404866735" lon="10.725331574189518"><ele>138.0</ele><time>2026-04-21T14:11:16Z</time></trkpt><trkpt lat="45.5849548554827" lon="10.725364477310995"><ele>139.0</ele><time>2026-04-21T14:11:20Z</time></trkpt><trkpt lat="45.58502588766625" lon="10.725406502705177"><ele>140.0</ele><time>2026-04-21T14:11:24Z</time></trkpt><trkpt lat="45.5851020035571" lon="10.725455221992164"><ele>141.0</ele><time>2026-04-21T14:11:28Z</time></trkpt><trkpt lat="45.585169306169135" lon="10.725522713012557"><ele>142.0</ele><time>2026-04-21T14:11:31.999Z</time></trkpt><trkpt lat="45.585235227529026" lon="10.72559244362949"><ele>142.0</ele><time>2026-04-21T14:11:35.999Z</time></trkpt><trkpt lat="45.58529609344113" lon="10.725662391380784"><ele>142.0</ele><time>2026-04-21T14:11:39.999Z</time></trkpt><trkpt lat="45.58536687823364" lon="10.725722884188555"><ele>142.0</ele><time>2026-04-21T14:11:43.999Z</time></trkpt><trkpt lat="45.585420675799206" lon="10.725769811569817"><ele>142.0</ele><time>2026-04-21T14:11:46.999Z</time></trkpt><trkpt lat="45.58548681036375" lon="10.72583879811436"><ele>142.0</ele><time>2026-04-21T14:11:50.999Z</time></trkpt><trkpt lat="45.58555389239703" lon="10.725906500178285"><ele>142.0</ele><time>2026-04-21T14:11:54.999Z</time></trkpt><trkpt lat="45.58561455642765" lon="10.725986211638546"><ele>142.83333333333334</ele><time>2026-04-21T14:11:58.999Z</time></trkpt><trkpt lat="45.585673326047186" lon="10.72606738462991"><ele>143.66666666666669</ele><time>2026-04-21T14:12:02.999Z</time></trkpt><trkpt lat="45.58572527829526" lon="10.72615920438491"><ele>144.5</ele><time>2026-04-21T14:12:06.999Z</time></trkpt><trkpt lat="45.585769299680024" lon="10.726251634323589"><ele>145.33333333333334</ele><time>2026-04-21T14:12:10.999Z</time></trkpt><trkpt lat="45.585812799472315" lon="10.726340672640829"><ele>146.16666666666666</ele><time>2026-04-21T14:12:14.999Z</time></trkpt><trkpt lat="45.58585729990285" lon="10.726436878579232"><ele>147.0</ele><time>2026-04-21T14:12:18.999Z</time></trkpt><trkpt lat="45.585881442548455" lon="10.72652059063985"><ele>147.0</ele><time>2026-04-21T14:12:22.999Z</time></trkpt><trkpt lat="45.58591269962132" lon="10.726606909120093"><ele>147.0</ele><time>2026-04-21T14:12:29.998Z</time></trkpt><trkpt lat="45.585940913806624" lon="10.726711357009059"><ele>147.0</ele><time>2026-04-21T14:13:48.999Z</time></trkpt><trkpt lat="45.5859902039092" lon="10.726804835484085"><ele>147.0</ele><time>2026-04-21T14:13:51.999Z</time></trkpt><trkpt lat="45.58602537550683" lon="10.726921691112054"><ele>147.0</ele><time>2026-04-21T14:13:54.999Z</time></trkpt><trkpt lat="45.58606501494578" lon="10.72702082596607"><ele>147.0</ele><time>2026-04-21T14:13:57.999Z</time></trkpt><trkpt lat="45.58611199517281" lon="10.727130521326231"><ele>147.71428571428572</ele><time>2026-04-21T14:14:00.999Z</time></trkpt><trkpt lat="45.586138574505924" lon="10.727224861870013"><ele>148.42857142857144</ele><time>2026-04-21T14:14:02.999Z</time></trkpt><trkpt lat="45.58615617146946" lon="10.727340383070988"><ele>149.14285714285714</ele><time>2026-04-21T14:14:04.999Z</time></trkpt><trkpt lat="45.58615514940108" lon="10.727456503090716"><ele>149.85714285714286</ele><time>2026-04-21T14:14:06.999Z</time></trkpt><trkpt lat="45.5861936726089" lon="10.727552758812656"><ele>150.57142857142858</ele><time>2026-04-21T14:14:08.999Z</time></trkpt><trkpt lat="45.586221292487366" lon="10.727639545504337"><ele>151.28571428571428</ele><time>2026-04-21T14:14:10.999Z</time></trkpt><trkpt lat="45.58626011961884" lon="10.727713056018334"><ele>152.0</ele><time>2026-04-21T14:14:12.999Z</time></trkpt><trkpt lat="45.58629997806775" lon="10.727819242862017"><ele>153.42857142857142</ele><time>2026-04-21T14:14:15.999Z</time></trkpt><trkpt lat="45.586354478437535" lon="10.727896152231411"><ele>154.85714285714286</ele><time>2026-04-21T14:14:18.999Z</time></trkpt><trkpt lat="45.5864114574823" lon="10.727973456006342"><ele>156.28571428571428</ele><time>2026-04-21T14:14:21.999Z</time></trkpt><trkpt lat="45.58646515946943" lon="10.728032925788924"><ele>157.71428571428572</ele><time>2026-04-21T14:14:24.999Z</time></trkpt><trkpt lat="45.586520527574145" lon="10.728095856575585"><ele>159.14285714285714</ele><time>2026-04-21T14:14:27.999Z</time></trkpt><trkpt lat="45.58658164392945" lon="10.728154990888505"><ele>160.57142857142858</ele><time>2026-04-21T14:14:30.999Z</time></trkpt><trkpt lat="45.586639110925454" lon="10.728203250698874"><ele>162.0</ele><time>2026-04-21T14:14:33.998Z</time></trkpt><trkpt lat="45.586705308456864" lon="10.728255357406573"><ele>162.0</ele><time>2026-04-21T14:14:36.998Z</time></trkpt><trkpt lat="45.586781621627026" lon="10.728295535884723"><ele>162.0</ele><time>2026-04-21T14:14:40.998Z</time></trkpt><trkpt lat="45.58687293007245" lon="10.72834263098513"><ele>162.0</ele><time>2026-04-21T14:14:43.998Z</time></trkpt><trkpt lat="45.58694649057937" lon="10.72839614183916"><ele>162.0</ele><time>2026-04-21T14:14:46.998Z</time></trkpt><trkpt lat="45.58701897356082" lon="10.728448135506836"><ele>162.0</ele><time>2026-04-21T14:14:49.998Z</time></trkpt><trkpt lat="45.587082484260264" lon="10.728489827635494"><ele>162.0</ele><time>2026-04-21T14:14:51.998Z</time></trkpt><trkpt lat="45.587160273249175" lon="10.728535502741996"><ele>163.16666666666666</ele><time>2026-04-21T14:14:54.998Z</time></trkpt><trkpt lat="45.587235559690065" lon="10.728594837651125"><ele>164.33333333333334</ele><time>2026-04-21T14:14:57.998Z</time></trkpt><trkpt lat="45.58731098849077" lon="10.728667603947061"><ele>165.5</ele><time>2026-04-21T14:15:01Z</time></trkpt><trkpt lat="45.58738448713196" lon="10.728730132465842"><ele>166.66666666666669</ele><time>2026-04-21T14:15:04Z</time></trkpt><trkpt lat="45.587432021197515" lon="10.728794619935409"><ele>167.83333333333334</ele><time>2026-04-21T14:15:06Z</time></trkpt><trkpt lat="45.58749209223799" lon="10.728868829239152"><ele>169.0</ele><time>2026-04-21T14:15:09Z</time></trkpt><trkpt lat="45.587538256542786" lon="10.728939493918867"><ele>169.0</ele><time>2026-04-21T14:15:12Z</time></trkpt><trkpt lat="45.58759729023156" lon="10.729004705897246"><ele>169.0</ele><time>2026-04-21T14:15:15Z</time></trkpt><trkpt lat="45.587645058553065" lon="10.729077934476116"><ele>169.0</ele><time>2026-04-21T14:15:18Z</time></trkpt><trkpt lat="45.587705151452745" lon="10.729178518762481"><ele>169.0</ele><time>2026-04-21T14:15:21Z</time></trkpt><trkpt lat="45.58776810019664" lon="10.72927352526208"><ele>169.0</ele><time>2026-04-21T14:15:24Z</time></trkpt><trkpt lat="45.58785903080232" lon="10.729387081676014"><ele>169.0</ele><time>2026-04-21T14:15:27Z</time></trkpt><trkpt lat="45.5879066012648" lon="10.72947773379411"><ele>169.0</ele><time>2026-04-21T14:15:30Z</time></trkpt><trkpt lat="45.58794281493454" lon="10.729563186043398"><ele>169.0</ele><time>2026-04-21T14:15:33Z</time></trkpt><trkpt lat="45.587960968123674" lon="10.72965594023414"><ele>169.0</ele><time>2026-04-21T14:15:36Z</time></trkpt><trkpt lat="45.58796435642156" lon="10.729747743709456"><ele>169.0</ele><time>2026-04-21T14:15:38.999Z</time></trkpt><trkpt lat="45.58799393956069" lon="10.729832729215843"><ele>169.0</ele><time>2026-04-21T14:15:41.999Z</time></trkpt><trkpt lat="45.58804679058597" lon="10.72990391292329"><ele>169.0</ele><time>2026-04-21T14:15:44.999Z</time></trkpt><trkpt lat="45.58812064521401" lon="10.729918747783534"><ele>169.0</ele><time>2026-04-21T14:15:47.999Z</time></trkpt><trkpt lat="45.58819061966141" lon="10.729939608083626"><ele>169.0</ele><time>2026-04-21T14:15:50.999Z</time></trkpt><trkpt lat="45.58826139678708" lon="10.729958175671023"><ele>169.0</ele><time>2026-04-21T14:15:53.999Z</time></trkpt><trkpt lat="45.588344473088" lon="10.729975221076153"><ele>169.0</ele><time>2026-04-21T14:15:57.999Z</time></trkpt><trkpt lat="45.58842393167886" lon="10.729992878813043"><ele>169.0</ele><time>2026-04-21T14:16:01.999Z</time></trkpt><trkpt lat="45.58850224564526" lon="10.730013871934595"><ele>169.0</ele><time>2026-04-21T14:16:04.999Z</time></trkpt><trkpt lat="45.588576711642446" lon="10.730036834395671"><ele>169.0</ele><time>2026-04-21T14:16:09.999Z</time></trkpt><trkpt lat="45.588647756835115" lon="10.730056303339806"><ele>169.0</ele><time>2026-04-21T14:16:15.999Z</time></trkpt><trkpt lat="45.588702894297604" lon="10.730100530329658"><ele>169.0</ele><time>2026-04-21T14:16:58.998Z</time></trkpt><trkpt lat="45.5887721415314" lon="10.730151009843754"><ele>169.0</ele><time>2026-04-21T14:17:22Z</time></trkpt><trkpt lat="45.58884317148334" lon="10.730197917147802"><ele>169.0</ele><time>2026-04-21T14:17:26Z</time></trkpt><trkpt lat="45.58888704872381" lon="10.730272317950208"><ele>169.0</ele><time>2026-04-21T14:17:30Z</time></trkpt><trkpt lat="45.58892158673056" lon="10.730359251515031"><ele>169.0</ele><time>2026-04-21T14:17:34Z</time></trkpt><trkpt lat="45.58894929616214" lon="10.730446578007395"><ele>171.28571428571428</ele><time>2026-04-21T14:17:38Z</time></trkpt><trkpt lat="45.588983824902826" lon="10.730535524473193"><ele>173.57142857142856</ele><time>2026-04-21T14:17:41.999Z</time></trkpt><trkpt lat="45.58902086146456" lon="10.730620430414291"><ele>175.85714285714283</ele><time>2026-04-21T14:17:45.999Z</time></trkpt><trkpt lat="45.58908646087009" lon="10.730664523582652"><ele>178.14285714285714</ele><time>2026-04-21T14:17:49.999Z</time></trkpt><trkpt lat="45.5891473993575" lon="10.730689183793487"><ele>180.42857142857142</ele><time>2026-04-21T14:17:52.999Z</time></trkpt><trkpt lat="45.5892005534561" lon="10.730749018814047"><ele>182.7142857142857</ele><time>2026-04-21T14:17:56.999Z</time></trkpt><trkpt lat="45.5892428516854" lon="10.730833976815044"><ele>185.0</ele><time>2026-04-21T14:18:01.999Z</time></trkpt><trkpt lat="45.58929188611578" lon="10.730895200703094"><ele>184.99999999999997</ele><time>2026-04-21T14:18:06.999Z</time></trkpt><trkpt lat="45.589352641458866" lon="10.730948349970006"><ele>185.0</ele><time>2026-04-21T14:18:11.999Z</time></trkpt><trkpt lat="45.58940738574475" lon="10.73100494961992"><ele>185.0</ele><time>2026-04-21T14:18:16.999Z</time></trkpt><trkpt lat="45.589452458230625" lon="10.731088618289016"><ele>185.0</ele><time>2026-04-21T14:18:21.999Z</time></trkpt><trkpt lat="45.58949919202977" lon="10.731153581694507"><ele>185.0</ele><time>2026-04-21T14:18:26.999Z</time></trkpt><trkpt lat="45.58955893289826" lon="10.73119503917224"><ele>184.99999999999997</ele><time>2026-04-21T14:18:30.999Z</time></trkpt><trkpt lat="45.58962278831075" lon="10.731227781529233"><ele>185.0</ele><time>2026-04-21T14:18:34.999Z</time></trkpt><trkpt lat="45.58968499837972" lon="10.731260533231998"><ele>187.42857142857142</ele><time>2026-04-21T14:18:38.999Z</time></trkpt><trkpt lat="45.58975107231916" lon="10.731292063252116"><ele>189.85714285714286</ele><time>2026-04-21T14:18:44.998Z</time></trkpt><trkpt lat="45.589810841155476" lon="10.731324617128744"><ele>192.28571428571428</ele><time>2026-04-21T14:18:49.998Z</time></trkpt><trkpt lat="45.58987099065097" lon="10.73136093486379"><ele>194.71428571428572</ele><time>2026-04-21T14:18:55.998Z</time></trkpt><trkpt lat="45.58993347811594" lon="10.731382215131646"><ele>197.14285714285714</ele><time>2026-04-21T14:19:05.998Z</time></trkpt><trkpt lat="45.59000615490688" lon="10.731341639458273"><ele>199.57142857142856</ele><time>2026-04-21T14:19:13Z</time></trkpt><trkpt lat="45.59007486536445" lon="10.731315954791427"><ele>202.0</ele><time>2026-04-21T14:19:19Z</time></trkpt><trkpt lat="45.59013957358483" lon="10.731356544208285"><ele>202.0</ele><time>2026-04-21T14:19:27Z</time></trkpt><trkpt lat="45.59021514306664" lon="10.73135835830867"><ele>202.0</ele><time>2026-04-21T14:19:33Z</time></trkpt><trkpt lat="45.59029194738589" lon="10.73136559297398"><ele>202.0</ele><time>2026-04-21T14:19:37Z</time></trkpt><trkpt lat="45.59036153023276" lon="10.731371717768218"><ele>202.0</ele><time>2026-04-21T14:19:41Z</time></trkpt><trkpt lat="45.59043090782757" lon="10.731367928937932"><ele>202.0</ele><time>2026-04-21T14:19:45Z</time></trkpt><trkpt lat="45.59049704789289" lon="10.731384230869194"><ele>202.0</ele><time>2026-04-21T14:19:48.999Z</time></trkpt><trkpt lat="45.59056722473758" lon="10.731389096371029"><ele>202.0</ele><time>2026-04-21T14:19:52.999Z</time></trkpt><trkpt lat="45.59062980065842" lon="10.7314022499523"><ele>202.71428571428572</ele><time>2026-04-21T14:19:56.999Z</time></trkpt><trkpt lat="45.59069815770278" lon="10.731434531999207"><ele>203.42857142857142</ele><time>2026-04-21T14:20:00.999Z</time></trkpt><trkpt lat="45.590744378417725" lon="10.731530924563486"><ele>204.14285714285717</ele><time>2026-04-21T14:20:04.999Z</time></trkpt><trkpt lat="45.59078685128288" lon="10.731598161415073"><ele>204.85714285714286</ele><time>2026-04-21T14:20:09.999Z</time></trkpt><trkpt lat="45.59084685108323" lon="10.731643325328585"><ele>205.57142857142858</ele><time>2026-04-21T14:20:14.999Z</time></trkpt><trkpt lat="45.59090987260302" lon="10.731695176936151"><ele>206.2857142857143</ele><time>2026-04-21T14:20:19.999Z</time></trkpt><trkpt lat="45.59097560365105" lon="10.731736585505576"><ele>207.0</ele><time>2026-04-21T14:20:23.999Z</time></trkpt><trkpt lat="45.591035853652095" lon="10.731799349566867"><ele>207.00000000000003</ele><time>2026-04-21T14:20:27.999Z</time></trkpt><trkpt lat="45.591099960869805" lon="10.731857468120026"><ele>207.0</ele><time>2026-04-21T14:20:32.999Z</time></trkpt><trkpt lat="45.591156854576965" lon="10.731906771569095"><ele>207.0</ele><time>2026-04-21T14:20:36.999Z</time></trkpt><trkpt lat="45.591224341313726" lon="10.731913703831324"><ele>207.0</ele><time>2026-04-21T14:20:40.999Z</time></trkpt><trkpt lat="45.591294181130934" lon="10.731949289297317"><ele>207.0</ele><time>2026-04-21T14:20:44.999Z</time></trkpt><trkpt lat="45.591361774517424" lon="10.731987634869204"><ele>207.00000000000003</ele><time>2026-04-21T14:20:48.998Z</time></trkpt><trkpt lat="45.591431547834624" lon="10.732005730905179"><ele>207.0</ele><time>2026-04-21T14:20:53.998Z</time></trkpt><trkpt lat="45.59149623008655" lon="10.73201942677971"><ele>206.00000000000003</ele><time>2026-04-21T14:20:58.998Z</time></trkpt><trkpt lat="45.59156403026904" lon="10.732044219492682"><ele>205.0</ele><time>2026-04-21T14:21:04.998Z</time></trkpt><trkpt lat="45.591622630793765" lon="10.732094824588792"><ele>204.0</ele><time>2026-04-21T14:21:09.998Z</time></trkpt><trkpt lat="45.59166332943829" lon="10.732168122366442"><ele>203.0</ele><time>2026-04-21T14:21:15.998Z</time></trkpt><trkpt lat="45.59168306720278" lon="10.732282350644098"><ele>202.0</ele><time>2026-04-21T14:21:22Z</time></trkpt><trkpt lat="45.59167325218382" lon="10.732378441909429"><ele>201.00000000000003</ele><time>2026-04-21T14:21:28Z</time></trkpt><trkpt lat="45.59164799326517" lon="10.732462800531847"><ele>200.0</ele><time>2026-04-21T14:21:35Z</time></trkpt><trkpt lat="45.5916069796798" lon="10.732537557316336"><ele>200.00000000000003</ele><time>2026-04-21T14:21:42Z</time></trkpt><trkpt lat="45.591571815222125" lon="10.732620501807842"><ele>200.0</ele><time>2026-04-21T14:21:47Z</time></trkpt><trkpt lat="45.59153106059153" lon="10.732702228521548"><ele>200.0</ele><time>2026-04-21T14:21:53Z</time></trkpt><trkpt lat="45.59150231039627" lon="10.732805201752809"><ele>200.0</ele><time>2026-04-21T14:21:58.999Z</time></trkpt><trkpt lat="45.59150315813577" lon="10.732901774109713"><ele>200.0</ele><time>2026-04-21T14:22:03.999Z</time></trkpt><trkpt lat="45.59151992234859" lon="10.733005739791738"><ele>200.00000000000003</ele><time>2026-04-21T14:22:09.999Z</time></trkpt><trkpt lat="45.591528289452334" lon="10.733097162907002"><ele>200.0</ele><time>2026-04-21T14:22:15.999Z</time></trkpt><trkpt lat="45.59156634478371" lon="10.73317593744739"><ele>201.57142857142858</ele><time>2026-04-21T14:22:21.999Z</time></trkpt><trkpt lat="45.59161306660825" lon="10.733251847808852"><ele>203.14285714285714</ele><time>2026-04-21T14:22:26.999Z</time></trkpt><trkpt lat="45.591665439948684" lon="10.733306248957268"><ele>204.71428571428572</ele><time>2026-04-21T14:22:31.999Z</time></trkpt><trkpt lat="45.5917300525054" lon="10.733327827939878"><ele>206.28571428571428</ele><time>2026-04-21T14:22:36.999Z</time></trkpt><trkpt lat="45.59180544466382" lon="10.733353217594649"><ele>207.85714285714286</ele><time>2026-04-21T14:22:42.999Z</time></trkpt><trkpt lat="45.59186845053128" lon="10.733372210145966"><ele>209.42857142857144</ele><time>2026-04-21T14:22:47.999Z</time></trkpt><trkpt lat="45.59193550724151" lon="10.733372464984143"><ele>211.0</ele><time>2026-04-21T14:22:52.999Z</time></trkpt><trkpt lat="45.59200351936459" lon="10.733392435269758"><ele>210.57142857142858</ele><time>2026-04-21T14:22:58.998Z</time></trkpt><trkpt lat="45.59206927095413" lon="10.733414533933987"><ele>210.14285714285717</ele><time>2026-04-21T14:23:04.998Z</time></trkpt><trkpt lat="45.5921410573054" lon="10.733438381766609"><ele>209.71428571428572</ele><time>2026-04-21T14:23:10.998Z</time></trkpt><trkpt lat="45.59220987109848" lon="10.733456232269562"><ele>209.28571428571428</ele><time>2026-04-21T14:23:16.998Z</time></trkpt><trkpt lat="45.592284356996366" lon="10.733472958786589"><ele>208.85714285714286</ele><time>2026-04-21T14:23:22.998Z</time></trkpt><trkpt lat="45.59235958584244" lon="10.733487813915467"><ele>208.42857142857142</ele><time>2026-04-21T14:23:28Z</time></trkpt><trkpt lat="45.59242113494238" lon="10.73350751009882"><ele>208.0</ele><time>2026-04-21T14:23:33Z</time></trkpt><trkpt lat="45.592482960088205" lon="10.733542066407024"><ele>209.28571428571428</ele><time>2026-04-21T14:23:38Z</time></trkpt><trkpt lat="45.59255602510684" lon="10.733600997541535"><ele>210.57142857142858</ele><time>2026-04-21T14:23:44Z</time></trkpt><trkpt lat="45.59260687774763" lon="10.73366488401433"><ele>211.85714285714286</ele><time>2026-04-21T14:23:47Z</time></trkpt><trkpt lat="45.59265814922585" lon="10.733738766072634"><ele>213.14285714285714</ele><time>2026-04-21T14:23:53Z</time></trkpt><trkpt lat="45.592714334841745" lon="10.733785893699991"><ele>214.42857142857144</ele><time>2026-04-21T14:23:59Z</time></trkpt><trkpt lat="45.59278167054596" lon="10.733802498829585"><ele>215.71428571428572</ele><time>2026-04-21T14:24:05.999Z</time></trkpt><trkpt lat="45.59284578450019" lon="10.73382126087847"><ele>217.0</ele><time>2026-04-21T14:24:11.999Z</time></trkpt><trkpt lat="45.5929030128733" lon="10.733862757361354"><ele>217.0</ele><time>2026-04-21T14:24:17.999Z</time></trkpt><trkpt lat="45.59295495946081" lon="10.733916268935422"><ele>217.0</ele><time>2026-04-21T14:24:22.999Z</time></trkpt><trkpt lat="45.593016997595846" lon="10.733954331434575"><ele>217.0</ele><time>2026-04-21T14:24:30.999Z</time></trkpt><trkpt lat="45.59309039107692" lon="10.733970137213714"><ele>217.0</ele><time>2026-04-21T14:24:37.999Z</time></trkpt><trkpt lat="45.593160306800925" lon="10.733963981002253"><ele>217.0</ele><time>2026-04-21T14:24:44.999Z</time></trkpt><trkpt lat="45.59312310841839" lon="10.734038897753582"><ele>217.0</ele><time>2026-04-21T14:24:58.999Z</time></trkpt><trkpt lat="45.59305487836952" lon="10.734048249532009"><ele>217.0</ele><time>2026-04-21T14:25:07.998Z</time></trkpt><trkpt lat="45.59299306678872" lon="10.734070981986758"><ele>217.0</ele><time>2026-04-21T14:25:12.998Z</time></trkpt><trkpt lat="45.59297186353644" lon="10.734156705544965"><ele>217.0</ele><time>2026-04-21T14:25:19.998Z</time></trkpt><trkpt lat="45.593019945565565" lon="10.734216872306998"><ele>217.0</ele><time>2026-04-21T14:25:30Z</time></trkpt><trkpt lat="45.593083387027605" lon="10.734222032002872"><ele>217.0</ele><time>2026-04-21T14:25:38Z</time></trkpt><trkpt lat="45.5931489427912" lon="10.734225148750552"><ele>217.0</ele><time>2026-04-21T14:25:45Z</time></trkpt><trkpt lat="45.593220796344376" lon="10.73425530373105"><ele>217.0</ele><time>2026-04-21T14:25:51Z</time></trkpt><trkpt lat="45.59328413061999" lon="10.734279710756255"><ele>217.0</ele><time>2026-04-21T14:25:59Z</time></trkpt><trkpt lat="45.59333235420422" lon="10.734338422877036"><ele>219.42857142857144</ele><time>2026-04-21T14:26:06.999Z</time></trkpt><trkpt lat="45.5933709665925" lon="10.7344141881379"><ele>221.85714285714286</ele><time>2026-04-21T14:26:16.999Z</time></trkpt><trkpt lat="45.593406630032966" lon="10.734491082811202"><ele>224.28571428571428</ele><time>2026-04-21T14:26:24.999Z</time></trkpt><trkpt lat="45.59343538407308" lon="10.73457668309505"><ele>226.71428571428572</ele><time>2026-04-21T14:26:33.999Z</time></trkpt><trkpt lat="45.59346806769687" lon="10.73465598935723"><ele>229.14285714285717</ele><time>2026-04-21T14:26:40.999Z</time></trkpt><trkpt lat="45.59351681928912" lon="10.73472716065776"><ele>231.57142857142858</ele><time>2026-04-21T14:26:53.999Z</time></trkpt><trkpt lat="45.593587273617175" lon="10.73478315332461"><ele>234.0</ele><time>2026-04-21T14:27:01.999Z</time></trkpt><trkpt lat="45.5936507120465" lon="10.734806867073244"><ele>232.14285714285717</ele><time>2026-04-21T14:27:08.998Z</time></trkpt><trkpt lat="45.59372479589517" lon="10.734816255063285"><ele>230.2857142857143</ele><time>2026-04-21T14:27:19.998Z</time></trkpt><trkpt lat="45.593789763058915" lon="10.734818123772603"><ele>228.42857142857144</ele><time>2026-04-21T14:27:30.998Z</time></trkpt><trkpt lat="45.59384884410848" lon="10.734862210691496"><ele>226.57142857142858</ele><time>2026-04-21T14:27:41Z</time></trkpt><trkpt lat="45.593894156689274" lon="10.734925926010023"><ele>224.71428571428572</ele><time>2026-04-21T14:27:49Z</time></trkpt><trkpt lat="45.593949638180554" lon="10.734976362067178"><ele>222.8571428571429</ele><time>2026-04-21T14:27:58Z</time></trkpt><trkpt lat="45.59399908309003" lon="10.735043135425041"><ele>221.0</ele><time>2026-04-21T14:28:06Z</time></trkpt><trkpt lat="45.59405704301551" lon="10.735086817050565"><ele>221.00000000000003</ele><time>2026-04-21T14:28:15.999Z</time></trkpt><trkpt lat="45.594103470725955" lon="10.735155009815536"><ele>221.0</ele><time>2026-04-21T14:28:26.999Z</time></trkpt><trkpt lat="45.59412626240313" lon="10.735239861375511"><ele>221.0</ele><time>2026-04-21T14:28:43.999Z</time></trkpt><trkpt lat="45.594117694893775" lon="10.735329453241567"><ele>221.0</ele><time>2026-04-21T14:28:52.999Z</time></trkpt><trkpt lat="45.59410366544828" lon="10.735427240001801"><ele>221.0</ele><time>2026-04-21T14:29:02.999Z</time></trkpt><trkpt lat="45.59410259783278" lon="10.73552895562603"><ele>221.00000000000003</ele><time>2026-04-21T14:29:11.998Z</time></trkpt><trkpt lat="45.59410636725909" lon="10.735618820332236"><ele>221.0</ele><time>2026-04-21T14:29:18.998Z</time></trkpt><trkpt lat="45.59410844144724" lon="10.735717132627528"><ele>223.2857142857143</ele><time>2026-04-21T14:29:27.998Z</time></trkpt><trkpt lat="45.594109443789336" lon="10.735811559519728"><ele>225.57142857142856</ele><time>2026-04-21T14:29:35.998Z</time></trkpt><trkpt lat="45.59412941102729" lon="10.735899441314238"><ele>227.85714285714283</ele><time>2026-04-21T14:29:45Z</time></trkpt><trkpt lat="45.594146840889415" lon="10.735992727603723"><ele>230.14285714285714</ele><time>2026-04-21T14:29:52Z</time></trkpt><trkpt lat="45.594164877607035" lon="10.736081765898074"><ele>232.42857142857142</ele><time>2026-04-21T14:30:00Z</time></trkpt><trkpt lat="45.594209414637106" lon="10.736157636161364"><ele>234.7142857142857</ele><time>2026-04-21T14:30:11Z</time></trkpt><trkpt lat="45.59424306620989" lon="10.736235201380456"><ele>236.99999999999997</ele><time>2026-04-21T14:30:22.999Z</time></trkpt><trkpt lat="45.5941839388021" lon="10.736183041612176"><ele>237.99999999999997</ele><time>2026-04-21T14:30:38.999Z</time></trkpt><trkpt lat="45.59413334248462" lon="10.736125236104197"><ele>239.0</ele><time>2026-04-21T14:30:48.999Z</time></trkpt><trkpt lat="45.59407170158654" lon="10.736089899074582"><ele>239.99999999999997</ele><time>2026-04-21T14:30:56.999Z</time></trkpt><trkpt lat="45.59400370789028" lon="10.736092915954371"><ele>240.99999999999997</ele><time>2026-04-21T14:31:07.999Z</time></trkpt><trkpt lat="45.59393058447706" lon="10.736118765196771"><ele>242.0</ele><time>2026-04-21T14:31:13.998Z</time></trkpt><trkpt lat="45.59386093374679" lon="10.736158992666448"><ele>242.99999999999997</ele><time>2026-04-21T14:31:18.998Z</time></trkpt><trkpt lat="45.59380055050658" lon="10.736232673421357"><ele>243.99999999999997</ele><time>2026-04-21T14:31:22.998Z</time></trkpt><trkpt lat="45.59374328512206" lon="10.736308088291514"><ele>243.99999999999997</ele><time>2026-04-21T14:31:25.998Z</time></trkpt><trkpt lat="45.59370133758673" lon="10.736378475892165"><ele>244.0</ele><time>2026-04-21T14:31:27.998Z</time></trkpt><trkpt lat="45.593646421370494" lon="10.736465363022353"><ele>244.0</ele><time>2026-04-21T14:31:29.998Z</time></trkpt><trkpt lat="45.593583972060706" lon="10.736536356373426"><ele>244.0</ele><time>2026-04-21T14:31:31.998Z</time></trkpt><trkpt lat="45.593528059589104" lon="10.736617298150845"><ele>243.99999999999997</ele><time>2026-04-21T14:31:33.998Z</time></trkpt><trkpt lat="45.59344253332783" lon="10.736726763830262"><ele>244.0</ele><time>2026-04-21T14:31:35.998Z</time></trkpt><trkpt lat="45.59336441322074" lon="10.736825197831253"><ele>243.2</ele><time>2026-04-21T14:31:37.998Z</time></trkpt><trkpt lat="45.59328774693054" lon="10.736924175253021"><ele>242.39999999999998</ele><time>2026-04-21T14:31:39.998Z</time></trkpt><trkpt lat="45.59323337104809" lon="10.737048296285936"><ele>241.6</ele><time>2026-04-21T14:31:41.998Z</time></trkpt><trkpt lat="45.593146781813694" lon="10.737140655451745"><ele>240.8</ele><time>2026-04-21T14:31:43.998Z</time></trkpt><trkpt lat="45.593097541165086" lon="10.737262702109213"><ele>240.0</ele><time>2026-04-21T14:31:45.998Z</time></trkpt><trkpt lat="45.593027329065514" lon="10.73735613195924"><ele>240.0</ele><time>2026-04-21T14:31:48Z</time></trkpt><trkpt lat="45.5929680868769" lon="10.73747052454844"><ele>240.0</ele><time>2026-04-21T14:31:50Z</time></trkpt><trkpt lat="45.59289946170542" lon="10.737570820374792"><ele>240.0</ele><time>2026-04-21T14:31:52Z</time></trkpt><trkpt lat="45.592841361946036" lon="10.737670173984961"><ele>240.0</ele><time>2026-04-21T14:31:54Z</time></trkpt><trkpt lat="45.59280260722972" lon="10.737784548494842"><ele>240.0</ele><time>2026-04-21T14:31:56Z</time></trkpt><trkpt lat="45.59272703604114" lon="10.737877003297044"><ele>239.8</ele><time>2026-04-21T14:31:58Z</time></trkpt><trkpt lat="45.59265700286777" lon="10.73799028705148"><ele>239.6</ele><time>2026-04-21T14:32:00Z</time></trkpt><trkpt lat="45.59257925519305" lon="10.738104691005283"><ele>239.39999999999998</ele><time>2026-04-21T14:32:02Z</time></trkpt><trkpt lat="45.592499297416005" lon="10.738214593981755"><ele>239.2</ele><time>2026-04-21T14:32:04Z</time></trkpt><trkpt lat="45.59242202434237" lon="10.738327061777698"><ele>239.0</ele><time>2026-04-21T14:32:06Z</time></trkpt><trkpt lat="45.592338089130024" lon="10.738436870146092"><ele>239.2</ele><time>2026-04-21T14:32:08Z</time></trkpt><trkpt lat="45.59225838660474" lon="10.738560604692292"><ele>239.39999999999998</ele><time>2026-04-21T14:32:10Z</time></trkpt><trkpt lat="45.59220388324483" lon="10.73861439456985"><ele>239.6</ele><time>2026-04-21T14:32:11Z</time></trkpt><trkpt lat="45.59212915520902" lon="10.738754870160568"><ele>239.8</ele><time>2026-04-21T14:32:13Z</time></trkpt><trkpt lat="45.59204309387293" lon="10.73888287329801"><ele>240.0</ele><time>2026-04-21T14:32:15Z</time></trkpt><trkpt lat="45.591958609244905" lon="10.739002817567997"><ele>239.33333333333334</ele><time>2026-04-21T14:32:17Z</time></trkpt><trkpt lat="45.59187110020597" lon="10.73910446412423"><ele>238.66666666666669</ele><time>2026-04-21T14:32:19Z</time></trkpt><trkpt lat="45.59180077370688" lon="10.739246121897526"><ele>238.0</ele><time>2026-04-21T14:32:20.999Z</time></trkpt><trkpt lat="45.591740518703766" lon="10.73928088728022"><ele>237.33333333333334</ele><time>2026-04-21T14:32:21.999Z</time></trkpt><trkpt lat="45.59169455354568" lon="10.739351594106541"><ele>236.66666666666669</ele><time>2026-04-21T14:32:22.999Z</time></trkpt><trkpt lat="45.591639842048245" lon="10.73940445501154"><ele>236.0</ele><time>2026-04-21T14:32:23.999Z</time></trkpt><trkpt lat="45.591574222232246" lon="10.739440242212694"><ele>236.16666666666669</ele><time>2026-04-21T14:32:24.999Z</time></trkpt><trkpt lat="45.591517357230835" lon="10.73948978794315"><ele>236.33333333333334</ele><time>2026-04-21T14:32:25.999Z</time></trkpt><trkpt lat="45.59146279910724" lon="10.739541433662806"><ele>236.5</ele><time>2026-04-21T14:32:26.999Z</time></trkpt><trkpt lat="45.59141658779547" lon="10.739608536010307"><ele>236.66666666666669</ele><time>2026-04-21T14:32:27.999Z</time></trkpt><trkpt lat="45.59132056298552" lon="10.739719591523514"><ele>236.83333333333334</ele><time>2026-04-21T14:32:29.999Z</time></trkpt><trkpt lat="45.5912300540519" lon="10.739823096607122"><ele>237.0</ele><time>2026-04-21T14:32:31.999Z</time></trkpt><trkpt lat="45.59114695920945" lon="10.73991164642523"><ele>237.0</ele><time>2026-04-21T14:32:33.999Z</time></trkpt><trkpt lat="45.59107250307139" lon="10.739996067567983"><ele>237.0</ele><time>2026-04-21T14:32:35.999Z</time></trkpt><trkpt lat="45.59099854192513" lon="10.74007434534992"><ele>237.0</ele><time>2026-04-21T14:32:37.999Z</time></trkpt><trkpt lat="45.59091952200223" lon="10.740157366125722"><ele>237.0</ele><time>2026-04-21T14:32:39.999Z</time></trkpt><trkpt lat="45.59086458017386" lon="10.740283478193481"><ele>237.0</ele><time>2026-04-21T14:32:41.999Z</time></trkpt><trkpt lat="45.59080546822537" lon="10.7403643998652"><ele>236.33333333333334</ele><time>2026-04-21T14:32:43.999Z</time></trkpt><trkpt lat="45.59075406238185" lon="10.740447747745176"><ele>235.66666666666669</ele><time>2026-04-21T14:32:45.999Z</time></trkpt><trkpt lat="45.59069851516352" lon="10.74052057438236"><ele>235.0</ele><time>2026-04-21T14:32:47.999Z</time></trkpt><trkpt lat="45.59064236804736" lon="10.740592670904153"><ele>234.33333333333334</ele><time>2026-04-21T14:32:49.999Z</time></trkpt><trkpt lat="45.59057870816046" lon="10.740675862324016"><ele>233.66666666666669</ele><time>2026-04-21T14:32:51.999Z</time></trkpt><trkpt lat="45.590513585761364" lon="10.74076311062335"><ele>233.0</ele><time>2026-04-21T14:32:53.999Z</time></trkpt><trkpt lat="45.59043301984268" lon="10.740849647250997"><ele>233.0</ele><time>2026-04-21T14:32:55.999Z</time></trkpt><trkpt lat="45.59035487782363" lon="10.740939439042867"><ele>233.0</ele><time>2026-04-21T14:32:57.999Z</time></trkpt><trkpt lat="45.59026700917867" lon="10.741014504407103"><ele>233.0</ele><time>2026-04-21T14:32:59.999Z</time></trkpt><trkpt lat="45.590194053194224" lon="10.741125104369516"><ele>233.0</ele><time>2026-04-21T14:33:01.999Z</time></trkpt><trkpt lat="45.59013900554005" lon="10.741286225986638"><ele>233.0</ele><time>2026-04-21T14:33:03.999Z</time></trkpt><trkpt lat="45.59008794668985" lon="10.741429302089294"><ele>232.5</ele><time>2026-04-21T14:33:05.999Z</time></trkpt><trkpt lat="45.59007222936917" lon="10.741574764746538"><ele>232.0</ele><time>2026-04-21T14:33:07.999Z</time></trkpt><trkpt lat="45.59007567648872" lon="10.741730229079897"><ele>231.5</ele><time>2026-04-21T14:33:09.999Z</time></trkpt><trkpt lat="45.59005561220201" lon="10.7419178040416"><ele>231.0</ele><time>2026-04-21T14:33:11.999Z</time></trkpt><trkpt lat="45.59002229850276" lon="10.742071181649985"><ele>231.0</ele><time>2026-04-21T14:33:13.999Z</time></trkpt><trkpt lat="45.590099329918274" lon="10.742158430545471"><ele>231.00000000000003</ele><time>2026-04-21T14:33:15.999Z</time></trkpt><trkpt lat="45.59020916751186" lon="10.742137358223308"><ele>231.00000000000003</ele><time>2026-04-21T14:33:17.999Z</time></trkpt><trkpt lat="45.590295068527524" lon="10.74216430972375"><ele>231.0</ele><time>2026-04-21T14:33:19.999Z</time></trkpt><trkpt lat="45.59036919428693" lon="10.742260771745407"><ele>231.0</ele><time>2026-04-21T14:33:21.998Z</time></trkpt><trkpt lat="45.59047888004671" lon="10.742262056202188"><ele>230.8</ele><time>2026-04-21T14:33:23.998Z</time></trkpt><trkpt lat="45.59058683744267" lon="10.742274873990624"><ele>230.60000000000002</ele><time>2026-04-21T14:33:25.998Z</time></trkpt><trkpt lat="45.59069244279585" lon="10.742294671704212"><ele>230.4</ele><time>2026-04-21T14:33:27.998Z</time></trkpt><trkpt lat="45.590793219484844" lon="10.742325982725243"><ele>230.2</ele><time>2026-04-21T14:33:29.998Z</time></trkpt><trkpt lat="45.59089319324995" lon="10.742371082923027"><ele>230.0</ele><time>2026-04-21T14:33:31.998Z</time></trkpt><trkpt lat="45.59098142607697" lon="10.742423739334104"><ele>230.00000000000003</ele><time>2026-04-21T14:33:33.998Z</time></trkpt><trkpt lat="45.591049486340154" lon="10.74249365615503"><ele>230.0</ele><time>2026-04-21T14:33:35.998Z</time></trkpt><trkpt lat="45.591072547267835" lon="10.74261522308712"><ele>230.0</ele><time>2026-04-21T14:33:37.998Z</time></trkpt><trkpt lat="45.59112018309657" lon="10.74270881227192"><ele>230.0</ele><time>2026-04-21T14:33:39.998Z</time></trkpt><trkpt lat="45.59117169406725" lon="10.742785906094056"><ele>230.00000000000003</ele><time>2026-04-21T14:33:41.998Z</time></trkpt><trkpt lat="45.59122894108019" lon="10.742862824605679"><ele>230.0</ele><time>2026-04-21T14:34:01Z</time></trkpt><trkpt lat="45.59131667316565" lon="10.74283426016353"><ele>230.0</ele><time>2026-04-21T14:34:04Z</time></trkpt><trkpt lat="45.591390688117016" lon="10.742796708307267"><ele>230.0</ele><time>2026-04-21T14:34:06Z</time></trkpt><trkpt lat="45.59147876168259" lon="10.74279513027953"><ele>230.0</ele><time>2026-04-21T14:34:08Z</time></trkpt><trkpt lat="45.59155303999487" lon="10.742891757859654"><ele>230.0</ele><time>2026-04-21T14:34:10Z</time></trkpt><trkpt lat="45.59162471285406" lon="10.743021835269392"><ele>230.0</ele><time>2026-04-21T14:34:12Z</time></trkpt><trkpt lat="45.59169485112227" lon="10.74313617035628"><ele>230.0</ele><time>2026-04-21T14:34:14Z</time></trkpt><trkpt lat="45.591766057364815" lon="10.743244654175307"><ele>230.0</ele><time>2026-04-21T14:34:16Z</time></trkpt><trkpt lat="45.591835108440776" lon="10.743348056223617"><ele>230.0</ele><time>2026-04-21T14:34:18Z</time></trkpt><trkpt lat="45.59190173020615" lon="10.743450062830652"><ele>230.0</ele><time>2026-04-21T14:34:20Z</time></trkpt><trkpt lat="45.59196857857035" lon="10.743555451761322"><ele>230.0</ele><time>2026-04-21T14:34:22Z</time></trkpt><trkpt lat="45.592034345267855" lon="10.743661709801197"><ele>230.2</ele><time>2026-04-21T14:34:24Z</time></trkpt><trkpt lat="45.59210281836478" lon="10.743767191063634"><ele>230.4</ele><time>2026-04-21T14:34:25.999Z</time></trkpt><trkpt lat="45.59217769558714" lon="10.743855291213137"><ele>230.60000000000002</ele><time>2026-04-21T14:34:27.999Z</time></trkpt><trkpt lat="45.592246657652645" lon="10.74390909104949"><ele>230.8</ele><time>2026-04-21T14:34:30.999Z</time></trkpt><trkpt lat="45.59232374847816" lon="10.743972283636506"><ele>231.0</ele><time>2026-04-21T14:34:31.999Z</time></trkpt><trkpt lat="45.59240725303854" lon="10.744020417196309"><ele>231.0</ele><time>2026-04-21T14:34:33.999Z</time></trkpt><trkpt lat="45.59248296284998" lon="10.744046806711422"><ele>231.0</ele><time>2026-04-21T14:34:35.999Z</time></trkpt><trkpt lat="45.592553628065616" lon="10.744069463817398"><ele>231.0</ele><time>2026-04-21T14:34:37.999Z</time></trkpt><trkpt lat="45.59263386555979" lon="10.744110331417948"><ele>231.0</ele><time>2026-04-21T14:34:40.999Z</time></trkpt><trkpt lat="45.59271945656207" lon="10.744141028415152"><ele>231.0</ele><time>2026-04-21T14:34:43.999Z</time></trkpt><trkpt lat="45.59278638191757" lon="10.744184381216801"><ele>231.0</ele><time>2026-04-21T14:34:45.999Z</time></trkpt><trkpt lat="45.59284978728456" lon="10.7442436817309"><ele>231.0</ele><time>2026-04-21T14:34:47.999Z</time></trkpt><trkpt lat="45.5929317922205" lon="10.744333735790315"><ele>231.0</ele><time>2026-04-21T14:34:49.999Z</time></trkpt><trkpt lat="45.59300732246694" lon="10.744397379031495"><ele>231.0</ele><time>2026-04-21T14:34:51.999Z</time></trkpt><trkpt lat="45.593079648879154" lon="10.744461897232902"><ele>231.0</ele><time>2026-04-21T14:34:53.999Z</time></trkpt><trkpt lat="45.59314075969759" lon="10.744547708705893"><ele>231.0</ele><time>2026-04-21T14:34:55.999Z</time></trkpt><trkpt lat="45.59320496390561" lon="10.744610360583815"><ele>231.0</ele><time>2026-04-21T14:34:57.999Z</time></trkpt><trkpt lat="45.59325837616213" lon="10.744696960614977"><ele>230.83333333333334</ele><time>2026-04-21T14:34:59.999Z</time></trkpt><trkpt lat="45.59331127070591" lon="10.74478706150664"><ele>230.66666666666669</ele><time>2026-04-21T14:35:01.999Z</time></trkpt><trkpt lat="45.59336067714743" lon="10.744891740942185"><ele>230.5</ele><time>2026-04-21T14:35:03.999Z</time></trkpt><trkpt lat="45.593420715030945" lon="10.744989201041813"><ele>230.33333333333334</ele><time>2026-04-21T14:35:05.999Z</time></trkpt><trkpt lat="45.59347512424004" lon="10.745103935387057"><ele>230.16666666666669</ele><time>2026-04-21T14:35:07.999Z</time></trkpt><trkpt lat="45.59353439868485" lon="10.745197729523383"><ele>230.0</ele><time>2026-04-21T14:35:09.999Z</time></trkpt><trkpt lat="45.59358932065987" lon="10.745301376141883"><ele>229.83333333333334</ele><time>2026-04-21T14:35:11.999Z</time></trkpt><trkpt lat="45.59364486484271" lon="10.745401837467004"><ele>229.66666666666669</ele><time>2026-04-21T14:35:13.999Z</time></trkpt><trkpt lat="45.59370065567727" lon="10.74550205699255"><ele>229.5</ele><time>2026-04-21T14:35:15.999Z</time></trkpt><trkpt lat="45.59375103763781" lon="10.745608663725365"><ele>229.33333333333331</ele><time>2026-04-21T14:35:17.999Z</time></trkpt><trkpt lat="45.59380899150191" lon="10.74570562327805"><ele>229.16666666666666</ele><time>2026-04-21T14:35:19.999Z</time></trkpt><trkpt lat="45.59386013979147" lon="10.745810511391479"><ele>229.0</ele><time>2026-04-21T14:35:21.999Z</time></trkpt><trkpt lat="45.59392066259052" lon="10.745903061737785"><ele>229.16666666666666</ele><time>2026-04-21T14:35:23.999Z</time></trkpt><trkpt lat="45.593975473086616" lon="10.746003749020373"><ele>229.33333333333331</ele><time>2026-04-21T14:35:25.998Z</time></trkpt><trkpt lat="45.59402956302289" lon="10.74610151173494"><ele>229.5</ele><time>2026-04-21T14:35:27.998Z</time></trkpt><trkpt lat="45.594082515816126" lon="10.746198715388518"><ele>229.66666666666669</ele><time>2026-04-21T14:35:29.998Z</time></trkpt><trkpt lat="45.59413812353659" lon="10.74629686002345"><ele>229.83333333333334</ele><time>2026-04-21T14:35:31.998Z</time></trkpt><trkpt lat="45.594191406337" lon="10.746391419300199"><ele>230.0</ele><time>2026-04-21T14:35:33.998Z</time></trkpt><trkpt lat="45.59424241172344" lon="10.746484251314357"><ele>230.00000000000003</ele><time>2026-04-21T14:35:35.998Z</time></trkpt><trkpt lat="45.59428966898166" lon="10.746572036373108"><ele>230.0</ele><time>2026-04-21T14:35:37.998Z</time></trkpt><trkpt lat="45.594334112582274" lon="10.746660923267394"><ele>230.0</ele><time>2026-04-21T14:35:39.998Z</time></trkpt><trkpt lat="45.594373649405256" lon="10.746744280519836"><ele>230.0</ele><time>2026-04-21T14:35:41.998Z</time></trkpt><trkpt lat="45.59441547968603" lon="10.74682820372049"><ele>230.00000000000003</ele><time>2026-04-21T14:35:43.998Z</time></trkpt><trkpt lat="45.59447085591769" lon="10.746931881564844"><ele>230.0</ele><time>2026-04-21T14:35:46.998Z</time></trkpt><trkpt lat="45.594538669369896" lon="10.747007517143082"><ele>230.33333333333334</ele><time>2026-04-21T14:35:49.998Z</time></trkpt><trkpt lat="45.59460792656629" lon="10.74708125490661"><ele>230.66666666666669</ele><time>2026-04-21T14:35:52.998Z</time></trkpt><trkpt lat="45.59468413511401" lon="10.74713872206931"><ele>231.0</ele><time>2026-04-21T14:35:55.998Z</time></trkpt><trkpt lat="45.59476170726277" lon="10.747194035773347"><ele>231.33333333333331</ele><time>2026-04-21T14:35:59Z</time></trkpt><trkpt lat="45.594843714855436" lon="10.747247466883088"><ele>231.66666666666666</ele><time>2026-04-21T14:36:02Z</time></trkpt><trkpt lat="45.59491542256034" lon="10.747309223003167"><ele>232.0</ele><time>2026-04-21T14:36:05Z</time></trkpt><trkpt lat="45.59499581617368" lon="10.74736610077591"><ele>232.0</ele><time>2026-04-21T14:36:08Z</time></trkpt><trkpt lat="45.59507374309415" lon="10.747402713507498"><ele>232.0</ele><time>2026-04-21T14:36:11Z</time></trkpt><trkpt lat="45.59515172608321" lon="10.74748189634612"><ele>232.0</ele><time>2026-04-21T14:36:14Z</time></trkpt><trkpt lat="45.59521938876685" lon="10.747567037674065"><ele>232.0</ele><time>2026-04-21T14:36:16Z</time></trkpt><trkpt lat="45.595297345809044" lon="10.74765290812817"><ele>232.0</ele><time>2026-04-21T14:36:18Z</time></trkpt><trkpt lat="45.5953770891171" lon="10.747740770209555"><ele>232.0</ele><time>2026-04-21T14:36:20Z</time></trkpt><trkpt lat="45.59545363291112" lon="10.74784357788816"><ele>232.0</ele><time>2026-04-21T14:36:22Z</time></trkpt><trkpt lat="45.59552873677888" lon="10.747956431461418"><ele>232.0</ele><time>2026-04-21T14:36:24Z</time></trkpt><trkpt lat="45.59560389850368" lon="10.748070637668174"><ele>232.0</ele><time>2026-04-21T14:36:26Z</time></trkpt><trkpt lat="45.595673528258104" lon="10.748188299173831"><ele>232.0</ele><time>2026-04-21T14:36:28Z</time></trkpt><trkpt lat="45.59574395789829" lon="10.748289366956433"><ele>232.0</ele><time>2026-04-21T14:36:30Z</time></trkpt><trkpt lat="45.5958075086864" lon="10.748389662500518"><ele>232.0</ele><time>2026-04-21T14:36:31.999Z</time></trkpt><trkpt lat="45.595870446167226" lon="10.748484252858557"><ele>232.0</ele><time>2026-04-21T14:36:33.999Z</time></trkpt><trkpt lat="45.59592876303984" lon="10.74857558083556"><ele>232.0</ele><time>2026-04-21T14:36:35.999Z</time></trkpt><trkpt lat="45.5960021952779" lon="10.748698239710617"><ele>232.0</ele><time>2026-04-21T14:36:38.999Z</time></trkpt><trkpt lat="45.59605373639475" lon="10.748810919147607"><ele>231.83333333333331</ele><time>2026-04-21T14:36:40.999Z</time></trkpt><trkpt lat="45.59610773957716" lon="10.748901240129454"><ele>231.66666666666666</ele><time>2026-04-21T14:36:42.999Z</time></trkpt><trkpt lat="45.596160453046856" lon="10.749001154015286"><ele>231.5</ele><time>2026-04-21T14:36:44.999Z</time></trkpt><trkpt lat="45.5962033759811" lon="10.749099469098978"><ele>231.33333333333331</ele><time>2026-04-21T14:36:46.999Z</time></trkpt><trkpt lat="45.596225058204304" lon="10.749200493143885"><ele>231.16666666666666</ele><time>2026-04-21T14:36:48.999Z</time></trkpt><trkpt lat="45.596244095756894" lon="10.749309000115817"><ele>231.0</ele><time>2026-04-21T14:36:50.999Z</time></trkpt><trkpt lat="45.596246101570806" lon="10.749405302868263"><ele>232.16666666666666</ele><time>2026-04-21T14:36:52.999Z</time></trkpt><trkpt lat="45.59624818163775" lon="10.74950578544936"><ele>233.33333333333331</ele><time>2026-04-21T14:36:54.999Z</time></trkpt><trkpt lat="45.59625523573562" lon="10.749623402904737"><ele>234.5</ele><time>2026-04-21T14:36:56.999Z</time></trkpt><trkpt lat="45.5962559040577" lon="10.749752932466837"><ele>235.66666666666666</ele><time>2026-04-21T14:36:59.999Z</time></trkpt><trkpt lat="45.59625786005884" lon="10.749844233032322"><ele>236.83333333333331</ele><time>2026-04-21T14:37:01.999Z</time></trkpt><trkpt lat="45.59626496707942" lon="10.749976937783886"><ele>238.0</ele><time>2026-04-21T14:37:04.999Z</time></trkpt><trkpt lat="45.596266739127394" lon="10.750073854965624"><ele>238.0</ele><time>2026-04-21T14:37:06.999Z</time></trkpt><trkpt lat="45.5962708102033" lon="10.750169352002297"><ele>238.0</ele><time>2026-04-21T14:37:08.999Z</time></trkpt><trkpt lat="45.59627078342337" lon="10.750259468483437"><ele>238.0</ele><time>2026-04-21T14:37:10.999Z</time></trkpt><trkpt lat="45.59627413370997" lon="10.750352009400052"><ele>238.0</ele><time>2026-04-21T14:37:12.999Z</time></trkpt><trkpt lat="45.59628373642105" lon="10.750443826789677"><ele>238.0</ele><time>2026-04-21T14:37:14.999Z</time></trkpt><trkpt lat="45.5963063529045" lon="10.750574200666525"><ele>238.0</ele><time>2026-04-21T14:37:17.999Z</time></trkpt><trkpt lat="45.59632224625461" lon="10.750684768117077"><ele>238.0</ele><time>2026-04-21T14:37:20.999Z</time></trkpt><trkpt lat="45.59633375965223" lon="10.750791121839892"><ele>238.16666666666666</ele><time>2026-04-21T14:37:24.999Z</time></trkpt><trkpt lat="45.5963196687388" lon="10.750903610384897"><ele>238.33333333333331</ele><time>2026-04-21T14:37:27.999Z</time></trkpt><trkpt lat="45.59630612022144" lon="10.751020703218037"><ele>238.5</ele><time>2026-04-21T14:37:30.998Z</time></trkpt><trkpt lat="45.59628526112592" lon="10.751134194687381"><ele>238.66666666666669</ele><time>2026-04-21T14:37:33.998Z</time></trkpt><trkpt lat="45.59627382649113" lon="10.751244668581759"><ele>238.83333333333334</ele><time>2026-04-21T14:37:36.998Z</time></trkpt><trkpt lat="45.59624492475455" lon="10.751356199065608"><ele>239.0</ele><time>2026-04-21T14:37:39.998Z</time></trkpt><trkpt lat="45.59624209420659" lon="10.751471524030496"><ele>238.6</ele><time>2026-04-21T14:37:42.998Z</time></trkpt><trkpt lat="45.59618656187655" lon="10.751583067502153"><ele>238.2</ele><time>2026-04-21T14:37:45.998Z</time></trkpt><trkpt lat="45.596139281877434" lon="10.751670349861564"><ele>237.79999999999998</ele><time>2026-04-21T14:37:47.998Z</time></trkpt><trkpt lat="45.59610671008048" lon="10.75178810633995"><ele>237.39999999999998</ele><time>2026-04-21T14:37:49.998Z</time></trkpt><trkpt lat="45.596071214037835" lon="10.751911514744409"><ele>237.0</ele><time>2026-04-21T14:37:51.998Z</time></trkpt><trkpt lat="45.596012927732986" lon="10.752022894432027"><ele>236.0</ele><time>2026-04-21T14:37:53.998Z</time></trkpt><trkpt lat="45.595955409885235" lon="10.75214495344304"><ele>235.0</ele><time>2026-04-21T14:37:55.998Z</time></trkpt><trkpt lat="45.595878095388734" lon="10.752250765012173"><ele>234.0</ele><time>2026-04-21T14:37:57.998Z</time></trkpt><trkpt lat="45.59579980384534" lon="10.752357840810237"><ele>233.0</ele><time>2026-04-21T14:37:59.998Z</time></trkpt><trkpt lat="45.595716251616906" lon="10.752465713141255"><ele>232.0</ele><time>2026-04-21T14:38:01.998Z</time></trkpt><trkpt lat="45.59563956212799" lon="10.75256950578528"><ele>231.99999999999997</ele><time>2026-04-21T14:38:03.998Z</time></trkpt><trkpt lat="45.595574681345965" lon="10.752647807508257"><ele>232.0</ele><time>2026-04-21T14:38:07Z</time></trkpt><trkpt lat="45.59562831076294" lon="10.752772528977603"><ele>232.0</ele><time>2026-04-21T14:38:09Z</time></trkpt><trkpt lat="45.59569967569582" lon="10.752837448412691"><ele>232.0</ele><time>2026-04-21T14:38:12Z</time></trkpt><trkpt lat="45.59577030285801" lon="10.752910420935427"><ele>231.99999999999997</ele><time>2026-04-21T14:38:15Z</time></trkpt><trkpt lat="45.595847433382765" lon="10.752966168526271"><ele>232.0</ele><time>2026-04-21T14:38:18Z</time></trkpt><trkpt lat="45.59591737797065" lon="10.753020373671633"><ele>232.28571428571433</ele><time>2026-04-21T14:38:21Z</time></trkpt><trkpt lat="45.59596961320135" lon="10.753070802456383"><ele>232.57142857142858</ele><time>2026-04-21T14:38:24Z</time></trkpt><trkpt lat="45.596033818262946" lon="10.753124723364486"><ele>232.8571428571429</ele><time>2026-04-21T14:38:26Z</time></trkpt><trkpt lat="45.596106204447395" lon="10.75316947878445"><ele>233.14285714285717</ele><time>2026-04-21T14:38:29Z</time></trkpt><trkpt lat="45.59617610042343" lon="10.753216689184264"><ele>233.42857142857144</ele><time>2026-04-21T14:38:32Z</time></trkpt><trkpt lat="45.59624062599755" lon="10.753254911783248"><ele>233.71428571428572</ele><time>2026-04-21T14:38:35Z</time></trkpt><trkpt lat="45.59629640901774" lon="10.75330414756089"><ele>234.0</ele><time>2026-04-21T14:38:37.999Z</time></trkpt><trkpt lat="45.59635651582283" lon="10.753357496559818"><ele>234.57142857142858</ele><time>2026-04-21T14:38:40.999Z</time></trkpt><trkpt lat="45.59641682258571" lon="10.753413516143159"><ele>235.14285714285717</ele><time>2026-04-21T14:38:43.999Z</time></trkpt><trkpt lat="45.59648177862448" lon="10.753471018344447"><ele>235.71428571428572</ele><time>2026-04-21T14:38:46.999Z</time></trkpt><trkpt lat="45.596540582705906" lon="10.753516546803896"><ele>236.28571428571428</ele><time>2026-04-21T14:38:49.999Z</time></trkpt><trkpt lat="45.596596862073675" lon="10.753564106059295"><ele>236.85714285714286</ele><time>2026-04-21T14:38:52.999Z</time></trkpt><trkpt lat="45.596669245621435" lon="10.753615472962899"><ele>237.42857142857144</ele><time>2026-04-21T14:38:56.999Z</time></trkpt><trkpt lat="45.59673586616901" lon="10.753675094492836"><ele>238.0</ele><time>2026-04-21T14:38:59.999Z</time></trkpt><trkpt lat="45.596803351126525" lon="10.753727703998733"><ele>238.0</ele><time>2026-04-21T14:39:02.999Z</time></trkpt><trkpt lat="45.596863981378675" lon="10.75377777860659"><ele>238.0</ele><time>2026-04-21T14:39:05.999Z</time></trkpt><trkpt lat="45.59692336137511" lon="10.753822028579899"><ele>238.0</ele><time>2026-04-21T14:39:08.999Z</time></trkpt><trkpt lat="45.59698579523205" lon="10.753883944266876"><ele>238.0</ele><time>2026-04-21T14:39:11.999Z</time></trkpt><trkpt lat="45.59705504763986" lon="10.753931183710526"><ele>238.0</ele><time>2026-04-21T14:39:14.999Z</time></trkpt><trkpt lat="45.5971199794828" lon="10.753997078959713"><ele>238.0</ele><time>2026-04-21T14:39:17.999Z</time></trkpt><trkpt lat="45.597191132285246" lon="10.754042494871044"><ele>238.0</ele><time>2026-04-21T14:39:20.999Z</time></trkpt><trkpt lat="45.59725539298623" lon="10.754095307754593"><ele>238.71428571428572</ele><time>2026-04-21T14:39:23.999Z</time></trkpt><trkpt lat="45.597315435676435" lon="10.754149603618929"><ele>239.42857142857144</ele><time>2026-04-21T14:39:26.999Z</time></trkpt><trkpt lat="45.597381781228165" lon="10.754204648610864"><ele>240.14285714285714</ele><time>2026-04-21T14:39:29.999Z</time></trkpt><trkpt lat="45.59744618492484" lon="10.754252095060224"><ele>240.85714285714286</ele><time>2026-04-21T14:39:32.999Z</time></trkpt><trkpt lat="45.5975139806045" lon="10.754299124040793"><ele>241.57142857142858</ele><time>2026-04-21T14:39:35.998Z</time></trkpt><trkpt lat="45.59757151958052" lon="10.754341555859684"><ele>242.28571428571428</ele><time>2026-04-21T14:39:38.998Z</time></trkpt><trkpt lat="45.59763053826087" lon="10.75439295624695"><ele>243.0</ele><time>2026-04-21T14:39:41.998Z</time></trkpt><trkpt lat="45.59769560446773" lon="10.754455844411455"><ele>243.0</ele><time>2026-04-21T14:39:44.998Z</time></trkpt><trkpt lat="45.59774595356879" lon="10.754511135105062"><ele>243.0</ele><time>2026-04-21T14:39:47.998Z</time></trkpt><trkpt lat="45.5977926465767" lon="10.754592156303174"><ele>243.0</ele><time>2026-04-21T14:39:50.998Z</time></trkpt><trkpt lat="45.59794699382435" lon="10.754637658021311"><ele>243.0</ele><time>2026-04-21T14:39:59.998Z</time></trkpt><trkpt lat="45.598018957042456" lon="10.754643700194128"><ele>243.0</ele><time>2026-04-21T14:40:02.998Z</time></trkpt><trkpt lat="45.598087615886065" lon="10.7546566517251"><ele>243.0</ele><time>2026-04-21T14:40:05.998Z</time></trkpt><trkpt lat="45.59815764772433" lon="10.754661931786941"><ele>244.0</ele><time>2026-04-21T14:40:09.998Z</time></trkpt><trkpt lat="45.59822877524754" lon="10.754657119334585"><ele>245.0</ele><time>2026-04-21T14:40:15Z</time></trkpt><trkpt lat="45.598421960873694" lon="10.754751054543009"><ele>246.0</ele><time>2026-04-21T14:40:26Z</time></trkpt><trkpt lat="45.598491550836904" lon="10.754798354123604"><ele>247.0</ele><time>2026-04-21T14:40:30Z</time></trkpt><trkpt lat="45.59856373814338" lon="10.754826329175502"><ele>248.0</ele><time>2026-04-21T14:40:34Z</time></trkpt><trkpt lat="45.59863601386455" lon="10.754858850777977"><ele>248.85714285714286</ele><time>2026-04-21T14:40:39Z</time></trkpt><trkpt lat="45.59869989842393" lon="10.754878216636989"><ele>249.71428571428572</ele><time>2026-04-21T14:40:42.999Z</time></trkpt><trkpt lat="45.59876778478393" lon="10.754909494968073"><ele>250.57142857142858</ele><time>2026-04-21T14:40:48.999Z</time></trkpt><trkpt lat="45.598833366963774" lon="10.754925699387792"><ele>251.42857142857144</ele><time>2026-04-21T14:40:53.999Z</time></trkpt><trkpt lat="45.598897629298285" lon="10.754942156915"><ele>252.28571428571428</ele><time>2026-04-21T14:40:58.999Z</time></trkpt><trkpt lat="45.59895887140657" lon="10.754976481557932"><ele>253.14285714285717</ele><time>2026-04-21T14:41:03.999Z</time></trkpt><trkpt lat="45.59898179889019" lon="10.755074930325494"><ele>254.0</ele><time>2026-04-21T14:41:08.999Z</time></trkpt><trkpt lat="45.598994695020636" lon="10.755166018574414"><ele>254.14285714285717</ele><time>2026-04-21T14:41:13.999Z</time></trkpt><trkpt lat="45.599003914713755" lon="10.75525565431583"><ele>254.28571428571428</ele><time>2026-04-21T14:41:17.999Z</time></trkpt><trkpt lat="45.59902120165329" lon="10.755344579505524"><ele>254.42857142857144</ele><time>2026-04-21T14:41:21.999Z</time></trkpt><trkpt lat="45.59904400648944" lon="10.755450940972754"><ele>254.57142857142858</ele><time>2026-04-21T14:41:26.999Z</time></trkpt><trkpt lat="45.59906545516725" lon="10.755553411582373"><ele>254.71428571428572</ele><time>2026-04-21T14:41:31.999Z</time></trkpt><trkpt lat="45.599082858347195" lon="10.755651289193848"><ele>254.85714285714286</ele><time>2026-04-21T14:41:36.999Z</time></trkpt><trkpt lat="45.5991094027922" lon="10.755736895006043"><ele>255.0</ele><time>2026-04-21T14:41:40.998Z</time></trkpt><trkpt lat="45.59912296630031" lon="10.755853627840466"><ele>255.0</ele><time>2026-04-21T14:41:44.998Z</time></trkpt><trkpt lat="45.59914104198304" lon="10.755954877176404"><ele>255.0</ele><time>2026-04-21T14:41:47.998Z</time></trkpt><trkpt lat="45.599159257655735" lon="10.75608395455399"><ele>255.0</ele><time>2026-04-21T14:41:50.998Z</time></trkpt><trkpt lat="45.59918219998435" lon="10.756203048534605"><ele>255.0</ele><time>2026-04-21T14:41:53.998Z</time></trkpt><trkpt lat="45.599205578268126" lon="10.756325239343942"><ele>255.0</ele><time>2026-04-21T14:41:56.998Z</time></trkpt><trkpt lat="45.59923185734279" lon="10.756430483346591"><ele>255.0</ele><time>2026-04-21T14:41:59.998Z</time></trkpt><trkpt lat="45.59925037169201" lon="10.756555337664167"><ele>254.66666666666666</ele><time>2026-04-21T14:42:02.998Z</time></trkpt><trkpt lat="45.59927397283299" lon="10.756680662804571"><ele>254.33333333333331</ele><time>2026-04-21T14:42:05.998Z</time></trkpt><trkpt lat="45.59929871599544" lon="10.75680915600605"><ele>254.0</ele><time>2026-04-21T14:42:08.998Z</time></trkpt><trkpt lat="45.59932190877062" lon="10.756906900658983"><ele>253.66666666666666</ele><time>2026-04-21T14:42:10.998Z</time></trkpt><trkpt lat="45.59935394041717" lon="10.757012912836302"><ele>253.33333333333331</ele><time>2026-04-21T14:42:12.998Z</time></trkpt><trkpt lat="45.5993850651775" lon="10.75713111329865"><ele>253.0</ele><time>2026-04-21T14:42:14.998Z</time></trkpt><trkpt lat="45.599415750390015" lon="10.757249838267159"><ele>252.33333333333331</ele><time>2026-04-21T14:42:17Z</time></trkpt><trkpt lat="45.599446241041136" lon="10.757369036947109"><ele>251.66666666666666</ele><time>2026-04-21T14:42:19Z</time></trkpt><trkpt lat="45.599478529155924" lon="10.757482975226308"><ele>251.0</ele><time>2026-04-21T14:42:21Z</time></trkpt><trkpt lat="45.59951153530928" lon="10.7575950230526"><ele>250.33333333333331</ele><time>2026-04-21T14:42:23Z</time></trkpt><trkpt lat="45.599551051423916" lon="10.75770323511247"><ele>249.66666666666666</ele><time>2026-04-21T14:42:25Z</time></trkpt><trkpt lat="45.59957650428809" lon="10.757816033867147"><ele>249.0</ele><time>2026-04-21T14:42:27Z</time></trkpt><trkpt lat="45.59960086265647" lon="10.757932959484728"><ele>250.33333333333334</ele><time>2026-04-21T14:42:29Z</time></trkpt><trkpt lat="45.59963087575409" lon="10.75804936305785"><ele>251.66666666666669</ele><time>2026-04-21T14:42:31Z</time></trkpt><trkpt lat="45.59966367973579" lon="10.758161191719344"><ele>253.0</ele><time>2026-04-21T14:42:33Z</time></trkpt><trkpt lat="45.599703809943506" lon="10.758259760619419"><ele>254.33333333333334</ele><time>2026-04-21T14:42:35Z</time></trkpt><trkpt lat="45.59971411103099" lon="10.758380157560952"><ele>255.66666666666669</ele><time>2026-04-21T14:42:37Z</time></trkpt><trkpt lat="45.59975376139877" lon="10.758486287985733"><ele>257.0</ele><time>2026-04-21T14:42:39Z</time></trkpt><trkpt lat="45.599786000786686" lon="10.758591078053767"><ele>257.0</ele><time>2026-04-21T14:42:41Z</time></trkpt><trkpt lat="45.59981042686859" lon="10.758699878601755"><ele>257.0</ele><time>2026-04-21T14:42:43Z</time></trkpt><trkpt lat="45.599833249692004" lon="10.75880908604805"><ele>257.0</ele><time>2026-04-21T14:42:44.999Z</time></trkpt><trkpt lat="45.59985063702707" lon="10.758923215157532"><ele>257.0</ele><time>2026-04-21T14:42:46.999Z</time></trkpt><trkpt lat="45.59988722217774" lon="10.759027243929044"><ele>257.0</ele><time>2026-04-21T14:42:48.999Z</time></trkpt><trkpt lat="45.59991977046621" lon="10.759130371772093"><ele>257.0</ele><time>2026-04-21T14:42:50.999Z</time></trkpt><trkpt lat="45.599960113060575" lon="10.759228567398614"><ele>257.0</ele><time>2026-04-21T14:42:52.999Z</time></trkpt><trkpt lat="45.59997887608478" lon="10.759335726381984"><ele>257.0</ele><time>2026-04-21T14:42:54.999Z</time></trkpt><trkpt lat="45.6000000841117" lon="10.759438810839647"><ele>257.0</ele><time>2026-04-21T14:42:56.999Z</time></trkpt><trkpt lat="45.60002073196036" lon="10.75954633360241"><ele>257.0</ele><time>2026-04-21T14:42:58.999Z</time></trkpt><trkpt lat="45.600050917752135" lon="10.759642590765782"><ele>257.0</ele><time>2026-04-21T14:43:00.999Z</time></trkpt><trkpt lat="45.60007496835458" lon="10.75973211455431"><ele>257.0</ele><time>2026-04-21T14:43:02.999Z</time></trkpt><trkpt lat="45.600098717481664" lon="10.759831472479126"><ele>257.0</ele><time>2026-04-21T14:43:04.999Z</time></trkpt><trkpt lat="45.600127675425135" lon="10.75992925638387"><ele>256.42857142857144</ele><time>2026-04-21T14:43:06.999Z</time></trkpt><trkpt lat="45.6001494943507" lon="10.760032967860985"><ele>255.8571428571429</ele><time>2026-04-21T14:43:08.999Z</time></trkpt><trkpt lat="45.60018043065401" lon="10.76012890460784"><ele>255.2857142857143</ele><time>2026-04-21T14:43:10.999Z</time></trkpt><trkpt lat="45.60020394677965" lon="10.760230200072932"><ele>254.71428571428572</ele><time>2026-04-21T14:43:12.999Z</time></trkpt><trkpt lat="45.60023175716465" lon="10.760324643022434"><ele>254.14285714285717</ele><time>2026-04-21T14:43:14.999Z</time></trkpt><trkpt lat="45.600251196749305" lon="10.760426227262991"><ele>253.5714285714286</ele><time>2026-04-21T14:43:16.999Z</time></trkpt><trkpt lat="45.60027575951898" lon="10.760527015745744"><ele>253.00000000000003</ele><time>2026-04-21T14:43:18.999Z</time></trkpt><trkpt lat="45.60029632340857" lon="10.760624383443625"><ele>252.83333333333331</ele><time>2026-04-21T14:43:20.999Z</time></trkpt><trkpt lat="45.60032416772051" lon="10.760722825877208"><ele>252.66666666666666</ele><time>2026-04-21T14:43:22.999Z</time></trkpt><trkpt lat="45.600345822795944" lon="10.760828442710624"><ele>252.5</ele><time>2026-04-21T14:43:24.999Z</time></trkpt><trkpt lat="45.60037536683126" lon="10.760932581178942"><ele>252.33333333333331</ele><time>2026-04-21T14:43:26.999Z</time></trkpt><trkpt lat="45.60039418944064" lon="10.76105044080049"><ele>252.16666666666666</ele><time>2026-04-21T14:43:28.999Z</time></trkpt><trkpt lat="45.60041613809476" lon="10.761165752567813"><ele>252.0</ele><time>2026-04-21T14:43:30.999Z</time></trkpt><trkpt lat="45.60040828014697" lon="10.761297247530438"><ele>251.8</ele><time>2026-04-21T14:43:32.999Z</time></trkpt><trkpt lat="45.600437086721726" lon="10.761425759715586"><ele>251.6</ele><time>2026-04-21T14:43:34.999Z</time></trkpt><trkpt lat="45.60045866529086" lon="10.761556664839217"><ele>251.40000000000003</ele><time>2026-04-21T14:43:36.999Z</time></trkpt><trkpt lat="45.60047457735474" lon="10.761683355756542"><ele>251.20000000000002</ele><time>2026-04-21T14:43:38.999Z</time></trkpt><trkpt lat="45.60049835063104" lon="10.761811636790407"><ele>251.0</ele><time>2026-04-21T14:43:40.999Z</time></trkpt><trkpt lat="45.60052017829147" lon="10.761953889016043"><ele>251.0</ele><time>2026-04-21T14:43:42.998Z</time></trkpt><trkpt lat="45.60053516403718" lon="10.762096230668183"><ele>251.00000000000003</ele><time>2026-04-21T14:43:44.998Z</time></trkpt><trkpt lat="45.600551186068515" lon="10.762235008918733"><ele>251.00000000000003</ele><time>2026-04-21T14:43:46.998Z</time></trkpt><trkpt lat="45.60055821858326" lon="10.762369603907494"><ele>251.0</ele><time>2026-04-21T14:43:48.998Z</time></trkpt><trkpt lat="45.600569462792855" lon="10.76250587158949"><ele>251.0</ele><time>2026-04-21T14:43:50.998Z</time></trkpt><trkpt lat="45.600575892974405" lon="10.762632190907086"><ele>251.4285714285714</ele><time>2026-04-21T14:43:52.998Z</time></trkpt><trkpt lat="45.60058124702454" lon="10.762747035000853"><ele>251.85714285714283</ele><time>2026-04-21T14:43:54.998Z</time></trkpt><trkpt lat="45.60058238345781" lon="10.762851556648965"><ele>252.28571428571428</ele><time>2026-04-21T14:43:56.998Z</time></trkpt><trkpt lat="45.60058722451448" lon="10.76296538439865"><ele>252.7142857142857</ele><time>2026-04-21T14:43:58.998Z</time></trkpt><trkpt lat="45.60059172043396" lon="10.763072263750901"><ele>253.1428571428571</ele><time>2026-04-21T14:44:00.998Z</time></trkpt><trkpt lat="45.600593286328746" lon="10.763172503959542"><ele>253.57142857142858</ele><time>2026-04-21T14:44:02.998Z</time></trkpt><trkpt lat="45.60059533618427" lon="10.763263079947476"><ele>254.0</ele><time>2026-04-21T14:44:04.998Z</time></trkpt><trkpt lat="45.600599019016286" lon="10.763353397292184"><ele>254.00000000000003</ele><time>2026-04-21T14:44:06.998Z</time></trkpt><trkpt lat="45.60059634613157" lon="10.763478470422124"><ele>254.0</ele><time>2026-04-21T14:44:09.998Z</time></trkpt><trkpt lat="45.60060099403587" lon="10.763595290876182"><ele>254.0</ele><time>2026-04-21T14:44:12.998Z</time></trkpt><trkpt lat="45.60059774828965" lon="10.76370864541529"><ele>254.0</ele><time>2026-04-21T14:44:15.998Z</time></trkpt><trkpt lat="45.6006027245625" lon="10.763815074010225"><ele>254.00000000000003</ele><time>2026-04-21T14:44:18.998Z</time></trkpt><trkpt lat="45.60060518422294" lon="10.763911156358265"><ele>254.0</ele><time>2026-04-21T14:44:22Z</time></trkpt><trkpt lat="45.60060280758746" lon="10.76401926020719"><ele>253.83333333333334</ele><time>2026-04-21T14:44:25Z</time></trkpt><trkpt lat="45.600605097705014" lon="10.764138871518135"><ele>253.66666666666669</ele><time>2026-04-21T14:44:29Z</time></trkpt><trkpt lat="45.6006103600816" lon="10.764258233766322"><ele>253.5</ele><time>2026-04-21T14:44:33Z</time></trkpt><trkpt lat="45.60061859709513" lon="10.764368663003218"><ele>253.33333333333331</ele><time>2026-04-21T14:44:35Z</time></trkpt><trkpt lat="45.60063878934429" lon="10.764484309174032"><ele>253.16666666666666</ele><time>2026-04-21T14:44:38Z</time></trkpt><trkpt lat="45.6006634336329" lon="10.764602525824383"><ele>253.0</ele><time>2026-04-21T14:44:41Z</time></trkpt><trkpt lat="45.60068202402872" lon="10.764740768953724"><ele>252.49999999999997</ele><time>2026-04-21T14:44:44Z</time></trkpt><trkpt lat="45.60071497733813" lon="10.764861438222544"><ele>252.0</ele><time>2026-04-21T14:44:47Z</time></trkpt><trkpt lat="45.600736039418415" lon="10.764979375682485"><ele>251.5</ele><time>2026-04-21T14:44:50Z</time></trkpt><trkpt lat="45.600755872575675" lon="10.76507695898123"><ele>251.0</ele><time>2026-04-21T14:44:52.999Z</time></trkpt><trkpt lat="45.60077872923281" lon="10.765197176486184"><ele>250.49999999999997</ele><time>2026-04-21T14:44:55.999Z</time></trkpt><trkpt lat="45.60079975002588" lon="10.765282730411569"><ele>250.0</ele><time>2026-04-21T14:44:57.999Z</time></trkpt><trkpt lat="45.60082857783716" lon="10.765386711415738"><ele>249.66666666666666</ele><time>2026-04-21T14:44:59.999Z</time></trkpt><trkpt lat="45.60084380048725" lon="10.765493117917355"><ele>249.33333333333331</ele><time>2026-04-21T14:45:01.999Z</time></trkpt><trkpt lat="45.60086800991948" lon="10.765615739137576"><ele>249.0</ele><time>2026-04-21T14:45:03.999Z</time></trkpt><trkpt lat="45.60089193030195" lon="10.76573462615971"><ele>248.66666666666669</ele><time>2026-04-21T14:45:05.999Z</time></trkpt><trkpt lat="45.60091750883266" lon="10.765849991230748"><ele>248.33333333333334</ele><time>2026-04-21T14:45:07.999Z</time></trkpt><trkpt lat="45.60094734564278" lon="10.765976698331931"><ele>248.0</ele><time>2026-04-21T14:45:09.999Z</time></trkpt><trkpt lat="45.60098064966914" lon="10.766096296467028"><ele>247.50000000000003</ele><time>2026-04-21T14:45:11.999Z</time></trkpt><trkpt lat="45.600985207575896" lon="10.766208261614645"><ele>247.0</ele><time>2026-04-21T14:45:13.999Z</time></trkpt><trkpt lat="45.60100605035651" lon="10.766311983059058"><ele>246.5</ele><time>2026-04-21T14:45:15.999Z</time></trkpt><trkpt lat="45.601014160268186" lon="10.766419260813759"><ele>246.0</ele><time>2026-04-21T14:45:17.999Z</time></trkpt><trkpt lat="45.60102760674723" lon="10.76653223521775"><ele>245.50000000000003</ele><time>2026-04-21T14:45:19.999Z</time></trkpt><trkpt lat="45.60103751656412" lon="10.76664731702543"><ele>245.0</ele><time>2026-04-21T14:45:21.999Z</time></trkpt><trkpt lat="45.601048126629735" lon="10.76675654830243"><ele>245.16666666666669</ele><time>2026-04-21T14:45:23.999Z</time></trkpt><trkpt lat="45.601064937994195" lon="10.766867474611061"><ele>245.33333333333334</ele><time>2026-04-21T14:45:25.999Z</time></trkpt><trkpt lat="45.601078081809" lon="10.76696695073281"><ele>245.5</ele><time>2026-04-21T14:45:27.999Z</time></trkpt><trkpt lat="45.601082626514135" lon="10.767074329455513"><ele>245.66666666666669</ele><time>2026-04-21T14:45:29.999Z</time></trkpt><trkpt lat="45.60109541976742" lon="10.767176638211387"><ele>245.83333333333334</ele><time>2026-04-21T14:45:31.999Z</time></trkpt><trkpt lat="45.601108224774" lon="10.767288776765431"><ele>246.0</ele><time>2026-04-21T14:45:33.999Z</time></trkpt><trkpt lat="45.601118423662605" lon="10.767400758108616"><ele>246.0</ele><time>2026-04-21T14:45:35.999Z</time></trkpt><trkpt lat="45.60113291095452" lon="10.76751373994956"><ele>246.0</ele><time>2026-04-21T14:45:37.999Z</time></trkpt><trkpt lat="45.60115252184982" lon="10.76763477549208"><ele>246.0</ele><time>2026-04-21T14:45:39.999Z</time></trkpt><trkpt lat="45.601158920475754" lon="10.767759729091582"><ele>246.0</ele><time>2026-04-21T14:45:41.999Z</time></trkpt><trkpt lat="45.60117312334722" lon="10.767887834439954"><ele>246.0</ele><time>2026-04-21T14:45:43.999Z</time></trkpt><trkpt lat="45.601194823799474" lon="10.768017318939618"><ele>246.0</ele><time>2026-04-21T14:45:45.999Z</time></trkpt><trkpt lat="45.60120283764367" lon="10.768150886514563"><ele>246.4</ele><time>2026-04-21T14:45:47.999Z</time></trkpt><trkpt lat="45.601219352955255" lon="10.76828379312186"><ele>246.8</ele><time>2026-04-21T14:45:49.998Z</time></trkpt><trkpt lat="45.601234767203984" lon="10.768424365838666"><ele>247.20000000000002</ele><time>2026-04-21T14:45:51.998Z</time></trkpt><trkpt lat="45.60124972931234" lon="10.76856555099058"><ele>247.60000000000002</ele><time>2026-04-21T14:45:53.998Z</time></trkpt><trkpt lat="45.60126445532945" lon="10.768707956303118"><ele>248.0</ele><time>2026-04-21T14:45:55.998Z</time></trkpt><trkpt lat="45.60128634886454" lon="10.76884820946106"><ele>248.0</ele><time>2026-04-21T14:45:57.998Z</time></trkpt><trkpt lat="45.60130273910116" lon="10.7689825534732"><ele>248.0</ele><time>2026-04-21T14:45:59.998Z</time></trkpt><trkpt lat="45.60130940198917" lon="10.76912117316615"><ele>248.0</ele><time>2026-04-21T14:46:01.998Z</time></trkpt><trkpt lat="45.60132286463331" lon="10.769257683869148"><ele>248.0</ele><time>2026-04-21T14:46:03.998Z</time></trkpt><trkpt lat="45.601348046697126" lon="10.769401858339046"><ele>248.0</ele><time>2026-04-21T14:46:05.998Z</time></trkpt><trkpt lat="45.60137591097137" lon="10.769548060228951"><ele>247.66666666666669</ele><time>2026-04-21T14:46:07.998Z</time></trkpt><trkpt lat="45.60140341084042" lon="10.769684042743316"><ele>247.33333333333334</ele><time>2026-04-21T14:46:09.998Z</time></trkpt><trkpt lat="45.60143440821141" lon="10.769808003918738"><ele>247.0</ele><time>2026-04-21T14:46:11.998Z</time></trkpt><trkpt lat="45.60146583691044" lon="10.769923842336942"><ele>246.66666666666669</ele><time>2026-04-21T14:46:13.998Z</time></trkpt><trkpt lat="45.60149547508052" lon="10.770030097272778"><ele>246.33333333333334</ele><time>2026-04-21T14:46:15.998Z</time></trkpt><trkpt lat="45.60152955491836" lon="10.770142745681543"><ele>246.0</ele><time>2026-04-21T14:46:17.998Z</time></trkpt><trkpt lat="45.60156218822594" lon="10.77024713661684"><ele>245.8571428571429</ele><time>2026-04-21T14:46:19.998Z</time></trkpt><trkpt lat="45.60159624638694" lon="10.770355492924297"><ele>245.71428571428572</ele><time>2026-04-21T14:46:21.998Z</time></trkpt><trkpt lat="45.60162552032791" lon="10.770449324724641"><ele>245.57142857142858</ele><time>2026-04-21T14:46:23.998Z</time></trkpt><trkpt lat="45.601658522966915" lon="10.770540711418347"><ele>245.42857142857144</ele><time>2026-04-21T14:46:25.998Z</time></trkpt><trkpt lat="45.6016876716098" lon="10.770632611971914"><ele>245.28571428571428</ele><time>2026-04-21T14:46:28Z</time></trkpt><trkpt lat="45.60171983502656" lon="10.770726940880685"><ele>245.14285714285714</ele><time>2026-04-21T14:46:30Z</time></trkpt><trkpt lat="45.601750671884794" lon="10.770823801532643"><ele>245.0</ele><time>2026-04-21T14:46:32Z</time></trkpt><trkpt lat="45.601786090144" lon="10.770916023944062"><ele>245.00000000000003</ele><time>2026-04-21T14:46:35Z</time></trkpt><trkpt lat="45.60182633772637" lon="10.771023886222427"><ele>245.0</ele><time>2026-04-21T14:46:38Z</time></trkpt><trkpt lat="45.601855716492906" lon="10.771103557599648"><ele>245.0</ele><time>2026-04-21T14:46:40Z</time></trkpt><trkpt lat="45.60189270640648" lon="10.771190970786611"><ele>245.0</ele><time>2026-04-21T14:46:42Z</time></trkpt><trkpt lat="45.60194806252819" lon="10.771292328713248"><ele>245.00000000000003</ele><time>2026-04-21T14:46:45Z</time></trkpt><trkpt lat="45.60199004974776" lon="10.771406350530308"><ele>245.0</ele><time>2026-04-21T14:46:48Z</time></trkpt><trkpt lat="45.60206626879643" lon="10.771509375161413"><ele>246.00000000000003</ele><time>2026-04-21T14:46:52Z</time></trkpt><trkpt lat="45.602118213725696" lon="10.77157517687517"><ele>247.0</ele><time>2026-04-21T14:46:53.999Z</time></trkpt><trkpt lat="45.60218195269059" lon="10.771671814448435"><ele>248.0</ele><time>2026-04-21T14:46:55.999Z</time></trkpt><trkpt lat="45.60223280167455" lon="10.771746103682501"><ele>249.0</ele><time>2026-04-21T14:46:57.999Z</time></trkpt><trkpt lat="45.60228889985552" lon="10.771819402125663"><ele>250.00000000000003</ele><time>2026-04-21T14:47:00.999Z</time></trkpt><trkpt lat="45.60233429477291" lon="10.771889378803152"><ele>251.0</ele><time>2026-04-21T14:47:02.999Z</time></trkpt><trkpt lat="45.602395526717096" lon="10.771989934896547"><ele>251.33333333333334</ele><time>2026-04-21T14:47:05.999Z</time></trkpt><trkpt lat="45.60245223112121" lon="10.772071574554126"><ele>251.66666666666669</ele><time>2026-04-21T14:47:08.999Z</time></trkpt><trkpt lat="45.602510623303885" lon="10.772155877672347"><ele>252.0</ele><time>2026-04-21T14:47:11.999Z</time></trkpt><trkpt lat="45.60255289599851" lon="10.772248292983834"><ele>252.33333333333331</ele><time>2026-04-21T14:47:14.999Z</time></trkpt><trkpt lat="45.60259412224378" lon="10.772344578215732"><ele>252.66666666666666</ele><time>2026-04-21T14:47:17.999Z</time></trkpt><trkpt lat="45.60263716385021" lon="10.772436546833966"><ele>253.0</ele><time>2026-04-21T14:47:20.999Z</time></trkpt><trkpt lat="45.60267710134864" lon="10.772531727396643"><ele>252.99999999999997</ele><time>2026-04-21T14:47:23.999Z</time></trkpt><trkpt lat="45.60270724164163" lon="10.772627201065966"><ele>253.0</ele><time>2026-04-21T14:47:26.999Z</time></trkpt><trkpt lat="45.60272501203047" lon="10.772742106649552"><ele>253.0</ele><time>2026-04-21T14:47:29.999Z</time></trkpt><trkpt lat="45.60274042401257" lon="10.772857910372467"><ele>253.0</ele><time>2026-04-21T14:47:32.999Z</time></trkpt><trkpt lat="45.602748630485195" lon="10.772969918636484"><ele>252.99999999999997</ele><time>2026-04-21T14:47:35.999Z</time></trkpt><trkpt lat="45.60273726255903" lon="10.77309157505643"><ele>253.0</ele><time>2026-04-21T14:47:38.999Z</time></trkpt><trkpt lat="45.602731690972476" lon="10.773207753637589"><ele>253.42857142857144</ele><time>2026-04-21T14:47:41.999Z</time></trkpt><trkpt lat="45.602726101428" lon="10.773298168909712"><ele>253.85714285714286</ele><time>2026-04-21T14:47:43.999Z</time></trkpt><trkpt lat="45.60271913500245" lon="10.773394159808962"><ele>254.28571428571428</ele><time>2026-04-21T14:47:45.999Z</time></trkpt><trkpt lat="45.60270708078094" lon="10.773490243478284"><ele>254.71428571428572</ele><time>2026-04-21T14:47:47.999Z</time></trkpt><trkpt lat="45.602695602290645" lon="10.77359203130278"><ele>255.1428571428571</ele><time>2026-04-21T14:47:49.999Z</time></trkpt><trkpt lat="45.60269859448465" lon="10.773701875404182"><ele>255.57142857142856</ele><time>2026-04-21T14:47:51.999Z</time></trkpt><trkpt lat="45.60267884183129" lon="10.773805005983458"><ele>256.0</ele><time>2026-04-21T14:47:53.998Z</time></trkpt><trkpt lat="45.60267364263952" lon="10.773920756956306"><ele>255.99999999999997</ele><time>2026-04-21T14:47:55.998Z</time></trkpt><trkpt lat="45.60266203556946" lon="10.774033104839466"><ele>256.0</ele><time>2026-04-21T14:47:57.998Z</time></trkpt><trkpt lat="45.60265082357947" lon="10.77414251668625"><ele>256.0</ele><time>2026-04-21T14:47:59.998Z</time></trkpt><trkpt lat="45.602633814200004" lon="10.774252211170145"><ele>256.0</ele><time>2026-04-21T14:48:01.998Z</time></trkpt><trkpt lat="45.602629688558416" lon="10.774370992602941"><ele>255.99999999999997</ele><time>2026-04-21T14:48:03.998Z</time></trkpt><trkpt lat="45.602619065358994" lon="10.774485442318996"><ele>256.0</ele><time>2026-04-21T14:48:05.998Z</time></trkpt><trkpt lat="45.602611490099115" lon="10.774602502591671"><ele>255.33333333333331</ele><time>2026-04-21T14:48:07.998Z</time></trkpt><trkpt lat="45.6025994871078" lon="10.774740541553069"><ele>254.66666666666666</ele><time>2026-04-21T14:48:09.998Z</time></trkpt><trkpt lat="45.60259059491518" lon="10.774904473329446"><ele>254.0</ele><time>2026-04-21T14:48:11.998Z</time></trkpt><trkpt lat="45.60258153623854" lon="10.774995349723515"><ele>253.33333333333331</ele><time>2026-04-21T14:48:12.998Z</time></trkpt><trkpt lat="45.60256796586162" lon="10.775101202123498"><ele>252.66666666666666</ele><time>2026-04-21T14:48:13.998Z</time></trkpt><trkpt lat="45.60256409783387" lon="10.775210009372977"><ele>252.0</ele><time>2026-04-21T14:48:14.998Z</time></trkpt><trkpt lat="45.6025588977741" lon="10.775314894996525"><ele>251.5</ele><time>2026-04-21T14:48:15.998Z</time></trkpt><trkpt lat="45.60254660677971" lon="10.7754261872809"><ele>251.0</ele><time>2026-04-21T14:48:16.998Z</time></trkpt><trkpt lat="45.602539889975574" lon="10.775540600818335"><ele>250.5</ele><time>2026-04-21T14:48:17.998Z</time></trkpt><trkpt lat="45.60253082983565" lon="10.77565371483862"><ele>250.0</ele><time>2026-04-21T14:48:18.998Z</time></trkpt><trkpt lat="45.60252064280191" lon="10.77576884510066"><ele>249.5</ele><time>2026-04-21T14:48:19.998Z</time></trkpt><trkpt lat="45.602512165460325" lon="10.775886841089145"><ele>249.0</ele><time>2026-04-21T14:48:20.998Z</time></trkpt><trkpt lat="45.60250516342538" lon="10.776003089895806"><ele>248.66666666666666</ele><time>2026-04-21T14:48:21.998Z</time></trkpt><trkpt lat="45.602500693991" lon="10.776113809965688"><ele>248.33333333333331</ele><time>2026-04-21T14:48:22.998Z</time></trkpt><trkpt lat="45.60249589921264" lon="10.776226293346141"><ele>248.0</ele><time>2026-04-21T14:48:23.998Z</time></trkpt><trkpt lat="45.602499542584845" lon="10.776335936115474"><ele>247.66666666666666</ele><time>2026-04-21T14:48:24.998Z</time></trkpt><trkpt lat="45.602507971428174" lon="10.77644571772275"><ele>247.33333333333331</ele><time>2026-04-21T14:48:25.998Z</time></trkpt><trkpt lat="45.60252280833951" lon="10.776544512402866"><ele>247.0</ele><time>2026-04-21T14:48:26.998Z</time></trkpt><trkpt lat="45.60254638496273" lon="10.776642523220886"><ele>246.99999999999997</ele><time>2026-04-21T14:48:27.998Z</time></trkpt><trkpt lat="45.602578350616305" lon="10.776725406055276"><ele>247.0</ele><time>2026-04-21T14:48:28.998Z</time></trkpt><trkpt lat="45.60261077994533" lon="10.776807804309382"><ele>247.0</ele><time>2026-04-21T14:48:29.998Z</time></trkpt><trkpt lat="45.60266489927728" lon="10.776962948062318"><ele>247.0</ele><time>2026-04-21T14:48:31.998Z</time></trkpt><trkpt lat="45.60272011973811" lon="10.777096309694084"><ele>246.99999999999997</ele><time>2026-04-21T14:48:34Z</time></trkpt><trkpt lat="45.6027484354532" lon="10.777190783125654"><ele>247.0</ele><time>2026-04-21T14:48:36Z</time></trkpt><trkpt lat="45.60277877531452" lon="10.777273695515058"><ele>246.66666666666666</ele><time>2026-04-21T14:48:38Z</time></trkpt><trkpt lat="45.60280229046059" lon="10.777359143970388"><ele>246.33333333333331</ele><time>2026-04-21T14:48:50Z</time></trkpt><trkpt lat="45.60283854581642" lon="10.777448403433917"><ele>246.0</ele><time>2026-04-21T14:48:57Z</time></trkpt><trkpt lat="45.60287457405878" lon="10.777569106658545"><ele>245.66666666666669</ele><time>2026-04-21T14:49:00.999Z</time></trkpt><trkpt lat="45.602906592789196" lon="10.777661651380706"><ele>245.33333333333334</ele><time>2026-04-21T14:49:02.999Z</time></trkpt><trkpt lat="45.602944072967915" lon="10.777767488014181"><ele>245.0</ele><time>2026-04-21T14:49:04.999Z</time></trkpt><trkpt lat="45.60299040479952" lon="10.777868261255758"><ele>246.00000000000003</ele><time>2026-04-21T14:49:06.999Z</time></trkpt><trkpt lat="45.603029477105494" lon="10.777979157831131"><ele>247.0</ele><time>2026-04-21T14:49:08.999Z</time></trkpt><trkpt lat="45.603070358398" lon="10.778090467617648"><ele>248.0</ele><time>2026-04-21T14:49:10.999Z</time></trkpt><trkpt lat="45.60310356709224" lon="10.778194372810658"><ele>249.0</ele><time>2026-04-21T14:49:12.999Z</time></trkpt><trkpt lat="45.603130846488696" lon="10.778296582896294"><ele>250.00000000000003</ele><time>2026-04-21T14:49:14.999Z</time></trkpt><trkpt lat="45.60316375243256" lon="10.778384525475468"><ele>251.0</ele><time>2026-04-21T14:49:16.999Z</time></trkpt><trkpt lat="45.603187977487885" lon="10.778474472117134"><ele>250.50000000000003</ele><time>2026-04-21T14:49:18.999Z</time></trkpt><trkpt lat="45.60321929533057" lon="10.778559991834383"><ele>250.0</ele><time>2026-04-21T14:49:20.999Z</time></trkpt><trkpt lat="45.60325006475751" lon="10.77866430114248"><ele>249.5</ele><time>2026-04-21T14:49:22.999Z</time></trkpt><trkpt lat="45.60328034021191" lon="10.778789378152219"><ele>249.0</ele><time>2026-04-21T14:49:24.999Z</time></trkpt><trkpt lat="45.60331827076709" lon="10.778915007096538"><ele>248.50000000000003</ele><time>2026-04-21T14:49:26.999Z</time></trkpt><trkpt lat="45.60335709970661" lon="10.77902824986835"><ele>248.0</ele><time>2026-04-21T14:49:28.999Z</time></trkpt><trkpt lat="45.60338931941665" lon="10.779137827309768"><ele>248.0</ele><time>2026-04-21T14:49:30.999Z</time></trkpt><trkpt lat="45.6034059265904" lon="10.779251677593667"><ele>248.0</ele><time>2026-04-21T14:49:32.999Z</time></trkpt><trkpt lat="45.60343627693165" lon="10.77937848833728"><ele>248.0</ele><time>2026-04-21T14:49:34.999Z</time></trkpt><trkpt lat="45.60346158574391" lon="10.779523589895634"><ele>248.0</ele><time>2026-04-21T14:49:36.999Z</time></trkpt><trkpt lat="45.603483691068455" lon="10.779665875855677"><ele>248.0</ele><time>2026-04-21T14:49:38.999Z</time></trkpt><trkpt lat="45.603514705126685" lon="10.779809659164073"><ele>247.4</ele><time>2026-04-21T14:49:40.999Z</time></trkpt><trkpt lat="45.6035278242839" lon="10.779940037783863"><ele>246.8</ele><time>2026-04-21T14:49:42.999Z</time></trkpt><trkpt lat="45.60355223234043" lon="10.78008139371811"><ele>246.2</ele><time>2026-04-21T14:49:44.999Z</time></trkpt><trkpt lat="45.60356906973369" lon="10.780232926352314"><ele>245.6</ele><time>2026-04-21T14:49:46.999Z</time></trkpt><trkpt lat="45.60359622821218" lon="10.780380649445465"><ele>245.0</ele><time>2026-04-21T14:49:48.999Z</time></trkpt><trkpt lat="45.60361414703577" lon="10.780513439978067"><ele>245.00000000000003</ele><time>2026-04-21T14:49:50.999Z</time></trkpt><trkpt lat="45.60363500809556" lon="10.780630796861175"><ele>245.0</ele><time>2026-04-21T14:49:52.999Z</time></trkpt><trkpt lat="45.60365076082106" lon="10.780758110266277"><ele>245.0</ele><time>2026-04-21T14:49:54.999Z</time></trkpt><trkpt lat="45.603678603677174" lon="10.78085920044618"><ele>245.0</ele><time>2026-04-21T14:49:57.998Z</time></trkpt><trkpt lat="45.603674329284125" lon="10.781000469410678"><ele>245.00000000000003</ele><time>2026-04-21T14:49:58.998Z</time></trkpt><trkpt lat="45.60369016859175" lon="10.781115164906296"><ele>245.0</ele><time>2026-04-21T14:50:00.998Z</time></trkpt><trkpt lat="45.603713880317244" lon="10.781237892362391"><ele>246.66666666666669</ele><time>2026-04-21T14:50:02.998Z</time></trkpt><trkpt lat="45.603734932535986" lon="10.781351685410998"><ele>248.33333333333334</ele><time>2026-04-21T14:50:04.998Z</time></trkpt><trkpt lat="45.60375175521081" lon="10.781461339961194"><ele>250.0</ele><time>2026-04-21T14:50:06.998Z</time></trkpt><trkpt lat="45.60376979981353" lon="10.781576694353275"><ele>251.66666666666669</ele><time>2026-04-21T14:50:08.998Z</time></trkpt><trkpt lat="45.603790261802736" lon="10.781690251975139"><ele>253.33333333333334</ele><time>2026-04-21T14:50:10.998Z</time></trkpt><trkpt lat="45.603804199108254" lon="10.781787011354682"><ele>255.0</ele><time>2026-04-21T14:50:12.998Z</time></trkpt><trkpt lat="45.60382324190121" lon="10.781894255129297"><ele>255.71428571428572</ele><time>2026-04-21T14:50:15.998Z</time></trkpt><trkpt lat="45.60383229811479" lon="10.781991365256522"><ele>256.42857142857144</ele><time>2026-04-21T14:50:18.998Z</time></trkpt><trkpt lat="45.603843442323004" lon="10.782089327477717"><ele>257.14285714285717</ele><time>2026-04-21T14:50:22.998Z</time></trkpt><trkpt lat="45.60385866528911" lon="10.782205290163436"><ele>257.8571428571429</ele><time>2026-04-21T14:50:27.998Z</time></trkpt><trkpt lat="45.60386750348819" lon="10.782299216782452"><ele>258.57142857142856</ele><time>2026-04-21T14:50:31.998Z</time></trkpt><trkpt lat="45.603889334262355" lon="10.782411860322252"><ele>259.28571428571433</ele><time>2026-04-21T14:50:35.998Z</time></trkpt><trkpt lat="45.60387775961645" lon="10.782500555656851"><ele>260.0</ele><time>2026-04-21T14:50:39Z</time></trkpt><trkpt lat="45.603893535024085" lon="10.782616882219846"><ele>260.00000000000006</ele><time>2026-04-21T14:50:43Z</time></trkpt><trkpt lat="45.603913524062406" lon="10.782711314898396"><ele>260.0</ele><time>2026-04-21T14:50:46Z</time></trkpt><trkpt lat="45.60392512883542" lon="10.782802556288615"><ele>260.0</ele><time>2026-04-21T14:50:49Z</time></trkpt><trkpt lat="45.603932693420994" lon="10.78290281823153"><ele>260.0</ele><time>2026-04-21T14:50:53Z</time></trkpt><trkpt lat="45.603948271477265" lon="10.783023064111331"><ele>260.0</ele><time>2026-04-21T14:50:57Z</time></trkpt><trkpt lat="45.603950767644804" lon="10.783119914761942"><ele>260.00000000000006</ele><time>2026-04-21T14:51:00Z</time></trkpt><trkpt lat="45.603965648476695" lon="10.78321911501253"><ele>260.0</ele><time>2026-04-21T14:51:02.999Z</time></trkpt><trkpt lat="45.60397072569052" lon="10.783322541585367"><ele>260.0</ele><time>2026-04-21T14:51:05.999Z</time></trkpt><trkpt lat="45.60398391985756" lon="10.783434314927062"><ele>260.0</ele><time>2026-04-21T14:51:08.999Z</time></trkpt><trkpt lat="45.60400034089192" lon="10.783542542593864"><ele>260.0</ele><time>2026-04-21T14:51:11.999Z</time></trkpt><trkpt lat="45.604009493725336" lon="10.783647376242442"><ele>260.0</ele><time>2026-04-21T14:51:14.999Z</time></trkpt><trkpt lat="45.604015973995764" lon="10.783749909624174"><ele>260.0</ele><time>2026-04-21T14:51:17.999Z</time></trkpt><trkpt lat="45.60401665715744" lon="10.78385976765359"><ele>260.0</ele><time>2026-04-21T14:51:20.999Z</time></trkpt><trkpt lat="45.60401786066438" lon="10.783974748233273"><ele>259.5</ele><time>2026-04-21T14:51:23.999Z</time></trkpt><trkpt lat="45.604037717836505" lon="10.784075718265381"><ele>259.0</ele><time>2026-04-21T14:51:26.999Z</time></trkpt><trkpt lat="45.60404330481968" lon="10.784188350788973"><ele>258.5</ele><time>2026-04-21T14:51:29.999Z</time></trkpt><trkpt lat="45.60405423623647" lon="10.784298416215453"><ele>258.0</ele><time>2026-04-21T14:51:32.999Z</time></trkpt><trkpt lat="45.604069911501114" lon="10.784406130307321"><ele>257.5</ele><time>2026-04-21T14:51:35.999Z</time></trkpt><trkpt lat="45.60408097482264" lon="10.784514523981704"><ele>257.0</ele><time>2026-04-21T14:51:38.999Z</time></trkpt><trkpt lat="45.60409324351514" lon="10.784619633173719"><ele>256.85714285714283</ele><time>2026-04-21T14:51:41.999Z</time></trkpt><trkpt lat="45.604096612683556" lon="10.78472943438637"><ele>256.7142857142857</ele><time>2026-04-21T14:51:44.999Z</time></trkpt><trkpt lat="45.60410680012433" lon="10.78482892921281"><ele>256.57142857142856</ele><time>2026-04-21T14:51:47.999Z</time></trkpt><trkpt lat="45.60411957777254" lon="10.784931346133993"><ele>256.42857142857144</ele><time>2026-04-21T14:51:50.999Z</time></trkpt><trkpt lat="45.6041261068325" lon="10.785046351514316"><ele>256.2857142857143</ele><time>2026-04-21T14:51:53.999Z</time></trkpt><trkpt lat="45.60413548222957" lon="10.785150733208756"><ele>256.1428571428571</ele><time>2026-04-21T14:51:56.999Z</time></trkpt><trkpt lat="45.60413455516273" lon="10.785257637490584"><ele>256.0</ele><time>2026-04-21T14:51:59.998Z</time></trkpt><trkpt lat="45.60415002182808" lon="10.78536603764945"><ele>256.2857142857143</ele><time>2026-04-21T14:52:02.998Z</time></trkpt><trkpt lat="45.604165502488904" lon="10.785464022481692"><ele>256.57142857142856</ele><time>2026-04-21T14:52:05.998Z</time></trkpt><trkpt lat="45.60417329075927" lon="10.785555953291048"><ele>256.85714285714283</ele><time>2026-04-21T14:52:08.998Z</time></trkpt><trkpt lat="45.604187313255125" lon="10.785648791554399"><ele>257.1428571428571</ele><time>2026-04-21T14:52:11.998Z</time></trkpt><trkpt lat="45.60419796896357" lon="10.785742598554714"><ele>257.42857142857144</ele><time>2026-04-21T14:52:14.998Z</time></trkpt><trkpt lat="45.6042151633006" lon="10.785832016681415"><ele>257.71428571428567</ele><time>2026-04-21T14:52:17.998Z</time></trkpt><trkpt lat="45.604226899883066" lon="10.785923981998913"><ele>258.0</ele><time>2026-04-21T14:52:20.998Z</time></trkpt><trkpt lat="45.60424237903171" lon="10.786019028112609"><ele>257.99999999999994</ele><time>2026-04-21T14:52:23.998Z</time></trkpt><trkpt lat="45.6042602918279" lon="10.786112714795179"><ele>258.0</ele><time>2026-04-21T14:52:26.998Z</time></trkpt><trkpt lat="45.60428754705874" lon="10.786224891179144"><ele>258.0</ele><time>2026-04-21T14:52:30.998Z</time></trkpt><trkpt lat="45.60430747528959" lon="10.786316368983918"><ele>258.0</ele><time>2026-04-21T14:52:33.998Z</time></trkpt><trkpt lat="45.60432596003663" lon="10.786408315137724"><ele>258.0</ele><time>2026-04-21T14:52:36.998Z</time></trkpt><trkpt lat="45.604333316565295" lon="10.786507097740365"><ele>257.99999999999994</ele><time>2026-04-21T14:52:39.998Z</time></trkpt><trkpt lat="45.60435322347926" lon="10.78659332237946"><ele>258.0</ele><time>2026-04-21T14:52:42.998Z</time></trkpt><trkpt lat="45.60437811966116" lon="10.786704574370866"><ele>257.99999999999994</ele><time>2026-04-21T14:52:47Z</time></trkpt><trkpt lat="45.60438779996951" lon="10.786794679176644"><ele>258.0</ele><time>2026-04-21T14:52:50Z</time></trkpt><trkpt lat="45.60439795119989" lon="10.786903393463477"><ele>258.0</ele><time>2026-04-21T14:52:54Z</time></trkpt><trkpt lat="45.60441430183684" lon="10.78699036093143"><ele>258.0</ele><time>2026-04-21T14:52:57Z</time></trkpt><trkpt lat="45.60444226818532" lon="10.78710202338062"><ele>258.0</ele><time>2026-04-21T14:53:01Z</time></trkpt><trkpt lat="45.60445011616333" lon="10.78721959560012"><ele>257.99999999999994</ele><time>2026-04-21T14:53:05Z</time></trkpt><trkpt lat="45.60446319648704" lon="10.787323422316236"><ele>258.0</ele><time>2026-04-21T14:53:08.999Z</time></trkpt><trkpt lat="45.60447711234385" lon="10.787432807252488"><ele>257.85714285714283</ele><time>2026-04-21T14:53:12.999Z</time></trkpt><trkpt lat="45.60448051861833" lon="10.787546824780643"><ele>257.7142857142857</ele><time>2026-04-21T14:53:16.999Z</time></trkpt><trkpt lat="45.60448424061096" lon="10.787653735046044"><ele>257.57142857142856</ele><time>2026-04-21T14:53:20.999Z</time></trkpt><trkpt lat="45.60448681303269" lon="10.787753243783918"><ele>257.42857142857144</ele><time>2026-04-21T14:53:23.999Z</time></trkpt><trkpt lat="45.60449387342552" lon="10.787845982147926"><ele>257.2857142857143</ele><time>2026-04-21T14:53:26.999Z</time></trkpt><trkpt lat="45.60450096183991" lon="10.787942955346498"><ele>257.1428571428571</ele><time>2026-04-21T14:53:29.999Z</time></trkpt><trkpt lat="45.604498904159996" lon="10.78805192511432"><ele>257.0</ele><time>2026-04-21T14:53:32.999Z</time></trkpt><trkpt lat="45.604509796399704" lon="10.78814867264175"><ele>258.2857142857143</ele><time>2026-04-21T14:53:35.999Z</time></trkpt><trkpt lat="45.60452153937811" lon="10.788246055854335"><ele>259.57142857142856</ele><time>2026-04-21T14:53:38.999Z</time></trkpt><trkpt lat="45.60453193559405" lon="10.788340730337305"><ele>260.8571428571429</ele><time>2026-04-21T14:53:41.999Z</time></trkpt><trkpt lat="45.60454071168892" lon="10.788433653317526"><ele>262.1428571428571</ele><time>2026-04-21T14:53:44.999Z</time></trkpt><trkpt lat="45.60455517723026" lon="10.788530116548506"><ele>263.42857142857144</ele><time>2026-04-21T14:53:47.999Z</time></trkpt><trkpt lat="45.60456687774945" lon="10.788623574000153"><ele>264.7142857142857</ele><time>2026-04-21T14:53:50.999Z</time></trkpt><trkpt lat="45.60458845626771" lon="10.788726646434423"><ele>266.0</ele><time>2026-04-21T14:53:53.999Z</time></trkpt><trkpt lat="45.604606176496425" lon="10.788852641407113"><ele>266.0</ele><time>2026-04-21T14:53:56.999Z</time></trkpt><trkpt lat="45.604620920552556" lon="10.78897460347481"><ele>266.0</ele><time>2026-04-21T14:53:59.999Z</time></trkpt><trkpt lat="45.604645482027315" lon="10.789097236137417"><ele>266.0</ele><time>2026-04-21T14:54:02.999Z</time></trkpt><trkpt lat="45.604671786970364" lon="10.789217007868961"><ele>266.0</ele><time>2026-04-21T14:54:05.999Z</time></trkpt><trkpt lat="45.60468754505502" lon="10.789344089766718"><ele>266.0</ele><time>2026-04-21T14:54:08.998Z</time></trkpt><trkpt lat="45.60471216979819" lon="10.789459869016442"><ele>266.0</ele><time>2026-04-21T14:54:11.998Z</time></trkpt><trkpt lat="45.60472586187966" lon="10.789583121018952"><ele>265.6666666666667</ele><time>2026-04-21T14:54:14.998Z</time></trkpt><trkpt lat="45.60474803436059" lon="10.78971016584466"><ele>265.33333333333337</ele><time>2026-04-21T14:54:17.998Z</time></trkpt><trkpt lat="45.604769694354786" lon="10.789796537384312"><ele>265.0</ele><time>2026-04-21T14:54:19.998Z</time></trkpt><trkpt lat="45.604792460553504" lon="10.789887800674958"><ele>264.6666666666667</ele><time>2026-04-21T14:54:21.998Z</time></trkpt><trkpt lat="45.60483127310942" lon="10.789971274444158"><ele>264.3333333333333</ele><time>2026-04-21T14:54:23.998Z</time></trkpt><trkpt lat="45.60486170306534" lon="10.790073054596514"><ele>264.0</ele><time>2026-04-21T14:54:25.998Z</time></trkpt><trkpt lat="45.60490066099022" lon="10.790179546748432"><ele>263.2</ele><time>2026-04-21T14:54:27.998Z</time></trkpt><trkpt lat="45.60494046157927" lon="10.790294166531186"><ele>262.4</ele><time>2026-04-21T14:54:29.998Z</time></trkpt><trkpt lat="45.60498675012076" lon="10.790408556680253"><ele>261.6</ele><time>2026-04-21T14:54:31.998Z</time></trkpt><trkpt lat="45.605048103665176" lon="10.790508568278865"><ele>260.8</ele><time>2026-04-21T14:54:33.998Z</time></trkpt><trkpt lat="45.6051174703122" lon="10.790597127596893"><ele>260.0</ele><time>2026-04-21T14:54:35.998Z</time></trkpt><trkpt lat="45.60518100349824" lon="10.79067417176939"><ele>260.0</ele><time>2026-04-21T14:54:37.998Z</time></trkpt><trkpt lat="45.60524110747182" lon="10.79075260896966"><ele>260.0</ele><time>2026-04-21T14:54:39.998Z</time></trkpt><trkpt lat="45.605291912571694" lon="10.79082643841336"><ele>260.0</ele><time>2026-04-21T14:54:41.998Z</time></trkpt><trkpt lat="45.60534016504429" lon="10.790885843884292"><ele>260.0</ele><time>2026-04-21T14:54:43.998Z</time></trkpt><trkpt lat="45.6054048783354" lon="10.790975886742968"><ele>260.0</ele><time>2026-04-21T14:54:46.998Z</time></trkpt><trkpt lat="45.605463508521545" lon="10.791041318925368"><ele>260.0</ele><time>2026-04-21T14:54:49Z</time></trkpt><trkpt lat="45.60551778765597" lon="10.79112052909694"><ele>260.7142857142857</ele><time>2026-04-21T14:54:51Z</time></trkpt><trkpt lat="45.60554867710658" lon="10.791203483870072"><ele>261.42857142857144</ele><time>2026-04-21T14:54:53Z</time></trkpt><trkpt lat="45.60558363819276" lon="10.79130717101948"><ele>262.1428571428571</ele><time>2026-04-21T14:54:56Z</time></trkpt><trkpt lat="45.605621526184386" lon="10.791381451785346"><ele>262.8571428571429</ele><time>2026-04-21T14:54:59Z</time></trkpt><trkpt lat="45.60567826416474" lon="10.791462241359744"><ele>263.57142857142856</ele><time>2026-04-21T14:55:03Z</time></trkpt><trkpt lat="45.605685580741515" lon="10.791576601925446"><ele>264.2857142857143</ele><time>2026-04-21T14:55:06Z</time></trkpt><trkpt lat="45.60571264720745" lon="10.79168017598813"><ele>265.0</ele><time>2026-04-21T14:55:09Z</time></trkpt><trkpt lat="45.60573260552036" lon="10.791770532198049"><ele>264.8333333333333</ele><time>2026-04-21T14:55:11Z</time></trkpt><trkpt lat="45.60574904641119" lon="10.791871939862943"><ele>264.66666666666663</ele><time>2026-04-21T14:55:13.999Z</time></trkpt><trkpt lat="45.60576956317031" lon="10.791982083756325"><ele>264.5</ele><time>2026-04-21T14:55:17.999Z</time></trkpt><trkpt lat="45.605754059413954" lon="10.792078185863433"><ele>264.3333333333333</ele><time>2026-04-21T14:55:20.999Z</time></trkpt><trkpt lat="45.60578342415277" lon="10.792177815305594"><ele>264.1666666666667</ele><time>2026-04-21T14:55:23.999Z</time></trkpt><trkpt lat="45.60580076291223" lon="10.7922831970502"><ele>264.0</ele><time>2026-04-21T14:55:26.999Z</time></trkpt><trkpt lat="45.605822341511384" lon="10.792401000595211"><ele>264.0</ele><time>2026-04-21T14:55:29.999Z</time></trkpt><trkpt lat="45.60582151086892" lon="10.79253148123268"><ele>264.0</ele><time>2026-04-21T14:55:32.999Z</time></trkpt><trkpt lat="45.60583423638063" lon="10.792658895622882"><ele>264.0</ele><time>2026-04-21T14:55:35.999Z</time></trkpt><trkpt lat="45.605825350629665" lon="10.792749958732317"><ele>264.0</ele><time>2026-04-21T14:55:37.999Z</time></trkpt><trkpt lat="45.605836428159265" lon="10.79285196615302"><ele>264.0</ele><time>2026-04-21T14:55:39.999Z</time></trkpt><trkpt lat="45.60586095808748" lon="10.792968496630504"><ele>264.0</ele><time>2026-04-21T14:55:41.999Z</time></trkpt><trkpt lat="45.6058858150664" lon="10.793094368935755"><ele>263.4</ele><time>2026-04-21T14:55:43.999Z</time></trkpt><trkpt lat="45.60590650332179" lon="10.793228810014087"><ele>262.79999999999995</ele><time>2026-04-21T14:55:45.999Z</time></trkpt><trkpt lat="45.605932232009515" lon="10.793379959242765"><ele>262.20000000000005</ele><time>2026-04-21T14:55:47.999Z</time></trkpt><trkpt lat="45.605954982503114" lon="10.793529322207732"><ele>261.6</ele><time>2026-04-21T14:55:49.999Z</time></trkpt><trkpt lat="45.60596913852771" lon="10.793673532427562"><ele>261.0</ele><time>2026-04-21T14:55:51.999Z</time></trkpt><trkpt lat="45.605991446590124" lon="10.793823443089865"><ele>260.8333333333333</ele><time>2026-04-21T14:55:53.999Z</time></trkpt><trkpt lat="45.60597983178223" lon="10.793950875851266"><ele>260.6666666666667</ele><time>2026-04-21T14:55:55.999Z</time></trkpt><trkpt lat="45.60589020763797" lon="10.793964643878205"><ele>260.5</ele><time>2026-04-21T14:55:57.999Z</time></trkpt><trkpt lat="45.605827548344145" lon="10.79398073288862"><ele>260.33333333333337</ele><time>2026-04-21T14:55:58.999Z</time></trkpt><trkpt lat="45.605721368252425" lon="10.794006015596826"><ele>260.1666666666667</ele><time>2026-04-21T14:56:00.999Z</time></trkpt><trkpt lat="45.60563122291991" lon="10.794049709701241"><ele>260.0</ele><time>2026-04-21T14:56:02.999Z</time></trkpt><trkpt lat="45.605548538315695" lon="10.794073208077537"><ele>260.0</ele><time>2026-04-21T14:56:04.999Z</time></trkpt><trkpt lat="45.60545412150703" lon="10.79408414631574"><ele>260.0</ele><time>2026-04-21T14:56:06.999Z</time></trkpt><trkpt lat="45.60537247927335" lon="10.794102046728906"><ele>260.0</ele><time>2026-04-21T14:56:08.999Z</time></trkpt><trkpt lat="45.60532386194087" lon="10.79419800614221"><ele>260.0</ele><time>2026-04-21T14:56:10.998Z</time></trkpt><trkpt lat="45.60527333873572" lon="10.794283616956436"><ele>260.0</ele><time>2026-04-21T14:56:12.998Z</time></trkpt><trkpt lat="45.60524294535358" lon="10.7943814515046"><ele>260.0</ele><time>2026-04-21T14:56:17.998Z</time></trkpt><trkpt lat="45.605332830458934" lon="10.794481521809518"><ele>259.83333333333337</ele><time>2026-04-21T14:56:19.998Z</time></trkpt><trkpt lat="45.60539383618065" lon="10.79456494131533"><ele>259.6666666666667</ele><time>2026-04-21T14:56:21.998Z</time></trkpt><trkpt lat="45.605412336433965" lon="10.794709277229787"><ele>259.5</ele><time>2026-04-21T14:56:24.998Z</time></trkpt><trkpt lat="45.60544220240509" lon="10.794804352794927"><ele>259.3333333333333</ele><time>2026-04-21T14:56:26.998Z</time></trkpt><trkpt lat="45.60550352108091" lon="10.794856243555035"><ele>259.16666666666663</ele><time>2026-04-21T14:56:28.998Z</time></trkpt><trkpt lat="45.605575782535595" lon="10.794897608302643"><ele>259.0</ele><time>2026-04-21T14:56:30.998Z</time></trkpt><trkpt lat="45.60564512425018" lon="10.794904578368648"><ele>259.0</ele><time>2026-04-21T14:56:32.998Z</time></trkpt><trkpt lat="45.60571996457043" lon="10.794910433202848"><ele>259.0</ele><time>2026-04-21T14:56:35.998Z</time></trkpt><trkpt lat="45.6058022239039" lon="10.794914799145324"><ele>259.0</ele><time>2026-04-21T14:56:38.998Z</time></trkpt><trkpt lat="45.60587715132541" lon="10.794931196134213"><ele>259.0</ele><time>2026-04-21T14:56:41.998Z</time></trkpt><trkpt lat="45.60595665924559" lon="10.794924442260099"><ele>259.0</ele><time>2026-04-21T14:56:44.998Z</time></trkpt><trkpt lat="45.606025544879586" lon="10.794929178786505"><ele>259.0</ele><time>2026-04-21T14:56:47.998Z</time></trkpt><trkpt lat="45.606096433781666" lon="10.794951133688151"><ele>259.42857142857144</ele><time>2026-04-21T14:56:50.998Z</time></trkpt><trkpt lat="45.60616411505614" lon="10.794963436554045"><ele>259.8571428571429</ele><time>2026-04-21T14:56:53.998Z</time></trkpt><trkpt lat="45.60622546452001" lon="10.79500979159826"><ele>260.2857142857143</ele><time>2026-04-21T14:56:57Z</time></trkpt><trkpt lat="45.60626736345957" lon="10.795091153560518"><ele>260.7142857142857</ele><time>2026-04-21T14:57:00Z</time></trkpt><trkpt lat="45.606310778531984" lon="10.79516688648844"><ele>261.14285714285717</ele><time>2026-04-21T14:57:03Z</time></trkpt><trkpt lat="45.606343238871865" lon="10.795244229956381"><ele>261.57142857142856</ele><time>2026-04-21T14:57:06Z</time></trkpt><trkpt lat="45.60636381578229" lon="10.795339579976044"><ele>262.0</ele><time>2026-04-21T14:57:09Z</time></trkpt><trkpt lat="45.606391796454176" lon="10.79544291033083"><ele>262.2857142857143</ele><time>2026-04-21T14:57:12Z</time></trkpt><trkpt lat="45.606392047785576" lon="10.795554896703289"><ele>262.5714285714286</ele><time>2026-04-21T14:57:16Z</time></trkpt><trkpt lat="45.606407513102326" lon="10.795643391087161"><ele>262.8571428571429</ele><time>2026-04-21T14:57:19.999Z</time></trkpt><trkpt lat="45.60641681728319" lon="10.79573621723127"><ele>263.14285714285717</ele><time>2026-04-21T14:57:23.999Z</time></trkpt><trkpt lat="45.60642721968149" lon="10.795839236878727"><ele>263.42857142857144</ele><time>2026-04-21T14:57:27.999Z</time></trkpt><trkpt lat="45.60643293803331" lon="10.795929084250423"><ele>263.7142857142857</ele><time>2026-04-21T14:57:31.999Z</time></trkpt><trkpt lat="45.60644415730246" lon="10.796027537264829"><ele>264.0</ele><time>2026-04-21T14:57:35.999Z</time></trkpt><trkpt lat="45.606435897076715" lon="10.796119033264526"><ele>264.1428571428571</ele><time>2026-04-21T14:57:39.999Z</time></trkpt><trkpt lat="45.60645168124229" lon="10.796212070531988"><ele>264.2857142857143</ele><time>2026-04-21T14:57:43.999Z</time></trkpt><trkpt lat="45.60646230164872" lon="10.796303411686852"><ele>264.42857142857144</ele><time>2026-04-21T14:57:47.999Z</time></trkpt><trkpt lat="45.6064512366736" lon="10.796414514165159"><ele>264.57142857142856</ele><time>2026-04-21T14:57:53.999Z</time></trkpt><trkpt lat="45.60646374852228" lon="10.796516511661494"><ele>264.7142857142857</ele><time>2026-04-21T14:57:57.999Z</time></trkpt><trkpt lat="45.606481720689686" lon="10.796612489103724"><ele>264.85714285714283</ele><time>2026-04-21T14:58:01.999Z</time></trkpt><trkpt lat="45.60649802567169" lon="10.796715016106525"><ele>265.0</ele><time>2026-04-21T14:58:06.999Z</time></trkpt><trkpt lat="45.60649885519951" lon="10.79681602806919"><ele>265.2857142857143</ele><time>2026-04-21T14:58:11.999Z</time></trkpt><trkpt lat="45.60650925746114" lon="10.796915178515363"><ele>265.57142857142856</ele><time>2026-04-21T14:58:15.999Z</time></trkpt><trkpt lat="45.606506379514315" lon="10.797029848105378"><ele>265.8571428571429</ele><time>2026-04-21T14:58:22.998Z</time></trkpt><trkpt lat="45.60654192788697" lon="10.797112594548313"><ele>266.1428571428571</ele><time>2026-04-21T14:58:25.998Z</time></trkpt><trkpt lat="45.606568703856574" lon="10.797217827697985"><ele>266.42857142857144</ele><time>2026-04-21T14:58:29.998Z</time></trkpt><trkpt lat="45.606555851746215" lon="10.797310680081527"><ele>266.7142857142857</ele><time>2026-04-21T14:58:32.998Z</time></trkpt><trkpt lat="45.606545841298086" lon="10.797407502543974"><ele>267.0</ele><time>2026-04-21T14:58:36.998Z</time></trkpt><trkpt lat="45.60656916328898" lon="10.797494187494378"><ele>267.00000000000006</ele><time>2026-04-21T14:58:40.998Z</time></trkpt><trkpt lat="45.60660740538777" lon="10.797566612166843"><ele>267.0</ele><time>2026-04-21T14:58:43.998Z</time></trkpt><trkpt lat="45.60659940367469" lon="10.797656886080844"><ele>267.0</ele><time>2026-04-21T14:58:47.998Z</time></trkpt><trkpt lat="45.60662698288207" lon="10.79775955052737"><ele>267.0</ele><time>2026-04-21T14:58:52.998Z</time></trkpt><trkpt lat="45.60666285140782" lon="10.797844081757543"><ele>267.0</ele><time>2026-04-21T14:58:56.998Z</time></trkpt><trkpt lat="45.60668870692545" lon="10.797930145181773"><ele>267.00000000000006</ele><time>2026-04-21T14:59:01Z</time></trkpt><trkpt lat="45.606715257477425" lon="10.798025357380375"><ele>267.0</ele><time>2026-04-21T14:59:05Z</time></trkpt><trkpt lat="45.60674168189223" lon="10.798111474463646"><ele>267.5714285714286</ele><time>2026-04-21T14:59:08Z</time></trkpt><trkpt lat="45.6067198676583" lon="10.798216604509655"><ele>268.14285714285717</ele><time>2026-04-21T14:59:12Z</time></trkpt><trkpt lat="45.60673212231563" lon="10.798327025333755"><ele>268.7142857142857</ele><time>2026-04-21T14:59:16Z</time></trkpt><trkpt lat="45.60675835927924" lon="10.79842698535767"><ele>269.28571428571433</ele><time>2026-04-21T14:59:21Z</time></trkpt><trkpt lat="45.60676838902431" lon="10.79852822787727"><ele>269.8571428571429</ele><time>2026-04-21T14:59:24.999Z</time></trkpt><trkpt lat="45.60678388556637" lon="10.798624303393114"><ele>270.42857142857144</ele><time>2026-04-21T14:59:28.999Z</time></trkpt><trkpt lat="45.60678909561923" lon="10.798732302879984"><ele>271.0</ele><time>2026-04-21T14:59:32.999Z</time></trkpt><trkpt lat="45.60679142250627" lon="10.798836835210752"><ele>271.2857142857143</ele><time>2026-04-21T14:59:36.999Z</time></trkpt><trkpt lat="45.606782466719864" lon="10.798936393274117"><ele>271.57142857142856</ele><time>2026-04-21T14:59:40.999Z</time></trkpt><trkpt lat="45.60678198617926" lon="10.799029804643471"><ele>271.8571428571429</ele><time>2026-04-21T14:59:44.999Z</time></trkpt><trkpt lat="45.60679174223086" lon="10.799129061061938"><ele>272.1428571428571</ele><time>2026-04-21T14:59:48.999Z</time></trkpt><trkpt lat="45.60678659413507" lon="10.799231129546518"><ele>272.42857142857144</ele><time>2026-04-21T14:59:52.999Z</time></trkpt><trkpt lat="45.606790896366356" lon="10.799337322776308"><ele>272.7142857142857</ele><time>2026-04-21T14:59:57.999Z</time></trkpt><trkpt lat="45.60679579315404" lon="10.799445341566532"><ele>273.0</ele><time>2026-04-21T15:00:02.999Z</time></trkpt><trkpt lat="45.60678629811073" lon="10.799540427305995"><ele>273.14285714285717</ele><time>2026-04-21T15:00:07.999Z</time></trkpt><trkpt lat="45.60677650166304" lon="10.799656413962516"><ele>273.2857142857143</ele><time>2026-04-21T15:00:14.999Z</time></trkpt><trkpt lat="45.60679335799015" lon="10.799764943944542"><ele>273.42857142857144</ele><time>2026-04-21T15:00:18.999Z</time></trkpt><trkpt lat="45.606794406806316" lon="10.799870993166108"><ele>273.57142857142856</ele><time>2026-04-21T15:00:22.998Z</time></trkpt><trkpt lat="45.606815281857706" lon="10.799957765060425"><ele>273.7142857142857</ele><time>2026-04-21T15:00:25.998Z</time></trkpt><trkpt lat="45.606864007204464" lon="10.800020105583172"><ele>273.8571428571429</ele><time>2026-04-21T15:00:29.998Z</time></trkpt><trkpt lat="45.60689876105056" lon="10.800103431889701"><ele>274.0</ele><time>2026-04-21T15:00:32.998Z</time></trkpt><trkpt lat="45.60694494344342" lon="10.800177648688262"><ele>274.42857142857144</ele><time>2026-04-21T15:00:35.998Z</time></trkpt><trkpt lat="45.60699783029894" lon="10.800266927609046"><ele>274.8571428571429</ele><time>2026-04-21T15:00:39.998Z</time></trkpt><trkpt lat="45.607037754910785" lon="10.800344634547182"><ele>275.2857142857143</ele><time>2026-04-21T15:00:42.998Z</time></trkpt><trkpt lat="45.60708336939427" lon="10.800426962097193"><ele>275.7142857142857</ele><time>2026-04-21T15:00:46.998Z</time></trkpt><trkpt lat="45.60713157613274" lon="10.800491622224268"><ele>276.1428571428571</ele><time>2026-04-21T15:00:49.998Z</time></trkpt><trkpt lat="45.60717792100374" lon="10.800581194217965"><ele>276.57142857142856</ele><time>2026-04-21T15:00:53.998Z</time></trkpt><trkpt lat="45.60722038680034" lon="10.800669615721441"><ele>277.0</ele><time>2026-04-21T15:00:57.998Z</time></trkpt><trkpt lat="45.60727017405046" lon="10.80075026504193"><ele>277.0</ele><time>2026-04-21T15:01:01.998Z</time></trkpt><trkpt lat="45.60730831412431" lon="10.800845555259045"><ele>277.0</ele><time>2026-04-21T15:01:06Z</time></trkpt><trkpt lat="45.60735129414246" lon="10.800913655529826"><ele>277.0</ele><time>2026-04-21T15:01:10Z</time></trkpt><trkpt lat="45.60739304733683" lon="10.801005808001117"><ele>277.0</ele><time>2026-04-21T15:01:14Z</time></trkpt><trkpt lat="45.607438490568455" lon="10.801080468066003"><ele>277.0</ele><time>2026-04-21T15:01:18Z</time></trkpt><trkpt lat="45.607487067269204" lon="10.801168701186192"><ele>277.0</ele><time>2026-04-21T15:01:22Z</time></trkpt><trkpt lat="45.607534318395125" lon="10.801244655379872"><ele>277.0</ele><time>2026-04-21T15:01:27Z</time></trkpt><trkpt lat="45.60758879796855" lon="10.801339196086817"><ele>277.2857142857143</ele><time>2026-04-21T15:01:30.999Z</time></trkpt><trkpt lat="45.60764551399776" lon="10.801422683709854"><ele>277.57142857142856</ele><time>2026-04-21T15:01:34.999Z</time></trkpt><trkpt lat="45.60769216949047" lon="10.801518076125229"><ele>277.85714285714283</ele><time>2026-04-21T15:01:38.999Z</time></trkpt><trkpt lat="45.60773645874463" lon="10.801596877225814"><ele>278.1428571428571</ele><time>2026-04-21T15:01:41.999Z</time></trkpt><trkpt lat="45.60778772104277" lon="10.801673582401607"><ele>278.42857142857144</ele><time>2026-04-21T15:01:45.999Z</time></trkpt><trkpt lat="45.6078394034688" lon="10.801746908054712"><ele>278.71428571428567</ele><time>2026-04-21T15:01:49.999Z</time></trkpt><trkpt lat="45.6078774150524" lon="10.80182871662807"><ele>279.0</ele><time>2026-04-21T15:01:53.999Z</time></trkpt><trkpt lat="45.60793513012945" lon="10.801911557979516"><ele>279.6666666666667</ele><time>2026-04-21T15:01:57.999Z</time></trkpt><trkpt lat="45.60799964865416" lon="10.802000420446182"><ele>280.3333333333333</ele><time>2026-04-21T15:02:02.999Z</time></trkpt><trkpt lat="45.608057276626155" lon="10.802066878538776"><ele>281.0</ele><time>2026-04-21T15:02:06.999Z</time></trkpt><trkpt lat="45.60809557373357" lon="10.802176972299627"><ele>281.66666666666663</ele><time>2026-04-21T15:02:11.999Z</time></trkpt><trkpt lat="45.60813288563427" lon="10.80225440655842"><ele>282.3333333333333</ele><time>2026-04-21T15:02:14.999Z</time></trkpt><trkpt lat="45.6081659659155" lon="10.802339904598728"><ele>283.0</ele><time>2026-04-21T15:02:18.999Z</time></trkpt><trkpt lat="45.60820356132579" lon="10.802444712543789"><ele>283.0</ele><time>2026-04-21T15:02:22.999Z</time></trkpt><trkpt lat="45.60823698222865" lon="10.802547060364207"><ele>283.0</ele><time>2026-04-21T15:02:26.998Z</time></trkpt><trkpt lat="45.60826597914545" lon="10.802627848070975"><ele>283.0</ele><time>2026-04-21T15:02:29.998Z</time></trkpt><trkpt lat="45.60830154042826" lon="10.80270484262807"><ele>283.0</ele><time>2026-04-21T15:02:32.998Z</time></trkpt><trkpt lat="45.60832339583329" lon="10.802804233382123"><ele>283.0</ele><time>2026-04-21T15:02:36.998Z</time></trkpt><trkpt lat="45.608361785975994" lon="10.802876544433806"><ele>283.0</ele><time>2026-04-21T15:02:40.998Z</time></trkpt><trkpt lat="45.60839464924528" lon="10.80297087972869"><ele>283.0</ele><time>2026-04-21T15:02:44.998Z</time></trkpt><trkpt lat="45.60841990061224" lon="10.803054377065935"><ele>283.0</ele><time>2026-04-21T15:02:48.998Z</time></trkpt><trkpt lat="45.60845610001505" lon="10.803144333404775"><ele>283.0</ele><time>2026-04-21T15:02:53.998Z</time></trkpt><trkpt lat="45.60849902412168" lon="10.803234232827245"><ele>283.0</ele><time>2026-04-21T15:02:58.998Z</time></trkpt><trkpt lat="45.60855966739025" lon="10.803298562755508"><ele>283.0</ele><time>2026-04-21T15:03:03.998Z</time></trkpt><trkpt lat="45.608592587902" lon="10.803381990063462"><ele>283.0</ele><time>2026-04-21T15:03:07.998Z</time></trkpt><trkpt lat="45.608635954549655" lon="10.803472524727553"><ele>283.0</ele><time>2026-04-21T15:03:12Z</time></trkpt><trkpt lat="45.608666101705666" lon="10.803554239992843"><ele>283.0</ele><time>2026-04-21T15:03:15Z</time></trkpt><trkpt lat="45.6087031782004" lon="10.803630179683939"><ele>283.7142857142857</ele><time>2026-04-21T15:03:18Z</time></trkpt><trkpt lat="45.60874070176738" lon="10.803706939588142"><ele>284.42857142857144</ele><time>2026-04-21T15:03:21Z</time></trkpt><trkpt lat="45.60878064866339" lon="10.803782053488955"><ele>285.14285714285717</ele><time>2026-04-21T15:03:24Z</time></trkpt><trkpt lat="45.60881965842403" lon="10.80387886511788"><ele>285.8571428571429</ele><time>2026-04-21T15:03:28Z</time></trkpt><trkpt lat="45.608862613171745" lon="10.803953520060736"><ele>286.57142857142856</ele><time>2026-04-21T15:03:32Z</time></trkpt><trkpt lat="45.60889982231763" lon="10.804028468260286"><ele>287.28571428571433</ele><time>2026-04-21T15:03:35.999Z</time></trkpt><trkpt lat="45.60895537978118" lon="10.804092272264176"><ele>288.0</ele><time>2026-04-21T15:03:41.999Z</time></trkpt><trkpt lat="45.60900575203797" lon="10.804166135633345"><ele>288.00000000000006</ele><time>2026-04-21T15:03:47.999Z</time></trkpt><trkpt lat="45.609054428019796" lon="10.804231076528229"><ele>288.0</ele><time>2026-04-21T15:03:52.999Z</time></trkpt><trkpt lat="45.609105594798216" lon="10.804300649445816"><ele>288.0</ele><time>2026-04-21T15:03:58.999Z</time></trkpt><trkpt lat="45.60915528161999" lon="10.804361452332973"><ele>288.0</ele><time>2026-04-21T15:04:04.999Z</time></trkpt><trkpt lat="45.60920810703843" lon="10.804427704092106"><ele>288.0</ele><time>2026-04-21T15:04:10.999Z</time></trkpt><trkpt lat="45.60925305422334" lon="10.80449468320531"><ele>288.00000000000006</ele><time>2026-04-21T15:04:16.999Z</time></trkpt><trkpt lat="45.60930785380316" lon="10.804549764934148"><ele>288.0</ele><time>2026-04-21T15:04:22.999Z</time></trkpt><trkpt lat="45.609348339172335" lon="10.804619801854193"><ele>287.8571428571429</ele><time>2026-04-21T15:04:27.999Z</time></trkpt><trkpt lat="45.60942141817615" lon="10.804605708165367"><ele>287.7142857142857</ele><time>2026-04-21T15:04:34.998Z</time></trkpt><trkpt lat="45.60948698344559" lon="10.804570866612616"><ele>287.57142857142856</ele><time>2026-04-21T15:04:39.998Z</time></trkpt><trkpt lat="45.60954587350689" lon="10.804508042237282"><ele>287.42857142857144</ele><time>2026-04-21T15:04:45.998Z</time></trkpt><trkpt lat="45.60960696414388" lon="10.804458178778338"><ele>287.2857142857143</ele><time>2026-04-21T15:04:50.998Z</time></trkpt><trkpt lat="45.60967108617855" lon="10.804414645064242"><ele>287.14285714285717</ele><time>2026-04-21T15:04:55.998Z</time></trkpt><trkpt lat="45.609721292625956" lon="10.804356786969738"><ele>287.0</ele><time>2026-04-21T15:05:00.998Z</time></trkpt><trkpt lat="45.609775820866005" lon="10.804307748014347"><ele>287.57142857142856</ele><time>2026-04-21T15:05:05.998Z</time></trkpt><trkpt lat="45.60983743959687" lon="10.804255596379871"><ele>288.1428571428571</ele><time>2026-04-21T15:05:11.998Z</time></trkpt><trkpt lat="45.60989455512089" lon="10.804203439494154"><ele>288.7142857142857</ele><time>2026-04-21T15:05:18Z</time></trkpt><trkpt lat="45.60995169886557" lon="10.804149709058786"><ele>289.2857142857143</ele><time>2026-04-21T15:05:24Z</time></trkpt><trkpt lat="45.6100088885253" lon="10.80408567191736"><ele>289.85714285714283</ele><time>2026-04-21T15:05:31Z</time></trkpt><trkpt lat="45.61007247338027" lon="10.80404294126472"><ele>290.42857142857144</ele><time>2026-04-21T15:05:37.999Z</time></trkpt><trkpt lat="45.61012579008607" lon="10.803988494155414"><ele>291.0</ele><time>2026-04-21T15:05:43.999Z</time></trkpt><trkpt lat="45.61018756894715" lon="10.803937938148689"><ele>291.0</ele><time>2026-04-21T15:05:49.999Z</time></trkpt><trkpt lat="45.610243095806034" lon="10.803883193857153"><ele>291.0</ele><time>2026-04-21T15:05:55.999Z</time></trkpt><trkpt lat="45.61030711896908" lon="10.803828316617432"><ele>291.0</ele><time>2026-04-21T15:06:02.999Z</time></trkpt><trkpt lat="45.61035751255881" lon="10.803764960238613"><ele>291.0</ele><time>2026-04-21T15:06:09.999Z</time></trkpt><trkpt lat="45.610420459925436" lon="10.803715119462321"><ele>291.0</ele><time>2026-04-21T15:06:16.999Z</time></trkpt><trkpt lat="45.610475932681496" lon="10.803648240527039"><ele>291.0</ele><time>2026-04-21T15:06:22.999Z</time></trkpt><trkpt lat="45.61052469486086" lon="10.80358033595611"><ele>291.0</ele><time>2026-04-21T15:06:28.999Z</time></trkpt><trkpt lat="45.61058114845506" lon="10.803525204882499"><ele>297.0</ele><time>2026-04-21T15:06:35.998Z</time></trkpt><trkpt lat="45.61063526336085" lon="10.803448492554757"><ele>300.0</ele><time>2026-04-21T15:06:43.998Z</time></trkpt><trkpt lat="45.61070237147315" lon="10.803328839188984"><ele>300.0</ele><time>2026-04-21T15:06:50.998Z</time></trkpt><trkpt lat="45.61075312219279" lon="10.803272596106734"><ele>300.0</ele><time>2026-04-21T15:07:00.998Z</time></trkpt></trkseg></trk></gpx>